<?xml version="1.0" encoding="UTF-8" standalone="no" ?>
<gpx xmlns="http://www.topografix.com/GPX/1/1" xmlns:xsi="http://www.w3.org/2001/XMLSchema-instance" xsi:schemaLocation="http://www.topografix.com/GPX/1/1 http://www.topografix.com/GPX/1/1/gpx.xsd" version="1.1" creator="VisuGPX - https://www.visugpx.com">
  <metadata>
    <name>Le Frasnois-Menétrux en Joux</name>
  </metadata>
  <trk>
    <name><![CDATA[T2022-12-06-14-18]]></name>
    <extensions>
      <line xmlns="http://www.topografix.com/GPX/gpx_style/0/2">
        <color>0000FF</color>
        <width>4</width>
      </line>
    </extensions>
    <trkseg>
      <trkpt lat="46.63449" lon="5.89717">
        <ele>790.3</ele>
        <time>2022-12-06T07:56:40Z</time>
      </trkpt>
      <trkpt lat="46.63444" lon="5.89714">
        <ele>789.9</ele>
        <time>2022-12-06T07:56:46Z</time>
      </trkpt>
      <trkpt lat="46.63441" lon="5.89709">
        <ele>789.6</ele>
        <time>2022-12-06T07:56:51Z</time>
      </trkpt>
      <trkpt lat="46.63437" lon="5.89705">
        <ele>789.7</ele>
        <time>2022-12-06T07:56:55Z</time>
      </trkpt>
      <trkpt lat="46.63435" lon="5.89698">
        <ele>788.7</ele>
        <time>2022-12-06T07:57:00Z</time>
      </trkpt>
      <trkpt lat="46.63432" lon="5.89692">
        <ele>787.6</ele>
        <time>2022-12-06T07:57:04Z</time>
      </trkpt>
      <trkpt lat="46.63429" lon="5.89686">
        <ele>786.8</ele>
        <time>2022-12-06T07:57:08Z</time>
      </trkpt>
      <trkpt lat="46.63425" lon="5.8968">
        <ele>786.3</ele>
        <time>2022-12-06T07:57:12Z</time>
      </trkpt>
      <trkpt lat="46.63422" lon="5.89673">
        <ele>786.1</ele>
        <time>2022-12-06T07:57:16Z</time>
      </trkpt>
      <trkpt lat="46.63418" lon="5.89667">
        <ele>785.4</ele>
        <time>2022-12-06T07:57:20Z</time>
      </trkpt>
      <trkpt lat="46.63415" lon="5.8966">
        <ele>783.3</ele>
        <time>2022-12-06T07:57:26Z</time>
      </trkpt>
      <trkpt lat="46.63412" lon="5.89654">
        <ele>782.8</ele>
        <time>2022-12-06T07:57:30Z</time>
      </trkpt>
      <trkpt lat="46.63409" lon="5.89649">
        <ele>782</ele>
        <time>2022-12-06T07:57:36Z</time>
      </trkpt>
      <trkpt lat="46.63407" lon="5.89642">
        <ele>781.1</ele>
        <time>2022-12-06T07:57:40Z</time>
      </trkpt>
      <trkpt lat="46.63405" lon="5.89635">
        <ele>780.2</ele>
        <time>2022-12-06T07:57:45Z</time>
      </trkpt>
      <trkpt lat="46.63403" lon="5.89628">
        <ele>778.7</ele>
        <time>2022-12-06T07:57:51Z</time>
      </trkpt>
      <trkpt lat="46.63403" lon="5.89621">
        <ele>777.9</ele>
        <time>2022-12-06T07:57:56Z</time>
      </trkpt>
      <trkpt lat="46.63402" lon="5.89614">
        <ele>777.6</ele>
        <time>2022-12-06T07:58:00Z</time>
      </trkpt>
      <trkpt lat="46.63401" lon="5.89608">
        <ele>777.7</ele>
        <time>2022-12-06T07:58:06Z</time>
      </trkpt>
      <trkpt lat="46.63401" lon="5.896">
        <ele>776.3</ele>
        <time>2022-12-06T07:58:15Z</time>
      </trkpt>
      <trkpt lat="46.63401" lon="5.89593">
        <ele>775.4</ele>
        <time>2022-12-06T07:58:19Z</time>
      </trkpt>
      <trkpt lat="46.63401" lon="5.89586">
        <ele>774.8</ele>
        <time>2022-12-06T07:58:23Z</time>
      </trkpt>
      <trkpt lat="46.63402" lon="5.89578">
        <ele>774.4</ele>
        <time>2022-12-06T07:58:27Z</time>
      </trkpt>
      <trkpt lat="46.63402" lon="5.8957">
        <ele>773.9</ele>
        <time>2022-12-06T07:58:32Z</time>
      </trkpt>
      <trkpt lat="46.63403" lon="5.89563">
        <ele>773.7</ele>
        <time>2022-12-06T07:58:36Z</time>
      </trkpt>
      <trkpt lat="46.63405" lon="5.89556">
        <ele>773.9</ele>
        <time>2022-12-06T07:58:40Z</time>
      </trkpt>
      <trkpt lat="46.63406" lon="5.8955">
        <ele>773.8</ele>
        <time>2022-12-06T07:58:45Z</time>
      </trkpt>
      <trkpt lat="46.63406" lon="5.89543">
        <ele>773.2</ele>
        <time>2022-12-06T07:58:51Z</time>
      </trkpt>
      <trkpt lat="46.63407" lon="5.89535">
        <ele>773.5</ele>
        <time>2022-12-06T07:58:56Z</time>
      </trkpt>
      <trkpt lat="46.63409" lon="5.89528">
        <ele>774</ele>
        <time>2022-12-06T07:59:02Z</time>
      </trkpt>
      <trkpt lat="46.6341" lon="5.8952">
        <ele>774.2</ele>
        <time>2022-12-06T07:59:08Z</time>
      </trkpt>
      <trkpt lat="46.63411" lon="5.89513">
        <ele>775.4</ele>
        <time>2022-12-06T07:59:12Z</time>
      </trkpt>
      <trkpt lat="46.63411" lon="5.89505">
        <ele>776.6</ele>
        <time>2022-12-06T07:59:18Z</time>
      </trkpt>
      <trkpt lat="46.63411" lon="5.89499">
        <ele>777.1</ele>
        <time>2022-12-06T07:59:22Z</time>
      </trkpt>
      <trkpt lat="46.6341" lon="5.89492">
        <ele>776.5</ele>
        <time>2022-12-06T07:59:29Z</time>
      </trkpt>
      <trkpt lat="46.63407" lon="5.89486">
        <ele>775.3</ele>
        <time>2022-12-06T07:59:35Z</time>
      </trkpt>
      <trkpt lat="46.63404" lon="5.89479">
        <ele>773.2</ele>
        <time>2022-12-06T07:59:41Z</time>
      </trkpt>
      <trkpt lat="46.63403" lon="5.89473">
        <ele>771.8</ele>
        <time>2022-12-06T07:59:46Z</time>
      </trkpt>
      <trkpt lat="46.63401" lon="5.89466">
        <ele>770.8</ele>
        <time>2022-12-06T07:59:51Z</time>
      </trkpt>
      <trkpt lat="46.63398" lon="5.8946">
        <ele>770.6</ele>
        <time>2022-12-06T07:59:56Z</time>
      </trkpt>
      <trkpt lat="46.63396" lon="5.89453">
        <ele>770.3</ele>
        <time>2022-12-06T08:00:01Z</time>
      </trkpt>
      <trkpt lat="46.63394" lon="5.89446">
        <ele>770.6</ele>
        <time>2022-12-06T08:00:08Z</time>
      </trkpt>
      <trkpt lat="46.63392" lon="5.89439">
        <ele>770.6</ele>
        <time>2022-12-06T08:00:13Z</time>
      </trkpt>
      <trkpt lat="46.6339" lon="5.89433">
        <ele>770.9</ele>
        <time>2022-12-06T08:00:17Z</time>
      </trkpt>
      <trkpt lat="46.63387" lon="5.89427">
        <ele>770.8</ele>
        <time>2022-12-06T08:00:21Z</time>
      </trkpt>
      <trkpt lat="46.63386" lon="5.8942">
        <ele>770.5</ele>
        <time>2022-12-06T08:00:26Z</time>
      </trkpt>
      <trkpt lat="46.63384" lon="5.89413">
        <ele>769.8</ele>
        <time>2022-12-06T08:00:31Z</time>
      </trkpt>
      <trkpt lat="46.63381" lon="5.89407">
        <ele>769.2</ele>
        <time>2022-12-06T08:00:36Z</time>
      </trkpt>
      <trkpt lat="46.63379" lon="5.89401">
        <ele>769</ele>
        <time>2022-12-06T08:00:41Z</time>
      </trkpt>
      <trkpt lat="46.63376" lon="5.89396">
        <ele>769</ele>
        <time>2022-12-06T08:00:46Z</time>
      </trkpt>
      <trkpt lat="46.63374" lon="5.89389">
        <ele>769.6</ele>
        <time>2022-12-06T08:00:51Z</time>
      </trkpt>
      <trkpt lat="46.63372" lon="5.89382">
        <ele>770.1</ele>
        <time>2022-12-06T08:00:56Z</time>
      </trkpt>
      <trkpt lat="46.6337" lon="5.89376">
        <ele>770.5</ele>
        <time>2022-12-06T08:01:00Z</time>
      </trkpt>
      <trkpt lat="46.63368" lon="5.89369">
        <ele>770.2</ele>
        <time>2022-12-06T08:01:05Z</time>
      </trkpt>
      <trkpt lat="46.63366" lon="5.89362">
        <ele>770.6</ele>
        <time>2022-12-06T08:01:10Z</time>
      </trkpt>
      <trkpt lat="46.63365" lon="5.89356">
        <ele>771.2</ele>
        <time>2022-12-06T08:01:15Z</time>
      </trkpt>
      <trkpt lat="46.63362" lon="5.89349">
        <ele>771.5</ele>
        <time>2022-12-06T08:01:20Z</time>
      </trkpt>
      <trkpt lat="46.6336" lon="5.89343">
        <ele>771.2</ele>
        <time>2022-12-06T08:01:24Z</time>
      </trkpt>
      <trkpt lat="46.63358" lon="5.89336">
        <ele>770.9</ele>
        <time>2022-12-06T08:01:29Z</time>
      </trkpt>
      <trkpt lat="46.63357" lon="5.89329">
        <ele>771.5</ele>
        <time>2022-12-06T08:01:34Z</time>
      </trkpt>
      <trkpt lat="46.63358" lon="5.89322">
        <ele>772.7</ele>
        <time>2022-12-06T08:01:40Z</time>
      </trkpt>
      <trkpt lat="46.6336" lon="5.89315">
        <ele>773.7</ele>
        <time>2022-12-06T08:01:47Z</time>
      </trkpt>
      <trkpt lat="46.63363" lon="5.89309">
        <ele>774</ele>
        <time>2022-12-06T08:01:54Z</time>
      </trkpt>
      <trkpt lat="46.63366" lon="5.89303">
        <ele>773.9</ele>
        <time>2022-12-06T08:01:59Z</time>
      </trkpt>
      <trkpt lat="46.6337" lon="5.89299">
        <ele>773.7</ele>
        <time>2022-12-06T08:02:04Z</time>
      </trkpt>
      <trkpt lat="46.63373" lon="5.89294">
        <ele>773.5</ele>
        <time>2022-12-06T08:02:09Z</time>
      </trkpt>
      <trkpt lat="46.63377" lon="5.89289">
        <ele>773.1</ele>
        <time>2022-12-06T08:02:14Z</time>
      </trkpt>
      <trkpt lat="46.63381" lon="5.89285">
        <ele>772.4</ele>
        <time>2022-12-06T08:02:19Z</time>
      </trkpt>
      <trkpt lat="46.63385" lon="5.89282">
        <ele>771.8</ele>
        <time>2022-12-06T08:02:24Z</time>
      </trkpt>
      <trkpt lat="46.63389" lon="5.89278">
        <ele>771.2</ele>
        <time>2022-12-06T08:02:29Z</time>
      </trkpt>
      <trkpt lat="46.63393" lon="5.89273">
        <ele>771.7</ele>
        <time>2022-12-06T08:02:34Z</time>
      </trkpt>
      <trkpt lat="46.63397" lon="5.89268">
        <ele>772</ele>
        <time>2022-12-06T08:02:38Z</time>
      </trkpt>
      <trkpt lat="46.634" lon="5.89264">
        <ele>771.9</ele>
        <time>2022-12-06T08:02:42Z</time>
      </trkpt>
      <trkpt lat="46.63403" lon="5.89258">
        <ele>772.1</ele>
        <time>2022-12-06T08:02:47Z</time>
      </trkpt>
      <trkpt lat="46.63406" lon="5.89252">
        <ele>772.3</ele>
        <time>2022-12-06T08:02:52Z</time>
      </trkpt>
      <trkpt lat="46.6341" lon="5.89246">
        <ele>772.6</ele>
        <time>2022-12-06T08:02:57Z</time>
      </trkpt>
      <trkpt lat="46.63413" lon="5.89241">
        <ele>773.1</ele>
        <time>2022-12-06T08:03:01Z</time>
      </trkpt>
      <trkpt lat="46.63416" lon="5.89235">
        <ele>773.8</ele>
        <time>2022-12-06T08:03:06Z</time>
      </trkpt>
      <trkpt lat="46.63419" lon="5.89229">
        <ele>774.5</ele>
        <time>2022-12-06T08:03:11Z</time>
      </trkpt>
      <trkpt lat="46.63421" lon="5.89222">
        <ele>775.1</ele>
        <time>2022-12-06T08:03:16Z</time>
      </trkpt>
      <trkpt lat="46.63424" lon="5.89216">
        <ele>775.5</ele>
        <time>2022-12-06T08:03:21Z</time>
      </trkpt>
      <trkpt lat="46.63425" lon="5.8921">
        <ele>775.7</ele>
        <time>2022-12-06T08:03:26Z</time>
      </trkpt>
      <trkpt lat="46.63427" lon="5.89203">
        <ele>775.2</ele>
        <time>2022-12-06T08:03:31Z</time>
      </trkpt>
      <trkpt lat="46.63429" lon="5.89196">
        <ele>775</ele>
        <time>2022-12-06T08:03:36Z</time>
      </trkpt>
      <trkpt lat="46.63431" lon="5.89189">
        <ele>774.5</ele>
        <time>2022-12-06T08:03:42Z</time>
      </trkpt>
      <trkpt lat="46.63432" lon="5.89181">
        <ele>773.9</ele>
        <time>2022-12-06T08:03:47Z</time>
      </trkpt>
      <trkpt lat="46.63433" lon="5.89175">
        <ele>774</ele>
        <time>2022-12-06T08:03:51Z</time>
      </trkpt>
      <trkpt lat="46.63435" lon="5.89168">
        <ele>774.4</ele>
        <time>2022-12-06T08:03:56Z</time>
      </trkpt>
      <trkpt lat="46.63436" lon="5.89161">
        <ele>774.8</ele>
        <time>2022-12-06T08:04:01Z</time>
      </trkpt>
      <trkpt lat="46.63437" lon="5.89154">
        <ele>775.6</ele>
        <time>2022-12-06T08:04:06Z</time>
      </trkpt>
      <trkpt lat="46.63438" lon="5.89147">
        <ele>775.9</ele>
        <time>2022-12-06T08:04:11Z</time>
      </trkpt>
      <trkpt lat="46.63439" lon="5.8914">
        <ele>775.8</ele>
        <time>2022-12-06T08:04:15Z</time>
      </trkpt>
      <trkpt lat="46.63439" lon="5.89133">
        <ele>775.5</ele>
        <time>2022-12-06T08:04:20Z</time>
      </trkpt>
      <trkpt lat="46.6344" lon="5.89126">
        <ele>775.5</ele>
        <time>2022-12-06T08:04:25Z</time>
      </trkpt>
      <trkpt lat="46.63441" lon="5.89119">
        <ele>776.3</ele>
        <time>2022-12-06T08:04:30Z</time>
      </trkpt>
      <trkpt lat="46.63442" lon="5.89112">
        <ele>777.1</ele>
        <time>2022-12-06T08:04:35Z</time>
      </trkpt>
      <trkpt lat="46.63443" lon="5.89105">
        <ele>777.2</ele>
        <time>2022-12-06T08:04:40Z</time>
      </trkpt>
      <trkpt lat="46.63443" lon="5.89098">
        <ele>777.5</ele>
        <time>2022-12-06T08:04:44Z</time>
      </trkpt>
      <trkpt lat="46.63444" lon="5.89091">
        <ele>778</ele>
        <time>2022-12-06T08:04:49Z</time>
      </trkpt>
      <trkpt lat="46.63446" lon="5.89083">
        <ele>778.2</ele>
        <time>2022-12-06T08:04:54Z</time>
      </trkpt>
      <trkpt lat="46.63447" lon="5.89076">
        <ele>778.6</ele>
        <time>2022-12-06T08:04:58Z</time>
      </trkpt>
      <trkpt lat="46.63447" lon="5.8907">
        <ele>779.2</ele>
        <time>2022-12-06T08:05:02Z</time>
      </trkpt>
      <trkpt lat="46.63448" lon="5.89062">
        <ele>779.4</ele>
        <time>2022-12-06T08:05:08Z</time>
      </trkpt>
      <trkpt lat="46.63448" lon="5.89056">
        <ele>778.9</ele>
        <time>2022-12-06T08:05:12Z</time>
      </trkpt>
      <trkpt lat="46.63449" lon="5.89048">
        <ele>778.1</ele>
        <time>2022-12-06T08:05:17Z</time>
      </trkpt>
      <trkpt lat="46.63449" lon="5.89041">
        <ele>778</ele>
        <time>2022-12-06T08:05:21Z</time>
      </trkpt>
      <trkpt lat="46.6345" lon="5.89033">
        <ele>777.6</ele>
        <time>2022-12-06T08:05:26Z</time>
      </trkpt>
      <trkpt lat="46.6345" lon="5.89027">
        <ele>777.1</ele>
        <time>2022-12-06T08:05:31Z</time>
      </trkpt>
      <trkpt lat="46.63451" lon="5.89019">
        <ele>777.1</ele>
        <time>2022-12-06T08:05:36Z</time>
      </trkpt>
      <trkpt lat="46.63452" lon="5.89012">
        <ele>777.8</ele>
        <time>2022-12-06T08:05:41Z</time>
      </trkpt>
      <trkpt lat="46.63453" lon="5.89005">
        <ele>778.9</ele>
        <time>2022-12-06T08:05:46Z</time>
      </trkpt>
      <trkpt lat="46.63453" lon="5.88999">
        <ele>779.4</ele>
        <time>2022-12-06T08:05:51Z</time>
      </trkpt>
      <trkpt lat="46.63454" lon="5.88992">
        <ele>779.7</ele>
        <time>2022-12-06T08:05:56Z</time>
      </trkpt>
      <trkpt lat="46.63454" lon="5.88985">
        <ele>779.8</ele>
        <time>2022-12-06T08:06:01Z</time>
      </trkpt>
      <trkpt lat="46.63455" lon="5.88978">
        <ele>780</ele>
        <time>2022-12-06T08:06:05Z</time>
      </trkpt>
      <trkpt lat="46.63456" lon="5.8897">
        <ele>780.4</ele>
        <time>2022-12-06T08:06:10Z</time>
      </trkpt>
      <trkpt lat="46.63457" lon="5.88964">
        <ele>781.6</ele>
        <time>2022-12-06T08:06:16Z</time>
      </trkpt>
      <trkpt lat="46.63458" lon="5.88957">
        <ele>782</ele>
        <time>2022-12-06T08:06:21Z</time>
      </trkpt>
      <trkpt lat="46.63459" lon="5.88949">
        <ele>781.9</ele>
        <time>2022-12-06T08:06:26Z</time>
      </trkpt>
      <trkpt lat="46.6346" lon="5.88941">
        <ele>782</ele>
        <time>2022-12-06T08:06:31Z</time>
      </trkpt>
      <trkpt lat="46.63461" lon="5.88933">
        <ele>782.5</ele>
        <time>2022-12-06T08:06:36Z</time>
      </trkpt>
      <trkpt lat="46.63461" lon="5.88925">
        <ele>783.3</ele>
        <time>2022-12-06T08:06:41Z</time>
      </trkpt>
      <trkpt lat="46.63462" lon="5.88918">
        <ele>784.1</ele>
        <time>2022-12-06T08:06:45Z</time>
      </trkpt>
      <trkpt lat="46.63462" lon="5.88911">
        <ele>784.7</ele>
        <time>2022-12-06T08:06:49Z</time>
      </trkpt>
      <trkpt lat="46.63463" lon="5.88904">
        <ele>785.4</ele>
        <time>2022-12-06T08:06:53Z</time>
      </trkpt>
      <trkpt lat="46.63464" lon="5.88897">
        <ele>785.8</ele>
        <time>2022-12-06T08:06:58Z</time>
      </trkpt>
      <trkpt lat="46.63465" lon="5.88889">
        <ele>785.9</ele>
        <time>2022-12-06T08:07:04Z</time>
      </trkpt>
      <trkpt lat="46.63466" lon="5.88882">
        <ele>786.2</ele>
        <time>2022-12-06T08:07:09Z</time>
      </trkpt>
      <trkpt lat="46.63469" lon="5.88875">
        <ele>785.5</ele>
        <time>2022-12-06T08:07:15Z</time>
      </trkpt>
      <trkpt lat="46.6347" lon="5.88868">
        <ele>784.7</ele>
        <time>2022-12-06T08:07:20Z</time>
      </trkpt>
      <trkpt lat="46.63471" lon="5.88861">
        <ele>784.6</ele>
        <time>2022-12-06T08:07:24Z</time>
      </trkpt>
      <trkpt lat="46.63473" lon="5.88855">
        <ele>784.8</ele>
        <time>2022-12-06T08:07:29Z</time>
      </trkpt>
      <trkpt lat="46.63475" lon="5.88849">
        <ele>784.9</ele>
        <time>2022-12-06T08:07:33Z</time>
      </trkpt>
      <trkpt lat="46.63477" lon="5.88842">
        <ele>785</ele>
        <time>2022-12-06T08:07:37Z</time>
      </trkpt>
      <trkpt lat="46.63479" lon="5.88836">
        <ele>784.9</ele>
        <time>2022-12-06T08:07:42Z</time>
      </trkpt>
      <trkpt lat="46.63481" lon="5.88829">
        <ele>785.1</ele>
        <time>2022-12-06T08:07:47Z</time>
      </trkpt>
      <trkpt lat="46.63483" lon="5.88823">
        <ele>785.4</ele>
        <time>2022-12-06T08:07:52Z</time>
      </trkpt>
      <trkpt lat="46.63486" lon="5.88817">
        <ele>785.2</ele>
        <time>2022-12-06T08:07:57Z</time>
      </trkpt>
      <trkpt lat="46.63487" lon="5.88809">
        <ele>785.1</ele>
        <time>2022-12-06T08:08:02Z</time>
      </trkpt>
      <trkpt lat="46.63488" lon="5.88802">
        <ele>785.3</ele>
        <time>2022-12-06T08:08:07Z</time>
      </trkpt>
      <trkpt lat="46.6349" lon="5.88795">
        <ele>785.1</ele>
        <time>2022-12-06T08:08:11Z</time>
      </trkpt>
      <trkpt lat="46.63491" lon="5.88789">
        <ele>784.7</ele>
        <time>2022-12-06T08:08:16Z</time>
      </trkpt>
      <trkpt lat="46.63492" lon="5.88782">
        <ele>784.3</ele>
        <time>2022-12-06T08:08:21Z</time>
      </trkpt>
      <trkpt lat="46.63493" lon="5.88775">
        <ele>784</ele>
        <time>2022-12-06T08:08:26Z</time>
      </trkpt>
      <trkpt lat="46.63496" lon="5.8877">
        <ele>783.5</ele>
        <time>2022-12-06T08:08:30Z</time>
      </trkpt>
      <trkpt lat="46.63497" lon="5.88763">
        <ele>783.2</ele>
        <time>2022-12-06T08:08:35Z</time>
      </trkpt>
      <trkpt lat="46.63499" lon="5.88756">
        <ele>783.2</ele>
        <time>2022-12-06T08:08:39Z</time>
      </trkpt>
      <trkpt lat="46.635" lon="5.88749">
        <ele>783.8</ele>
        <time>2022-12-06T08:08:43Z</time>
      </trkpt>
      <trkpt lat="46.63502" lon="5.88742">
        <ele>785.1</ele>
        <time>2022-12-06T08:08:48Z</time>
      </trkpt>
      <trkpt lat="46.63505" lon="5.88736">
        <ele>786.4</ele>
        <time>2022-12-06T08:08:53Z</time>
      </trkpt>
      <trkpt lat="46.63508" lon="5.8873">
        <ele>787.1</ele>
        <time>2022-12-06T08:08:58Z</time>
      </trkpt>
      <trkpt lat="46.6351" lon="5.88724">
        <ele>787.3</ele>
        <time>2022-12-06T08:09:02Z</time>
      </trkpt>
      <trkpt lat="46.63512" lon="5.88718">
        <ele>787.1</ele>
        <time>2022-12-06T08:09:07Z</time>
      </trkpt>
      <trkpt lat="46.63514" lon="5.8871">
        <ele>787.3</ele>
        <time>2022-12-06T08:09:12Z</time>
      </trkpt>
      <trkpt lat="46.63516" lon="5.88704">
        <ele>787.7</ele>
        <time>2022-12-06T08:09:17Z</time>
      </trkpt>
      <trkpt lat="46.63517" lon="5.88696">
        <ele>787.2</ele>
        <time>2022-12-06T08:09:22Z</time>
      </trkpt>
      <trkpt lat="46.63519" lon="5.88689">
        <ele>787</ele>
        <time>2022-12-06T08:09:26Z</time>
      </trkpt>
      <trkpt lat="46.6352" lon="5.88681">
        <ele>787.3</ele>
        <time>2022-12-06T08:09:31Z</time>
      </trkpt>
      <trkpt lat="46.63522" lon="5.88674">
        <ele>787.6</ele>
        <time>2022-12-06T08:09:36Z</time>
      </trkpt>
      <trkpt lat="46.63525" lon="5.88668">
        <ele>787.8</ele>
        <time>2022-12-06T08:09:41Z</time>
      </trkpt>
      <trkpt lat="46.63527" lon="5.88662">
        <ele>787.7</ele>
        <time>2022-12-06T08:09:46Z</time>
      </trkpt>
      <trkpt lat="46.63529" lon="5.88656">
        <ele>787.5</ele>
        <time>2022-12-06T08:09:50Z</time>
      </trkpt>
      <trkpt lat="46.63533" lon="5.88652">
        <ele>787.5</ele>
        <time>2022-12-06T08:09:55Z</time>
      </trkpt>
      <trkpt lat="46.63537" lon="5.88647">
        <ele>786.7</ele>
        <time>2022-12-06T08:10:00Z</time>
      </trkpt>
      <trkpt lat="46.63541" lon="5.88642">
        <ele>786.1</ele>
        <time>2022-12-06T08:10:04Z</time>
      </trkpt>
      <trkpt lat="46.63545" lon="5.88638">
        <ele>786.1</ele>
        <time>2022-12-06T08:10:09Z</time>
      </trkpt>
      <trkpt lat="46.6355" lon="5.88635">
        <ele>787</ele>
        <time>2022-12-06T08:10:14Z</time>
      </trkpt>
      <trkpt lat="46.63555" lon="5.88634">
        <ele>787.5</ele>
        <time>2022-12-06T08:10:18Z</time>
      </trkpt>
      <trkpt lat="46.6356" lon="5.88633">
        <ele>787.4</ele>
        <time>2022-12-06T08:10:23Z</time>
      </trkpt>
      <trkpt lat="46.63565" lon="5.8863">
        <ele>787</ele>
        <time>2022-12-06T08:10:29Z</time>
      </trkpt>
      <trkpt lat="46.6357" lon="5.88626">
        <ele>786.8</ele>
        <time>2022-12-06T08:10:34Z</time>
      </trkpt>
      <trkpt lat="46.63574" lon="5.88624">
        <ele>786.7</ele>
        <time>2022-12-06T08:10:38Z</time>
      </trkpt>
      <trkpt lat="46.63579" lon="5.88623">
        <ele>786.6</ele>
        <time>2022-12-06T08:10:43Z</time>
      </trkpt>
      <trkpt lat="46.63583" lon="5.88621">
        <ele>786.5</ele>
        <time>2022-12-06T08:10:47Z</time>
      </trkpt>
      <trkpt lat="46.63588" lon="5.88618">
        <ele>786.8</ele>
        <time>2022-12-06T08:10:51Z</time>
      </trkpt>
      <trkpt lat="46.63592" lon="5.88616">
        <ele>787.1</ele>
        <time>2022-12-06T08:10:55Z</time>
      </trkpt>
      <trkpt lat="46.63597" lon="5.88613">
        <ele>787.1</ele>
        <time>2022-12-06T08:11:00Z</time>
      </trkpt>
      <trkpt lat="46.63602" lon="5.8861">
        <ele>786.7</ele>
        <time>2022-12-06T08:11:05Z</time>
      </trkpt>
      <trkpt lat="46.63607" lon="5.88607">
        <ele>785.6</ele>
        <time>2022-12-06T08:11:10Z</time>
      </trkpt>
      <trkpt lat="46.63611" lon="5.88604">
        <ele>784.6</ele>
        <time>2022-12-06T08:11:14Z</time>
      </trkpt>
      <trkpt lat="46.63616" lon="5.88601">
        <ele>784.5</ele>
        <time>2022-12-06T08:11:19Z</time>
      </trkpt>
      <trkpt lat="46.6362" lon="5.88597">
        <ele>784.7</ele>
        <time>2022-12-06T08:11:23Z</time>
      </trkpt>
      <trkpt lat="46.63625" lon="5.88595">
        <ele>785.4</ele>
        <time>2022-12-06T08:11:28Z</time>
      </trkpt>
      <trkpt lat="46.6363" lon="5.88593">
        <ele>785.6</ele>
        <time>2022-12-06T08:11:34Z</time>
      </trkpt>
      <trkpt lat="46.63635" lon="5.88591">
        <ele>785.3</ele>
        <time>2022-12-06T08:11:39Z</time>
      </trkpt>
      <trkpt lat="46.63639" lon="5.88587">
        <ele>784.9</ele>
        <time>2022-12-06T08:11:44Z</time>
      </trkpt>
      <trkpt lat="46.63644" lon="5.88584">
        <ele>784.9</ele>
        <time>2022-12-06T08:11:48Z</time>
      </trkpt>
      <trkpt lat="46.63649" lon="5.88582">
        <ele>785.4</ele>
        <time>2022-12-06T08:11:53Z</time>
      </trkpt>
      <trkpt lat="46.63654" lon="5.88579">
        <ele>786</ele>
        <time>2022-12-06T08:11:58Z</time>
      </trkpt>
      <trkpt lat="46.63658" lon="5.88575">
        <ele>786.1</ele>
        <time>2022-12-06T08:12:02Z</time>
      </trkpt>
      <trkpt lat="46.63662" lon="5.88571">
        <ele>786.1</ele>
        <time>2022-12-06T08:12:06Z</time>
      </trkpt>
      <trkpt lat="46.63666" lon="5.88566">
        <ele>786.4</ele>
        <time>2022-12-06T08:12:11Z</time>
      </trkpt>
      <trkpt lat="46.6367" lon="5.88562">
        <ele>786.6</ele>
        <time>2022-12-06T08:12:16Z</time>
      </trkpt>
      <trkpt lat="46.63674" lon="5.88558">
        <ele>786.6</ele>
        <time>2022-12-06T08:12:21Z</time>
      </trkpt>
      <trkpt lat="46.63678" lon="5.88555">
        <ele>786</ele>
        <time>2022-12-06T08:12:26Z</time>
      </trkpt>
      <trkpt lat="46.63682" lon="5.88551">
        <ele>785.5</ele>
        <time>2022-12-06T08:12:31Z</time>
      </trkpt>
      <trkpt lat="46.63687" lon="5.88548">
        <ele>785.2</ele>
        <time>2022-12-06T08:12:36Z</time>
      </trkpt>
      <trkpt lat="46.63691" lon="5.88544">
        <ele>785.2</ele>
        <time>2022-12-06T08:12:41Z</time>
      </trkpt>
      <trkpt lat="46.63695" lon="5.8854">
        <ele>786.3</ele>
        <time>2022-12-06T08:12:46Z</time>
      </trkpt>
      <trkpt lat="46.637" lon="5.88538">
        <ele>787.1</ele>
        <time>2022-12-06T08:12:50Z</time>
      </trkpt>
      <trkpt lat="46.63705" lon="5.88536">
        <ele>786.7</ele>
        <time>2022-12-06T08:12:56Z</time>
      </trkpt>
      <trkpt lat="46.6371" lon="5.88533">
        <ele>785.6</ele>
        <time>2022-12-06T08:13:01Z</time>
      </trkpt>
      <trkpt lat="46.63714" lon="5.88529">
        <ele>785.2</ele>
        <time>2022-12-06T08:13:06Z</time>
      </trkpt>
      <trkpt lat="46.63719" lon="5.88525">
        <ele>785.6</ele>
        <time>2022-12-06T08:13:12Z</time>
      </trkpt>
      <trkpt lat="46.63723" lon="5.88522">
        <ele>786.4</ele>
        <time>2022-12-06T08:13:17Z</time>
      </trkpt>
      <trkpt lat="46.63727" lon="5.88517">
        <ele>786.7</ele>
        <time>2022-12-06T08:13:22Z</time>
      </trkpt>
      <trkpt lat="46.63732" lon="5.88514">
        <ele>786</ele>
        <time>2022-12-06T08:13:28Z</time>
      </trkpt>
      <trkpt lat="46.63737" lon="5.88513">
        <ele>785.3</ele>
        <time>2022-12-06T08:13:32Z</time>
      </trkpt>
      <trkpt lat="46.63742" lon="5.88511">
        <ele>784.2</ele>
        <time>2022-12-06T08:13:37Z</time>
      </trkpt>
      <trkpt lat="46.63746" lon="5.88507">
        <ele>783.3</ele>
        <time>2022-12-06T08:13:42Z</time>
      </trkpt>
      <trkpt lat="46.63748" lon="5.88501">
        <ele>782.6</ele>
        <time>2022-12-06T08:13:48Z</time>
      </trkpt>
      <trkpt lat="46.63749" lon="5.88494">
        <ele>782.4</ele>
        <time>2022-12-06T08:13:53Z</time>
      </trkpt>
      <trkpt lat="46.63747" lon="5.88487">
        <ele>782.4</ele>
        <time>2022-12-06T08:13:57Z</time>
      </trkpt>
      <trkpt lat="46.63745" lon="5.88482">
        <ele>781.8</ele>
        <time>2022-12-06T08:14:02Z</time>
      </trkpt>
      <trkpt lat="46.63742" lon="5.88475">
        <ele>781.4</ele>
        <time>2022-12-06T08:14:08Z</time>
      </trkpt>
      <trkpt lat="46.63739" lon="5.8847">
        <ele>781.8</ele>
        <time>2022-12-06T08:14:13Z</time>
      </trkpt>
      <trkpt lat="46.63736" lon="5.88464">
        <ele>782.6</ele>
        <time>2022-12-06T08:14:18Z</time>
      </trkpt>
      <trkpt lat="46.63733" lon="5.88459">
        <ele>783.3</ele>
        <time>2022-12-06T08:14:24Z</time>
      </trkpt>
      <trkpt lat="46.6373" lon="5.88454">
        <ele>784</ele>
        <time>2022-12-06T08:14:30Z</time>
      </trkpt>
      <trkpt lat="46.63727" lon="5.88447">
        <ele>784.5</ele>
        <time>2022-12-06T08:14:37Z</time>
      </trkpt>
      <trkpt lat="46.63725" lon="5.8844">
        <ele>785</ele>
        <time>2022-12-06T08:14:42Z</time>
      </trkpt>
      <trkpt lat="46.63723" lon="5.88434">
        <ele>785.8</ele>
        <time>2022-12-06T08:14:48Z</time>
      </trkpt>
      <trkpt lat="46.6372" lon="5.88428">
        <ele>786.4</ele>
        <time>2022-12-06T08:14:53Z</time>
      </trkpt>
      <trkpt lat="46.63719" lon="5.88421">
        <ele>786.6</ele>
        <time>2022-12-06T08:14:58Z</time>
      </trkpt>
      <trkpt lat="46.63718" lon="5.88414">
        <ele>786.5</ele>
        <time>2022-12-06T08:15:04Z</time>
      </trkpt>
      <trkpt lat="46.63717" lon="5.88407">
        <ele>786.4</ele>
        <time>2022-12-06T08:15:09Z</time>
      </trkpt>
      <trkpt lat="46.63715" lon="5.88401">
        <ele>786.6</ele>
        <time>2022-12-06T08:15:14Z</time>
      </trkpt>
      <trkpt lat="46.63713" lon="5.88395">
        <ele>786.9</ele>
        <time>2022-12-06T08:15:20Z</time>
      </trkpt>
      <trkpt lat="46.63712" lon="5.88388">
        <ele>787.1</ele>
        <time>2022-12-06T08:15:26Z</time>
      </trkpt>
      <trkpt lat="46.63711" lon="5.88382">
        <ele>787.6</ele>
        <time>2022-12-06T08:15:31Z</time>
      </trkpt>
      <trkpt lat="46.6371" lon="5.88375">
        <ele>788.1</ele>
        <time>2022-12-06T08:15:36Z</time>
      </trkpt>
      <trkpt lat="46.63709" lon="5.88368">
        <ele>789</ele>
        <time>2022-12-06T08:15:41Z</time>
      </trkpt>
      <trkpt lat="46.63708" lon="5.88362">
        <ele>789.9</ele>
        <time>2022-12-06T08:15:46Z</time>
      </trkpt>
      <trkpt lat="46.63705" lon="5.88356">
        <ele>790.9</ele>
        <time>2022-12-06T08:15:52Z</time>
      </trkpt>
      <trkpt lat="46.63703" lon="5.88349">
        <ele>791.7</ele>
        <time>2022-12-06T08:15:58Z</time>
      </trkpt>
      <trkpt lat="46.63701" lon="5.88343">
        <ele>792.3</ele>
        <time>2022-12-06T08:16:03Z</time>
      </trkpt>
      <trkpt lat="46.63699" lon="5.88337">
        <ele>793.5</ele>
        <time>2022-12-06T08:16:09Z</time>
      </trkpt>
      <trkpt lat="46.63697" lon="5.88329">
        <ele>794.7</ele>
        <time>2022-12-06T08:16:15Z</time>
      </trkpt>
      <trkpt lat="46.63695" lon="5.88322">
        <ele>794.8</ele>
        <time>2022-12-06T08:16:20Z</time>
      </trkpt>
      <trkpt lat="46.63692" lon="5.88316">
        <ele>794.4</ele>
        <time>2022-12-06T08:16:26Z</time>
      </trkpt>
      <trkpt lat="46.63691" lon="5.88309">
        <ele>794.1</ele>
        <time>2022-12-06T08:16:32Z</time>
      </trkpt>
      <trkpt lat="46.63689" lon="5.88303">
        <ele>794.1</ele>
        <time>2022-12-06T08:16:38Z</time>
      </trkpt>
      <trkpt lat="46.63686" lon="5.88296">
        <ele>793.8</ele>
        <time>2022-12-06T08:16:45Z</time>
      </trkpt>
      <trkpt lat="46.63685" lon="5.88289">
        <ele>794.3</ele>
        <time>2022-12-06T08:16:50Z</time>
      </trkpt>
      <trkpt lat="46.63684" lon="5.88282">
        <ele>795.1</ele>
        <time>2022-12-06T08:16:55Z</time>
      </trkpt>
      <trkpt lat="46.63683" lon="5.88275">
        <ele>796.2</ele>
        <time>2022-12-06T08:17:01Z</time>
      </trkpt>
      <trkpt lat="46.63681" lon="5.88268">
        <ele>798</ele>
        <time>2022-12-06T08:17:07Z</time>
      </trkpt>
      <trkpt lat="46.63682" lon="5.88261">
        <ele>799.7</ele>
        <time>2022-12-06T08:17:13Z</time>
      </trkpt>
      <trkpt lat="46.63683" lon="5.88255">
        <ele>800.3</ele>
        <time>2022-12-06T08:17:18Z</time>
      </trkpt>
      <trkpt lat="46.63684" lon="5.88248">
        <ele>800.8</ele>
        <time>2022-12-06T08:17:25Z</time>
      </trkpt>
      <trkpt lat="46.63684" lon="5.88241">
        <ele>801.7</ele>
        <time>2022-12-06T08:17:31Z</time>
      </trkpt>
      <trkpt lat="46.63682" lon="5.88234">
        <ele>802.6</ele>
        <time>2022-12-06T08:17:37Z</time>
      </trkpt>
      <trkpt lat="46.63681" lon="5.88227">
        <ele>803.4</ele>
        <time>2022-12-06T08:17:43Z</time>
      </trkpt>
      <trkpt lat="46.6368" lon="5.88221">
        <ele>803.9</ele>
        <time>2022-12-06T08:17:49Z</time>
      </trkpt>
      <trkpt lat="46.63679" lon="5.88214">
        <ele>804.8</ele>
        <time>2022-12-06T08:17:55Z</time>
      </trkpt>
      <trkpt lat="46.63677" lon="5.88207">
        <ele>805.9</ele>
        <time>2022-12-06T08:18:01Z</time>
      </trkpt>
      <trkpt lat="46.63674" lon="5.88201">
        <ele>806.8</ele>
        <time>2022-12-06T08:18:07Z</time>
      </trkpt>
      <trkpt lat="46.63672" lon="5.88196">
        <ele>807.7</ele>
        <time>2022-12-06T08:18:13Z</time>
      </trkpt>
      <trkpt lat="46.63668" lon="5.88191">
        <ele>808.7</ele>
        <time>2022-12-06T08:18:18Z</time>
      </trkpt>
      <trkpt lat="46.63665" lon="5.88186">
        <ele>810</ele>
        <time>2022-12-06T08:18:23Z</time>
      </trkpt>
      <trkpt lat="46.63663" lon="5.8818">
        <ele>811.1</ele>
        <time>2022-12-06T08:18:29Z</time>
      </trkpt>
      <trkpt lat="46.63661" lon="5.88173">
        <ele>811</ele>
        <time>2022-12-06T08:18:35Z</time>
      </trkpt>
      <trkpt lat="46.63659" lon="5.88167">
        <ele>810.5</ele>
        <time>2022-12-06T08:18:40Z</time>
      </trkpt>
      <trkpt lat="46.63657" lon="5.88161">
        <ele>810.1</ele>
        <time>2022-12-06T08:18:45Z</time>
      </trkpt>
      <trkpt lat="46.63654" lon="5.88155">
        <ele>810.1</ele>
        <time>2022-12-06T08:18:51Z</time>
      </trkpt>
      <trkpt lat="46.63653" lon="5.88147">
        <ele>810.2</ele>
        <time>2022-12-06T08:18:57Z</time>
      </trkpt>
      <trkpt lat="46.63651" lon="5.88141">
        <ele>810.6</ele>
        <time>2022-12-06T08:19:02Z</time>
      </trkpt>
      <trkpt lat="46.63649" lon="5.88134">
        <ele>811.6</ele>
        <time>2022-12-06T08:19:08Z</time>
      </trkpt>
      <trkpt lat="46.63647" lon="5.88126">
        <ele>812.5</ele>
        <time>2022-12-06T08:19:14Z</time>
      </trkpt>
      <trkpt lat="46.63646" lon="5.8812">
        <ele>812.8</ele>
        <time>2022-12-06T08:19:19Z</time>
      </trkpt>
      <trkpt lat="46.63644" lon="5.88114">
        <ele>813</ele>
        <time>2022-12-06T08:19:26Z</time>
      </trkpt>
      <trkpt lat="46.63642" lon="5.88107">
        <ele>813.4</ele>
        <time>2022-12-06T08:19:32Z</time>
      </trkpt>
      <trkpt lat="46.63641" lon="5.88101">
        <ele>814</ele>
        <time>2022-12-06T08:19:37Z</time>
      </trkpt>
      <trkpt lat="46.6364" lon="5.88094">
        <ele>814.7</ele>
        <time>2022-12-06T08:19:43Z</time>
      </trkpt>
      <trkpt lat="46.63639" lon="5.88086">
        <ele>815.8</ele>
        <time>2022-12-06T08:19:49Z</time>
      </trkpt>
      <trkpt lat="46.63637" lon="5.8808">
        <ele>816.9</ele>
        <time>2022-12-06T08:19:54Z</time>
      </trkpt>
      <trkpt lat="46.63635" lon="5.88074">
        <ele>818</ele>
        <time>2022-12-06T08:19:59Z</time>
      </trkpt>
      <trkpt lat="46.63633" lon="5.88068">
        <ele>819</ele>
        <time>2022-12-06T08:20:04Z</time>
      </trkpt>
      <trkpt lat="46.63631" lon="5.88062">
        <ele>819.5</ele>
        <time>2022-12-06T08:20:09Z</time>
      </trkpt>
      <trkpt lat="46.63629" lon="5.88054">
        <ele>819.9</ele>
        <time>2022-12-06T08:20:14Z</time>
      </trkpt>
      <trkpt lat="46.63627" lon="5.88049">
        <ele>820.1</ele>
        <time>2022-12-06T08:20:19Z</time>
      </trkpt>
      <trkpt lat="46.63624" lon="5.88043">
        <ele>820.6</ele>
        <time>2022-12-06T08:20:25Z</time>
      </trkpt>
      <trkpt lat="46.63619" lon="5.88039">
        <ele>820.9</ele>
        <time>2022-12-06T08:20:31Z</time>
      </trkpt>
      <trkpt lat="46.63616" lon="5.88035">
        <ele>821.3</ele>
        <time>2022-12-06T08:20:37Z</time>
      </trkpt>
      <trkpt lat="46.63612" lon="5.8803">
        <ele>821.3</ele>
        <time>2022-12-06T08:20:42Z</time>
      </trkpt>
      <trkpt lat="46.63608" lon="5.88025">
        <ele>821.4</ele>
        <time>2022-12-06T08:20:47Z</time>
      </trkpt>
      <trkpt lat="46.63606" lon="5.88018">
        <ele>821.9</ele>
        <time>2022-12-06T08:20:52Z</time>
      </trkpt>
      <trkpt lat="46.63603" lon="5.88012">
        <ele>822.6</ele>
        <time>2022-12-06T08:20:57Z</time>
      </trkpt>
      <trkpt lat="46.636" lon="5.88007">
        <ele>824.1</ele>
        <time>2022-12-06T08:21:02Z</time>
      </trkpt>
      <trkpt lat="46.63597" lon="5.88002">
        <ele>825.5</ele>
        <time>2022-12-06T08:21:08Z</time>
      </trkpt>
      <trkpt lat="46.63593" lon="5.87997">
        <ele>826.5</ele>
        <time>2022-12-06T08:21:14Z</time>
      </trkpt>
      <trkpt lat="46.6359" lon="5.87991">
        <ele>827.1</ele>
        <time>2022-12-06T08:21:19Z</time>
      </trkpt>
      <trkpt lat="46.63587" lon="5.87985">
        <ele>827.5</ele>
        <time>2022-12-06T08:21:24Z</time>
      </trkpt>
      <trkpt lat="46.63585" lon="5.87978">
        <ele>828.2</ele>
        <time>2022-12-06T08:21:30Z</time>
      </trkpt>
      <trkpt lat="46.63583" lon="5.87972">
        <ele>828</ele>
        <time>2022-12-06T08:21:36Z</time>
      </trkpt>
      <trkpt lat="46.6358" lon="5.87966">
        <ele>827.4</ele>
        <time>2022-12-06T08:21:41Z</time>
      </trkpt>
      <trkpt lat="46.63577" lon="5.8796">
        <ele>826.9</ele>
        <time>2022-12-06T08:21:46Z</time>
      </trkpt>
      <trkpt lat="46.63574" lon="5.87955">
        <ele>826.4</ele>
        <time>2022-12-06T08:21:50Z</time>
      </trkpt>
      <trkpt lat="46.6357" lon="5.8795">
        <ele>826</ele>
        <time>2022-12-06T08:21:54Z</time>
      </trkpt>
      <trkpt lat="46.63567" lon="5.87943">
        <ele>826</ele>
        <time>2022-12-06T08:21:59Z</time>
      </trkpt>
      <trkpt lat="46.63564" lon="5.87938">
        <ele>826.3</ele>
        <time>2022-12-06T08:22:04Z</time>
      </trkpt>
      <trkpt lat="46.63562" lon="5.87933">
        <ele>827</ele>
        <time>2022-12-06T08:22:09Z</time>
      </trkpt>
      <trkpt lat="46.63559" lon="5.87925">
        <ele>827.7</ele>
        <time>2022-12-06T08:22:14Z</time>
      </trkpt>
      <trkpt lat="46.63556" lon="5.87919">
        <ele>828.1</ele>
        <time>2022-12-06T08:22:19Z</time>
      </trkpt>
      <trkpt lat="46.63553" lon="5.87914">
        <ele>828.3</ele>
        <time>2022-12-06T08:22:24Z</time>
      </trkpt>
      <trkpt lat="46.63549" lon="5.87909">
        <ele>828.5</ele>
        <time>2022-12-06T08:22:29Z</time>
      </trkpt>
      <trkpt lat="46.63546" lon="5.87903">
        <ele>828.5</ele>
        <time>2022-12-06T08:22:35Z</time>
      </trkpt>
      <trkpt lat="46.63543" lon="5.87897">
        <ele>828.9</ele>
        <time>2022-12-06T08:22:41Z</time>
      </trkpt>
      <trkpt lat="46.63542" lon="5.87891">
        <ele>828.9</ele>
        <time>2022-12-06T08:22:47Z</time>
      </trkpt>
      <trkpt lat="46.63541" lon="5.87884">
        <ele>828.9</ele>
        <time>2022-12-06T08:22:52Z</time>
      </trkpt>
      <trkpt lat="46.6354" lon="5.87877">
        <ele>828.4</ele>
        <time>2022-12-06T08:22:58Z</time>
      </trkpt>
      <trkpt lat="46.63539" lon="5.8787">
        <ele>827.9</ele>
        <time>2022-12-06T08:23:02Z</time>
      </trkpt>
      <trkpt lat="46.63538" lon="5.87863">
        <ele>827.5</ele>
        <time>2022-12-06T08:23:07Z</time>
      </trkpt>
      <trkpt lat="46.63537" lon="5.87856">
        <ele>827.5</ele>
        <time>2022-12-06T08:23:12Z</time>
      </trkpt>
      <trkpt lat="46.63537" lon="5.87849">
        <ele>827.7</ele>
        <time>2022-12-06T08:23:18Z</time>
      </trkpt>
      <trkpt lat="46.63534" lon="5.87842">
        <ele>828.4</ele>
        <time>2022-12-06T08:23:23Z</time>
      </trkpt>
      <trkpt lat="46.63531" lon="5.87836">
        <ele>829.1</ele>
        <time>2022-12-06T08:23:28Z</time>
      </trkpt>
      <trkpt lat="46.63528" lon="5.8783">
        <ele>829.6</ele>
        <time>2022-12-06T08:23:34Z</time>
      </trkpt>
      <trkpt lat="46.63525" lon="5.87824">
        <ele>830</ele>
        <time>2022-12-06T08:23:39Z</time>
      </trkpt>
      <trkpt lat="46.63522" lon="5.87818">
        <ele>830.6</ele>
        <time>2022-12-06T08:23:45Z</time>
      </trkpt>
      <trkpt lat="46.63519" lon="5.87812">
        <ele>831</ele>
        <time>2022-12-06T08:23:50Z</time>
      </trkpt>
      <trkpt lat="46.63516" lon="5.87805">
        <ele>831.5</ele>
        <time>2022-12-06T08:23:55Z</time>
      </trkpt>
      <trkpt lat="46.63513" lon="5.87801">
        <ele>831.5</ele>
        <time>2022-12-06T08:23:59Z</time>
      </trkpt>
      <trkpt lat="46.63509" lon="5.87796">
        <ele>831.6</ele>
        <time>2022-12-06T08:24:03Z</time>
      </trkpt>
      <trkpt lat="46.63505" lon="5.87791">
        <ele>832.1</ele>
        <time>2022-12-06T08:24:08Z</time>
      </trkpt>
      <trkpt lat="46.63501" lon="5.87787">
        <ele>832.2</ele>
        <time>2022-12-06T08:24:13Z</time>
      </trkpt>
      <trkpt lat="46.63497" lon="5.87783">
        <ele>831.9</ele>
        <time>2022-12-06T08:24:18Z</time>
      </trkpt>
      <trkpt lat="46.63494" lon="5.87779">
        <ele>831.5</ele>
        <time>2022-12-06T08:24:23Z</time>
      </trkpt>
      <trkpt lat="46.6349" lon="5.87775">
        <ele>831.2</ele>
        <time>2022-12-06T08:24:28Z</time>
      </trkpt>
      <trkpt lat="46.63487" lon="5.87769">
        <ele>830.8</ele>
        <time>2022-12-06T08:24:33Z</time>
      </trkpt>
      <trkpt lat="46.63483" lon="5.87764">
        <ele>830.2</ele>
        <time>2022-12-06T08:24:38Z</time>
      </trkpt>
      <trkpt lat="46.63479" lon="5.8776">
        <ele>829.8</ele>
        <time>2022-12-06T08:24:44Z</time>
      </trkpt>
      <trkpt lat="46.63476" lon="5.87753">
        <ele>829.9</ele>
        <time>2022-12-06T08:24:49Z</time>
      </trkpt>
      <trkpt lat="46.63474" lon="5.87746">
        <ele>830.4</ele>
        <time>2022-12-06T08:24:53Z</time>
      </trkpt>
      <trkpt lat="46.63472" lon="5.8774">
        <ele>831.4</ele>
        <time>2022-12-06T08:24:58Z</time>
      </trkpt>
      <trkpt lat="46.63469" lon="5.87734">
        <ele>832.5</ele>
        <time>2022-12-06T08:25:03Z</time>
      </trkpt>
      <trkpt lat="46.63467" lon="5.87728">
        <ele>833.5</ele>
        <time>2022-12-06T08:25:07Z</time>
      </trkpt>
      <trkpt lat="46.63465" lon="5.87721">
        <ele>834.2</ele>
        <time>2022-12-06T08:25:11Z</time>
      </trkpt>
      <trkpt lat="46.63462" lon="5.87715">
        <ele>834.7</ele>
        <time>2022-12-06T08:25:16Z</time>
      </trkpt>
      <trkpt lat="46.63459" lon="5.87709">
        <ele>835.3</ele>
        <time>2022-12-06T08:25:21Z</time>
      </trkpt>
      <trkpt lat="46.63456" lon="5.87703">
        <ele>835.9</ele>
        <time>2022-12-06T08:25:26Z</time>
      </trkpt>
      <trkpt lat="46.63454" lon="5.87697">
        <ele>836.2</ele>
        <time>2022-12-06T08:25:31Z</time>
      </trkpt>
      <trkpt lat="46.63452" lon="5.8769">
        <ele>835.7</ele>
        <time>2022-12-06T08:25:37Z</time>
      </trkpt>
      <trkpt lat="46.6345" lon="5.87684">
        <ele>835</ele>
        <time>2022-12-06T08:25:42Z</time>
      </trkpt>
      <trkpt lat="46.63448" lon="5.87677">
        <ele>834.7</ele>
        <time>2022-12-06T08:25:47Z</time>
      </trkpt>
      <trkpt lat="46.63452" lon="5.87673">
        <ele>830.8</ele>
        <time>2022-12-06T08:26:57Z</time>
      </trkpt>
      <trkpt lat="46.6345" lon="5.87679">
        <ele>831.1</ele>
        <time>2022-12-06T08:31:21Z</time>
      </trkpt>
      <trkpt lat="46.63447" lon="5.87673">
        <ele>834</ele>
        <time>2022-12-06T08:32:45Z</time>
      </trkpt>
      <trkpt lat="46.63448" lon="5.87666">
        <ele>831.8</ele>
        <time>2022-12-06T08:33:27Z</time>
      </trkpt>
      <trkpt lat="46.63446" lon="5.87659">
        <ele>832.8</ele>
        <time>2022-12-06T08:33:37Z</time>
      </trkpt>
      <trkpt lat="46.63445" lon="5.87652">
        <ele>833</ele>
        <time>2022-12-06T08:33:44Z</time>
      </trkpt>
      <trkpt lat="46.63442" lon="5.87646">
        <ele>833.6</ele>
        <time>2022-12-06T08:33:50Z</time>
      </trkpt>
      <trkpt lat="46.63443" lon="5.87638">
        <ele>834.8</ele>
        <time>2022-12-06T08:33:57Z</time>
      </trkpt>
      <trkpt lat="46.63442" lon="5.87631">
        <ele>836.6</ele>
        <time>2022-12-06T08:34:03Z</time>
      </trkpt>
      <trkpt lat="46.63443" lon="5.87624">
        <ele>839.1</ele>
        <time>2022-12-06T08:34:10Z</time>
      </trkpt>
      <trkpt lat="46.63442" lon="5.87617">
        <ele>840.4</ele>
        <time>2022-12-06T08:34:17Z</time>
      </trkpt>
      <trkpt lat="46.63442" lon="5.87609">
        <ele>840</ele>
        <time>2022-12-06T08:34:23Z</time>
      </trkpt>
      <trkpt lat="46.63443" lon="5.87601">
        <ele>839.6</ele>
        <time>2022-12-06T08:34:28Z</time>
      </trkpt>
      <trkpt lat="46.63442" lon="5.87594">
        <ele>839.1</ele>
        <time>2022-12-06T08:34:33Z</time>
      </trkpt>
      <trkpt lat="46.63442" lon="5.87586">
        <ele>838.9</ele>
        <time>2022-12-06T08:34:38Z</time>
      </trkpt>
      <trkpt lat="46.6344" lon="5.87579">
        <ele>840.1</ele>
        <time>2022-12-06T08:34:44Z</time>
      </trkpt>
      <trkpt lat="46.6344" lon="5.87572">
        <ele>841.6</ele>
        <time>2022-12-06T08:34:49Z</time>
      </trkpt>
      <trkpt lat="46.63438" lon="5.87564">
        <ele>843.2</ele>
        <time>2022-12-06T08:34:55Z</time>
      </trkpt>
      <trkpt lat="46.63437" lon="5.87558">
        <ele>843.9</ele>
        <time>2022-12-06T08:35:00Z</time>
      </trkpt>
      <trkpt lat="46.63436" lon="5.8755">
        <ele>844.5</ele>
        <time>2022-12-06T08:35:05Z</time>
      </trkpt>
      <trkpt lat="46.63436" lon="5.87543">
        <ele>845.3</ele>
        <time>2022-12-06T08:35:09Z</time>
      </trkpt>
      <trkpt lat="46.63438" lon="5.87537">
        <ele>846.4</ele>
        <time>2022-12-06T08:35:16Z</time>
      </trkpt>
      <trkpt lat="46.6344" lon="5.87531">
        <ele>846.6</ele>
        <time>2022-12-06T08:35:21Z</time>
      </trkpt>
      <trkpt lat="46.6344" lon="5.87523">
        <ele>847</ele>
        <time>2022-12-06T08:35:26Z</time>
      </trkpt>
      <trkpt lat="46.63439" lon="5.87516">
        <ele>847.3</ele>
        <time>2022-12-06T08:35:31Z</time>
      </trkpt>
      <trkpt lat="46.63438" lon="5.87509">
        <ele>847.4</ele>
        <time>2022-12-06T08:35:37Z</time>
      </trkpt>
      <trkpt lat="46.63436" lon="5.87502">
        <ele>847.7</ele>
        <time>2022-12-06T08:35:41Z</time>
      </trkpt>
      <trkpt lat="46.63435" lon="5.87495">
        <ele>848.9</ele>
        <time>2022-12-06T08:35:46Z</time>
      </trkpt>
      <trkpt lat="46.63433" lon="5.87488">
        <ele>849.6</ele>
        <time>2022-12-06T08:35:52Z</time>
      </trkpt>
      <trkpt lat="46.63433" lon="5.8748">
        <ele>849.9</ele>
        <time>2022-12-06T08:35:57Z</time>
      </trkpt>
      <trkpt lat="46.63433" lon="5.87473">
        <ele>849.5</ele>
        <time>2022-12-06T08:36:03Z</time>
      </trkpt>
      <trkpt lat="46.63432" lon="5.87466">
        <ele>848.4</ele>
        <time>2022-12-06T08:36:09Z</time>
      </trkpt>
      <trkpt lat="46.63431" lon="5.87459">
        <ele>847.1</ele>
        <time>2022-12-06T08:36:13Z</time>
      </trkpt>
      <trkpt lat="46.6343" lon="5.87453">
        <ele>845.8</ele>
        <time>2022-12-06T08:36:17Z</time>
      </trkpt>
      <trkpt lat="46.63429" lon="5.87446">
        <ele>844.6</ele>
        <time>2022-12-06T08:36:22Z</time>
      </trkpt>
      <trkpt lat="46.63428" lon="5.87439">
        <ele>843.7</ele>
        <time>2022-12-06T08:36:27Z</time>
      </trkpt>
      <trkpt lat="46.63427" lon="5.87432">
        <ele>842.5</ele>
        <time>2022-12-06T08:36:32Z</time>
      </trkpt>
      <trkpt lat="46.63427" lon="5.87425">
        <ele>840.3</ele>
        <time>2022-12-06T08:36:38Z</time>
      </trkpt>
      <trkpt lat="46.63427" lon="5.87417">
        <ele>839.4</ele>
        <time>2022-12-06T08:36:44Z</time>
      </trkpt>
      <trkpt lat="46.63427" lon="5.8741">
        <ele>838.9</ele>
        <time>2022-12-06T08:36:49Z</time>
      </trkpt>
      <trkpt lat="46.63427" lon="5.87403">
        <ele>838.5</ele>
        <time>2022-12-06T08:36:55Z</time>
      </trkpt>
      <trkpt lat="46.63428" lon="5.87397">
        <ele>838.2</ele>
        <time>2022-12-06T08:37:01Z</time>
      </trkpt>
      <trkpt lat="46.63428" lon="5.87389">
        <ele>837.6</ele>
        <time>2022-12-06T08:37:07Z</time>
      </trkpt>
      <trkpt lat="46.63429" lon="5.87382">
        <ele>837.2</ele>
        <time>2022-12-06T08:37:13Z</time>
      </trkpt>
      <trkpt lat="46.6343" lon="5.87374">
        <ele>836.9</ele>
        <time>2022-12-06T08:37:19Z</time>
      </trkpt>
      <trkpt lat="46.6343" lon="5.87366">
        <ele>836.6</ele>
        <time>2022-12-06T08:37:24Z</time>
      </trkpt>
      <trkpt lat="46.6343" lon="5.8736">
        <ele>836.5</ele>
        <time>2022-12-06T08:37:29Z</time>
      </trkpt>
      <trkpt lat="46.6343" lon="5.87352">
        <ele>836.2</ele>
        <time>2022-12-06T08:37:34Z</time>
      </trkpt>
      <trkpt lat="46.63431" lon="5.87345">
        <ele>836.4</ele>
        <time>2022-12-06T08:37:38Z</time>
      </trkpt>
      <trkpt lat="46.63431" lon="5.87337">
        <ele>837.1</ele>
        <time>2022-12-06T08:37:43Z</time>
      </trkpt>
      <trkpt lat="46.63434" lon="5.87332">
        <ele>837.9</ele>
        <time>2022-12-06T08:37:48Z</time>
      </trkpt>
      <trkpt lat="46.63434" lon="5.87325">
        <ele>838.1</ele>
        <time>2022-12-06T08:37:54Z</time>
      </trkpt>
      <trkpt lat="46.63436" lon="5.87319">
        <ele>837.7</ele>
        <time>2022-12-06T08:37:59Z</time>
      </trkpt>
      <trkpt lat="46.63437" lon="5.87312">
        <ele>837.5</ele>
        <time>2022-12-06T08:38:04Z</time>
      </trkpt>
      <trkpt lat="46.63438" lon="5.87305">
        <ele>836.8</ele>
        <time>2022-12-06T08:38:10Z</time>
      </trkpt>
      <trkpt lat="46.63439" lon="5.87297">
        <ele>837.5</ele>
        <time>2022-12-06T08:38:15Z</time>
      </trkpt>
      <trkpt lat="46.6344" lon="5.8729">
        <ele>838.7</ele>
        <time>2022-12-06T08:38:20Z</time>
      </trkpt>
      <trkpt lat="46.63441" lon="5.87283">
        <ele>839.7</ele>
        <time>2022-12-06T08:38:25Z</time>
      </trkpt>
      <trkpt lat="46.63441" lon="5.87276">
        <ele>840.6</ele>
        <time>2022-12-06T08:38:30Z</time>
      </trkpt>
      <trkpt lat="46.63439" lon="5.87269">
        <ele>841.3</ele>
        <time>2022-12-06T08:38:35Z</time>
      </trkpt>
      <trkpt lat="46.63437" lon="5.87263">
        <ele>840.9</ele>
        <time>2022-12-06T08:38:40Z</time>
      </trkpt>
      <trkpt lat="46.63434" lon="5.87257">
        <ele>840</ele>
        <time>2022-12-06T08:38:46Z</time>
      </trkpt>
      <trkpt lat="46.63431" lon="5.87252">
        <ele>839.4</ele>
        <time>2022-12-06T08:38:52Z</time>
      </trkpt>
      <trkpt lat="46.63427" lon="5.87248">
        <ele>838.5</ele>
        <time>2022-12-06T08:38:57Z</time>
      </trkpt>
      <trkpt lat="46.63423" lon="5.87243">
        <ele>838.4</ele>
        <time>2022-12-06T08:39:02Z</time>
      </trkpt>
      <trkpt lat="46.6342" lon="5.87237">
        <ele>838.6</ele>
        <time>2022-12-06T08:39:07Z</time>
      </trkpt>
      <trkpt lat="46.63417" lon="5.87231">
        <ele>838.3</ele>
        <time>2022-12-06T08:39:12Z</time>
      </trkpt>
      <trkpt lat="46.63413" lon="5.87226">
        <ele>837.1</ele>
        <time>2022-12-06T08:39:17Z</time>
      </trkpt>
      <trkpt lat="46.63411" lon="5.8722">
        <ele>836.1</ele>
        <time>2022-12-06T08:39:21Z</time>
      </trkpt>
      <trkpt lat="46.63411" lon="5.87213">
        <ele>834.5</ele>
        <time>2022-12-06T08:39:26Z</time>
      </trkpt>
      <trkpt lat="46.63409" lon="5.87207">
        <ele>832.8</ele>
        <time>2022-12-06T08:39:31Z</time>
      </trkpt>
      <trkpt lat="46.63406" lon="5.872">
        <ele>831.7</ele>
        <time>2022-12-06T08:39:37Z</time>
      </trkpt>
      <trkpt lat="46.63406" lon="5.87193">
        <ele>832</ele>
        <time>2022-12-06T08:39:42Z</time>
      </trkpt>
      <trkpt lat="46.63406" lon="5.87185">
        <ele>832.6</ele>
        <time>2022-12-06T08:39:47Z</time>
      </trkpt>
      <trkpt lat="46.63406" lon="5.87178">
        <ele>833.7</ele>
        <time>2022-12-06T08:39:52Z</time>
      </trkpt>
      <trkpt lat="46.63407" lon="5.8717">
        <ele>834.7</ele>
        <time>2022-12-06T08:39:58Z</time>
      </trkpt>
      <trkpt lat="46.63408" lon="5.87163">
        <ele>835.6</ele>
        <time>2022-12-06T08:40:04Z</time>
      </trkpt>
      <trkpt lat="46.63409" lon="5.87157">
        <ele>836.1</ele>
        <time>2022-12-06T08:40:10Z</time>
      </trkpt>
      <trkpt lat="46.63408" lon="5.87149">
        <ele>836.2</ele>
        <time>2022-12-06T08:40:16Z</time>
      </trkpt>
      <trkpt lat="46.63406" lon="5.87142">
        <ele>836.2</ele>
        <time>2022-12-06T08:40:21Z</time>
      </trkpt>
      <trkpt lat="46.63404" lon="5.87135">
        <ele>836.6</ele>
        <time>2022-12-06T08:40:27Z</time>
      </trkpt>
      <trkpt lat="46.63403" lon="5.87128">
        <ele>836.7</ele>
        <time>2022-12-06T08:40:36Z</time>
      </trkpt>
      <trkpt lat="46.63402" lon="5.87121">
        <ele>838.4</ele>
        <time>2022-12-06T08:40:54Z</time>
      </trkpt>
      <trkpt lat="46.63402" lon="5.87114">
        <ele>838.5</ele>
        <time>2022-12-06T08:40:59Z</time>
      </trkpt>
      <trkpt lat="46.63402" lon="5.87107">
        <ele>838.7</ele>
        <time>2022-12-06T08:41:03Z</time>
      </trkpt>
      <trkpt lat="46.63402" lon="5.87099">
        <ele>838.3</ele>
        <time>2022-12-06T08:41:10Z</time>
      </trkpt>
      <trkpt lat="46.63403" lon="5.87092">
        <ele>837.9</ele>
        <time>2022-12-06T08:41:16Z</time>
      </trkpt>
      <trkpt lat="46.63402" lon="5.87084">
        <ele>837.8</ele>
        <time>2022-12-06T08:41:21Z</time>
      </trkpt>
      <trkpt lat="46.63401" lon="5.87077">
        <ele>837.8</ele>
        <time>2022-12-06T08:41:25Z</time>
      </trkpt>
      <trkpt lat="46.63401" lon="5.87069">
        <ele>837.1</ele>
        <time>2022-12-06T08:41:31Z</time>
      </trkpt>
      <trkpt lat="46.63401" lon="5.87062">
        <ele>837</ele>
        <time>2022-12-06T08:41:37Z</time>
      </trkpt>
      <trkpt lat="46.63401" lon="5.87054">
        <ele>837.5</ele>
        <time>2022-12-06T08:41:42Z</time>
      </trkpt>
      <trkpt lat="46.634" lon="5.87046">
        <ele>838.4</ele>
        <time>2022-12-06T08:41:46Z</time>
      </trkpt>
      <trkpt lat="46.63399" lon="5.8704">
        <ele>839.4</ele>
        <time>2022-12-06T08:41:50Z</time>
      </trkpt>
      <trkpt lat="46.63399" lon="5.87033">
        <ele>840.2</ele>
        <time>2022-12-06T08:41:56Z</time>
      </trkpt>
      <trkpt lat="46.63399" lon="5.87026">
        <ele>840.4</ele>
        <time>2022-12-06T08:42:01Z</time>
      </trkpt>
      <trkpt lat="46.63398" lon="5.87019">
        <ele>840.8</ele>
        <time>2022-12-06T08:42:06Z</time>
      </trkpt>
      <trkpt lat="46.63399" lon="5.87012">
        <ele>841.3</ele>
        <time>2022-12-06T08:42:11Z</time>
      </trkpt>
      <trkpt lat="46.634" lon="5.87004">
        <ele>842.7</ele>
        <time>2022-12-06T08:42:16Z</time>
      </trkpt>
      <trkpt lat="46.634" lon="5.86997">
        <ele>845.4</ele>
        <time>2022-12-06T08:42:23Z</time>
      </trkpt>
      <trkpt lat="46.634" lon="5.8699">
        <ele>846.6</ele>
        <time>2022-12-06T08:42:28Z</time>
      </trkpt>
      <trkpt lat="46.634" lon="5.86983">
        <ele>847.5</ele>
        <time>2022-12-06T08:42:32Z</time>
      </trkpt>
      <trkpt lat="46.634" lon="5.86977">
        <ele>848.6</ele>
        <time>2022-12-06T08:42:36Z</time>
      </trkpt>
      <trkpt lat="46.634" lon="5.8697">
        <ele>849.6</ele>
        <time>2022-12-06T08:42:43Z</time>
      </trkpt>
      <trkpt lat="46.63399" lon="5.86962">
        <ele>849.5</ele>
        <time>2022-12-06T08:42:49Z</time>
      </trkpt>
      <trkpt lat="46.63399" lon="5.86955">
        <ele>848.8</ele>
        <time>2022-12-06T08:42:54Z</time>
      </trkpt>
      <trkpt lat="46.63399" lon="5.86948">
        <ele>848.3</ele>
        <time>2022-12-06T08:42:58Z</time>
      </trkpt>
      <trkpt lat="46.634" lon="5.86942">
        <ele>848.1</ele>
        <time>2022-12-06T08:43:02Z</time>
      </trkpt>
      <trkpt lat="46.63401" lon="5.86935">
        <ele>847.8</ele>
        <time>2022-12-06T08:43:06Z</time>
      </trkpt>
      <trkpt lat="46.63402" lon="5.86928">
        <ele>847.5</ele>
        <time>2022-12-06T08:43:11Z</time>
      </trkpt>
      <trkpt lat="46.63405" lon="5.86923">
        <ele>847.1</ele>
        <time>2022-12-06T08:43:16Z</time>
      </trkpt>
      <trkpt lat="46.63409" lon="5.86918">
        <ele>846.7</ele>
        <time>2022-12-06T08:43:21Z</time>
      </trkpt>
      <trkpt lat="46.63414" lon="5.86914">
        <ele>846.5</ele>
        <time>2022-12-06T08:43:26Z</time>
      </trkpt>
      <trkpt lat="46.63418" lon="5.8691">
        <ele>846.1</ele>
        <time>2022-12-06T08:43:32Z</time>
      </trkpt>
      <trkpt lat="46.63422" lon="5.86905">
        <ele>845.7</ele>
        <time>2022-12-06T08:43:37Z</time>
      </trkpt>
      <trkpt lat="46.63426" lon="5.86901">
        <ele>845</ele>
        <time>2022-12-06T08:43:42Z</time>
      </trkpt>
      <trkpt lat="46.63429" lon="5.86895">
        <ele>844.5</ele>
        <time>2022-12-06T08:43:47Z</time>
      </trkpt>
      <trkpt lat="46.63433" lon="5.8689">
        <ele>844.6</ele>
        <time>2022-12-06T08:43:52Z</time>
      </trkpt>
      <trkpt lat="46.63436" lon="5.86884">
        <ele>844.7</ele>
        <time>2022-12-06T08:43:57Z</time>
      </trkpt>
      <trkpt lat="46.63439" lon="5.86878">
        <ele>844.2</ele>
        <time>2022-12-06T08:44:03Z</time>
      </trkpt>
      <trkpt lat="46.63443" lon="5.86874">
        <ele>844.4</ele>
        <time>2022-12-06T08:44:08Z</time>
      </trkpt>
      <trkpt lat="46.63446" lon="5.86868">
        <ele>845.1</ele>
        <time>2022-12-06T08:44:14Z</time>
      </trkpt>
      <trkpt lat="46.6345" lon="5.86864">
        <ele>845.5</ele>
        <time>2022-12-06T08:44:20Z</time>
      </trkpt>
      <trkpt lat="46.63454" lon="5.86859">
        <ele>845.2</ele>
        <time>2022-12-06T08:44:26Z</time>
      </trkpt>
      <trkpt lat="46.63458" lon="5.86854">
        <ele>844.1</ele>
        <time>2022-12-06T08:44:34Z</time>
      </trkpt>
      <trkpt lat="46.63462" lon="5.86849">
        <ele>842.7</ele>
        <time>2022-12-06T08:44:39Z</time>
      </trkpt>
      <trkpt lat="46.63465" lon="5.86843">
        <ele>841.4</ele>
        <time>2022-12-06T08:44:44Z</time>
      </trkpt>
      <trkpt lat="46.63467" lon="5.86837">
        <ele>840.2</ele>
        <time>2022-12-06T08:44:50Z</time>
      </trkpt>
      <trkpt lat="46.63471" lon="5.86832">
        <ele>839.2</ele>
        <time>2022-12-06T08:44:57Z</time>
      </trkpt>
      <trkpt lat="46.63474" lon="5.86827">
        <ele>837.4</ele>
        <time>2022-12-06T08:45:03Z</time>
      </trkpt>
      <trkpt lat="46.63478" lon="5.86823">
        <ele>835.7</ele>
        <time>2022-12-06T08:45:08Z</time>
      </trkpt>
      <trkpt lat="46.63482" lon="5.86819">
        <ele>834.7</ele>
        <time>2022-12-06T08:45:12Z</time>
      </trkpt>
      <trkpt lat="46.63484" lon="5.86813">
        <ele>834</ele>
        <time>2022-12-06T08:45:17Z</time>
      </trkpt>
      <trkpt lat="46.63488" lon="5.86808">
        <ele>833.4</ele>
        <time>2022-12-06T08:45:22Z</time>
      </trkpt>
      <trkpt lat="46.63491" lon="5.86803">
        <ele>832.7</ele>
        <time>2022-12-06T08:45:26Z</time>
      </trkpt>
      <trkpt lat="46.63493" lon="5.86796">
        <ele>831.5</ele>
        <time>2022-12-06T08:45:33Z</time>
      </trkpt>
      <trkpt lat="46.63495" lon="5.8679">
        <ele>830.7</ele>
        <time>2022-12-06T08:45:39Z</time>
      </trkpt>
      <trkpt lat="46.63497" lon="5.86784">
        <ele>830.2</ele>
        <time>2022-12-06T08:45:45Z</time>
      </trkpt>
      <trkpt lat="46.63497" lon="5.86777">
        <ele>829.9</ele>
        <time>2022-12-06T08:45:50Z</time>
      </trkpt>
      <trkpt lat="46.63497" lon="5.86769">
        <ele>830.3</ele>
        <time>2022-12-06T08:45:55Z</time>
      </trkpt>
      <trkpt lat="46.63499" lon="5.86763">
        <ele>830.7</ele>
        <time>2022-12-06T08:46:02Z</time>
      </trkpt>
      <trkpt lat="46.63501" lon="5.86756">
        <ele>830.5</ele>
        <time>2022-12-06T08:46:07Z</time>
      </trkpt>
      <trkpt lat="46.635" lon="5.86749">
        <ele>830.3</ele>
        <time>2022-12-06T08:46:12Z</time>
      </trkpt>
      <trkpt lat="46.63501" lon="5.86742">
        <ele>829.3</ele>
        <time>2022-12-06T08:46:18Z</time>
      </trkpt>
      <trkpt lat="46.63504" lon="5.86736">
        <ele>827.7</ele>
        <time>2022-12-06T08:46:24Z</time>
      </trkpt>
      <trkpt lat="46.63507" lon="5.8673">
        <ele>826.3</ele>
        <time>2022-12-06T08:46:29Z</time>
      </trkpt>
      <trkpt lat="46.63507" lon="5.86723">
        <ele>825.4</ele>
        <time>2022-12-06T08:46:33Z</time>
      </trkpt>
      <trkpt lat="46.63506" lon="5.86715">
        <ele>824.5</ele>
        <time>2022-12-06T08:46:38Z</time>
      </trkpt>
      <trkpt lat="46.63507" lon="5.86709">
        <ele>823.7</ele>
        <time>2022-12-06T08:46:44Z</time>
      </trkpt>
      <trkpt lat="46.6351" lon="5.86704">
        <ele>823.6</ele>
        <time>2022-12-06T08:46:49Z</time>
      </trkpt>
      <trkpt lat="46.63514" lon="5.86699">
        <ele>824</ele>
        <time>2022-12-06T08:46:55Z</time>
      </trkpt>
      <trkpt lat="46.63519" lon="5.86697">
        <ele>823.9</ele>
        <time>2022-12-06T08:47:02Z</time>
      </trkpt>
      <trkpt lat="46.63523" lon="5.86692">
        <ele>823.4</ele>
        <time>2022-12-06T08:47:06Z</time>
      </trkpt>
      <trkpt lat="46.63527" lon="5.86688">
        <ele>822.6</ele>
        <time>2022-12-06T08:47:11Z</time>
      </trkpt>
      <trkpt lat="46.63532" lon="5.86686">
        <ele>820.8</ele>
        <time>2022-12-06T08:47:19Z</time>
      </trkpt>
      <trkpt lat="46.63538" lon="5.86686">
        <ele>820</ele>
        <time>2022-12-06T08:47:25Z</time>
      </trkpt>
      <trkpt lat="46.63542" lon="5.86686">
        <ele>820.2</ele>
        <time>2022-12-06T08:47:29Z</time>
      </trkpt>
      <trkpt lat="46.63547" lon="5.86685">
        <ele>821</ele>
        <time>2022-12-06T08:47:34Z</time>
      </trkpt>
      <trkpt lat="46.63552" lon="5.86684">
        <ele>821.1</ele>
        <time>2022-12-06T08:47:39Z</time>
      </trkpt>
      <trkpt lat="46.63557" lon="5.86683">
        <ele>820.6</ele>
        <time>2022-12-06T08:47:46Z</time>
      </trkpt>
      <trkpt lat="46.63562" lon="5.86682">
        <ele>819.9</ele>
        <time>2022-12-06T08:47:52Z</time>
      </trkpt>
      <trkpt lat="46.63565" lon="5.86677">
        <ele>819.4</ele>
        <time>2022-12-06T08:47:57Z</time>
      </trkpt>
      <trkpt lat="46.63566" lon="5.8667">
        <ele>819.4</ele>
        <time>2022-12-06T08:48:03Z</time>
      </trkpt>
      <trkpt lat="46.63566" lon="5.86663">
        <ele>819.7</ele>
        <time>2022-12-06T08:48:08Z</time>
      </trkpt>
      <trkpt lat="46.63569" lon="5.86658">
        <ele>820.4</ele>
        <time>2022-12-06T08:48:14Z</time>
      </trkpt>
      <trkpt lat="46.63572" lon="5.86652">
        <ele>820.5</ele>
        <time>2022-12-06T08:48:20Z</time>
      </trkpt>
      <trkpt lat="46.63574" lon="5.86646">
        <ele>820.2</ele>
        <time>2022-12-06T08:48:26Z</time>
      </trkpt>
      <trkpt lat="46.63574" lon="5.86638">
        <ele>819.9</ele>
        <time>2022-12-06T08:48:31Z</time>
      </trkpt>
      <trkpt lat="46.63575" lon="5.86631">
        <ele>819.3</ele>
        <time>2022-12-06T08:48:36Z</time>
      </trkpt>
      <trkpt lat="46.63574" lon="5.86624">
        <ele>819.4</ele>
        <time>2022-12-06T08:48:41Z</time>
      </trkpt>
      <trkpt lat="46.63573" lon="5.86616">
        <ele>820.5</ele>
        <time>2022-12-06T08:48:45Z</time>
      </trkpt>
      <trkpt lat="46.63574" lon="5.86609">
        <ele>822.8</ele>
        <time>2022-12-06T08:48:50Z</time>
      </trkpt>
      <trkpt lat="46.63574" lon="5.86601">
        <ele>824.7</ele>
        <time>2022-12-06T08:48:58Z</time>
      </trkpt>
      <trkpt lat="46.63573" lon="5.86594">
        <ele>825.1</ele>
        <time>2022-12-06T08:49:03Z</time>
      </trkpt>
      <trkpt lat="46.63572" lon="5.86587">
        <ele>825.2</ele>
        <time>2022-12-06T08:49:08Z</time>
      </trkpt>
      <trkpt lat="46.63569" lon="5.86581">
        <ele>824.8</ele>
        <time>2022-12-06T08:49:14Z</time>
      </trkpt>
      <trkpt lat="46.63567" lon="5.86575">
        <ele>823.7</ele>
        <time>2022-12-06T08:49:20Z</time>
      </trkpt>
      <trkpt lat="46.63564" lon="5.86569">
        <ele>823</ele>
        <time>2022-12-06T08:49:26Z</time>
      </trkpt>
      <trkpt lat="46.63562" lon="5.86563">
        <ele>822.8</ele>
        <time>2022-12-06T08:49:31Z</time>
      </trkpt>
      <trkpt lat="46.63559" lon="5.86557">
        <ele>821.4</ele>
        <time>2022-12-06T08:49:36Z</time>
      </trkpt>
      <trkpt lat="46.63559" lon="5.8655">
        <ele>818.9</ele>
        <time>2022-12-06T08:49:43Z</time>
      </trkpt>
      <trkpt lat="46.63559" lon="5.86543">
        <ele>817</ele>
        <time>2022-12-06T08:49:49Z</time>
      </trkpt>
      <trkpt lat="46.6356" lon="5.86536">
        <ele>814.8</ele>
        <time>2022-12-06T08:49:56Z</time>
      </trkpt>
      <trkpt lat="46.63562" lon="5.86531">
        <ele>813.6</ele>
        <time>2022-12-06T08:50:02Z</time>
      </trkpt>
      <trkpt lat="46.63565" lon="5.86525">
        <ele>811.4</ele>
        <time>2022-12-06T08:50:09Z</time>
      </trkpt>
      <trkpt lat="46.63568" lon="5.86518">
        <ele>809.4</ele>
        <time>2022-12-06T08:50:15Z</time>
      </trkpt>
      <trkpt lat="46.63571" lon="5.86512">
        <ele>808.1</ele>
        <time>2022-12-06T08:50:21Z</time>
      </trkpt>
      <trkpt lat="46.63574" lon="5.86507">
        <ele>807.5</ele>
        <time>2022-12-06T08:50:26Z</time>
      </trkpt>
      <trkpt lat="46.63575" lon="5.865">
        <ele>807.3</ele>
        <time>2022-12-06T08:50:31Z</time>
      </trkpt>
      <trkpt lat="46.63577" lon="5.86494">
        <ele>807.6</ele>
        <time>2022-12-06T08:50:35Z</time>
      </trkpt>
      <trkpt lat="46.63579" lon="5.86486">
        <ele>808.3</ele>
        <time>2022-12-06T08:50:40Z</time>
      </trkpt>
      <trkpt lat="46.6358" lon="5.86479">
        <ele>809</ele>
        <time>2022-12-06T08:50:45Z</time>
      </trkpt>
      <trkpt lat="46.6358" lon="5.86472">
        <ele>810</ele>
        <time>2022-12-06T08:50:51Z</time>
      </trkpt>
      <trkpt lat="46.6358" lon="5.86465">
        <ele>810.7</ele>
        <time>2022-12-06T08:50:56Z</time>
      </trkpt>
      <trkpt lat="46.63578" lon="5.86457">
        <ele>811.2</ele>
        <time>2022-12-06T08:51:02Z</time>
      </trkpt>
      <trkpt lat="46.63577" lon="5.8645">
        <ele>812</ele>
        <time>2022-12-06T08:51:07Z</time>
      </trkpt>
      <trkpt lat="46.63576" lon="5.86442">
        <ele>813.4</ele>
        <time>2022-12-06T08:51:12Z</time>
      </trkpt>
      <trkpt lat="46.63577" lon="5.86435">
        <ele>814.5</ele>
        <time>2022-12-06T08:51:18Z</time>
      </trkpt>
      <trkpt lat="46.63579" lon="5.86428">
        <ele>814.1</ele>
        <time>2022-12-06T08:51:25Z</time>
      </trkpt>
      <trkpt lat="46.63581" lon="5.86421">
        <ele>813.4</ele>
        <time>2022-12-06T08:51:30Z</time>
      </trkpt>
      <trkpt lat="46.63582" lon="5.86414">
        <ele>812.5</ele>
        <time>2022-12-06T08:51:35Z</time>
      </trkpt>
      <trkpt lat="46.63583" lon="5.86406">
        <ele>812.2</ele>
        <time>2022-12-06T08:51:40Z</time>
      </trkpt>
      <trkpt lat="46.63584" lon="5.86399">
        <ele>812.3</ele>
        <time>2022-12-06T08:51:44Z</time>
      </trkpt>
      <trkpt lat="46.63586" lon="5.86393">
        <ele>812.3</ele>
        <time>2022-12-06T08:51:51Z</time>
      </trkpt>
      <trkpt lat="46.63588" lon="5.86387">
        <ele>811.3</ele>
        <time>2022-12-06T08:51:57Z</time>
      </trkpt>
      <trkpt lat="46.63591" lon="5.8638">
        <ele>810.5</ele>
        <time>2022-12-06T08:52:03Z</time>
      </trkpt>
      <trkpt lat="46.63593" lon="5.86374">
        <ele>810.1</ele>
        <time>2022-12-06T08:52:08Z</time>
      </trkpt>
      <trkpt lat="46.63595" lon="5.86367">
        <ele>810.2</ele>
        <time>2022-12-06T08:52:13Z</time>
      </trkpt>
      <trkpt lat="46.63596" lon="5.8636">
        <ele>810.6</ele>
        <time>2022-12-06T08:52:18Z</time>
      </trkpt>
      <trkpt lat="46.63598" lon="5.86354">
        <ele>811</ele>
        <time>2022-12-06T08:52:23Z</time>
      </trkpt>
      <trkpt lat="46.63602" lon="5.86349">
        <ele>811.1</ele>
        <time>2022-12-06T08:52:29Z</time>
      </trkpt>
      <trkpt lat="46.63606" lon="5.86346">
        <ele>810.9</ele>
        <time>2022-12-06T08:52:34Z</time>
      </trkpt>
      <trkpt lat="46.63611" lon="5.86342">
        <ele>810.4</ele>
        <time>2022-12-06T08:52:40Z</time>
      </trkpt>
      <trkpt lat="46.63615" lon="5.86338">
        <ele>809.8</ele>
        <time>2022-12-06T08:52:45Z</time>
      </trkpt>
      <trkpt lat="46.63618" lon="5.86333">
        <ele>809.4</ele>
        <time>2022-12-06T08:52:49Z</time>
      </trkpt>
      <trkpt lat="46.63621" lon="5.86327">
        <ele>808.6</ele>
        <time>2022-12-06T08:52:53Z</time>
      </trkpt>
      <trkpt lat="46.63623" lon="5.8632">
        <ele>807.5</ele>
        <time>2022-12-06T08:52:58Z</time>
      </trkpt>
      <trkpt lat="46.63624" lon="5.86313">
        <ele>806.7</ele>
        <time>2022-12-06T08:53:03Z</time>
      </trkpt>
      <trkpt lat="46.63625" lon="5.86306">
        <ele>805.9</ele>
        <time>2022-12-06T08:53:09Z</time>
      </trkpt>
      <trkpt lat="46.63625" lon="5.86299">
        <ele>805.8</ele>
        <time>2022-12-06T08:53:15Z</time>
      </trkpt>
      <trkpt lat="46.63628" lon="5.86292">
        <ele>806.2</ele>
        <time>2022-12-06T08:53:20Z</time>
      </trkpt>
      <trkpt lat="46.6363" lon="5.86286">
        <ele>806.3</ele>
        <time>2022-12-06T08:53:24Z</time>
      </trkpt>
      <trkpt lat="46.63631" lon="5.86278">
        <ele>806.9</ele>
        <time>2022-12-06T08:53:29Z</time>
      </trkpt>
      <trkpt lat="46.63632" lon="5.86271">
        <ele>807.4</ele>
        <time>2022-12-06T08:53:35Z</time>
      </trkpt>
      <trkpt lat="46.63633" lon="5.86264">
        <ele>807.5</ele>
        <time>2022-12-06T08:53:40Z</time>
      </trkpt>
      <trkpt lat="46.63633" lon="5.86257">
        <ele>807.8</ele>
        <time>2022-12-06T08:53:44Z</time>
      </trkpt>
      <trkpt lat="46.63634" lon="5.8625">
        <ele>808.3</ele>
        <time>2022-12-06T08:53:48Z</time>
      </trkpt>
      <trkpt lat="46.63635" lon="5.86243">
        <ele>808.7</ele>
        <time>2022-12-06T08:53:54Z</time>
      </trkpt>
      <trkpt lat="46.63635" lon="5.86236">
        <ele>809.1</ele>
        <time>2022-12-06T08:54:01Z</time>
      </trkpt>
      <trkpt lat="46.63635" lon="5.86229">
        <ele>809.2</ele>
        <time>2022-12-06T08:54:07Z</time>
      </trkpt>
      <trkpt lat="46.63634" lon="5.86222">
        <ele>809.1</ele>
        <time>2022-12-06T08:54:13Z</time>
      </trkpt>
      <trkpt lat="46.63629" lon="5.8622">
        <ele>805.4</ele>
        <time>2022-12-06T08:54:27Z</time>
      </trkpt>
      <trkpt lat="46.63624" lon="5.86218">
        <ele>804.5</ele>
        <time>2022-12-06T08:54:31Z</time>
      </trkpt>
      <trkpt lat="46.6362" lon="5.86215">
        <ele>803.1</ele>
        <time>2022-12-06T08:54:37Z</time>
      </trkpt>
      <trkpt lat="46.63616" lon="5.86211">
        <ele>802.2</ele>
        <time>2022-12-06T08:54:42Z</time>
      </trkpt>
      <trkpt lat="46.63612" lon="5.86207">
        <ele>801.6</ele>
        <time>2022-12-06T08:54:46Z</time>
      </trkpt>
      <trkpt lat="46.63608" lon="5.86203">
        <ele>801.1</ele>
        <time>2022-12-06T08:54:50Z</time>
      </trkpt>
      <trkpt lat="46.63604" lon="5.86199">
        <ele>800.7</ele>
        <time>2022-12-06T08:54:56Z</time>
      </trkpt>
      <trkpt lat="46.63599" lon="5.86196">
        <ele>800.3</ele>
        <time>2022-12-06T08:55:01Z</time>
      </trkpt>
      <trkpt lat="46.63595" lon="5.86193">
        <ele>800.3</ele>
        <time>2022-12-06T08:55:06Z</time>
      </trkpt>
      <trkpt lat="46.63591" lon="5.86189">
        <ele>800.3</ele>
        <time>2022-12-06T08:55:12Z</time>
      </trkpt>
      <trkpt lat="46.63587" lon="5.86183">
        <ele>800.4</ele>
        <time>2022-12-06T08:55:17Z</time>
      </trkpt>
      <trkpt lat="46.63583" lon="5.86177">
        <ele>800.4</ele>
        <time>2022-12-06T08:55:23Z</time>
      </trkpt>
      <trkpt lat="46.63581" lon="5.86171">
        <ele>800.8</ele>
        <time>2022-12-06T08:55:27Z</time>
      </trkpt>
      <trkpt lat="46.63579" lon="5.86165">
        <ele>801.5</ele>
        <time>2022-12-06T08:55:32Z</time>
      </trkpt>
      <trkpt lat="46.63575" lon="5.86159">
        <ele>802.4</ele>
        <time>2022-12-06T08:55:37Z</time>
      </trkpt>
      <trkpt lat="46.63572" lon="5.86155">
        <ele>802.9</ele>
        <time>2022-12-06T08:55:43Z</time>
      </trkpt>
      <trkpt lat="46.63567" lon="5.86152">
        <ele>802.8</ele>
        <time>2022-12-06T08:55:48Z</time>
      </trkpt>
      <trkpt lat="46.63563" lon="5.86149">
        <ele>802.7</ele>
        <time>2022-12-06T08:55:52Z</time>
      </trkpt>
      <trkpt lat="46.63558" lon="5.86147">
        <ele>802.4</ele>
        <time>2022-12-06T08:55:58Z</time>
      </trkpt>
      <trkpt lat="46.63553" lon="5.86146">
        <ele>801.9</ele>
        <time>2022-12-06T08:56:04Z</time>
      </trkpt>
      <trkpt lat="46.63548" lon="5.86146">
        <ele>801.3</ele>
        <time>2022-12-06T08:56:10Z</time>
      </trkpt>
      <trkpt lat="46.63543" lon="5.86144">
        <ele>800.7</ele>
        <time>2022-12-06T08:56:17Z</time>
      </trkpt>
      <trkpt lat="46.63539" lon="5.86142">
        <ele>799.8</ele>
        <time>2022-12-06T08:56:23Z</time>
      </trkpt>
      <trkpt lat="46.63534" lon="5.86141">
        <ele>798.8</ele>
        <time>2022-12-06T08:56:28Z</time>
      </trkpt>
      <trkpt lat="46.6353" lon="5.86139">
        <ele>797.8</ele>
        <time>2022-12-06T08:56:34Z</time>
      </trkpt>
      <trkpt lat="46.63525" lon="5.8614">
        <ele>797</ele>
        <time>2022-12-06T08:56:40Z</time>
      </trkpt>
      <trkpt lat="46.6352" lon="5.86141">
        <ele>796.5</ele>
        <time>2022-12-06T08:56:46Z</time>
      </trkpt>
      <trkpt lat="46.63516" lon="5.86138">
        <ele>796.3</ele>
        <time>2022-12-06T08:56:51Z</time>
      </trkpt>
      <trkpt lat="46.63511" lon="5.86137">
        <ele>795.2</ele>
        <time>2022-12-06T08:56:57Z</time>
      </trkpt>
      <trkpt lat="46.63506" lon="5.86138">
        <ele>793</ele>
        <time>2022-12-06T08:57:04Z</time>
      </trkpt>
      <trkpt lat="46.63501" lon="5.86138">
        <ele>791.4</ele>
        <time>2022-12-06T08:57:10Z</time>
      </trkpt>
      <trkpt lat="46.63496" lon="5.86137">
        <ele>790</ele>
        <time>2022-12-06T08:57:15Z</time>
      </trkpt>
      <trkpt lat="46.63492" lon="5.86134">
        <ele>788.3</ele>
        <time>2022-12-06T08:57:21Z</time>
      </trkpt>
      <trkpt lat="46.63488" lon="5.86129">
        <ele>787.9</ele>
        <time>2022-12-06T08:57:26Z</time>
      </trkpt>
      <trkpt lat="46.63486" lon="5.86123">
        <ele>788.2</ele>
        <time>2022-12-06T08:57:33Z</time>
      </trkpt>
      <trkpt lat="46.63482" lon="5.86118">
        <ele>788.2</ele>
        <time>2022-12-06T08:57:38Z</time>
      </trkpt>
      <trkpt lat="46.63477" lon="5.86114">
        <ele>787.2</ele>
        <time>2022-12-06T08:57:42Z</time>
      </trkpt>
      <trkpt lat="46.63474" lon="5.8611">
        <ele>785.7</ele>
        <time>2022-12-06T08:57:47Z</time>
      </trkpt>
      <trkpt lat="46.6347" lon="5.86105">
        <ele>784</ele>
        <time>2022-12-06T08:57:52Z</time>
      </trkpt>
      <trkpt lat="46.63467" lon="5.86099">
        <ele>783</ele>
        <time>2022-12-06T08:57:57Z</time>
      </trkpt>
      <trkpt lat="46.63464" lon="5.86093">
        <ele>783.3</ele>
        <time>2022-12-06T08:58:02Z</time>
      </trkpt>
      <trkpt lat="46.63463" lon="5.86086">
        <ele>783.7</ele>
        <time>2022-12-06T08:58:08Z</time>
      </trkpt>
      <trkpt lat="46.63461" lon="5.8608">
        <ele>783.9</ele>
        <time>2022-12-06T08:58:12Z</time>
      </trkpt>
      <trkpt lat="46.6346" lon="5.86073">
        <ele>783.9</ele>
        <time>2022-12-06T08:58:16Z</time>
      </trkpt>
      <trkpt lat="46.63457" lon="5.86066">
        <ele>784.4</ele>
        <time>2022-12-06T08:58:21Z</time>
      </trkpt>
      <trkpt lat="46.63457" lon="5.86059">
        <ele>784.9</ele>
        <time>2022-12-06T08:58:26Z</time>
      </trkpt>
      <trkpt lat="46.63458" lon="5.86052">
        <ele>785.5</ele>
        <time>2022-12-06T08:58:30Z</time>
      </trkpt>
      <trkpt lat="46.63456" lon="5.86045">
        <ele>786</ele>
        <time>2022-12-06T08:58:35Z</time>
      </trkpt>
      <trkpt lat="46.63455" lon="5.86038">
        <ele>786</ele>
        <time>2022-12-06T08:58:40Z</time>
      </trkpt>
      <trkpt lat="46.63454" lon="5.86031">
        <ele>786.1</ele>
        <time>2022-12-06T08:58:44Z</time>
      </trkpt>
      <trkpt lat="46.63453" lon="5.86022">
        <ele>786.3</ele>
        <time>2022-12-06T08:58:48Z</time>
      </trkpt>
      <trkpt lat="46.63452" lon="5.86015">
        <ele>787.1</ele>
        <time>2022-12-06T08:58:53Z</time>
      </trkpt>
      <trkpt lat="46.6345" lon="5.8601">
        <ele>787.7</ele>
        <time>2022-12-06T08:58:58Z</time>
      </trkpt>
      <trkpt lat="46.63446" lon="5.86005">
        <ele>787.8</ele>
        <time>2022-12-06T08:59:03Z</time>
      </trkpt>
      <trkpt lat="46.63443" lon="5.85998">
        <ele>788</ele>
        <time>2022-12-06T08:59:08Z</time>
      </trkpt>
      <trkpt lat="46.63442" lon="5.85991">
        <ele>787.5</ele>
        <time>2022-12-06T08:59:13Z</time>
      </trkpt>
      <trkpt lat="46.63441" lon="5.85984">
        <ele>787</ele>
        <time>2022-12-06T08:59:18Z</time>
      </trkpt>
      <trkpt lat="46.6344" lon="5.85977">
        <ele>786.7</ele>
        <time>2022-12-06T08:59:23Z</time>
      </trkpt>
      <trkpt lat="46.63438" lon="5.85969">
        <ele>787</ele>
        <time>2022-12-06T08:59:28Z</time>
      </trkpt>
      <trkpt lat="46.63436" lon="5.85962">
        <ele>787.9</ele>
        <time>2022-12-06T08:59:31Z</time>
      </trkpt>
      <trkpt lat="46.63437" lon="5.85956">
        <ele>789.8</ele>
        <time>2022-12-06T08:59:36Z</time>
      </trkpt>
      <trkpt lat="46.63435" lon="5.85949">
        <ele>790.9</ele>
        <time>2022-12-06T08:59:43Z</time>
      </trkpt>
      <trkpt lat="46.63434" lon="5.85942">
        <ele>791.6</ele>
        <time>2022-12-06T08:59:47Z</time>
      </trkpt>
      <trkpt lat="46.63433" lon="5.85935">
        <ele>793</ele>
        <time>2022-12-06T08:59:51Z</time>
      </trkpt>
      <trkpt lat="46.63433" lon="5.85928">
        <ele>794.3</ele>
        <time>2022-12-06T08:59:55Z</time>
      </trkpt>
      <trkpt lat="46.63432" lon="5.85921">
        <ele>795.7</ele>
        <time>2022-12-06T08:59:59Z</time>
      </trkpt>
      <trkpt lat="46.63432" lon="5.85915">
        <ele>796.7</ele>
        <time>2022-12-06T09:00:04Z</time>
      </trkpt>
      <trkpt lat="46.63431" lon="5.85907">
        <ele>797</ele>
        <time>2022-12-06T09:00:09Z</time>
      </trkpt>
      <trkpt lat="46.6343" lon="5.85901">
        <ele>796.9</ele>
        <time>2022-12-06T09:00:14Z</time>
      </trkpt>
      <trkpt lat="46.6343" lon="5.85894">
        <ele>795.9</ele>
        <time>2022-12-06T09:00:20Z</time>
      </trkpt>
      <trkpt lat="46.6343" lon="5.85888">
        <ele>794.8</ele>
        <time>2022-12-06T09:00:25Z</time>
      </trkpt>
      <trkpt lat="46.63428" lon="5.85881">
        <ele>793.3</ele>
        <time>2022-12-06T09:00:30Z</time>
      </trkpt>
      <trkpt lat="46.63427" lon="5.85874">
        <ele>791.9</ele>
        <time>2022-12-06T09:00:35Z</time>
      </trkpt>
      <trkpt lat="46.63426" lon="5.85868">
        <ele>790.7</ele>
        <time>2022-12-06T09:00:39Z</time>
      </trkpt>
      <trkpt lat="46.63424" lon="5.85861">
        <ele>789.5</ele>
        <time>2022-12-06T09:00:43Z</time>
      </trkpt>
      <trkpt lat="46.63423" lon="5.85854">
        <ele>788</ele>
        <time>2022-12-06T09:00:48Z</time>
      </trkpt>
      <trkpt lat="46.63423" lon="5.85847">
        <ele>786.7</ele>
        <time>2022-12-06T09:00:53Z</time>
      </trkpt>
      <trkpt lat="46.63422" lon="5.8584">
        <ele>785.1</ele>
        <time>2022-12-06T09:01:00Z</time>
      </trkpt>
      <trkpt lat="46.6342" lon="5.85833">
        <ele>783.6</ele>
        <time>2022-12-06T09:01:05Z</time>
      </trkpt>
      <trkpt lat="46.6342" lon="5.85825">
        <ele>782.5</ele>
        <time>2022-12-06T09:01:09Z</time>
      </trkpt>
      <trkpt lat="46.63419" lon="5.85818">
        <ele>781.6</ele>
        <time>2022-12-06T09:01:13Z</time>
      </trkpt>
      <trkpt lat="46.63418" lon="5.85812">
        <ele>780.4</ele>
        <time>2022-12-06T09:01:18Z</time>
      </trkpt>
      <trkpt lat="46.63416" lon="5.85805">
        <ele>779</ele>
        <time>2022-12-06T09:01:23Z</time>
      </trkpt>
      <trkpt lat="46.63413" lon="5.858">
        <ele>777.8</ele>
        <time>2022-12-06T09:01:29Z</time>
      </trkpt>
      <trkpt lat="46.63409" lon="5.85795">
        <ele>776.2</ele>
        <time>2022-12-06T09:01:36Z</time>
      </trkpt>
      <trkpt lat="46.63405" lon="5.85792">
        <ele>775.1</ele>
        <time>2022-12-06T09:01:41Z</time>
      </trkpt>
      <trkpt lat="46.63401" lon="5.85787">
        <ele>774.1</ele>
        <time>2022-12-06T09:01:45Z</time>
      </trkpt>
      <trkpt lat="46.63397" lon="5.85782">
        <ele>772.9</ele>
        <time>2022-12-06T09:01:50Z</time>
      </trkpt>
      <trkpt lat="46.63394" lon="5.85776">
        <ele>772.6</ele>
        <time>2022-12-06T09:01:55Z</time>
      </trkpt>
      <trkpt lat="46.63391" lon="5.8577">
        <ele>772.9</ele>
        <time>2022-12-06T09:01:59Z</time>
      </trkpt>
      <trkpt lat="46.63388" lon="5.85763">
        <ele>773.6</ele>
        <time>2022-12-06T09:02:04Z</time>
      </trkpt>
      <trkpt lat="46.63387" lon="5.85756">
        <ele>774.1</ele>
        <time>2022-12-06T09:02:09Z</time>
      </trkpt>
      <trkpt lat="46.63385" lon="5.85749">
        <ele>774.3</ele>
        <time>2022-12-06T09:02:14Z</time>
      </trkpt>
      <trkpt lat="46.63382" lon="5.85743">
        <ele>774.6</ele>
        <time>2022-12-06T09:02:18Z</time>
      </trkpt>
      <trkpt lat="46.6338" lon="5.85737">
        <ele>774.9</ele>
        <time>2022-12-06T09:02:23Z</time>
      </trkpt>
      <trkpt lat="46.63378" lon="5.85731">
        <ele>775.5</ele>
        <time>2022-12-06T09:02:28Z</time>
      </trkpt>
      <trkpt lat="46.63375" lon="5.85725">
        <ele>776.7</ele>
        <time>2022-12-06T09:02:33Z</time>
      </trkpt>
      <trkpt lat="46.63372" lon="5.85719">
        <ele>777.9</ele>
        <time>2022-12-06T09:02:38Z</time>
      </trkpt>
      <trkpt lat="46.6337" lon="5.85712">
        <ele>778.1</ele>
        <time>2022-12-06T09:02:43Z</time>
      </trkpt>
      <trkpt lat="46.63367" lon="5.85704">
        <ele>778.4</ele>
        <time>2022-12-06T09:02:48Z</time>
      </trkpt>
      <trkpt lat="46.63365" lon="5.85698">
        <ele>778.3</ele>
        <time>2022-12-06T09:02:54Z</time>
      </trkpt>
      <trkpt lat="46.63363" lon="5.85693">
        <ele>778.1</ele>
        <time>2022-12-06T09:03:00Z</time>
      </trkpt>
      <trkpt lat="46.63361" lon="5.85686">
        <ele>778.2</ele>
        <time>2022-12-06T09:03:05Z</time>
      </trkpt>
      <trkpt lat="46.63359" lon="5.8568">
        <ele>778.8</ele>
        <time>2022-12-06T09:03:11Z</time>
      </trkpt>
      <trkpt lat="46.63356" lon="5.85674">
        <ele>779.7</ele>
        <time>2022-12-06T09:03:18Z</time>
      </trkpt>
      <trkpt lat="46.63355" lon="5.85668">
        <ele>779.8</ele>
        <time>2022-12-06T09:03:26Z</time>
      </trkpt>
      <trkpt lat="46.63352" lon="5.85662">
        <ele>780.1</ele>
        <time>2022-12-06T09:03:31Z</time>
      </trkpt>
      <trkpt lat="46.6335" lon="5.85657">
        <ele>780.4</ele>
        <time>2022-12-06T09:03:37Z</time>
      </trkpt>
      <trkpt lat="46.63348" lon="5.85651">
        <ele>779.7</ele>
        <time>2022-12-06T09:03:45Z</time>
      </trkpt>
      <trkpt lat="46.63345" lon="5.85643">
        <ele>779.4</ele>
        <time>2022-12-06T09:03:50Z</time>
      </trkpt>
      <trkpt lat="46.63343" lon="5.85636">
        <ele>778.6</ele>
        <time>2022-12-06T09:03:55Z</time>
      </trkpt>
      <trkpt lat="46.63341" lon="5.8563">
        <ele>777.3</ele>
        <time>2022-12-06T09:04:01Z</time>
      </trkpt>
      <trkpt lat="46.63338" lon="5.85624">
        <ele>775.9</ele>
        <time>2022-12-06T09:04:08Z</time>
      </trkpt>
      <trkpt lat="46.63335" lon="5.85618">
        <ele>775.1</ele>
        <time>2022-12-06T09:04:13Z</time>
      </trkpt>
      <trkpt lat="46.63333" lon="5.85612">
        <ele>773.6</ele>
        <time>2022-12-06T09:04:20Z</time>
      </trkpt>
      <trkpt lat="46.6333" lon="5.85606">
        <ele>772.3</ele>
        <time>2022-12-06T09:04:26Z</time>
      </trkpt>
      <trkpt lat="46.63328" lon="5.856">
        <ele>770.5</ele>
        <time>2022-12-06T09:04:31Z</time>
      </trkpt>
      <trkpt lat="46.63324" lon="5.85594">
        <ele>768.6</ele>
        <time>2022-12-06T09:04:36Z</time>
      </trkpt>
      <trkpt lat="46.63322" lon="5.85587">
        <ele>766.9</ele>
        <time>2022-12-06T09:04:41Z</time>
      </trkpt>
      <trkpt lat="46.63319" lon="5.85581">
        <ele>764.9</ele>
        <time>2022-12-06T09:04:47Z</time>
      </trkpt>
      <trkpt lat="46.63315" lon="5.85577">
        <ele>762.8</ele>
        <time>2022-12-06T09:04:54Z</time>
      </trkpt>
      <trkpt lat="46.63313" lon="5.8557">
        <ele>760.8</ele>
        <time>2022-12-06T09:04:58Z</time>
      </trkpt>
      <trkpt lat="46.63312" lon="5.85564">
        <ele>758.8</ele>
        <time>2022-12-06T09:05:03Z</time>
      </trkpt>
      <trkpt lat="46.63311" lon="5.85556">
        <ele>756.1</ele>
        <time>2022-12-06T09:05:09Z</time>
      </trkpt>
      <trkpt lat="46.6331" lon="5.85549">
        <ele>754.6</ele>
        <time>2022-12-06T09:05:14Z</time>
      </trkpt>
      <trkpt lat="46.63308" lon="5.85541">
        <ele>753.5</ele>
        <time>2022-12-06T09:05:19Z</time>
      </trkpt>
      <trkpt lat="46.63307" lon="5.85534">
        <ele>753.3</ele>
        <time>2022-12-06T09:05:23Z</time>
      </trkpt>
      <trkpt lat="46.63305" lon="5.85527">
        <ele>753</ele>
        <time>2022-12-06T09:05:28Z</time>
      </trkpt>
      <trkpt lat="46.63303" lon="5.8552">
        <ele>753.7</ele>
        <time>2022-12-06T09:05:32Z</time>
      </trkpt>
      <trkpt lat="46.63301" lon="5.85513">
        <ele>754.8</ele>
        <time>2022-12-06T09:05:37Z</time>
      </trkpt>
      <trkpt lat="46.633" lon="5.85506">
        <ele>755.1</ele>
        <time>2022-12-06T09:05:43Z</time>
      </trkpt>
      <trkpt lat="46.63298" lon="5.855">
        <ele>754.8</ele>
        <time>2022-12-06T09:05:47Z</time>
      </trkpt>
      <trkpt lat="46.63297" lon="5.85493">
        <ele>754.8</ele>
        <time>2022-12-06T09:05:52Z</time>
      </trkpt>
      <trkpt lat="46.63293" lon="5.85486">
        <ele>754.5</ele>
        <time>2022-12-06T09:05:57Z</time>
      </trkpt>
      <trkpt lat="46.63289" lon="5.85482">
        <ele>754.7</ele>
        <time>2022-12-06T09:06:01Z</time>
      </trkpt>
      <trkpt lat="46.63285" lon="5.85479">
        <ele>755.2</ele>
        <time>2022-12-06T09:06:08Z</time>
      </trkpt>
      <trkpt lat="46.63281" lon="5.85476">
        <ele>755.7</ele>
        <time>2022-12-06T09:06:13Z</time>
      </trkpt>
      <trkpt lat="46.63276" lon="5.85472">
        <ele>755.8</ele>
        <time>2022-12-06T09:06:19Z</time>
      </trkpt>
      <trkpt lat="46.63272" lon="5.85467">
        <ele>755.7</ele>
        <time>2022-12-06T09:06:24Z</time>
      </trkpt>
      <trkpt lat="46.63268" lon="5.85462">
        <ele>755.5</ele>
        <time>2022-12-06T09:06:29Z</time>
      </trkpt>
      <trkpt lat="46.63265" lon="5.85457">
        <ele>755.4</ele>
        <time>2022-12-06T09:06:33Z</time>
      </trkpt>
      <trkpt lat="46.63262" lon="5.85452">
        <ele>755.3</ele>
        <time>2022-12-06T09:06:38Z</time>
      </trkpt>
      <trkpt lat="46.63258" lon="5.85448">
        <ele>755</ele>
        <time>2022-12-06T09:06:42Z</time>
      </trkpt>
      <trkpt lat="46.63253" lon="5.85445">
        <ele>755.5</ele>
        <time>2022-12-06T09:06:48Z</time>
      </trkpt>
      <trkpt lat="46.63249" lon="5.85442">
        <ele>756.4</ele>
        <time>2022-12-06T09:06:54Z</time>
      </trkpt>
      <trkpt lat="46.63245" lon="5.8544">
        <ele>756.9</ele>
        <time>2022-12-06T09:06:58Z</time>
      </trkpt>
      <trkpt lat="46.6324" lon="5.85438">
        <ele>757.2</ele>
        <time>2022-12-06T09:07:04Z</time>
      </trkpt>
      <trkpt lat="46.63235" lon="5.85434">
        <ele>757.2</ele>
        <time>2022-12-06T09:07:09Z</time>
      </trkpt>
      <trkpt lat="46.6323" lon="5.8543">
        <ele>756.9</ele>
        <time>2022-12-06T09:07:13Z</time>
      </trkpt>
      <trkpt lat="46.63226" lon="5.85426">
        <ele>757</ele>
        <time>2022-12-06T09:07:18Z</time>
      </trkpt>
      <trkpt lat="46.63222" lon="5.85422">
        <ele>757.3</ele>
        <time>2022-12-06T09:07:23Z</time>
      </trkpt>
      <trkpt lat="46.63217" lon="5.85419">
        <ele>757.5</ele>
        <time>2022-12-06T09:07:28Z</time>
      </trkpt>
      <trkpt lat="46.63213" lon="5.85416">
        <ele>756.9</ele>
        <time>2022-12-06T09:07:33Z</time>
      </trkpt>
      <trkpt lat="46.63209" lon="5.85412">
        <ele>756.3</ele>
        <time>2022-12-06T09:07:38Z</time>
      </trkpt>
      <trkpt lat="46.63205" lon="5.85408">
        <ele>755.7</ele>
        <time>2022-12-06T09:07:42Z</time>
      </trkpt>
      <trkpt lat="46.63201" lon="5.85405">
        <ele>755.3</ele>
        <time>2022-12-06T09:07:46Z</time>
      </trkpt>
      <trkpt lat="46.63197" lon="5.85402">
        <ele>755.2</ele>
        <time>2022-12-06T09:07:51Z</time>
      </trkpt>
      <trkpt lat="46.63192" lon="5.85398">
        <ele>755.4</ele>
        <time>2022-12-06T09:07:57Z</time>
      </trkpt>
      <trkpt lat="46.63187" lon="5.85395">
        <ele>756.1</ele>
        <time>2022-12-06T09:08:02Z</time>
      </trkpt>
      <trkpt lat="46.63183" lon="5.85394">
        <ele>756.6</ele>
        <time>2022-12-06T09:08:06Z</time>
      </trkpt>
      <trkpt lat="46.63178" lon="5.85393">
        <ele>757.1</ele>
        <time>2022-12-06T09:08:10Z</time>
      </trkpt>
      <trkpt lat="46.63173" lon="5.85393">
        <ele>757.8</ele>
        <time>2022-12-06T09:08:15Z</time>
      </trkpt>
      <trkpt lat="46.63168" lon="5.85393">
        <ele>757.9</ele>
        <time>2022-12-06T09:08:20Z</time>
      </trkpt>
      <trkpt lat="46.63164" lon="5.85394">
        <ele>757.7</ele>
        <time>2022-12-06T09:08:25Z</time>
      </trkpt>
      <trkpt lat="46.63159" lon="5.85395">
        <ele>757.2</ele>
        <time>2022-12-06T09:08:30Z</time>
      </trkpt>
      <trkpt lat="46.63154" lon="5.85397">
        <ele>756.3</ele>
        <time>2022-12-06T09:08:36Z</time>
      </trkpt>
      <trkpt lat="46.63149" lon="5.85398">
        <ele>756.3</ele>
        <time>2022-12-06T09:08:41Z</time>
      </trkpt>
      <trkpt lat="46.63144" lon="5.854">
        <ele>756.6</ele>
        <time>2022-12-06T09:08:47Z</time>
      </trkpt>
      <trkpt lat="46.63139" lon="5.85401">
        <ele>756.7</ele>
        <time>2022-12-06T09:08:52Z</time>
      </trkpt>
      <trkpt lat="46.63134" lon="5.85402">
        <ele>756.4</ele>
        <time>2022-12-06T09:08:57Z</time>
      </trkpt>
      <trkpt lat="46.63129" lon="5.85403">
        <ele>755.4</ele>
        <time>2022-12-06T09:09:02Z</time>
      </trkpt>
      <trkpt lat="46.63124" lon="5.85405">
        <ele>753.7</ele>
        <time>2022-12-06T09:09:10Z</time>
      </trkpt>
      <trkpt lat="46.63119" lon="5.85404">
        <ele>752.5</ele>
        <time>2022-12-06T09:09:16Z</time>
      </trkpt>
      <trkpt lat="46.63114" lon="5.85403">
        <ele>751.4</ele>
        <time>2022-12-06T09:09:21Z</time>
      </trkpt>
      <trkpt lat="46.63109" lon="5.85401">
        <ele>750.2</ele>
        <time>2022-12-06T09:09:26Z</time>
      </trkpt>
      <trkpt lat="46.63104" lon="5.85399">
        <ele>748.6</ele>
        <time>2022-12-06T09:09:32Z</time>
      </trkpt>
      <trkpt lat="46.63099" lon="5.85398">
        <ele>747.3</ele>
        <time>2022-12-06T09:09:36Z</time>
      </trkpt>
      <trkpt lat="46.63093" lon="5.85396">
        <ele>745.7</ele>
        <time>2022-12-06T09:09:41Z</time>
      </trkpt>
      <trkpt lat="46.63088" lon="5.85395">
        <ele>744.5</ele>
        <time>2022-12-06T09:09:45Z</time>
      </trkpt>
      <trkpt lat="46.63084" lon="5.85395">
        <ele>743.6</ele>
        <time>2022-12-06T09:09:50Z</time>
      </trkpt>
      <trkpt lat="46.63079" lon="5.85392">
        <ele>742.5</ele>
        <time>2022-12-06T09:09:57Z</time>
      </trkpt>
      <trkpt lat="46.63075" lon="5.85388">
        <ele>741.5</ele>
        <time>2022-12-06T09:10:03Z</time>
      </trkpt>
      <trkpt lat="46.63071" lon="5.85385">
        <ele>740.9</ele>
        <time>2022-12-06T09:10:09Z</time>
      </trkpt>
      <trkpt lat="46.63067" lon="5.85381">
        <ele>740.5</ele>
        <time>2022-12-06T09:10:15Z</time>
      </trkpt>
      <trkpt lat="46.63062" lon="5.85378">
        <ele>740.1</ele>
        <time>2022-12-06T09:10:20Z</time>
      </trkpt>
      <trkpt lat="46.63057" lon="5.85376">
        <ele>739.5</ele>
        <time>2022-12-06T09:10:25Z</time>
      </trkpt>
      <trkpt lat="46.63052" lon="5.85375">
        <ele>738.6</ele>
        <time>2022-12-06T09:10:30Z</time>
      </trkpt>
      <trkpt lat="46.63047" lon="5.85373">
        <ele>737.6</ele>
        <time>2022-12-06T09:10:35Z</time>
      </trkpt>
      <trkpt lat="46.63042" lon="5.85369">
        <ele>736.7</ele>
        <time>2022-12-06T09:10:40Z</time>
      </trkpt>
      <trkpt lat="46.63038" lon="5.85366">
        <ele>735.7</ele>
        <time>2022-12-06T09:10:45Z</time>
      </trkpt>
      <trkpt lat="46.63033" lon="5.85364">
        <ele>734.7</ele>
        <time>2022-12-06T09:10:50Z</time>
      </trkpt>
      <trkpt lat="46.63028" lon="5.85361">
        <ele>733.4</ele>
        <time>2022-12-06T09:10:56Z</time>
      </trkpt>
      <trkpt lat="46.63024" lon="5.85357">
        <ele>731.9</ele>
        <time>2022-12-06T09:11:01Z</time>
      </trkpt>
      <trkpt lat="46.63019" lon="5.85354">
        <ele>730.7</ele>
        <time>2022-12-06T09:11:06Z</time>
      </trkpt>
      <trkpt lat="46.63015" lon="5.85351">
        <ele>729.9</ele>
        <time>2022-12-06T09:11:11Z</time>
      </trkpt>
      <trkpt lat="46.63011" lon="5.8535">
        <ele>728.9</ele>
        <time>2022-12-06T09:11:16Z</time>
      </trkpt>
      <trkpt lat="46.63006" lon="5.85348">
        <ele>727.9</ele>
        <time>2022-12-06T09:11:21Z</time>
      </trkpt>
      <trkpt lat="46.63001" lon="5.85345">
        <ele>727.1</ele>
        <time>2022-12-06T09:11:26Z</time>
      </trkpt>
      <trkpt lat="46.62997" lon="5.85342">
        <ele>726.8</ele>
        <time>2022-12-06T09:11:31Z</time>
      </trkpt>
      <trkpt lat="46.62992" lon="5.85339">
        <ele>726.6</ele>
        <time>2022-12-06T09:11:36Z</time>
      </trkpt>
      <trkpt lat="46.62988" lon="5.85335">
        <ele>726.5</ele>
        <time>2022-12-06T09:11:41Z</time>
      </trkpt>
      <trkpt lat="46.62983" lon="5.85333">
        <ele>726.4</ele>
        <time>2022-12-06T09:11:45Z</time>
      </trkpt>
      <trkpt lat="46.62979" lon="5.85331">
        <ele>726.1</ele>
        <time>2022-12-06T09:11:50Z</time>
      </trkpt>
      <trkpt lat="46.62975" lon="5.85327">
        <ele>725.5</ele>
        <time>2022-12-06T09:11:56Z</time>
      </trkpt>
      <trkpt lat="46.62972" lon="5.85322">
        <ele>725.1</ele>
        <time>2022-12-06T09:12:01Z</time>
      </trkpt>
      <trkpt lat="46.62968" lon="5.85317">
        <ele>724.6</ele>
        <time>2022-12-06T09:12:06Z</time>
      </trkpt>
      <trkpt lat="46.62963" lon="5.85314">
        <ele>724.4</ele>
        <time>2022-12-06T09:12:12Z</time>
      </trkpt>
      <trkpt lat="46.62958" lon="5.85311">
        <ele>724.3</ele>
        <time>2022-12-06T09:12:17Z</time>
      </trkpt>
      <trkpt lat="46.62954" lon="5.85307">
        <ele>724</ele>
        <time>2022-12-06T09:12:22Z</time>
      </trkpt>
      <trkpt lat="46.6295" lon="5.85305">
        <ele>723.6</ele>
        <time>2022-12-06T09:12:27Z</time>
      </trkpt>
      <trkpt lat="46.62945" lon="5.85301">
        <ele>722.8</ele>
        <time>2022-12-06T09:12:33Z</time>
      </trkpt>
      <trkpt lat="46.62941" lon="5.85299">
        <ele>722.5</ele>
        <time>2022-12-06T09:12:38Z</time>
      </trkpt>
      <trkpt lat="46.62936" lon="5.85296">
        <ele>722.2</ele>
        <time>2022-12-06T09:12:43Z</time>
      </trkpt>
      <trkpt lat="46.62931" lon="5.85295">
        <ele>721.7</ele>
        <time>2022-12-06T09:12:49Z</time>
      </trkpt>
      <trkpt lat="46.62926" lon="5.85295">
        <ele>721.7</ele>
        <time>2022-12-06T09:12:54Z</time>
      </trkpt>
      <trkpt lat="46.62921" lon="5.85293">
        <ele>721.8</ele>
        <time>2022-12-06T09:12:59Z</time>
      </trkpt>
      <trkpt lat="46.62916" lon="5.8529">
        <ele>721.5</ele>
        <time>2022-12-06T09:13:05Z</time>
      </trkpt>
      <trkpt lat="46.62912" lon="5.85289">
        <ele>721.3</ele>
        <time>2022-12-06T09:13:10Z</time>
      </trkpt>
      <trkpt lat="46.62906" lon="5.85287">
        <ele>720.8</ele>
        <time>2022-12-06T09:13:16Z</time>
      </trkpt>
      <trkpt lat="46.62902" lon="5.85283">
        <ele>720.2</ele>
        <time>2022-12-06T09:13:22Z</time>
      </trkpt>
      <trkpt lat="46.62897" lon="5.85281">
        <ele>719.7</ele>
        <time>2022-12-06T09:13:27Z</time>
      </trkpt>
      <trkpt lat="46.62893" lon="5.8528">
        <ele>719.1</ele>
        <time>2022-12-06T09:13:32Z</time>
      </trkpt>
      <trkpt lat="46.62888" lon="5.85277">
        <ele>718.3</ele>
        <time>2022-12-06T09:13:37Z</time>
      </trkpt>
      <trkpt lat="46.62884" lon="5.85274">
        <ele>717.5</ele>
        <time>2022-12-06T09:13:42Z</time>
      </trkpt>
      <trkpt lat="46.62879" lon="5.85274">
        <ele>716.8</ele>
        <time>2022-12-06T09:13:47Z</time>
      </trkpt>
      <trkpt lat="46.62874" lon="5.85275">
        <ele>716.2</ele>
        <time>2022-12-06T09:13:52Z</time>
      </trkpt>
      <trkpt lat="46.62869" lon="5.85276">
        <ele>715.7</ele>
        <time>2022-12-06T09:13:57Z</time>
      </trkpt>
      <trkpt lat="46.62863" lon="5.85276">
        <ele>715.6</ele>
        <time>2022-12-06T09:14:01Z</time>
      </trkpt>
      <trkpt lat="46.62858" lon="5.85274">
        <ele>715.9</ele>
        <time>2022-12-06T09:14:04Z</time>
      </trkpt>
      <trkpt lat="46.62853" lon="5.85274">
        <ele>716.4</ele>
        <time>2022-12-06T09:14:08Z</time>
      </trkpt>
      <trkpt lat="46.62848" lon="5.85274">
        <ele>717.1</ele>
        <time>2022-12-06T09:14:13Z</time>
      </trkpt>
      <trkpt lat="46.62843" lon="5.85275">
        <ele>717.6</ele>
        <time>2022-12-06T09:14:19Z</time>
      </trkpt>
      <trkpt lat="46.62839" lon="5.85275">
        <ele>717.9</ele>
        <time>2022-12-06T09:14:26Z</time>
      </trkpt>
      <trkpt lat="46.62834" lon="5.85274">
        <ele>717.4</ele>
        <time>2022-12-06T09:14:34Z</time>
      </trkpt>
      <trkpt lat="46.62829" lon="5.85276">
        <ele>716.8</ele>
        <time>2022-12-06T09:14:40Z</time>
      </trkpt>
      <trkpt lat="46.62824" lon="5.85279">
        <ele>716.3</ele>
        <time>2022-12-06T09:14:45Z</time>
      </trkpt>
      <trkpt lat="46.62819" lon="5.85281">
        <ele>716.2</ele>
        <time>2022-12-06T09:14:50Z</time>
      </trkpt>
      <trkpt lat="46.62815" lon="5.85282">
        <ele>715.9</ele>
        <time>2022-12-06T09:14:56Z</time>
      </trkpt>
      <trkpt lat="46.6281" lon="5.85284">
        <ele>715.2</ele>
        <time>2022-12-06T09:15:02Z</time>
      </trkpt>
      <trkpt lat="46.62804" lon="5.85284">
        <ele>714.8</ele>
        <time>2022-12-06T09:15:07Z</time>
      </trkpt>
      <trkpt lat="46.628" lon="5.85285">
        <ele>714.6</ele>
        <time>2022-12-06T09:15:11Z</time>
      </trkpt>
      <trkpt lat="46.62795" lon="5.85286">
        <ele>714.4</ele>
        <time>2022-12-06T09:15:16Z</time>
      </trkpt>
      <trkpt lat="46.6279" lon="5.85287">
        <ele>714</ele>
        <time>2022-12-06T09:15:20Z</time>
      </trkpt>
      <trkpt lat="46.62785" lon="5.85287">
        <ele>713.7</ele>
        <time>2022-12-06T09:15:25Z</time>
      </trkpt>
      <trkpt lat="46.6278" lon="5.85286">
        <ele>713.5</ele>
        <time>2022-12-06T09:15:31Z</time>
      </trkpt>
      <trkpt lat="46.62775" lon="5.85283">
        <ele>713.5</ele>
        <time>2022-12-06T09:15:36Z</time>
      </trkpt>
      <trkpt lat="46.6277" lon="5.85282">
        <ele>713.7</ele>
        <time>2022-12-06T09:15:42Z</time>
      </trkpt>
      <trkpt lat="46.62766" lon="5.85282">
        <ele>714</ele>
        <time>2022-12-06T09:15:47Z</time>
      </trkpt>
      <trkpt lat="46.62761" lon="5.85282">
        <ele>714.1</ele>
        <time>2022-12-06T09:15:52Z</time>
      </trkpt>
      <trkpt lat="46.62756" lon="5.85282">
        <ele>714.1</ele>
        <time>2022-12-06T09:15:57Z</time>
      </trkpt>
      <trkpt lat="46.62751" lon="5.85283">
        <ele>713.9</ele>
        <time>2022-12-06T09:16:03Z</time>
      </trkpt>
      <trkpt lat="46.62746" lon="5.85282">
        <ele>713.6</ele>
        <time>2022-12-06T09:16:08Z</time>
      </trkpt>
      <trkpt lat="46.62741" lon="5.85283">
        <ele>712.8</ele>
        <time>2022-12-06T09:16:14Z</time>
      </trkpt>
      <trkpt lat="46.62736" lon="5.85284">
        <ele>712</ele>
        <time>2022-12-06T09:16:22Z</time>
      </trkpt>
      <trkpt lat="46.62731" lon="5.85285">
        <ele>711.6</ele>
        <time>2022-12-06T09:16:26Z</time>
      </trkpt>
      <trkpt lat="46.62726" lon="5.85285">
        <ele>711.4</ele>
        <time>2022-12-06T09:16:32Z</time>
      </trkpt>
      <trkpt lat="46.62721" lon="5.85284">
        <ele>710.9</ele>
        <time>2022-12-06T09:16:37Z</time>
      </trkpt>
      <trkpt lat="46.62717" lon="5.85284">
        <ele>709.6</ele>
        <time>2022-12-06T09:16:46Z</time>
      </trkpt>
      <trkpt lat="46.62713" lon="5.85287">
        <ele>709.6</ele>
        <time>2022-12-06T09:17:15Z</time>
      </trkpt>
      <trkpt lat="46.62717" lon="5.85291">
        <ele>709.1</ele>
        <time>2022-12-06T09:18:02Z</time>
      </trkpt>
      <trkpt lat="46.62712" lon="5.85286">
        <ele>709.3</ele>
        <time>2022-12-06T09:18:57Z</time>
      </trkpt>
      <trkpt lat="46.62709" lon="5.85281">
        <ele>710</ele>
        <time>2022-12-06T09:19:01Z</time>
      </trkpt>
      <trkpt lat="46.62705" lon="5.85275">
        <ele>711</ele>
        <time>2022-12-06T09:19:06Z</time>
      </trkpt>
      <trkpt lat="46.62701" lon="5.8527">
        <ele>712</ele>
        <time>2022-12-06T09:19:11Z</time>
      </trkpt>
      <trkpt lat="46.62698" lon="5.85264">
        <ele>713.3</ele>
        <time>2022-12-06T09:19:16Z</time>
      </trkpt>
      <trkpt lat="46.62695" lon="5.85258">
        <ele>714</ele>
        <time>2022-12-06T09:19:21Z</time>
      </trkpt>
      <trkpt lat="46.62692" lon="5.85252">
        <ele>714.3</ele>
        <time>2022-12-06T09:19:27Z</time>
      </trkpt>
      <trkpt lat="46.62689" lon="5.85246">
        <ele>714.6</ele>
        <time>2022-12-06T09:19:32Z</time>
      </trkpt>
      <trkpt lat="46.62686" lon="5.85241">
        <ele>714.3</ele>
        <time>2022-12-06T09:19:37Z</time>
      </trkpt>
      <trkpt lat="46.62682" lon="5.85236">
        <ele>714.4</ele>
        <time>2022-12-06T09:19:42Z</time>
      </trkpt>
      <trkpt lat="46.62678" lon="5.85231">
        <ele>714.1</ele>
        <time>2022-12-06T09:19:47Z</time>
      </trkpt>
      <trkpt lat="46.62674" lon="5.85226">
        <ele>713.6</ele>
        <time>2022-12-06T09:19:53Z</time>
      </trkpt>
      <trkpt lat="46.62671" lon="5.85222">
        <ele>713.1</ele>
        <time>2022-12-06T09:19:58Z</time>
      </trkpt>
      <trkpt lat="46.62667" lon="5.85216">
        <ele>712.2</ele>
        <time>2022-12-06T09:20:04Z</time>
      </trkpt>
      <trkpt lat="46.62665" lon="5.85209">
        <ele>711.6</ele>
        <time>2022-12-06T09:20:09Z</time>
      </trkpt>
      <trkpt lat="46.62662" lon="5.85203">
        <ele>711.1</ele>
        <time>2022-12-06T09:20:14Z</time>
      </trkpt>
      <trkpt lat="46.62659" lon="5.85197">
        <ele>711.2</ele>
        <time>2022-12-06T09:20:19Z</time>
      </trkpt>
      <trkpt lat="46.62658" lon="5.8519">
        <ele>711.7</ele>
        <time>2022-12-06T09:20:24Z</time>
      </trkpt>
      <trkpt lat="46.62659" lon="5.85183">
        <ele>711.8</ele>
        <time>2022-12-06T09:20:30Z</time>
      </trkpt>
      <trkpt lat="46.62661" lon="5.85178">
        <ele>711.3</ele>
        <time>2022-12-06T09:20:35Z</time>
      </trkpt>
      <trkpt lat="46.62665" lon="5.85172">
        <ele>709.7</ele>
        <time>2022-12-06T09:20:42Z</time>
      </trkpt>
      <trkpt lat="46.62668" lon="5.85167">
        <ele>707.1</ele>
        <time>2022-12-06T09:20:48Z</time>
      </trkpt>
      <trkpt lat="46.62671" lon="5.85162">
        <ele>704.3</ele>
        <time>2022-12-06T09:20:53Z</time>
      </trkpt>
      <trkpt lat="46.62673" lon="5.85156">
        <ele>702.7</ele>
        <time>2022-12-06T09:20:58Z</time>
      </trkpt>
      <trkpt lat="46.62675" lon="5.85149">
        <ele>701.2</ele>
        <time>2022-12-06T09:21:05Z</time>
      </trkpt>
      <trkpt lat="46.62677" lon="5.85143">
        <ele>699.9</ele>
        <time>2022-12-06T09:21:10Z</time>
      </trkpt>
      <trkpt lat="46.62679" lon="5.85136">
        <ele>699</ele>
        <time>2022-12-06T09:21:15Z</time>
      </trkpt>
      <trkpt lat="46.62682" lon="5.85131">
        <ele>698.6</ele>
        <time>2022-12-06T09:21:20Z</time>
      </trkpt>
      <trkpt lat="46.62687" lon="5.85127">
        <ele>699.1</ele>
        <time>2022-12-06T09:21:25Z</time>
      </trkpt>
      <trkpt lat="46.62691" lon="5.85125">
        <ele>699.8</ele>
        <time>2022-12-06T09:21:30Z</time>
      </trkpt>
      <trkpt lat="46.62696" lon="5.85121">
        <ele>700.6</ele>
        <time>2022-12-06T09:21:37Z</time>
      </trkpt>
      <trkpt lat="46.62701" lon="5.8512">
        <ele>699.9</ele>
        <time>2022-12-06T09:21:42Z</time>
      </trkpt>
      <trkpt lat="46.62706" lon="5.85118">
        <ele>699</ele>
        <time>2022-12-06T09:21:47Z</time>
      </trkpt>
      <trkpt lat="46.6271" lon="5.85115">
        <ele>697.4</ele>
        <time>2022-12-06T09:21:53Z</time>
      </trkpt>
      <trkpt lat="46.62714" lon="5.85112">
        <ele>695.9</ele>
        <time>2022-12-06T09:22:01Z</time>
      </trkpt>
      <trkpt lat="46.62719" lon="5.85109">
        <ele>695.4</ele>
        <time>2022-12-06T09:22:09Z</time>
      </trkpt>
      <trkpt lat="46.62723" lon="5.85106">
        <ele>695.7</ele>
        <time>2022-12-06T09:22:14Z</time>
      </trkpt>
      <trkpt lat="46.62728" lon="5.85103">
        <ele>696.1</ele>
        <time>2022-12-06T09:22:19Z</time>
      </trkpt>
      <trkpt lat="46.62732" lon="5.85101">
        <ele>696.3</ele>
        <time>2022-12-06T09:22:23Z</time>
      </trkpt>
      <trkpt lat="46.62737" lon="5.85098">
        <ele>696.6</ele>
        <time>2022-12-06T09:22:28Z</time>
      </trkpt>
      <trkpt lat="46.62742" lon="5.85095">
        <ele>697</ele>
        <time>2022-12-06T09:22:34Z</time>
      </trkpt>
      <trkpt lat="46.62746" lon="5.85093">
        <ele>697.7</ele>
        <time>2022-12-06T09:22:41Z</time>
      </trkpt>
      <trkpt lat="46.62751" lon="5.85092">
        <ele>698.9</ele>
        <time>2022-12-06T09:22:47Z</time>
      </trkpt>
      <trkpt lat="46.62757" lon="5.85091">
        <ele>699.4</ele>
        <time>2022-12-06T09:22:51Z</time>
      </trkpt>
      <trkpt lat="46.62761" lon="5.85089">
        <ele>699.6</ele>
        <time>2022-12-06T09:22:54Z</time>
      </trkpt>
      <trkpt lat="46.62767" lon="5.85087">
        <ele>700.1</ele>
        <time>2022-12-06T09:22:58Z</time>
      </trkpt>
      <trkpt lat="46.62771" lon="5.85083">
        <ele>700.5</ele>
        <time>2022-12-06T09:23:02Z</time>
      </trkpt>
      <trkpt lat="46.62774" lon="5.85077">
        <ele>700.8</ele>
        <time>2022-12-06T09:23:07Z</time>
      </trkpt>
      <trkpt lat="46.62777" lon="5.85071">
        <ele>700.7</ele>
        <time>2022-12-06T09:23:12Z</time>
      </trkpt>
      <trkpt lat="46.62779" lon="5.85064">
        <ele>700.1</ele>
        <time>2022-12-06T09:23:17Z</time>
      </trkpt>
      <trkpt lat="46.62782" lon="5.85059">
        <ele>699.1</ele>
        <time>2022-12-06T09:23:22Z</time>
      </trkpt>
      <trkpt lat="46.62786" lon="5.85053">
        <ele>697.9</ele>
        <time>2022-12-06T09:23:28Z</time>
      </trkpt>
      <trkpt lat="46.62788" lon="5.85047">
        <ele>697.2</ele>
        <time>2022-12-06T09:23:33Z</time>
      </trkpt>
      <trkpt lat="46.6279" lon="5.8504">
        <ele>697.3</ele>
        <time>2022-12-06T09:23:38Z</time>
      </trkpt>
      <trkpt lat="46.62792" lon="5.85034">
        <ele>697.5</ele>
        <time>2022-12-06T09:23:43Z</time>
      </trkpt>
      <trkpt lat="46.62794" lon="5.85026">
        <ele>697.8</ele>
        <time>2022-12-06T09:23:48Z</time>
      </trkpt>
      <trkpt lat="46.62796" lon="5.8502">
        <ele>697.8</ele>
        <time>2022-12-06T09:23:53Z</time>
      </trkpt>
      <trkpt lat="46.62798" lon="5.85014">
        <ele>697.7</ele>
        <time>2022-12-06T09:23:58Z</time>
      </trkpt>
      <trkpt lat="46.628" lon="5.85006">
        <ele>697.6</ele>
        <time>2022-12-06T09:24:03Z</time>
      </trkpt>
      <trkpt lat="46.62801" lon="5.85">
        <ele>697.3</ele>
        <time>2022-12-06T09:24:08Z</time>
      </trkpt>
      <trkpt lat="46.62802" lon="5.84993">
        <ele>697.7</ele>
        <time>2022-12-06T09:24:15Z</time>
      </trkpt>
      <trkpt lat="46.62801" lon="5.84985">
        <ele>698.5</ele>
        <time>2022-12-06T09:24:21Z</time>
      </trkpt>
      <trkpt lat="46.62802" lon="5.84978">
        <ele>698.9</ele>
        <time>2022-12-06T09:24:26Z</time>
      </trkpt>
      <trkpt lat="46.62802" lon="5.8497">
        <ele>698.8</ele>
        <time>2022-12-06T09:24:31Z</time>
      </trkpt>
      <trkpt lat="46.62799" lon="5.84964">
        <ele>697.9</ele>
        <time>2022-12-06T09:24:38Z</time>
      </trkpt>
      <trkpt lat="46.62796" lon="5.84958">
        <ele>696.9</ele>
        <time>2022-12-06T09:24:44Z</time>
      </trkpt>
      <trkpt lat="46.62792" lon="5.84954">
        <ele>696.3</ele>
        <time>2022-12-06T09:24:49Z</time>
      </trkpt>
      <trkpt lat="46.62788" lon="5.84949">
        <ele>695.9</ele>
        <time>2022-12-06T09:24:55Z</time>
      </trkpt>
      <trkpt lat="46.62786" lon="5.84943">
        <ele>695.4</ele>
        <time>2022-12-06T09:25:00Z</time>
      </trkpt>
      <trkpt lat="46.62783" lon="5.84937">
        <ele>695.4</ele>
        <time>2022-12-06T09:25:05Z</time>
      </trkpt>
      <trkpt lat="46.62779" lon="5.84932">
        <ele>694.9</ele>
        <time>2022-12-06T09:25:09Z</time>
      </trkpt>
      <trkpt lat="46.62776" lon="5.84927">
        <ele>694.4</ele>
        <time>2022-12-06T09:25:13Z</time>
      </trkpt>
      <trkpt lat="46.62774" lon="5.84921">
        <ele>694.2</ele>
        <time>2022-12-06T09:25:18Z</time>
      </trkpt>
      <trkpt lat="46.62771" lon="5.84915">
        <ele>693.9</ele>
        <time>2022-12-06T09:25:24Z</time>
      </trkpt>
      <trkpt lat="46.62769" lon="5.84908">
        <ele>693.7</ele>
        <time>2022-12-06T09:25:29Z</time>
      </trkpt>
      <trkpt lat="46.62768" lon="5.84902">
        <ele>694</ele>
        <time>2022-12-06T09:25:33Z</time>
      </trkpt>
      <trkpt lat="46.62765" lon="5.84895">
        <ele>694.7</ele>
        <time>2022-12-06T09:25:38Z</time>
      </trkpt>
      <trkpt lat="46.62763" lon="5.84889">
        <ele>695.3</ele>
        <time>2022-12-06T09:25:42Z</time>
      </trkpt>
      <trkpt lat="46.6276" lon="5.84883">
        <ele>696</ele>
        <time>2022-12-06T09:25:46Z</time>
      </trkpt>
      <trkpt lat="46.62756" lon="5.84878">
        <ele>696.3</ele>
        <time>2022-12-06T09:25:52Z</time>
      </trkpt>
      <trkpt lat="46.62753" lon="5.84872">
        <ele>695.6</ele>
        <time>2022-12-06T09:25:58Z</time>
      </trkpt>
      <trkpt lat="46.62752" lon="5.84866">
        <ele>694.7</ele>
        <time>2022-12-06T09:26:10Z</time>
      </trkpt>
      <trkpt lat="46.62751" lon="5.84859">
        <ele>693.9</ele>
        <time>2022-12-06T09:26:35Z</time>
      </trkpt>
      <trkpt lat="46.62749" lon="5.84852">
        <ele>693.3</ele>
        <time>2022-12-06T09:26:45Z</time>
      </trkpt>
      <trkpt lat="46.62748" lon="5.84845">
        <ele>693.2</ele>
        <time>2022-12-06T09:26:51Z</time>
      </trkpt>
      <trkpt lat="46.62747" lon="5.84839">
        <ele>693.2</ele>
        <time>2022-12-06T09:26:57Z</time>
      </trkpt>
      <trkpt lat="46.62747" lon="5.84831">
        <ele>693</ele>
        <time>2022-12-06T09:27:03Z</time>
      </trkpt>
      <trkpt lat="46.62746" lon="5.84824">
        <ele>692.8</ele>
        <time>2022-12-06T09:27:09Z</time>
      </trkpt>
      <trkpt lat="46.62745" lon="5.84817">
        <ele>692.7</ele>
        <time>2022-12-06T09:27:15Z</time>
      </trkpt>
      <trkpt lat="46.62744" lon="5.8481">
        <ele>692.7</ele>
        <time>2022-12-06T09:27:21Z</time>
      </trkpt>
      <trkpt lat="46.62743" lon="5.84803">
        <ele>692.8</ele>
        <time>2022-12-06T09:27:26Z</time>
      </trkpt>
      <trkpt lat="46.62741" lon="5.84797">
        <ele>693.8</ele>
        <time>2022-12-06T09:27:31Z</time>
      </trkpt>
      <trkpt lat="46.6274" lon="5.84791">
        <ele>694.5</ele>
        <time>2022-12-06T09:27:36Z</time>
      </trkpt>
      <trkpt lat="46.62738" lon="5.84784">
        <ele>694.7</ele>
        <time>2022-12-06T09:27:42Z</time>
      </trkpt>
      <trkpt lat="46.62735" lon="5.84776">
        <ele>694</ele>
        <time>2022-12-06T09:27:47Z</time>
      </trkpt>
      <trkpt lat="46.62734" lon="5.8477">
        <ele>693.4</ele>
        <time>2022-12-06T09:27:51Z</time>
      </trkpt>
      <trkpt lat="46.62732" lon="5.84763">
        <ele>692.6</ele>
        <time>2022-12-06T09:27:56Z</time>
      </trkpt>
      <trkpt lat="46.62729" lon="5.84756">
        <ele>691.6</ele>
        <time>2022-12-06T09:28:01Z</time>
      </trkpt>
      <trkpt lat="46.62726" lon="5.84751">
        <ele>690.2</ele>
        <time>2022-12-06T09:28:06Z</time>
      </trkpt>
      <trkpt lat="46.62722" lon="5.84745">
        <ele>689.1</ele>
        <time>2022-12-06T09:28:11Z</time>
      </trkpt>
      <trkpt lat="46.62719" lon="5.8474">
        <ele>688.9</ele>
        <time>2022-12-06T09:28:16Z</time>
      </trkpt>
      <trkpt lat="46.62716" lon="5.84733">
        <ele>688.4</ele>
        <time>2022-12-06T09:28:22Z</time>
      </trkpt>
      <trkpt lat="46.62713" lon="5.84726">
        <ele>688.2</ele>
        <time>2022-12-06T09:28:27Z</time>
      </trkpt>
      <trkpt lat="46.6271" lon="5.8472">
        <ele>688.1</ele>
        <time>2022-12-06T09:28:32Z</time>
      </trkpt>
      <trkpt lat="46.62706" lon="5.84714">
        <ele>687.7</ele>
        <time>2022-12-06T09:28:37Z</time>
      </trkpt>
      <trkpt lat="46.62703" lon="5.84709">
        <ele>687.5</ele>
        <time>2022-12-06T09:28:42Z</time>
      </trkpt>
      <trkpt lat="46.62699" lon="5.84703">
        <ele>688.1</ele>
        <time>2022-12-06T09:28:48Z</time>
      </trkpt>
      <trkpt lat="46.62695" lon="5.84698">
        <ele>688.9</ele>
        <time>2022-12-06T09:28:54Z</time>
      </trkpt>
      <trkpt lat="46.62692" lon="5.84693">
        <ele>689.1</ele>
        <time>2022-12-06T09:29:00Z</time>
      </trkpt>
      <trkpt lat="46.62687" lon="5.84691">
        <ele>688.7</ele>
        <time>2022-12-06T09:29:05Z</time>
      </trkpt>
      <trkpt lat="46.62683" lon="5.84687">
        <ele>688.6</ele>
        <time>2022-12-06T09:29:09Z</time>
      </trkpt>
      <trkpt lat="46.6268" lon="5.84681">
        <ele>688.4</ele>
        <time>2022-12-06T09:29:13Z</time>
      </trkpt>
      <trkpt lat="46.62676" lon="5.84677">
        <ele>688</ele>
        <time>2022-12-06T09:29:18Z</time>
      </trkpt>
      <trkpt lat="46.62671" lon="5.84672">
        <ele>688.1</ele>
        <time>2022-12-06T09:29:23Z</time>
      </trkpt>
      <trkpt lat="46.62668" lon="5.84666">
        <ele>688.3</ele>
        <time>2022-12-06T09:29:28Z</time>
      </trkpt>
      <trkpt lat="46.62665" lon="5.8466">
        <ele>688.5</ele>
        <time>2022-12-06T09:29:34Z</time>
      </trkpt>
      <trkpt lat="46.62662" lon="5.84654">
        <ele>688.4</ele>
        <time>2022-12-06T09:29:39Z</time>
      </trkpt>
      <trkpt lat="46.62658" lon="5.84648">
        <ele>687.7</ele>
        <time>2022-12-06T09:29:44Z</time>
      </trkpt>
      <trkpt lat="46.62655" lon="5.84641">
        <ele>687</ele>
        <time>2022-12-06T09:29:49Z</time>
      </trkpt>
      <trkpt lat="46.62652" lon="5.84637">
        <ele>686.4</ele>
        <time>2022-12-06T09:29:53Z</time>
      </trkpt>
      <trkpt lat="46.62649" lon="5.84631">
        <ele>686.5</ele>
        <time>2022-12-06T09:29:58Z</time>
      </trkpt>
      <trkpt lat="46.62646" lon="5.84624">
        <ele>687.7</ele>
        <time>2022-12-06T09:30:03Z</time>
      </trkpt>
      <trkpt lat="46.62644" lon="5.84618">
        <ele>689.3</ele>
        <time>2022-12-06T09:30:08Z</time>
      </trkpt>
      <trkpt lat="46.62642" lon="5.84611">
        <ele>690.4</ele>
        <time>2022-12-06T09:30:14Z</time>
      </trkpt>
      <trkpt lat="46.6264" lon="5.84604">
        <ele>690.8</ele>
        <time>2022-12-06T09:30:19Z</time>
      </trkpt>
      <trkpt lat="46.62637" lon="5.84598">
        <ele>691.2</ele>
        <time>2022-12-06T09:30:24Z</time>
      </trkpt>
      <trkpt lat="46.62635" lon="5.84592">
        <ele>691.5</ele>
        <time>2022-12-06T09:30:29Z</time>
      </trkpt>
      <trkpt lat="46.62633" lon="5.84586">
        <ele>691.3</ele>
        <time>2022-12-06T09:30:34Z</time>
      </trkpt>
      <trkpt lat="46.62631" lon="5.8458">
        <ele>691.1</ele>
        <time>2022-12-06T09:30:38Z</time>
      </trkpt>
      <trkpt lat="46.6263" lon="5.84574">
        <ele>691.1</ele>
        <time>2022-12-06T09:30:43Z</time>
      </trkpt>
      <trkpt lat="46.62629" lon="5.84567">
        <ele>691</ele>
        <time>2022-12-06T09:30:48Z</time>
      </trkpt>
      <trkpt lat="46.62628" lon="5.8456">
        <ele>690.4</ele>
        <time>2022-12-06T09:30:53Z</time>
      </trkpt>
      <trkpt lat="46.62626" lon="5.84553">
        <ele>689.6</ele>
        <time>2022-12-06T09:30:58Z</time>
      </trkpt>
      <trkpt lat="46.62624" lon="5.84545">
        <ele>689</ele>
        <time>2022-12-06T09:31:03Z</time>
      </trkpt>
      <trkpt lat="46.62623" lon="5.84538">
        <ele>689</ele>
        <time>2022-12-06T09:31:08Z</time>
      </trkpt>
      <trkpt lat="46.62623" lon="5.8453">
        <ele>689.6</ele>
        <time>2022-12-06T09:31:13Z</time>
      </trkpt>
      <trkpt lat="46.62623" lon="5.84523">
        <ele>690.3</ele>
        <time>2022-12-06T09:31:18Z</time>
      </trkpt>
      <trkpt lat="46.62622" lon="5.84516">
        <ele>690.5</ele>
        <time>2022-12-06T09:31:23Z</time>
      </trkpt>
      <trkpt lat="46.62622" lon="5.8451">
        <ele>690.5</ele>
        <time>2022-12-06T09:31:28Z</time>
      </trkpt>
      <trkpt lat="46.62621" lon="5.84503">
        <ele>690.4</ele>
        <time>2022-12-06T09:31:32Z</time>
      </trkpt>
      <trkpt lat="46.62621" lon="5.84495">
        <ele>691</ele>
        <time>2022-12-06T09:31:37Z</time>
      </trkpt>
      <trkpt lat="46.62621" lon="5.84488">
        <ele>692</ele>
        <time>2022-12-06T09:31:42Z</time>
      </trkpt>
      <trkpt lat="46.6262" lon="5.84481">
        <ele>692.9</ele>
        <time>2022-12-06T09:31:46Z</time>
      </trkpt>
      <trkpt lat="46.62619" lon="5.84474">
        <ele>693.4</ele>
        <time>2022-12-06T09:31:51Z</time>
      </trkpt>
      <trkpt lat="46.62618" lon="5.84467">
        <ele>693.5</ele>
        <time>2022-12-06T09:31:56Z</time>
      </trkpt>
      <trkpt lat="46.62617" lon="5.8446">
        <ele>693.4</ele>
        <time>2022-12-06T09:32:01Z</time>
      </trkpt>
      <trkpt lat="46.62616" lon="5.84453">
        <ele>693.3</ele>
        <time>2022-12-06T09:32:06Z</time>
      </trkpt>
      <trkpt lat="46.62615" lon="5.84445">
        <ele>693.7</ele>
        <time>2022-12-06T09:32:11Z</time>
      </trkpt>
      <trkpt lat="46.62616" lon="5.84439">
        <ele>694.1</ele>
        <time>2022-12-06T09:32:16Z</time>
      </trkpt>
      <trkpt lat="46.62615" lon="5.84431">
        <ele>693.8</ele>
        <time>2022-12-06T09:32:21Z</time>
      </trkpt>
      <trkpt lat="46.62614" lon="5.84424">
        <ele>693.2</ele>
        <time>2022-12-06T09:32:26Z</time>
      </trkpt>
      <trkpt lat="46.62613" lon="5.84417">
        <ele>692.7</ele>
        <time>2022-12-06T09:32:31Z</time>
      </trkpt>
      <trkpt lat="46.62612" lon="5.8441">
        <ele>692.1</ele>
        <time>2022-12-06T09:32:36Z</time>
      </trkpt>
      <trkpt lat="46.62612" lon="5.84403">
        <ele>692.4</ele>
        <time>2022-12-06T09:32:41Z</time>
      </trkpt>
      <trkpt lat="46.62612" lon="5.84396">
        <ele>692.9</ele>
        <time>2022-12-06T09:32:45Z</time>
      </trkpt>
      <trkpt lat="46.62611" lon="5.84389">
        <ele>693.2</ele>
        <time>2022-12-06T09:32:49Z</time>
      </trkpt>
      <trkpt lat="46.62611" lon="5.84382">
        <ele>694</ele>
        <time>2022-12-06T09:32:53Z</time>
      </trkpt>
      <trkpt lat="46.62611" lon="5.84375">
        <ele>694.7</ele>
        <time>2022-12-06T09:32:57Z</time>
      </trkpt>
      <trkpt lat="46.6261" lon="5.84368">
        <ele>695</ele>
        <time>2022-12-06T09:33:01Z</time>
      </trkpt>
      <trkpt lat="46.62609" lon="5.84362">
        <ele>695.4</ele>
        <time>2022-12-06T09:33:05Z</time>
      </trkpt>
      <trkpt lat="46.62609" lon="5.84355">
        <ele>696.1</ele>
        <time>2022-12-06T09:33:10Z</time>
      </trkpt>
      <trkpt lat="46.62609" lon="5.84348">
        <ele>696.2</ele>
        <time>2022-12-06T09:33:15Z</time>
      </trkpt>
      <trkpt lat="46.62608" lon="5.84341">
        <ele>696.1</ele>
        <time>2022-12-06T09:33:20Z</time>
      </trkpt>
      <trkpt lat="46.62607" lon="5.84333">
        <ele>696.2</ele>
        <time>2022-12-06T09:33:26Z</time>
      </trkpt>
      <trkpt lat="46.62606" lon="5.84326">
        <ele>696.5</ele>
        <time>2022-12-06T09:33:31Z</time>
      </trkpt>
      <trkpt lat="46.62606" lon="5.84319">
        <ele>696.8</ele>
        <time>2022-12-06T09:33:35Z</time>
      </trkpt>
      <trkpt lat="46.62605" lon="5.84312">
        <ele>697.1</ele>
        <time>2022-12-06T09:33:39Z</time>
      </trkpt>
      <trkpt lat="46.62605" lon="5.84305">
        <ele>697.6</ele>
        <time>2022-12-06T09:33:43Z</time>
      </trkpt>
      <trkpt lat="46.62605" lon="5.84297">
        <ele>697.7</ele>
        <time>2022-12-06T09:33:48Z</time>
      </trkpt>
      <trkpt lat="46.62605" lon="5.84289">
        <ele>697.1</ele>
        <time>2022-12-06T09:33:53Z</time>
      </trkpt>
      <trkpt lat="46.62605" lon="5.84282">
        <ele>696.2</ele>
        <time>2022-12-06T09:33:58Z</time>
      </trkpt>
      <trkpt lat="46.62605" lon="5.84274">
        <ele>695.9</ele>
        <time>2022-12-06T09:34:03Z</time>
      </trkpt>
      <trkpt lat="46.62605" lon="5.84266">
        <ele>695.7</ele>
        <time>2022-12-06T09:34:08Z</time>
      </trkpt>
      <trkpt lat="46.62605" lon="5.8426">
        <ele>695.9</ele>
        <time>2022-12-06T09:34:12Z</time>
      </trkpt>
      <trkpt lat="46.62604" lon="5.84253">
        <ele>696.2</ele>
        <time>2022-12-06T09:34:17Z</time>
      </trkpt>
      <trkpt lat="46.62604" lon="5.84245">
        <ele>695.9</ele>
        <time>2022-12-06T09:34:22Z</time>
      </trkpt>
      <trkpt lat="46.62603" lon="5.84237">
        <ele>695.9</ele>
        <time>2022-12-06T09:34:27Z</time>
      </trkpt>
      <trkpt lat="46.62601" lon="5.8423">
        <ele>696.5</ele>
        <time>2022-12-06T09:34:32Z</time>
      </trkpt>
      <trkpt lat="46.626" lon="5.84224">
        <ele>696.7</ele>
        <time>2022-12-06T09:34:37Z</time>
      </trkpt>
      <trkpt lat="46.62599" lon="5.84217">
        <ele>696.3</ele>
        <time>2022-12-06T09:34:42Z</time>
      </trkpt>
      <trkpt lat="46.62597" lon="5.8421">
        <ele>695.1</ele>
        <time>2022-12-06T09:34:47Z</time>
      </trkpt>
      <trkpt lat="46.62594" lon="5.84204">
        <ele>694</ele>
        <time>2022-12-06T09:34:52Z</time>
      </trkpt>
      <trkpt lat="46.6259" lon="5.84199">
        <ele>693.1</ele>
        <time>2022-12-06T09:34:57Z</time>
      </trkpt>
      <trkpt lat="46.62587" lon="5.84194">
        <ele>692.6</ele>
        <time>2022-12-06T09:35:02Z</time>
      </trkpt>
      <trkpt lat="46.62584" lon="5.84188">
        <ele>691.7</ele>
        <time>2022-12-06T09:35:07Z</time>
      </trkpt>
      <trkpt lat="46.6258" lon="5.84183">
        <ele>691.1</ele>
        <time>2022-12-06T09:35:11Z</time>
      </trkpt>
      <trkpt lat="46.62577" lon="5.84178">
        <ele>690.4</ele>
        <time>2022-12-06T09:35:17Z</time>
      </trkpt>
      <trkpt lat="46.62574" lon="5.84173">
        <ele>690.2</ele>
        <time>2022-12-06T09:35:21Z</time>
      </trkpt>
      <trkpt lat="46.62571" lon="5.84167">
        <ele>690.1</ele>
        <time>2022-12-06T09:35:26Z</time>
      </trkpt>
      <trkpt lat="46.62569" lon="5.8416">
        <ele>691</ele>
        <time>2022-12-06T09:35:32Z</time>
      </trkpt>
      <trkpt lat="46.62566" lon="5.84153">
        <ele>692.1</ele>
        <time>2022-12-06T09:35:37Z</time>
      </trkpt>
      <trkpt lat="46.62563" lon="5.84148">
        <ele>692.8</ele>
        <time>2022-12-06T09:35:41Z</time>
      </trkpt>
      <trkpt lat="46.62559" lon="5.84143">
        <ele>693.5</ele>
        <time>2022-12-06T09:35:45Z</time>
      </trkpt>
      <trkpt lat="46.62557" lon="5.84136">
        <ele>694.5</ele>
        <time>2022-12-06T09:35:49Z</time>
      </trkpt>
      <trkpt lat="46.62554" lon="5.84131">
        <ele>695.8</ele>
        <time>2022-12-06T09:35:53Z</time>
      </trkpt>
      <trkpt lat="46.62551" lon="5.84125">
        <ele>697.3</ele>
        <time>2022-12-06T09:35:57Z</time>
      </trkpt>
      <trkpt lat="46.6255" lon="5.84118">
        <ele>699.1</ele>
        <time>2022-12-06T09:36:01Z</time>
      </trkpt>
      <trkpt lat="46.62547" lon="5.84112">
        <ele>700.6</ele>
        <time>2022-12-06T09:36:05Z</time>
      </trkpt>
      <trkpt lat="46.62545" lon="5.84106">
        <ele>701.9</ele>
        <time>2022-12-06T09:36:09Z</time>
      </trkpt>
      <trkpt lat="46.62543" lon="5.841">
        <ele>702.6</ele>
        <time>2022-12-06T09:36:13Z</time>
      </trkpt>
      <trkpt lat="46.6254" lon="5.84094">
        <ele>702.7</ele>
        <time>2022-12-06T09:36:18Z</time>
      </trkpt>
      <trkpt lat="46.62537" lon="5.84088">
        <ele>702.2</ele>
        <time>2022-12-06T09:36:24Z</time>
      </trkpt>
      <trkpt lat="46.62534" lon="5.84082">
        <ele>701.4</ele>
        <time>2022-12-06T09:36:29Z</time>
      </trkpt>
      <trkpt lat="46.62531" lon="5.84076">
        <ele>700.8</ele>
        <time>2022-12-06T09:36:34Z</time>
      </trkpt>
      <trkpt lat="46.62531" lon="5.84069">
        <ele>701.3</ele>
        <time>2022-12-06T09:36:40Z</time>
      </trkpt>
      <trkpt lat="46.6253" lon="5.84063">
        <ele>701.9</ele>
        <time>2022-12-06T09:36:45Z</time>
      </trkpt>
      <trkpt lat="46.62528" lon="5.84056">
        <ele>702</ele>
        <time>2022-12-06T09:36:50Z</time>
      </trkpt>
      <trkpt lat="46.62525" lon="5.8405">
        <ele>701.5</ele>
        <time>2022-12-06T09:36:55Z</time>
      </trkpt>
      <trkpt lat="46.62522" lon="5.84045">
        <ele>700.6</ele>
        <time>2022-12-06T09:37:00Z</time>
      </trkpt>
      <trkpt lat="46.62519" lon="5.84038">
        <ele>700</ele>
        <time>2022-12-06T09:37:05Z</time>
      </trkpt>
      <trkpt lat="46.62516" lon="5.84031">
        <ele>699.3</ele>
        <time>2022-12-06T09:37:10Z</time>
      </trkpt>
      <trkpt lat="46.62513" lon="5.84025">
        <ele>698.3</ele>
        <time>2022-12-06T09:37:14Z</time>
      </trkpt>
      <trkpt lat="46.62511" lon="5.84018">
        <ele>697.9</ele>
        <time>2022-12-06T09:37:18Z</time>
      </trkpt>
      <trkpt lat="46.62509" lon="5.84012">
        <ele>698.5</ele>
        <time>2022-12-06T09:37:22Z</time>
      </trkpt>
      <trkpt lat="46.62507" lon="5.84006">
        <ele>699.4</ele>
        <time>2022-12-06T09:37:27Z</time>
      </trkpt>
      <trkpt lat="46.62504" lon="5.84">
        <ele>699.4</ele>
        <time>2022-12-06T09:37:31Z</time>
      </trkpt>
      <trkpt lat="46.62502" lon="5.83993">
        <ele>699.7</ele>
        <time>2022-12-06T09:37:35Z</time>
      </trkpt>
      <trkpt lat="46.62501" lon="5.83985">
        <ele>700.2</ele>
        <time>2022-12-06T09:37:40Z</time>
      </trkpt>
      <trkpt lat="46.62499" lon="5.83978">
        <ele>700.8</ele>
        <time>2022-12-06T09:37:44Z</time>
      </trkpt>
      <trkpt lat="46.62497" lon="5.83971">
        <ele>701.3</ele>
        <time>2022-12-06T09:37:48Z</time>
      </trkpt>
      <trkpt lat="46.62495" lon="5.83965">
        <ele>701.6</ele>
        <time>2022-12-06T09:37:52Z</time>
      </trkpt>
      <trkpt lat="46.62492" lon="5.83959">
        <ele>702</ele>
        <time>2022-12-06T09:37:57Z</time>
      </trkpt>
      <trkpt lat="46.62489" lon="5.83952">
        <ele>702.1</ele>
        <time>2022-12-06T09:38:02Z</time>
      </trkpt>
      <trkpt lat="46.62487" lon="5.83945">
        <ele>702.1</ele>
        <time>2022-12-06T09:38:07Z</time>
      </trkpt>
      <trkpt lat="46.62485" lon="5.83938">
        <ele>701.9</ele>
        <time>2022-12-06T09:38:12Z</time>
      </trkpt>
      <trkpt lat="46.62483" lon="5.83931">
        <ele>701.3</ele>
        <time>2022-12-06T09:38:17Z</time>
      </trkpt>
      <trkpt lat="46.6248" lon="5.83926">
        <ele>700.6</ele>
        <time>2022-12-06T09:38:22Z</time>
      </trkpt>
      <trkpt lat="46.62478" lon="5.8392">
        <ele>700.2</ele>
        <time>2022-12-06T09:38:26Z</time>
      </trkpt>
      <trkpt lat="46.62475" lon="5.83914">
        <ele>699.8</ele>
        <time>2022-12-06T09:38:31Z</time>
      </trkpt>
      <trkpt lat="46.62472" lon="5.83908">
        <ele>699.2</ele>
        <time>2022-12-06T09:38:36Z</time>
      </trkpt>
      <trkpt lat="46.62469" lon="5.83901">
        <ele>698.5</ele>
        <time>2022-12-06T09:38:41Z</time>
      </trkpt>
      <trkpt lat="46.62466" lon="5.83896">
        <ele>698.9</ele>
        <time>2022-12-06T09:38:45Z</time>
      </trkpt>
      <trkpt lat="46.62463" lon="5.83889">
        <ele>699.4</ele>
        <time>2022-12-06T09:38:50Z</time>
      </trkpt>
      <trkpt lat="46.6246" lon="5.83883">
        <ele>699.4</ele>
        <time>2022-12-06T09:38:55Z</time>
      </trkpt>
      <trkpt lat="46.62457" lon="5.83878">
        <ele>699.2</ele>
        <time>2022-12-06T09:39:00Z</time>
      </trkpt>
      <trkpt lat="46.62454" lon="5.83873">
        <ele>698.8</ele>
        <time>2022-12-06T09:39:05Z</time>
      </trkpt>
      <trkpt lat="46.62451" lon="5.83866">
        <ele>698.2</ele>
        <time>2022-12-06T09:39:10Z</time>
      </trkpt>
      <trkpt lat="46.62449" lon="5.8386">
        <ele>697.4</ele>
        <time>2022-12-06T09:39:14Z</time>
      </trkpt>
      <trkpt lat="46.62446" lon="5.83854">
        <ele>696.6</ele>
        <time>2022-12-06T09:39:19Z</time>
      </trkpt>
      <trkpt lat="46.62442" lon="5.83848">
        <ele>695.9</ele>
        <time>2022-12-06T09:39:24Z</time>
      </trkpt>
      <trkpt lat="46.62439" lon="5.83842">
        <ele>695.1</ele>
        <time>2022-12-06T09:39:29Z</time>
      </trkpt>
      <trkpt lat="46.62436" lon="5.83836">
        <ele>694.8</ele>
        <time>2022-12-06T09:39:34Z</time>
      </trkpt>
      <trkpt lat="46.62433" lon="5.8383">
        <ele>694.1</ele>
        <time>2022-12-06T09:39:40Z</time>
      </trkpt>
      <trkpt lat="46.6243" lon="5.83824">
        <ele>694</ele>
        <time>2022-12-06T09:39:44Z</time>
      </trkpt>
      <trkpt lat="46.62427" lon="5.83818">
        <ele>694.2</ele>
        <time>2022-12-06T09:39:48Z</time>
      </trkpt>
      <trkpt lat="46.62423" lon="5.83812">
        <ele>694.3</ele>
        <time>2022-12-06T09:39:53Z</time>
      </trkpt>
      <trkpt lat="46.62421" lon="5.83806">
        <ele>694.9</ele>
        <time>2022-12-06T09:39:57Z</time>
      </trkpt>
      <trkpt lat="46.62418" lon="5.83799">
        <ele>695.1</ele>
        <time>2022-12-06T09:40:02Z</time>
      </trkpt>
      <trkpt lat="46.62416" lon="5.83793">
        <ele>695.9</ele>
        <time>2022-12-06T09:40:07Z</time>
      </trkpt>
      <trkpt lat="46.62413" lon="5.83787">
        <ele>696.2</ele>
        <time>2022-12-06T09:40:13Z</time>
      </trkpt>
      <trkpt lat="46.62411" lon="5.83781">
        <ele>695.5</ele>
        <time>2022-12-06T09:40:19Z</time>
      </trkpt>
      <trkpt lat="46.62411" lon="5.83774">
        <ele>694.6</ele>
        <time>2022-12-06T09:40:24Z</time>
      </trkpt>
      <trkpt lat="46.62411" lon="5.83766">
        <ele>693.9</ele>
        <time>2022-12-06T09:40:28Z</time>
      </trkpt>
      <trkpt lat="46.62411" lon="5.83759">
        <ele>693.3</ele>
        <time>2022-12-06T09:40:32Z</time>
      </trkpt>
      <trkpt lat="46.62413" lon="5.83752">
        <ele>692.7</ele>
        <time>2022-12-06T09:40:37Z</time>
      </trkpt>
      <trkpt lat="46.62414" lon="5.83745">
        <ele>692.5</ele>
        <time>2022-12-06T09:40:42Z</time>
      </trkpt>
      <trkpt lat="46.62414" lon="5.83738">
        <ele>692.4</ele>
        <time>2022-12-06T09:40:46Z</time>
      </trkpt>
      <trkpt lat="46.62414" lon="5.83731">
        <ele>692.1</ele>
        <time>2022-12-06T09:40:50Z</time>
      </trkpt>
      <trkpt lat="46.62415" lon="5.83723">
        <ele>692</ele>
        <time>2022-12-06T09:40:54Z</time>
      </trkpt>
      <trkpt lat="46.62414" lon="5.83715">
        <ele>692.1</ele>
        <time>2022-12-06T09:40:58Z</time>
      </trkpt>
      <trkpt lat="46.62415" lon="5.83708">
        <ele>692</ele>
        <time>2022-12-06T09:41:03Z</time>
      </trkpt>
      <trkpt lat="46.62417" lon="5.83701">
        <ele>692.2</ele>
        <time>2022-12-06T09:41:08Z</time>
      </trkpt>
      <trkpt lat="46.62418" lon="5.83694">
        <ele>692.5</ele>
        <time>2022-12-06T09:41:12Z</time>
      </trkpt>
      <trkpt lat="46.62418" lon="5.83688">
        <ele>692.4</ele>
        <time>2022-12-06T09:41:16Z</time>
      </trkpt>
      <trkpt lat="46.62419" lon="5.8368">
        <ele>692.3</ele>
        <time>2022-12-06T09:41:20Z</time>
      </trkpt>
      <trkpt lat="46.62419" lon="5.83673">
        <ele>692.6</ele>
        <time>2022-12-06T09:41:24Z</time>
      </trkpt>
      <trkpt lat="46.6242" lon="5.83666">
        <ele>692.5</ele>
        <time>2022-12-06T09:41:29Z</time>
      </trkpt>
      <trkpt lat="46.6242" lon="5.83658">
        <ele>692.3</ele>
        <time>2022-12-06T09:41:34Z</time>
      </trkpt>
      <trkpt lat="46.62421" lon="5.8365">
        <ele>691.8</ele>
        <time>2022-12-06T09:41:39Z</time>
      </trkpt>
      <trkpt lat="46.62421" lon="5.83644">
        <ele>691.4</ele>
        <time>2022-12-06T09:41:44Z</time>
      </trkpt>
      <trkpt lat="46.62421" lon="5.83636">
        <ele>690.3</ele>
        <time>2022-12-06T09:41:50Z</time>
      </trkpt>
      <trkpt lat="46.62421" lon="5.83628">
        <ele>689.5</ele>
        <time>2022-12-06T09:41:55Z</time>
      </trkpt>
      <trkpt lat="46.62421" lon="5.83621">
        <ele>689.4</ele>
        <time>2022-12-06T09:41:59Z</time>
      </trkpt>
      <trkpt lat="46.62422" lon="5.83613">
        <ele>689.6</ele>
        <time>2022-12-06T09:42:04Z</time>
      </trkpt>
      <trkpt lat="46.62422" lon="5.83606">
        <ele>689.9</ele>
        <time>2022-12-06T09:42:08Z</time>
      </trkpt>
      <trkpt lat="46.62423" lon="5.83598">
        <ele>690.1</ele>
        <time>2022-12-06T09:42:12Z</time>
      </trkpt>
      <trkpt lat="46.62423" lon="5.83591">
        <ele>690.4</ele>
        <time>2022-12-06T09:42:17Z</time>
      </trkpt>
      <trkpt lat="46.62425" lon="5.83583">
        <ele>689.7</ele>
        <time>2022-12-06T09:42:22Z</time>
      </trkpt>
      <trkpt lat="46.62426" lon="5.83576">
        <ele>688.3</ele>
        <time>2022-12-06T09:42:27Z</time>
      </trkpt>
      <trkpt lat="46.62425" lon="5.83569">
        <ele>687</ele>
        <time>2022-12-06T09:42:31Z</time>
      </trkpt>
      <trkpt lat="46.62425" lon="5.83562">
        <ele>686.1</ele>
        <time>2022-12-06T09:42:35Z</time>
      </trkpt>
      <trkpt lat="46.62426" lon="5.83554">
        <ele>686</ele>
        <time>2022-12-06T09:42:40Z</time>
      </trkpt>
      <trkpt lat="46.62427" lon="5.83548">
        <ele>686.2</ele>
        <time>2022-12-06T09:42:45Z</time>
      </trkpt>
      <trkpt lat="46.62427" lon="5.8354">
        <ele>686.1</ele>
        <time>2022-12-06T09:42:50Z</time>
      </trkpt>
      <trkpt lat="46.62428" lon="5.83533">
        <ele>685.9</ele>
        <time>2022-12-06T09:42:54Z</time>
      </trkpt>
      <trkpt lat="46.62428" lon="5.83525">
        <ele>685.8</ele>
        <time>2022-12-06T09:42:58Z</time>
      </trkpt>
      <trkpt lat="46.62429" lon="5.83518">
        <ele>686.4</ele>
        <time>2022-12-06T09:43:02Z</time>
      </trkpt>
      <trkpt lat="46.62429" lon="5.83511">
        <ele>687.1</ele>
        <time>2022-12-06T09:43:06Z</time>
      </trkpt>
      <trkpt lat="46.62431" lon="5.83504">
        <ele>687.6</ele>
        <time>2022-12-06T09:43:11Z</time>
      </trkpt>
      <trkpt lat="46.62431" lon="5.83496">
        <ele>687.8</ele>
        <time>2022-12-06T09:43:16Z</time>
      </trkpt>
      <trkpt lat="46.62432" lon="5.83489">
        <ele>687.7</ele>
        <time>2022-12-06T09:43:21Z</time>
      </trkpt>
      <trkpt lat="46.62433" lon="5.83481">
        <ele>687.5</ele>
        <time>2022-12-06T09:43:26Z</time>
      </trkpt>
      <trkpt lat="46.62434" lon="5.83474">
        <ele>686.9</ele>
        <time>2022-12-06T09:43:31Z</time>
      </trkpt>
      <trkpt lat="46.62435" lon="5.83467">
        <ele>686.1</ele>
        <time>2022-12-06T09:43:36Z</time>
      </trkpt>
      <trkpt lat="46.62435" lon="5.83459">
        <ele>685.8</ele>
        <time>2022-12-06T09:43:41Z</time>
      </trkpt>
      <trkpt lat="46.62436" lon="5.83452">
        <ele>685.7</ele>
        <time>2022-12-06T09:43:45Z</time>
      </trkpt>
      <trkpt lat="46.62436" lon="5.83445">
        <ele>685.4</ele>
        <time>2022-12-06T09:43:49Z</time>
      </trkpt>
      <trkpt lat="46.62436" lon="5.83438">
        <ele>685.2</ele>
        <time>2022-12-06T09:43:53Z</time>
      </trkpt>
      <trkpt lat="46.62437" lon="5.83431">
        <ele>684.8</ele>
        <time>2022-12-06T09:43:58Z</time>
      </trkpt>
      <trkpt lat="46.62438" lon="5.83424">
        <ele>684.3</ele>
        <time>2022-12-06T09:44:03Z</time>
      </trkpt>
      <trkpt lat="46.62438" lon="5.83416">
        <ele>684.3</ele>
        <time>2022-12-06T09:44:08Z</time>
      </trkpt>
      <trkpt lat="46.62438" lon="5.83408">
        <ele>684.7</ele>
        <time>2022-12-06T09:44:13Z</time>
      </trkpt>
      <trkpt lat="46.62438" lon="5.83401">
        <ele>685.1</ele>
        <time>2022-12-06T09:44:17Z</time>
      </trkpt>
      <trkpt lat="46.6244" lon="5.83394">
        <ele>685.4</ele>
        <time>2022-12-06T09:44:21Z</time>
      </trkpt>
      <trkpt lat="46.62442" lon="5.83387">
        <ele>686</ele>
        <time>2022-12-06T09:44:26Z</time>
      </trkpt>
      <trkpt lat="46.62443" lon="5.8338">
        <ele>686.4</ele>
        <time>2022-12-06T09:44:31Z</time>
      </trkpt>
      <trkpt lat="46.62446" lon="5.83373">
        <ele>687</ele>
        <time>2022-12-06T09:44:36Z</time>
      </trkpt>
      <trkpt lat="46.62448" lon="5.83366">
        <ele>687.4</ele>
        <time>2022-12-06T09:44:40Z</time>
      </trkpt>
      <trkpt lat="46.62451" lon="5.8336">
        <ele>687.2</ele>
        <time>2022-12-06T09:44:44Z</time>
      </trkpt>
      <trkpt lat="46.62454" lon="5.83354">
        <ele>687.3</ele>
        <time>2022-12-06T09:44:49Z</time>
      </trkpt>
      <trkpt lat="46.62456" lon="5.83347">
        <ele>687.4</ele>
        <time>2022-12-06T09:44:54Z</time>
      </trkpt>
      <trkpt lat="46.62459" lon="5.83342">
        <ele>687.1</ele>
        <time>2022-12-06T09:44:58Z</time>
      </trkpt>
      <trkpt lat="46.62462" lon="5.83336">
        <ele>686.5</ele>
        <time>2022-12-06T09:45:03Z</time>
      </trkpt>
      <trkpt lat="46.62465" lon="5.8333">
        <ele>686</ele>
        <time>2022-12-06T09:45:08Z</time>
      </trkpt>
      <trkpt lat="46.62468" lon="5.83323">
        <ele>685.4</ele>
        <time>2022-12-06T09:45:13Z</time>
      </trkpt>
      <trkpt lat="46.6247" lon="5.83316">
        <ele>685.1</ele>
        <time>2022-12-06T09:45:18Z</time>
      </trkpt>
      <trkpt lat="46.62468" lon="5.8331">
        <ele>684.3</ele>
        <time>2022-12-06T09:45:25Z</time>
      </trkpt>
      <trkpt lat="46.62463" lon="5.83311">
        <ele>683.7</ele>
        <time>2022-12-06T09:45:31Z</time>
      </trkpt>
      <trkpt lat="46.62468" lon="5.83305">
        <ele>680.4</ele>
        <time>2022-12-06T09:46:13Z</time>
      </trkpt>
      <trkpt lat="46.62472" lon="5.83301">
        <ele>680.7</ele>
        <time>2022-12-06T09:46:16Z</time>
      </trkpt>
      <trkpt lat="46.62476" lon="5.83296">
        <ele>681.1</ele>
        <time>2022-12-06T09:46:20Z</time>
      </trkpt>
      <trkpt lat="46.6248" lon="5.8329">
        <ele>681.6</ele>
        <time>2022-12-06T09:46:24Z</time>
      </trkpt>
      <trkpt lat="46.62482" lon="5.83284">
        <ele>682</ele>
        <time>2022-12-06T09:46:27Z</time>
      </trkpt>
      <trkpt lat="46.62485" lon="5.83278">
        <ele>681.9</ele>
        <time>2022-12-06T09:46:31Z</time>
      </trkpt>
      <trkpt lat="46.62486" lon="5.8327">
        <ele>680.9</ele>
        <time>2022-12-06T09:46:36Z</time>
      </trkpt>
      <trkpt lat="46.62485" lon="5.83262">
        <ele>679.1</ele>
        <time>2022-12-06T09:46:40Z</time>
      </trkpt>
      <trkpt lat="46.62484" lon="5.83255">
        <ele>676.6</ele>
        <time>2022-12-06T09:46:44Z</time>
      </trkpt>
      <trkpt lat="46.62481" lon="5.83249">
        <ele>674.8</ele>
        <time>2022-12-06T09:46:47Z</time>
      </trkpt>
      <trkpt lat="46.62479" lon="5.83241">
        <ele>673.8</ele>
        <time>2022-12-06T09:46:50Z</time>
      </trkpt>
      <trkpt lat="46.62477" lon="5.83233">
        <ele>672.8</ele>
        <time>2022-12-06T09:46:54Z</time>
      </trkpt>
      <trkpt lat="46.62474" lon="5.83228">
        <ele>672.3</ele>
        <time>2022-12-06T09:46:57Z</time>
      </trkpt>
      <trkpt lat="46.62471" lon="5.83222">
        <ele>672.2</ele>
        <time>2022-12-06T09:47:00Z</time>
      </trkpt>
      <trkpt lat="46.62468" lon="5.83216">
        <ele>672.5</ele>
        <time>2022-12-06T09:47:04Z</time>
      </trkpt>
      <trkpt lat="46.62465" lon="5.83209">
        <ele>672.8</ele>
        <time>2022-12-06T09:47:08Z</time>
      </trkpt>
      <trkpt lat="46.62463" lon="5.83203">
        <ele>673.5</ele>
        <time>2022-12-06T09:47:12Z</time>
      </trkpt>
      <trkpt lat="46.6246" lon="5.83196">
        <ele>674.1</ele>
        <time>2022-12-06T09:47:16Z</time>
      </trkpt>
      <trkpt lat="46.62458" lon="5.8319">
        <ele>674.5</ele>
        <time>2022-12-06T09:47:20Z</time>
      </trkpt>
      <trkpt lat="46.62455" lon="5.83184">
        <ele>675.6</ele>
        <time>2022-12-06T09:47:26Z</time>
      </trkpt>
      <trkpt lat="46.62454" lon="5.83176">
        <ele>676.3</ele>
        <time>2022-12-06T09:47:31Z</time>
      </trkpt>
      <trkpt lat="46.62451" lon="5.83169">
        <ele>676.5</ele>
        <time>2022-12-06T09:47:36Z</time>
      </trkpt>
      <trkpt lat="46.6245" lon="5.83163">
        <ele>676.7</ele>
        <time>2022-12-06T09:47:41Z</time>
      </trkpt>
      <trkpt lat="46.62448" lon="5.83156">
        <ele>677.1</ele>
        <time>2022-12-06T09:47:46Z</time>
      </trkpt>
      <trkpt lat="46.62446" lon="5.83149">
        <ele>677.2</ele>
        <time>2022-12-06T09:47:50Z</time>
      </trkpt>
      <trkpt lat="46.62445" lon="5.83141">
        <ele>677</ele>
        <time>2022-12-06T09:47:54Z</time>
      </trkpt>
      <trkpt lat="46.62444" lon="5.83134">
        <ele>676.7</ele>
        <time>2022-12-06T09:47:59Z</time>
      </trkpt>
      <trkpt lat="46.62443" lon="5.83126">
        <ele>676.5</ele>
        <time>2022-12-06T09:48:04Z</time>
      </trkpt>
      <trkpt lat="46.62443" lon="5.83119">
        <ele>676.6</ele>
        <time>2022-12-06T09:48:09Z</time>
      </trkpt>
      <trkpt lat="46.6244" lon="5.83112">
        <ele>677.1</ele>
        <time>2022-12-06T09:48:14Z</time>
      </trkpt>
      <trkpt lat="46.62439" lon="5.83105">
        <ele>677.2</ele>
        <time>2022-12-06T09:48:18Z</time>
      </trkpt>
      <trkpt lat="46.62437" lon="5.83098">
        <ele>676.9</ele>
        <time>2022-12-06T09:48:22Z</time>
      </trkpt>
      <trkpt lat="46.62435" lon="5.83092">
        <ele>676.7</ele>
        <time>2022-12-06T09:48:26Z</time>
      </trkpt>
      <trkpt lat="46.62434" lon="5.83084">
        <ele>676.8</ele>
        <time>2022-12-06T09:48:31Z</time>
      </trkpt>
      <trkpt lat="46.62433" lon="5.83078">
        <ele>677.3</ele>
        <time>2022-12-06T09:48:35Z</time>
      </trkpt>
      <trkpt lat="46.62432" lon="5.83071">
        <ele>677.3</ele>
        <time>2022-12-06T09:48:39Z</time>
      </trkpt>
      <trkpt lat="46.62431" lon="5.83065">
        <ele>676.5</ele>
        <time>2022-12-06T09:48:47Z</time>
      </trkpt>
      <trkpt lat="46.6243" lon="5.83058">
        <ele>675.9</ele>
        <time>2022-12-06T09:48:52Z</time>
      </trkpt>
      <trkpt lat="46.62429" lon="5.8305">
        <ele>675.7</ele>
        <time>2022-12-06T09:48:56Z</time>
      </trkpt>
      <trkpt lat="46.62428" lon="5.83043">
        <ele>675.6</ele>
        <time>2022-12-06T09:49:00Z</time>
      </trkpt>
      <trkpt lat="46.62426" lon="5.83035">
        <ele>675.1</ele>
        <time>2022-12-06T09:49:05Z</time>
      </trkpt>
      <trkpt lat="46.62426" lon="5.83028">
        <ele>674.6</ele>
        <time>2022-12-06T09:49:10Z</time>
      </trkpt>
      <trkpt lat="46.62425" lon="5.83021">
        <ele>674.3</ele>
        <time>2022-12-06T09:49:15Z</time>
      </trkpt>
      <trkpt lat="46.62425" lon="5.83014">
        <ele>674.2</ele>
        <time>2022-12-06T09:49:19Z</time>
      </trkpt>
      <trkpt lat="46.62425" lon="5.83007">
        <ele>674.2</ele>
        <time>2022-12-06T09:49:23Z</time>
      </trkpt>
      <trkpt lat="46.62424" lon="5.83">
        <ele>673</ele>
        <time>2022-12-06T09:49:29Z</time>
      </trkpt>
      <trkpt lat="46.62424" lon="5.82993">
        <ele>671.7</ele>
        <time>2022-12-06T09:49:35Z</time>
      </trkpt>
      <trkpt lat="46.62423" lon="5.82986">
        <ele>670.4</ele>
        <time>2022-12-06T09:49:40Z</time>
      </trkpt>
      <trkpt lat="46.62422" lon="5.82979">
        <ele>670</ele>
        <time>2022-12-06T09:49:44Z</time>
      </trkpt>
      <trkpt lat="46.62422" lon="5.82973">
        <ele>669.9</ele>
        <time>2022-12-06T09:49:48Z</time>
      </trkpt>
      <trkpt lat="46.62422" lon="5.82965">
        <ele>670.3</ele>
        <time>2022-12-06T09:49:52Z</time>
      </trkpt>
      <trkpt lat="46.62422" lon="5.82958">
        <ele>670.9</ele>
        <time>2022-12-06T09:49:56Z</time>
      </trkpt>
      <trkpt lat="46.62421" lon="5.82952">
        <ele>671.3</ele>
        <time>2022-12-06T09:50:01Z</time>
      </trkpt>
      <trkpt lat="46.6242" lon="5.82944">
        <ele>671.3</ele>
        <time>2022-12-06T09:50:07Z</time>
      </trkpt>
      <trkpt lat="46.6242" lon="5.82937">
        <ele>671.1</ele>
        <time>2022-12-06T09:50:13Z</time>
      </trkpt>
      <trkpt lat="46.62419" lon="5.82931">
        <ele>671</ele>
        <time>2022-12-06T09:50:18Z</time>
      </trkpt>
      <trkpt lat="46.62417" lon="5.82924">
        <ele>666.9</ele>
        <time>2022-12-06T09:50:45Z</time>
      </trkpt>
      <trkpt lat="46.62412" lon="5.82922">
        <ele>666.5</ele>
        <time>2022-12-06T09:50:50Z</time>
      </trkpt>
      <trkpt lat="46.62407" lon="5.82921">
        <ele>666.2</ele>
        <time>2022-12-06T09:50:55Z</time>
      </trkpt>
      <trkpt lat="46.62402" lon="5.82918">
        <ele>666.2</ele>
        <time>2022-12-06T09:51:00Z</time>
      </trkpt>
      <trkpt lat="46.62398" lon="5.82917">
        <ele>666.3</ele>
        <time>2022-12-06T09:51:05Z</time>
      </trkpt>
      <trkpt lat="46.62393" lon="5.82914">
        <ele>666.4</ele>
        <time>2022-12-06T09:51:10Z</time>
      </trkpt>
      <trkpt lat="46.62388" lon="5.82911">
        <ele>666.6</ele>
        <time>2022-12-06T09:51:15Z</time>
      </trkpt>
      <trkpt lat="46.62384" lon="5.82908">
        <ele>666.9</ele>
        <time>2022-12-06T09:51:20Z</time>
      </trkpt>
      <trkpt lat="46.6238" lon="5.82905">
        <ele>667.3</ele>
        <time>2022-12-06T09:51:24Z</time>
      </trkpt>
      <trkpt lat="46.62375" lon="5.82904">
        <ele>667.6</ele>
        <time>2022-12-06T09:51:28Z</time>
      </trkpt>
      <trkpt lat="46.62371" lon="5.82903">
        <ele>667.9</ele>
        <time>2022-12-06T09:51:32Z</time>
      </trkpt>
      <trkpt lat="46.62366" lon="5.829">
        <ele>668.3</ele>
        <time>2022-12-06T09:51:37Z</time>
      </trkpt>
      <trkpt lat="46.62361" lon="5.82898">
        <ele>668.8</ele>
        <time>2022-12-06T09:51:43Z</time>
      </trkpt>
      <trkpt lat="46.62356" lon="5.82896">
        <ele>669.5</ele>
        <time>2022-12-06T09:51:47Z</time>
      </trkpt>
      <trkpt lat="46.62351" lon="5.82894">
        <ele>670.6</ele>
        <time>2022-12-06T09:51:51Z</time>
      </trkpt>
      <trkpt lat="46.62347" lon="5.82894">
        <ele>671.9</ele>
        <time>2022-12-06T09:51:56Z</time>
      </trkpt>
      <trkpt lat="46.62342" lon="5.82894">
        <ele>673.1</ele>
        <time>2022-12-06T09:52:01Z</time>
      </trkpt>
      <trkpt lat="46.62337" lon="5.82895">
        <ele>673.9</ele>
        <time>2022-12-06T09:52:07Z</time>
      </trkpt>
      <trkpt lat="46.62333" lon="5.82898">
        <ele>674.7</ele>
        <time>2022-12-06T09:52:12Z</time>
      </trkpt>
      <trkpt lat="46.62329" lon="5.82903">
        <ele>675.4</ele>
        <time>2022-12-06T09:52:17Z</time>
      </trkpt>
      <trkpt lat="46.62329" lon="5.8291">
        <ele>676</ele>
        <time>2022-12-06T09:52:24Z</time>
      </trkpt>
      <trkpt lat="46.62327" lon="5.82917">
        <ele>677.2</ele>
        <time>2022-12-06T09:52:30Z</time>
      </trkpt>
      <trkpt lat="46.62327" lon="5.82924">
        <ele>678.8</ele>
        <time>2022-12-06T09:52:36Z</time>
      </trkpt>
      <trkpt lat="46.62323" lon="5.8293">
        <ele>680.3</ele>
        <time>2022-12-06T09:52:42Z</time>
      </trkpt>
      <trkpt lat="46.62318" lon="5.82931">
        <ele>681.5</ele>
        <time>2022-12-06T09:52:48Z</time>
      </trkpt>
      <trkpt lat="46.62313" lon="5.82932">
        <ele>681.7</ele>
        <time>2022-12-06T09:52:53Z</time>
      </trkpt>
      <trkpt lat="46.62307" lon="5.82933">
        <ele>681.7</ele>
        <time>2022-12-06T09:52:59Z</time>
      </trkpt>
      <trkpt lat="46.62303" lon="5.82936">
        <ele>681.2</ele>
        <time>2022-12-06T09:53:03Z</time>
      </trkpt>
      <trkpt lat="46.62298" lon="5.82939">
        <ele>680.4</ele>
        <time>2022-12-06T09:53:07Z</time>
      </trkpt>
      <trkpt lat="46.62295" lon="5.82943">
        <ele>679.7</ele>
        <time>2022-12-06T09:53:11Z</time>
      </trkpt>
      <trkpt lat="46.62291" lon="5.82947">
        <ele>679.4</ele>
        <time>2022-12-06T09:53:15Z</time>
      </trkpt>
      <trkpt lat="46.62287" lon="5.82951">
        <ele>679.2</ele>
        <time>2022-12-06T09:53:20Z</time>
      </trkpt>
      <trkpt lat="46.62282" lon="5.82953">
        <ele>679.7</ele>
        <time>2022-12-06T09:53:27Z</time>
      </trkpt>
      <trkpt lat="46.62278" lon="5.82956">
        <ele>679.7</ele>
        <time>2022-12-06T09:53:33Z</time>
      </trkpt>
      <trkpt lat="46.62274" lon="5.8296">
        <ele>679.6</ele>
        <time>2022-12-06T09:53:39Z</time>
      </trkpt>
      <trkpt lat="46.6227" lon="5.82965">
        <ele>679.8</ele>
        <time>2022-12-06T09:53:44Z</time>
      </trkpt>
      <trkpt lat="46.62267" lon="5.8297">
        <ele>679.8</ele>
        <time>2022-12-06T09:53:50Z</time>
      </trkpt>
      <trkpt lat="46.62263" lon="5.82975">
        <ele>679.6</ele>
        <time>2022-12-06T09:53:55Z</time>
      </trkpt>
      <trkpt lat="46.62259" lon="5.82979">
        <ele>679.9</ele>
        <time>2022-12-06T09:54:01Z</time>
      </trkpt>
      <trkpt lat="46.62256" lon="5.82984">
        <ele>681</ele>
        <time>2022-12-06T09:54:07Z</time>
      </trkpt>
      <trkpt lat="46.62252" lon="5.82989">
        <ele>682.1</ele>
        <time>2022-12-06T09:54:12Z</time>
      </trkpt>
      <trkpt lat="46.62248" lon="5.82993">
        <ele>683.4</ele>
        <time>2022-12-06T09:54:17Z</time>
      </trkpt>
      <trkpt lat="46.62245" lon="5.82998">
        <ele>685.3</ele>
        <time>2022-12-06T09:54:23Z</time>
      </trkpt>
      <trkpt lat="46.62242" lon="5.83004">
        <ele>687.6</ele>
        <time>2022-12-06T09:54:30Z</time>
      </trkpt>
      <trkpt lat="46.62239" lon="5.83008">
        <ele>688.5</ele>
        <time>2022-12-06T09:54:35Z</time>
      </trkpt>
      <trkpt lat="46.62236" lon="5.83015">
        <ele>688.9</ele>
        <time>2022-12-06T09:54:41Z</time>
      </trkpt>
      <trkpt lat="46.62233" lon="5.8302">
        <ele>689.5</ele>
        <time>2022-12-06T09:54:47Z</time>
      </trkpt>
      <trkpt lat="46.6223" lon="5.83026">
        <ele>689.9</ele>
        <time>2022-12-06T09:54:52Z</time>
      </trkpt>
      <trkpt lat="46.62227" lon="5.83033">
        <ele>690.1</ele>
        <time>2022-12-06T09:54:57Z</time>
      </trkpt>
      <trkpt lat="46.62224" lon="5.83038">
        <ele>690.4</ele>
        <time>2022-12-06T09:55:02Z</time>
      </trkpt>
      <trkpt lat="46.62221" lon="5.83044">
        <ele>691.4</ele>
        <time>2022-12-06T09:55:10Z</time>
      </trkpt>
      <trkpt lat="46.62218" lon="5.8305">
        <ele>691.9</ele>
        <time>2022-12-06T09:55:16Z</time>
      </trkpt>
      <trkpt lat="46.62215" lon="5.83055">
        <ele>692.3</ele>
        <time>2022-12-06T09:55:22Z</time>
      </trkpt>
      <trkpt lat="46.62213" lon="5.83061">
        <ele>692.2</ele>
        <time>2022-12-06T09:55:28Z</time>
      </trkpt>
      <trkpt lat="46.6221" lon="5.83067">
        <ele>692.4</ele>
        <time>2022-12-06T09:55:34Z</time>
      </trkpt>
      <trkpt lat="46.62208" lon="5.83074">
        <ele>692.5</ele>
        <time>2022-12-06T09:55:40Z</time>
      </trkpt>
      <trkpt lat="46.62206" lon="5.8308">
        <ele>692.7</ele>
        <time>2022-12-06T09:55:45Z</time>
      </trkpt>
      <trkpt lat="46.62203" lon="5.83087">
        <ele>693</ele>
        <time>2022-12-06T09:55:50Z</time>
      </trkpt>
      <trkpt lat="46.62201" lon="5.83094">
        <ele>693.8</ele>
        <time>2022-12-06T09:55:56Z</time>
      </trkpt>
      <trkpt lat="46.622" lon="5.831">
        <ele>694.2</ele>
        <time>2022-12-06T09:56:02Z</time>
      </trkpt>
      <trkpt lat="46.62198" lon="5.83107">
        <ele>694.4</ele>
        <time>2022-12-06T09:56:08Z</time>
      </trkpt>
      <trkpt lat="46.62196" lon="5.83112">
        <ele>695.1</ele>
        <time>2022-12-06T09:56:15Z</time>
      </trkpt>
      <trkpt lat="46.62194" lon="5.8312">
        <ele>695.4</ele>
        <time>2022-12-06T09:56:21Z</time>
      </trkpt>
      <trkpt lat="46.62192" lon="5.83126">
        <ele>695.2</ele>
        <time>2022-12-06T09:56:26Z</time>
      </trkpt>
      <trkpt lat="46.62191" lon="5.83133">
        <ele>695.1</ele>
        <time>2022-12-06T09:56:31Z</time>
      </trkpt>
      <trkpt lat="46.62191" lon="5.83139">
        <ele>695.3</ele>
        <time>2022-12-06T09:56:37Z</time>
      </trkpt>
      <trkpt lat="46.62191" lon="5.83147">
        <ele>695.9</ele>
        <time>2022-12-06T09:56:43Z</time>
      </trkpt>
      <trkpt lat="46.62192" lon="5.83153">
        <ele>696.6</ele>
        <time>2022-12-06T09:56:48Z</time>
      </trkpt>
      <trkpt lat="46.62194" lon="5.83161">
        <ele>698.3</ele>
        <time>2022-12-06T09:56:54Z</time>
      </trkpt>
      <trkpt lat="46.62196" lon="5.83168">
        <ele>699.8</ele>
        <time>2022-12-06T09:56:59Z</time>
      </trkpt>
      <trkpt lat="46.62197" lon="5.83174">
        <ele>700.7</ele>
        <time>2022-12-06T09:57:04Z</time>
      </trkpt>
      <trkpt lat="46.62197" lon="5.83182">
        <ele>701.3</ele>
        <time>2022-12-06T09:57:10Z</time>
      </trkpt>
      <trkpt lat="46.62198" lon="5.83189">
        <ele>701.7</ele>
        <time>2022-12-06T09:57:16Z</time>
      </trkpt>
      <trkpt lat="46.62198" lon="5.83196">
        <ele>701.6</ele>
        <time>2022-12-06T09:57:21Z</time>
      </trkpt>
      <trkpt lat="46.62199" lon="5.83203">
        <ele>701.7</ele>
        <time>2022-12-06T09:57:26Z</time>
      </trkpt>
      <trkpt lat="46.622" lon="5.83209">
        <ele>702.2</ele>
        <time>2022-12-06T09:57:31Z</time>
      </trkpt>
      <trkpt lat="46.62201" lon="5.83217">
        <ele>702.4</ele>
        <time>2022-12-06T09:57:37Z</time>
      </trkpt>
      <trkpt lat="46.62202" lon="5.83225">
        <ele>702.8</ele>
        <time>2022-12-06T09:57:43Z</time>
      </trkpt>
      <trkpt lat="46.62202" lon="5.83232">
        <ele>703.5</ele>
        <time>2022-12-06T09:57:48Z</time>
      </trkpt>
      <trkpt lat="46.622" lon="5.83238">
        <ele>704.2</ele>
        <time>2022-12-06T09:57:53Z</time>
      </trkpt>
      <trkpt lat="46.62198" lon="5.83245">
        <ele>704.8</ele>
        <time>2022-12-06T09:58:00Z</time>
      </trkpt>
      <trkpt lat="46.62194" lon="5.83249">
        <ele>704.8</ele>
        <time>2022-12-06T09:58:05Z</time>
      </trkpt>
      <trkpt lat="46.62191" lon="5.83255">
        <ele>705.1</ele>
        <time>2022-12-06T09:58:11Z</time>
      </trkpt>
      <trkpt lat="46.62187" lon="5.83261">
        <ele>705.1</ele>
        <time>2022-12-06T09:58:17Z</time>
      </trkpt>
      <trkpt lat="46.62184" lon="5.83266">
        <ele>704.4</ele>
        <time>2022-12-06T09:58:22Z</time>
      </trkpt>
      <trkpt lat="46.62181" lon="5.83271">
        <ele>703.9</ele>
        <time>2022-12-06T09:58:27Z</time>
      </trkpt>
      <trkpt lat="46.62177" lon="5.83276">
        <ele>703.4</ele>
        <time>2022-12-06T09:58:32Z</time>
      </trkpt>
      <trkpt lat="46.62173" lon="5.8328">
        <ele>702.9</ele>
        <time>2022-12-06T09:58:36Z</time>
      </trkpt>
      <trkpt lat="46.62169" lon="5.83286">
        <ele>702.5</ele>
        <time>2022-12-06T09:58:41Z</time>
      </trkpt>
      <trkpt lat="46.62166" lon="5.8329">
        <ele>702.8</ele>
        <time>2022-12-06T09:58:45Z</time>
      </trkpt>
      <trkpt lat="46.62162" lon="5.83295">
        <ele>703.3</ele>
        <time>2022-12-06T09:58:49Z</time>
      </trkpt>
      <trkpt lat="46.62158" lon="5.83298">
        <ele>704</ele>
        <time>2022-12-06T09:58:54Z</time>
      </trkpt>
      <trkpt lat="46.62154" lon="5.83301">
        <ele>704.9</ele>
        <time>2022-12-06T09:58:59Z</time>
      </trkpt>
      <trkpt lat="46.6215" lon="5.83302">
        <ele>705.5</ele>
        <time>2022-12-06T09:59:04Z</time>
      </trkpt>
      <trkpt lat="46.62145" lon="5.83304">
        <ele>706.1</ele>
        <time>2022-12-06T09:59:10Z</time>
      </trkpt>
      <trkpt lat="46.6214" lon="5.83306">
        <ele>706.6</ele>
        <time>2022-12-06T09:59:16Z</time>
      </trkpt>
      <trkpt lat="46.62136" lon="5.8331">
        <ele>707</ele>
        <time>2022-12-06T09:59:22Z</time>
      </trkpt>
      <trkpt lat="46.62133" lon="5.83314">
        <ele>707.5</ele>
        <time>2022-12-06T09:59:28Z</time>
      </trkpt>
      <trkpt lat="46.62129" lon="5.83318">
        <ele>708</ele>
        <time>2022-12-06T09:59:34Z</time>
      </trkpt>
      <trkpt lat="46.62125" lon="5.83321">
        <ele>708.2</ele>
        <time>2022-12-06T09:59:39Z</time>
      </trkpt>
      <trkpt lat="46.6212" lon="5.83326">
        <ele>708.1</ele>
        <time>2022-12-06T09:59:44Z</time>
      </trkpt>
      <trkpt lat="46.62117" lon="5.83332">
        <ele>707.9</ele>
        <time>2022-12-06T09:59:49Z</time>
      </trkpt>
      <trkpt lat="46.62114" lon="5.83337">
        <ele>707.5</ele>
        <time>2022-12-06T09:59:54Z</time>
      </trkpt>
      <trkpt lat="46.62111" lon="5.83342">
        <ele>707.1</ele>
        <time>2022-12-06T10:00:00Z</time>
      </trkpt>
      <trkpt lat="46.62107" lon="5.83348">
        <ele>706.9</ele>
        <time>2022-12-06T10:00:06Z</time>
      </trkpt>
      <trkpt lat="46.62104" lon="5.83353">
        <ele>707.2</ele>
        <time>2022-12-06T10:00:11Z</time>
      </trkpt>
      <trkpt lat="46.621" lon="5.83358">
        <ele>707.4</ele>
        <time>2022-12-06T10:00:15Z</time>
      </trkpt>
      <trkpt lat="46.62096" lon="5.83363">
        <ele>707.8</ele>
        <time>2022-12-06T10:00:20Z</time>
      </trkpt>
      <trkpt lat="46.62092" lon="5.83368">
        <ele>708.2</ele>
        <time>2022-12-06T10:00:25Z</time>
      </trkpt>
      <trkpt lat="46.62088" lon="5.83371">
        <ele>708.6</ele>
        <time>2022-12-06T10:00:29Z</time>
      </trkpt>
      <trkpt lat="46.62084" lon="5.83377">
        <ele>708.5</ele>
        <time>2022-12-06T10:00:34Z</time>
      </trkpt>
      <trkpt lat="46.6208" lon="5.83381">
        <ele>708</ele>
        <time>2022-12-06T10:00:39Z</time>
      </trkpt>
      <trkpt lat="46.62077" lon="5.83387">
        <ele>707.8</ele>
        <time>2022-12-06T10:00:43Z</time>
      </trkpt>
      <trkpt lat="46.62074" lon="5.83392">
        <ele>707.5</ele>
        <time>2022-12-06T10:00:47Z</time>
      </trkpt>
      <trkpt lat="46.6207" lon="5.83397">
        <ele>707.4</ele>
        <time>2022-12-06T10:00:51Z</time>
      </trkpt>
      <trkpt lat="46.62066" lon="5.83402">
        <ele>707.2</ele>
        <time>2022-12-06T10:00:56Z</time>
      </trkpt>
      <trkpt lat="46.62063" lon="5.83408">
        <ele>707.4</ele>
        <time>2022-12-06T10:01:01Z</time>
      </trkpt>
      <trkpt lat="46.62059" lon="5.83414">
        <ele>707.7</ele>
        <time>2022-12-06T10:01:06Z</time>
      </trkpt>
      <trkpt lat="46.62055" lon="5.83419">
        <ele>708.1</ele>
        <time>2022-12-06T10:01:11Z</time>
      </trkpt>
      <trkpt lat="46.62051" lon="5.83423">
        <ele>708.3</ele>
        <time>2022-12-06T10:01:15Z</time>
      </trkpt>
      <trkpt lat="46.62048" lon="5.83428">
        <ele>708.3</ele>
        <time>2022-12-06T10:01:19Z</time>
      </trkpt>
      <trkpt lat="46.62045" lon="5.83433">
        <ele>708.1</ele>
        <time>2022-12-06T10:01:23Z</time>
      </trkpt>
      <trkpt lat="46.62042" lon="5.83439">
        <ele>708.1</ele>
        <time>2022-12-06T10:01:28Z</time>
      </trkpt>
      <trkpt lat="46.62039" lon="5.83444">
        <ele>708</ele>
        <time>2022-12-06T10:01:33Z</time>
      </trkpt>
      <trkpt lat="46.62035" lon="5.8345">
        <ele>707.8</ele>
        <time>2022-12-06T10:01:38Z</time>
      </trkpt>
      <trkpt lat="46.62032" lon="5.83455">
        <ele>707.9</ele>
        <time>2022-12-06T10:01:43Z</time>
      </trkpt>
      <trkpt lat="46.62029" lon="5.83461">
        <ele>707.7</ele>
        <time>2022-12-06T10:01:48Z</time>
      </trkpt>
      <trkpt lat="46.62026" lon="5.83467">
        <ele>707.6</ele>
        <time>2022-12-06T10:01:52Z</time>
      </trkpt>
      <trkpt lat="46.62024" lon="5.83473">
        <ele>707.6</ele>
        <time>2022-12-06T10:01:57Z</time>
      </trkpt>
      <trkpt lat="46.62021" lon="5.83479">
        <ele>707.8</ele>
        <time>2022-12-06T10:02:02Z</time>
      </trkpt>
      <trkpt lat="46.62018" lon="5.83486">
        <ele>708</ele>
        <time>2022-12-06T10:02:07Z</time>
      </trkpt>
      <trkpt lat="46.62015" lon="5.83492">
        <ele>707.7</ele>
        <time>2022-12-06T10:02:12Z</time>
      </trkpt>
      <trkpt lat="46.62012" lon="5.83498">
        <ele>708</ele>
        <time>2022-12-06T10:02:16Z</time>
      </trkpt>
      <trkpt lat="46.62009" lon="5.83504">
        <ele>708.4</ele>
        <time>2022-12-06T10:02:20Z</time>
      </trkpt>
      <trkpt lat="46.62007" lon="5.83509">
        <ele>708.8</ele>
        <time>2022-12-06T10:02:24Z</time>
      </trkpt>
      <trkpt lat="46.62003" lon="5.83515">
        <ele>708.7</ele>
        <time>2022-12-06T10:02:29Z</time>
      </trkpt>
      <trkpt lat="46.62001" lon="5.83522">
        <ele>708.2</ele>
        <time>2022-12-06T10:02:34Z</time>
      </trkpt>
      <trkpt lat="46.61998" lon="5.83528">
        <ele>708.2</ele>
        <time>2022-12-06T10:02:38Z</time>
      </trkpt>
      <trkpt lat="46.61996" lon="5.83535">
        <ele>708.3</ele>
        <time>2022-12-06T10:02:43Z</time>
      </trkpt>
      <trkpt lat="46.61994" lon="5.83542">
        <ele>708.5</ele>
        <time>2022-12-06T10:02:48Z</time>
      </trkpt>
      <trkpt lat="46.61993" lon="5.83549">
        <ele>708.5</ele>
        <time>2022-12-06T10:02:53Z</time>
      </trkpt>
      <trkpt lat="46.61991" lon="5.83556">
        <ele>708.2</ele>
        <time>2022-12-06T10:02:58Z</time>
      </trkpt>
      <trkpt lat="46.6199" lon="5.83563">
        <ele>707.5</ele>
        <time>2022-12-06T10:03:03Z</time>
      </trkpt>
      <trkpt lat="46.61988" lon="5.8357">
        <ele>707</ele>
        <time>2022-12-06T10:03:09Z</time>
      </trkpt>
      <trkpt lat="46.61987" lon="5.83578">
        <ele>706.5</ele>
        <time>2022-12-06T10:03:14Z</time>
      </trkpt>
      <trkpt lat="46.61987" lon="5.83585">
        <ele>705.9</ele>
        <time>2022-12-06T10:03:18Z</time>
      </trkpt>
      <trkpt lat="46.61986" lon="5.83593">
        <ele>705.3</ele>
        <time>2022-12-06T10:03:23Z</time>
      </trkpt>
      <trkpt lat="46.61985" lon="5.83601">
        <ele>705.1</ele>
        <time>2022-12-06T10:03:28Z</time>
      </trkpt>
      <trkpt lat="46.61984" lon="5.83609">
        <ele>705.1</ele>
        <time>2022-12-06T10:03:33Z</time>
      </trkpt>
      <trkpt lat="46.61983" lon="5.83615">
        <ele>705.3</ele>
        <time>2022-12-06T10:03:37Z</time>
      </trkpt>
      <trkpt lat="46.6198" lon="5.83623">
        <ele>705.8</ele>
        <time>2022-12-06T10:03:42Z</time>
      </trkpt>
      <trkpt lat="46.61978" lon="5.83629">
        <ele>706.2</ele>
        <time>2022-12-06T10:03:47Z</time>
      </trkpt>
      <trkpt lat="46.61977" lon="5.83636">
        <ele>706.3</ele>
        <time>2022-12-06T10:03:52Z</time>
      </trkpt>
      <trkpt lat="46.61978" lon="5.83644">
        <ele>706.3</ele>
        <time>2022-12-06T10:03:57Z</time>
      </trkpt>
      <trkpt lat="46.6198" lon="5.83652">
        <ele>706.4</ele>
        <time>2022-12-06T10:04:02Z</time>
      </trkpt>
      <trkpt lat="46.6198" lon="5.83659">
        <ele>706.7</ele>
        <time>2022-12-06T10:04:06Z</time>
      </trkpt>
      <trkpt lat="46.61981" lon="5.83666">
        <ele>707</ele>
        <time>2022-12-06T10:04:10Z</time>
      </trkpt>
      <trkpt lat="46.61982" lon="5.83674">
        <ele>707.8</ele>
        <time>2022-12-06T10:04:15Z</time>
      </trkpt>
      <trkpt lat="46.61982" lon="5.83682">
        <ele>708.3</ele>
        <time>2022-12-06T10:04:20Z</time>
      </trkpt>
      <trkpt lat="46.61982" lon="5.83689">
        <ele>708.7</ele>
        <time>2022-12-06T10:04:25Z</time>
      </trkpt>
      <trkpt lat="46.61981" lon="5.83696">
        <ele>708.7</ele>
        <time>2022-12-06T10:04:31Z</time>
      </trkpt>
      <trkpt lat="46.61981" lon="5.83703">
        <ele>708.6</ele>
        <time>2022-12-06T10:04:37Z</time>
      </trkpt>
      <trkpt lat="46.61981" lon="5.83709">
        <ele>708.1</ele>
        <time>2022-12-06T10:04:43Z</time>
      </trkpt>
      <trkpt lat="46.6198" lon="5.83716">
        <ele>707.4</ele>
        <time>2022-12-06T10:04:48Z</time>
      </trkpt>
      <trkpt lat="46.6198" lon="5.83724">
        <ele>706.5</ele>
        <time>2022-12-06T10:04:54Z</time>
      </trkpt>
      <trkpt lat="46.6198" lon="5.83731">
        <ele>706.3</ele>
        <time>2022-12-06T10:05:00Z</time>
      </trkpt>
      <trkpt lat="46.61978" lon="5.83738">
        <ele>706.5</ele>
        <time>2022-12-06T10:05:05Z</time>
      </trkpt>
      <trkpt lat="46.61977" lon="5.83746">
        <ele>707</ele>
        <time>2022-12-06T10:05:10Z</time>
      </trkpt>
      <trkpt lat="46.61975" lon="5.83752">
        <ele>707.7</ele>
        <time>2022-12-06T10:05:14Z</time>
      </trkpt>
      <trkpt lat="46.61974" lon="5.8376">
        <ele>708.1</ele>
        <time>2022-12-06T10:05:20Z</time>
      </trkpt>
      <trkpt lat="46.61972" lon="5.83767">
        <ele>708</ele>
        <time>2022-12-06T10:05:26Z</time>
      </trkpt>
      <trkpt lat="46.61971" lon="5.83773">
        <ele>707.7</ele>
        <time>2022-12-06T10:05:32Z</time>
      </trkpt>
      <trkpt lat="46.61972" lon="5.83782">
        <ele>707.3</ele>
        <time>2022-12-06T10:06:12Z</time>
      </trkpt>
      <trkpt lat="46.61973" lon="5.83789">
        <ele>708.3</ele>
        <time>2022-12-06T10:06:16Z</time>
      </trkpt>
      <trkpt lat="46.61974" lon="5.83796">
        <ele>709.9</ele>
        <time>2022-12-06T10:06:24Z</time>
      </trkpt>
      <trkpt lat="46.61974" lon="5.83806">
        <ele>712.4</ele>
        <time>2022-12-06T10:06:46Z</time>
      </trkpt>
      <trkpt lat="46.61974" lon="5.83813">
        <ele>713.5</ele>
        <time>2022-12-06T10:06:50Z</time>
      </trkpt>
      <trkpt lat="46.61975" lon="5.83821">
        <ele>715.4</ele>
        <time>2022-12-06T10:06:58Z</time>
      </trkpt>
      <trkpt lat="46.61977" lon="5.83827">
        <ele>717.9</ele>
        <time>2022-12-06T10:07:06Z</time>
      </trkpt>
      <trkpt lat="46.6198" lon="5.83833">
        <ele>718.6</ele>
        <time>2022-12-06T10:07:13Z</time>
      </trkpt>
      <trkpt lat="46.61982" lon="5.83839">
        <ele>718</ele>
        <time>2022-12-06T10:07:19Z</time>
      </trkpt>
      <trkpt lat="46.61985" lon="5.83845">
        <ele>717</ele>
        <time>2022-12-06T10:07:26Z</time>
      </trkpt>
      <trkpt lat="46.61988" lon="5.83851">
        <ele>716.9</ele>
        <time>2022-12-06T10:07:33Z</time>
      </trkpt>
      <trkpt lat="46.6199" lon="5.83857">
        <ele>717.5</ele>
        <time>2022-12-06T10:07:42Z</time>
      </trkpt>
      <trkpt lat="46.61993" lon="5.83862">
        <ele>717.6</ele>
        <time>2022-12-06T10:07:50Z</time>
      </trkpt>
      <trkpt lat="46.61997" lon="5.83867">
        <ele>717.9</ele>
        <time>2022-12-06T10:07:54Z</time>
      </trkpt>
      <trkpt lat="46.61999" lon="5.83873">
        <ele>718.7</ele>
        <time>2022-12-06T10:08:00Z</time>
      </trkpt>
      <trkpt lat="46.62" lon="5.83879">
        <ele>720</ele>
        <time>2022-12-06T10:08:08Z</time>
      </trkpt>
      <trkpt lat="46.62001" lon="5.83886">
        <ele>720.9</ele>
        <time>2022-12-06T10:08:15Z</time>
      </trkpt>
      <trkpt lat="46.62002" lon="5.83893">
        <ele>721.6</ele>
        <time>2022-12-06T10:08:21Z</time>
      </trkpt>
      <trkpt lat="46.62004" lon="5.839">
        <ele>722.4</ele>
        <time>2022-12-06T10:08:27Z</time>
      </trkpt>
      <trkpt lat="46.62005" lon="5.83907">
        <ele>722.7</ele>
        <time>2022-12-06T10:08:32Z</time>
      </trkpt>
      <trkpt lat="46.62004" lon="5.83914">
        <ele>722.8</ele>
        <time>2022-12-06T10:08:37Z</time>
      </trkpt>
      <trkpt lat="46.62002" lon="5.83921">
        <ele>723.1</ele>
        <time>2022-12-06T10:08:42Z</time>
      </trkpt>
      <trkpt lat="46.61999" lon="5.83927">
        <ele>723.2</ele>
        <time>2022-12-06T10:08:46Z</time>
      </trkpt>
      <trkpt lat="46.61995" lon="5.8393">
        <ele>723</ele>
        <time>2022-12-06T10:08:52Z</time>
      </trkpt>
      <trkpt lat="46.6199" lon="5.83931">
        <ele>722.7</ele>
        <time>2022-12-06T10:08:56Z</time>
      </trkpt>
      <trkpt lat="46.61985" lon="5.83932">
        <ele>721.9</ele>
        <time>2022-12-06T10:09:01Z</time>
      </trkpt>
      <trkpt lat="46.61981" lon="5.83935">
        <ele>721.5</ele>
        <time>2022-12-06T10:09:07Z</time>
      </trkpt>
      <trkpt lat="46.61979" lon="5.83941">
        <ele>721.1</ele>
        <time>2022-12-06T10:09:13Z</time>
      </trkpt>
      <trkpt lat="46.61979" lon="5.83949">
        <ele>721</ele>
        <time>2022-12-06T10:09:19Z</time>
      </trkpt>
      <trkpt lat="46.61979" lon="5.83956">
        <ele>721.2</ele>
        <time>2022-12-06T10:09:24Z</time>
      </trkpt>
      <trkpt lat="46.61979" lon="5.83963">
        <ele>721.7</ele>
        <time>2022-12-06T10:09:29Z</time>
      </trkpt>
      <trkpt lat="46.61979" lon="5.8397">
        <ele>722</ele>
        <time>2022-12-06T10:09:34Z</time>
      </trkpt>
      <trkpt lat="46.61976" lon="5.83975">
        <ele>722.1</ele>
        <time>2022-12-06T10:09:42Z</time>
      </trkpt>
      <trkpt lat="46.6197" lon="5.83977">
        <ele>722.3</ele>
        <time>2022-12-06T10:09:47Z</time>
      </trkpt>
      <trkpt lat="46.61965" lon="5.83977">
        <ele>722.6</ele>
        <time>2022-12-06T10:09:51Z</time>
      </trkpt>
      <trkpt lat="46.6196" lon="5.83979">
        <ele>722.6</ele>
        <time>2022-12-06T10:09:56Z</time>
      </trkpt>
      <trkpt lat="46.61955" lon="5.83978">
        <ele>722.3</ele>
        <time>2022-12-06T10:10:02Z</time>
      </trkpt>
      <trkpt lat="46.6195" lon="5.83977">
        <ele>721.7</ele>
        <time>2022-12-06T10:10:07Z</time>
      </trkpt>
      <trkpt lat="46.61945" lon="5.83976">
        <ele>721.2</ele>
        <time>2022-12-06T10:10:12Z</time>
      </trkpt>
      <trkpt lat="46.6194" lon="5.83973">
        <ele>720.7</ele>
        <time>2022-12-06T10:10:17Z</time>
      </trkpt>
      <trkpt lat="46.61935" lon="5.83972">
        <ele>720.5</ele>
        <time>2022-12-06T10:10:21Z</time>
      </trkpt>
      <trkpt lat="46.6193" lon="5.83973">
        <ele>720.4</ele>
        <time>2022-12-06T10:10:26Z</time>
      </trkpt>
      <trkpt lat="46.61926" lon="5.83975">
        <ele>719.9</ele>
        <time>2022-12-06T10:10:39Z</time>
      </trkpt>
      <trkpt lat="46.61925" lon="5.83968">
        <ele>720.1</ele>
        <time>2022-12-06T10:10:49Z</time>
      </trkpt>
      <trkpt lat="46.61922" lon="5.83962">
        <ele>720.4</ele>
        <time>2022-12-06T10:10:56Z</time>
      </trkpt>
      <trkpt lat="46.61918" lon="5.83965">
        <ele>721.1</ele>
        <time>2022-12-06T10:11:04Z</time>
      </trkpt>
      <trkpt lat="46.61916" lon="5.83973">
        <ele>721.4</ele>
        <time>2022-12-06T10:11:10Z</time>
      </trkpt>
      <trkpt lat="46.61917" lon="5.83979">
        <ele>720.2</ele>
        <time>2022-12-06T10:11:22Z</time>
      </trkpt>
      <trkpt lat="46.61918" lon="5.83987">
        <ele>719.3</ele>
        <time>2022-12-06T10:11:30Z</time>
      </trkpt>
      <trkpt lat="46.61919" lon="5.83994">
        <ele>719</ele>
        <time>2022-12-06T10:11:36Z</time>
      </trkpt>
      <trkpt lat="46.6192" lon="5.84001">
        <ele>719.1</ele>
        <time>2022-12-06T10:11:43Z</time>
      </trkpt>
      <trkpt lat="46.61921" lon="5.84008">
        <ele>720.1</ele>
        <time>2022-12-06T10:11:50Z</time>
      </trkpt>
      <trkpt lat="46.61922" lon="5.84015">
        <ele>720.9</ele>
        <time>2022-12-06T10:11:56Z</time>
      </trkpt>
      <trkpt lat="46.61922" lon="5.84022">
        <ele>721.2</ele>
        <time>2022-12-06T10:12:03Z</time>
      </trkpt>
      <trkpt lat="46.6192" lon="5.84028">
        <ele>721.6</ele>
        <time>2022-12-06T10:12:10Z</time>
      </trkpt>
      <trkpt lat="46.61918" lon="5.84035">
        <ele>722.3</ele>
        <time>2022-12-06T10:12:17Z</time>
      </trkpt>
      <trkpt lat="46.61917" lon="5.84042">
        <ele>723.1</ele>
        <time>2022-12-06T10:12:23Z</time>
      </trkpt>
      <trkpt lat="46.61913" lon="5.84045">
        <ele>723.6</ele>
        <time>2022-12-06T10:12:28Z</time>
      </trkpt>
      <trkpt lat="46.61908" lon="5.84048">
        <ele>724.1</ele>
        <time>2022-12-06T10:12:33Z</time>
      </trkpt>
      <trkpt lat="46.61904" lon="5.84052">
        <ele>723.8</ele>
        <time>2022-12-06T10:12:39Z</time>
      </trkpt>
      <trkpt lat="46.61903" lon="5.84059">
        <ele>723.2</ele>
        <time>2022-12-06T10:12:45Z</time>
      </trkpt>
      <trkpt lat="46.61901" lon="5.84066">
        <ele>722.6</ele>
        <time>2022-12-06T10:12:50Z</time>
      </trkpt>
      <trkpt lat="46.61899" lon="5.84073">
        <ele>722.6</ele>
        <time>2022-12-06T10:12:56Z</time>
      </trkpt>
      <trkpt lat="46.61896" lon="5.84079">
        <ele>722.4</ele>
        <time>2022-12-06T10:13:03Z</time>
      </trkpt>
      <trkpt lat="46.61892" lon="5.84085">
        <ele>722.2</ele>
        <time>2022-12-06T10:13:10Z</time>
      </trkpt>
      <trkpt lat="46.6189" lon="5.84091">
        <ele>721.8</ele>
        <time>2022-12-06T10:13:15Z</time>
      </trkpt>
      <trkpt lat="46.61888" lon="5.84097">
        <ele>721.2</ele>
        <time>2022-12-06T10:13:21Z</time>
      </trkpt>
      <trkpt lat="46.61886" lon="5.84104">
        <ele>721</ele>
        <time>2022-12-06T10:13:28Z</time>
      </trkpt>
      <trkpt lat="46.61884" lon="5.84111">
        <ele>721</ele>
        <time>2022-12-06T10:13:33Z</time>
      </trkpt>
      <trkpt lat="46.61882" lon="5.84118">
        <ele>720.6</ele>
        <time>2022-12-06T10:13:37Z</time>
      </trkpt>
      <trkpt lat="46.61879" lon="5.84123">
        <ele>720.1</ele>
        <time>2022-12-06T10:13:42Z</time>
      </trkpt>
      <trkpt lat="46.61876" lon="5.84129">
        <ele>719.3</ele>
        <time>2022-12-06T10:13:48Z</time>
      </trkpt>
      <trkpt lat="46.61877" lon="5.84137">
        <ele>719</ele>
        <time>2022-12-06T10:13:53Z</time>
      </trkpt>
      <trkpt lat="46.61877" lon="5.84145">
        <ele>719</ele>
        <time>2022-12-06T10:13:57Z</time>
      </trkpt>
      <trkpt lat="46.61876" lon="5.84153">
        <ele>719.6</ele>
        <time>2022-12-06T10:14:02Z</time>
      </trkpt>
      <trkpt lat="46.61876" lon="5.8416">
        <ele>720.1</ele>
        <time>2022-12-06T10:14:07Z</time>
      </trkpt>
      <trkpt lat="46.61878" lon="5.84167">
        <ele>720.7</ele>
        <time>2022-12-06T10:14:13Z</time>
      </trkpt>
      <trkpt lat="46.6188" lon="5.84173">
        <ele>721.6</ele>
        <time>2022-12-06T10:14:20Z</time>
      </trkpt>
      <trkpt lat="46.61882" lon="5.84179">
        <ele>721.9</ele>
        <time>2022-12-06T10:14:26Z</time>
      </trkpt>
      <trkpt lat="46.61885" lon="5.84185">
        <ele>721.8</ele>
        <time>2022-12-06T10:14:33Z</time>
      </trkpt>
      <trkpt lat="46.61888" lon="5.84191">
        <ele>721.3</ele>
        <time>2022-12-06T10:14:37Z</time>
      </trkpt>
      <trkpt lat="46.61889" lon="5.84197">
        <ele>720.8</ele>
        <time>2022-12-06T10:14:41Z</time>
      </trkpt>
      <trkpt lat="46.61892" lon="5.84204">
        <ele>720.1</ele>
        <time>2022-12-06T10:14:46Z</time>
      </trkpt>
      <trkpt lat="46.61896" lon="5.84209">
        <ele>720.1</ele>
        <time>2022-12-06T10:14:53Z</time>
      </trkpt>
      <trkpt lat="46.61899" lon="5.84213">
        <ele>720.5</ele>
        <time>2022-12-06T10:14:58Z</time>
      </trkpt>
      <trkpt lat="46.61902" lon="5.84219">
        <ele>720.9</ele>
        <time>2022-12-06T10:15:03Z</time>
      </trkpt>
      <trkpt lat="46.61905" lon="5.84225">
        <ele>721.3</ele>
        <time>2022-12-06T10:15:08Z</time>
      </trkpt>
      <trkpt lat="46.61908" lon="5.8423">
        <ele>721.9</ele>
        <time>2022-12-06T10:15:14Z</time>
      </trkpt>
      <trkpt lat="46.61908" lon="5.84237">
        <ele>723</ele>
        <time>2022-12-06T10:15:23Z</time>
      </trkpt>
      <trkpt lat="46.6191" lon="5.84244">
        <ele>722.7</ele>
        <time>2022-12-06T10:15:29Z</time>
      </trkpt>
      <trkpt lat="46.6191" lon="5.84251">
        <ele>722.3</ele>
        <time>2022-12-06T10:15:33Z</time>
      </trkpt>
      <trkpt lat="46.61911" lon="5.84258">
        <ele>721.8</ele>
        <time>2022-12-06T10:15:38Z</time>
      </trkpt>
      <trkpt lat="46.61912" lon="5.84265">
        <ele>721.8</ele>
        <time>2022-12-06T10:15:43Z</time>
      </trkpt>
      <trkpt lat="46.61914" lon="5.84272">
        <ele>722.1</ele>
        <time>2022-12-06T10:15:49Z</time>
      </trkpt>
      <trkpt lat="46.61914" lon="5.84279">
        <ele>723.2</ele>
        <time>2022-12-06T10:15:54Z</time>
      </trkpt>
      <trkpt lat="46.61914" lon="5.84286">
        <ele>724.2</ele>
        <time>2022-12-06T10:15:58Z</time>
      </trkpt>
      <trkpt lat="46.61914" lon="5.84293">
        <ele>725</ele>
        <time>2022-12-06T10:16:02Z</time>
      </trkpt>
      <trkpt lat="46.61914" lon="5.84301">
        <ele>725.6</ele>
        <time>2022-12-06T10:16:06Z</time>
      </trkpt>
      <trkpt lat="46.61914" lon="5.84309">
        <ele>726.1</ele>
        <time>2022-12-06T10:16:10Z</time>
      </trkpt>
      <trkpt lat="46.61914" lon="5.84316">
        <ele>726.2</ele>
        <time>2022-12-06T10:16:14Z</time>
      </trkpt>
      <trkpt lat="46.61913" lon="5.84323">
        <ele>725.7</ele>
        <time>2022-12-06T10:16:19Z</time>
      </trkpt>
      <trkpt lat="46.61914" lon="5.8433">
        <ele>725.4</ele>
        <time>2022-12-06T10:16:25Z</time>
      </trkpt>
      <trkpt lat="46.61915" lon="5.84338">
        <ele>725.3</ele>
        <time>2022-12-06T10:16:30Z</time>
      </trkpt>
      <trkpt lat="46.61916" lon="5.84346">
        <ele>725.4</ele>
        <time>2022-12-06T10:16:36Z</time>
      </trkpt>
      <trkpt lat="46.61917" lon="5.84353">
        <ele>725.6</ele>
        <time>2022-12-06T10:16:42Z</time>
      </trkpt>
      <trkpt lat="46.61919" lon="5.84359">
        <ele>725.8</ele>
        <time>2022-12-06T10:16:47Z</time>
      </trkpt>
      <trkpt lat="46.61921" lon="5.84365">
        <ele>726.1</ele>
        <time>2022-12-06T10:16:52Z</time>
      </trkpt>
      <trkpt lat="46.61924" lon="5.84371">
        <ele>726.9</ele>
        <time>2022-12-06T10:17:00Z</time>
      </trkpt>
      <trkpt lat="46.61926" lon="5.84378">
        <ele>727.8</ele>
        <time>2022-12-06T10:17:07Z</time>
      </trkpt>
      <trkpt lat="46.61927" lon="5.84385">
        <ele>728</ele>
        <time>2022-12-06T10:17:13Z</time>
      </trkpt>
      <trkpt lat="46.61927" lon="5.84392">
        <ele>728.1</ele>
        <time>2022-12-06T10:17:19Z</time>
      </trkpt>
      <trkpt lat="46.61923" lon="5.84395">
        <ele>728.8</ele>
        <time>2022-12-06T10:17:25Z</time>
      </trkpt>
      <trkpt lat="46.61918" lon="5.84399">
        <ele>729.5</ele>
        <time>2022-12-06T10:17:31Z</time>
      </trkpt>
      <trkpt lat="46.61915" lon="5.84406">
        <ele>730.2</ele>
        <time>2022-12-06T10:17:37Z</time>
      </trkpt>
      <trkpt lat="46.61916" lon="5.84413">
        <ele>730.4</ele>
        <time>2022-12-06T10:17:42Z</time>
      </trkpt>
      <trkpt lat="46.61917" lon="5.84419">
        <ele>730.5</ele>
        <time>2022-12-06T10:17:46Z</time>
      </trkpt>
      <trkpt lat="46.61915" lon="5.84426">
        <ele>730.8</ele>
        <time>2022-12-06T10:17:50Z</time>
      </trkpt>
      <trkpt lat="46.61913" lon="5.84432">
        <ele>731</ele>
        <time>2022-12-06T10:17:54Z</time>
      </trkpt>
      <trkpt lat="46.61911" lon="5.84438">
        <ele>731.1</ele>
        <time>2022-12-06T10:17:58Z</time>
      </trkpt>
      <trkpt lat="46.61909" lon="5.84444">
        <ele>731</ele>
        <time>2022-12-06T10:18:02Z</time>
      </trkpt>
      <trkpt lat="46.61908" lon="5.84452">
        <ele>730.8</ele>
        <time>2022-12-06T10:18:07Z</time>
      </trkpt>
      <trkpt lat="46.61907" lon="5.8446">
        <ele>730.2</ele>
        <time>2022-12-06T10:18:12Z</time>
      </trkpt>
      <trkpt lat="46.61906" lon="5.84467">
        <ele>729.7</ele>
        <time>2022-12-06T10:18:18Z</time>
      </trkpt>
      <trkpt lat="46.61907" lon="5.84473">
        <ele>729.6</ele>
        <time>2022-12-06T10:18:24Z</time>
      </trkpt>
      <trkpt lat="46.61908" lon="5.8448">
        <ele>728.2</ele>
        <time>2022-12-06T10:18:31Z</time>
      </trkpt>
      <trkpt lat="46.61908" lon="5.84487">
        <ele>726.9</ele>
        <time>2022-12-06T10:18:36Z</time>
      </trkpt>
      <trkpt lat="46.61907" lon="5.84494">
        <ele>726.7</ele>
        <time>2022-12-06T10:18:41Z</time>
      </trkpt>
      <trkpt lat="46.61908" lon="5.84501">
        <ele>726.3</ele>
        <time>2022-12-06T10:18:46Z</time>
      </trkpt>
      <trkpt lat="46.61909" lon="5.84508">
        <ele>725.7</ele>
        <time>2022-12-06T10:18:50Z</time>
      </trkpt>
      <trkpt lat="46.6191" lon="5.84514">
        <ele>724.8</ele>
        <time>2022-12-06T10:18:54Z</time>
      </trkpt>
      <trkpt lat="46.61911" lon="5.84522">
        <ele>724.4</ele>
        <time>2022-12-06T10:18:58Z</time>
      </trkpt>
      <trkpt lat="46.6191" lon="5.84529">
        <ele>724.3</ele>
        <time>2022-12-06T10:19:01Z</time>
      </trkpt>
      <trkpt lat="46.61908" lon="5.84536">
        <ele>724.3</ele>
        <time>2022-12-06T10:19:04Z</time>
      </trkpt>
      <trkpt lat="46.61905" lon="5.84541">
        <ele>724.3</ele>
        <time>2022-12-06T10:19:07Z</time>
      </trkpt>
      <trkpt lat="46.61901" lon="5.84547">
        <ele>724.3</ele>
        <time>2022-12-06T10:19:11Z</time>
      </trkpt>
      <trkpt lat="46.61897" lon="5.84551">
        <ele>724.2</ele>
        <time>2022-12-06T10:19:16Z</time>
      </trkpt>
      <trkpt lat="46.61893" lon="5.84555">
        <ele>724.2</ele>
        <time>2022-12-06T10:19:22Z</time>
      </trkpt>
      <trkpt lat="46.61889" lon="5.84558">
        <ele>723.6</ele>
        <time>2022-12-06T10:19:27Z</time>
      </trkpt>
      <trkpt lat="46.61885" lon="5.84562">
        <ele>723.2</ele>
        <time>2022-12-06T10:19:31Z</time>
      </trkpt>
      <trkpt lat="46.61881" lon="5.84566">
        <ele>723.6</ele>
        <time>2022-12-06T10:19:36Z</time>
      </trkpt>
      <trkpt lat="46.61878" lon="5.84572">
        <ele>723.7</ele>
        <time>2022-12-06T10:19:42Z</time>
      </trkpt>
      <trkpt lat="46.61876" lon="5.84578">
        <ele>723.3</ele>
        <time>2022-12-06T10:19:46Z</time>
      </trkpt>
      <trkpt lat="46.61875" lon="5.84585">
        <ele>722.8</ele>
        <time>2022-12-06T10:19:51Z</time>
      </trkpt>
      <trkpt lat="46.61877" lon="5.84592">
        <ele>722.2</ele>
        <time>2022-12-06T10:19:56Z</time>
      </trkpt>
      <trkpt lat="46.61879" lon="5.84598">
        <ele>721.8</ele>
        <time>2022-12-06T10:20:01Z</time>
      </trkpt>
      <trkpt lat="46.61881" lon="5.84605">
        <ele>721.2</ele>
        <time>2022-12-06T10:20:07Z</time>
      </trkpt>
      <trkpt lat="46.61881" lon="5.84612">
        <ele>721</ele>
        <time>2022-12-06T10:20:12Z</time>
      </trkpt>
      <trkpt lat="46.61883" lon="5.8462">
        <ele>720.9</ele>
        <time>2022-12-06T10:20:17Z</time>
      </trkpt>
      <trkpt lat="46.61884" lon="5.84627">
        <ele>720.9</ele>
        <time>2022-12-06T10:20:22Z</time>
      </trkpt>
      <trkpt lat="46.61887" lon="5.84633">
        <ele>720.8</ele>
        <time>2022-12-06T10:20:26Z</time>
      </trkpt>
      <trkpt lat="46.61888" lon="5.84639">
        <ele>720.8</ele>
        <time>2022-12-06T10:20:31Z</time>
      </trkpt>
      <trkpt lat="46.61887" lon="5.84646">
        <ele>720.7</ele>
        <time>2022-12-06T10:20:36Z</time>
      </trkpt>
      <trkpt lat="46.61887" lon="5.84653">
        <ele>720.8</ele>
        <time>2022-12-06T10:20:41Z</time>
      </trkpt>
      <trkpt lat="46.61887" lon="5.84661">
        <ele>721</ele>
        <time>2022-12-06T10:20:46Z</time>
      </trkpt>
      <trkpt lat="46.61887" lon="5.84668">
        <ele>721.3</ele>
        <time>2022-12-06T10:20:51Z</time>
      </trkpt>
      <trkpt lat="46.61887" lon="5.84676">
        <ele>721.5</ele>
        <time>2022-12-06T10:20:56Z</time>
      </trkpt>
      <trkpt lat="46.61888" lon="5.84683">
        <ele>721.3</ele>
        <time>2022-12-06T10:21:01Z</time>
      </trkpt>
      <trkpt lat="46.61888" lon="5.8469">
        <ele>721.1</ele>
        <time>2022-12-06T10:21:07Z</time>
      </trkpt>
      <trkpt lat="46.61889" lon="5.84698">
        <ele>720.8</ele>
        <time>2022-12-06T10:21:13Z</time>
      </trkpt>
      <trkpt lat="46.61889" lon="5.84705">
        <ele>720.8</ele>
        <time>2022-12-06T10:21:18Z</time>
      </trkpt>
      <trkpt lat="46.61889" lon="5.84712">
        <ele>721.2</ele>
        <time>2022-12-06T10:21:23Z</time>
      </trkpt>
      <trkpt lat="46.61889" lon="5.84719">
        <ele>721.4</ele>
        <time>2022-12-06T10:21:28Z</time>
      </trkpt>
      <trkpt lat="46.61889" lon="5.84727">
        <ele>722.3</ele>
        <time>2022-12-06T10:21:33Z</time>
      </trkpt>
      <trkpt lat="46.6189" lon="5.84734">
        <ele>723.2</ele>
        <time>2022-12-06T10:21:38Z</time>
      </trkpt>
      <trkpt lat="46.6189" lon="5.84741">
        <ele>723.9</ele>
        <time>2022-12-06T10:21:43Z</time>
      </trkpt>
      <trkpt lat="46.6189" lon="5.84749">
        <ele>724.3</ele>
        <time>2022-12-06T10:21:49Z</time>
      </trkpt>
      <trkpt lat="46.61888" lon="5.84757">
        <ele>724.6</ele>
        <time>2022-12-06T10:21:56Z</time>
      </trkpt>
      <trkpt lat="46.61888" lon="5.84764">
        <ele>724.9</ele>
        <time>2022-12-06T10:22:01Z</time>
      </trkpt>
      <trkpt lat="46.61887" lon="5.84772">
        <ele>724.8</ele>
        <time>2022-12-06T10:22:06Z</time>
      </trkpt>
      <trkpt lat="46.61885" lon="5.84778">
        <ele>724.5</ele>
        <time>2022-12-06T10:22:10Z</time>
      </trkpt>
      <trkpt lat="46.61883" lon="5.84785">
        <ele>724</ele>
        <time>2022-12-06T10:22:14Z</time>
      </trkpt>
      <trkpt lat="46.61882" lon="5.84793">
        <ele>723.7</ele>
        <time>2022-12-06T10:22:19Z</time>
      </trkpt>
      <trkpt lat="46.61881" lon="5.84799">
        <ele>723.7</ele>
        <time>2022-12-06T10:22:24Z</time>
      </trkpt>
      <trkpt lat="46.61879" lon="5.84805">
        <ele>723.6</ele>
        <time>2022-12-06T10:22:29Z</time>
      </trkpt>
      <trkpt lat="46.61875" lon="5.84809">
        <ele>723.6</ele>
        <time>2022-12-06T10:22:34Z</time>
      </trkpt>
      <trkpt lat="46.61871" lon="5.84813">
        <ele>723.7</ele>
        <time>2022-12-06T10:22:39Z</time>
      </trkpt>
      <trkpt lat="46.61867" lon="5.84817">
        <ele>723.9</ele>
        <time>2022-12-06T10:22:44Z</time>
      </trkpt>
      <trkpt lat="46.61863" lon="5.84821">
        <ele>724.5</ele>
        <time>2022-12-06T10:22:48Z</time>
      </trkpt>
      <trkpt lat="46.61861" lon="5.84827">
        <ele>724.9</ele>
        <time>2022-12-06T10:22:53Z</time>
      </trkpt>
      <trkpt lat="46.61857" lon="5.84833">
        <ele>725</ele>
        <time>2022-12-06T10:22:58Z</time>
      </trkpt>
      <trkpt lat="46.61855" lon="5.84839">
        <ele>725.1</ele>
        <time>2022-12-06T10:23:04Z</time>
      </trkpt>
      <trkpt lat="46.61856" lon="5.84845">
        <ele>725.4</ele>
        <time>2022-12-06T10:23:10Z</time>
      </trkpt>
      <trkpt lat="46.61857" lon="5.84852">
        <ele>725.8</ele>
        <time>2022-12-06T10:23:16Z</time>
      </trkpt>
      <trkpt lat="46.61859" lon="5.84859">
        <ele>725.8</ele>
        <time>2022-12-06T10:23:22Z</time>
      </trkpt>
      <trkpt lat="46.61858" lon="5.84865">
        <ele>725.6</ele>
        <time>2022-12-06T10:23:30Z</time>
      </trkpt>
      <trkpt lat="46.61859" lon="5.84873">
        <ele>726.4</ele>
        <time>2022-12-06T10:23:47Z</time>
      </trkpt>
      <trkpt lat="46.61862" lon="5.84877">
        <ele>728.1</ele>
        <time>2022-12-06T10:23:55Z</time>
      </trkpt>
      <trkpt lat="46.61864" lon="5.84884">
        <ele>728.8</ele>
        <time>2022-12-06T10:24:25Z</time>
      </trkpt>
      <trkpt lat="46.61867" lon="5.84889">
        <ele>729.1</ele>
        <time>2022-12-06T10:24:30Z</time>
      </trkpt>
      <trkpt lat="46.61872" lon="5.8489">
        <ele>735.6</ele>
        <time>2022-12-06T10:26:43Z</time>
      </trkpt>
      <trkpt lat="46.61873" lon="5.84896">
        <ele>735.9</ele>
        <time>2022-12-06T10:26:49Z</time>
      </trkpt>
      <trkpt lat="46.6187" lon="5.84902">
        <ele>735.8</ele>
        <time>2022-12-06T10:26:56Z</time>
      </trkpt>
      <trkpt lat="46.61869" lon="5.84909">
        <ele>737.6</ele>
        <time>2022-12-06T10:27:24Z</time>
      </trkpt>
      <trkpt lat="46.61872" lon="5.84914">
        <ele>738.3</ele>
        <time>2022-12-06T10:27:27Z</time>
      </trkpt>
      <trkpt lat="46.61875" lon="5.84926">
        <ele>741.9</ele>
        <time>2022-12-06T10:27:59Z</time>
      </trkpt>
      <trkpt lat="46.61877" lon="5.84932">
        <ele>743</ele>
        <time>2022-12-06T10:28:03Z</time>
      </trkpt>
      <trkpt lat="46.6188" lon="5.8494">
        <ele>743.8</ele>
        <time>2022-12-06T10:28:55Z</time>
      </trkpt>
      <trkpt lat="46.61882" lon="5.84946">
        <ele>743.5</ele>
        <time>2022-12-06T10:28:59Z</time>
      </trkpt>
      <trkpt lat="46.61877" lon="5.84947">
        <ele>744</ele>
        <time>2022-12-06T10:29:27Z</time>
      </trkpt>
      <trkpt lat="46.61879" lon="5.84952">
        <ele>747.2</ele>
        <time>2022-12-06T10:29:52Z</time>
      </trkpt>
      <trkpt lat="46.61883" lon="5.84957">
        <ele>748</ele>
        <time>2022-12-06T10:29:58Z</time>
      </trkpt>
      <trkpt lat="46.61885" lon="5.84965">
        <ele>748.3</ele>
        <time>2022-12-06T10:30:05Z</time>
      </trkpt>
      <trkpt lat="46.61885" lon="5.84975">
        <ele>748.3</ele>
        <time>2022-12-06T10:30:15Z</time>
      </trkpt>
      <trkpt lat="46.61882" lon="5.84981">
        <ele>748.3</ele>
        <time>2022-12-06T10:30:19Z</time>
      </trkpt>
      <trkpt lat="46.61878" lon="5.84985">
        <ele>748.1</ele>
        <time>2022-12-06T10:30:25Z</time>
      </trkpt>
      <trkpt lat="46.61873" lon="5.8499">
        <ele>747.5</ele>
        <time>2022-12-06T10:30:30Z</time>
      </trkpt>
      <trkpt lat="46.61869" lon="5.84993">
        <ele>747.1</ele>
        <time>2022-12-06T10:30:35Z</time>
      </trkpt>
      <trkpt lat="46.61864" lon="5.84995">
        <ele>746.6</ele>
        <time>2022-12-06T10:30:41Z</time>
      </trkpt>
      <trkpt lat="46.6186" lon="5.85">
        <ele>746.4</ele>
        <time>2022-12-06T10:30:46Z</time>
      </trkpt>
      <trkpt lat="46.61856" lon="5.85004">
        <ele>746.2</ele>
        <time>2022-12-06T10:30:51Z</time>
      </trkpt>
      <trkpt lat="46.61852" lon="5.85007">
        <ele>746.3</ele>
        <time>2022-12-06T10:30:56Z</time>
      </trkpt>
      <trkpt lat="46.61847" lon="5.8501">
        <ele>746</ele>
        <time>2022-12-06T10:31:02Z</time>
      </trkpt>
      <trkpt lat="46.61842" lon="5.85012">
        <ele>745.7</ele>
        <time>2022-12-06T10:31:07Z</time>
      </trkpt>
      <trkpt lat="46.61837" lon="5.85015">
        <ele>745.6</ele>
        <time>2022-12-06T10:31:13Z</time>
      </trkpt>
      <trkpt lat="46.61833" lon="5.85015">
        <ele>745.5</ele>
        <time>2022-12-06T10:31:18Z</time>
      </trkpt>
      <trkpt lat="46.61828" lon="5.85017">
        <ele>745.3</ele>
        <time>2022-12-06T10:31:25Z</time>
      </trkpt>
      <trkpt lat="46.61823" lon="5.85021">
        <ele>745.2</ele>
        <time>2022-12-06T10:31:31Z</time>
      </trkpt>
      <trkpt lat="46.61819" lon="5.85023">
        <ele>744.9</ele>
        <time>2022-12-06T10:31:36Z</time>
      </trkpt>
      <trkpt lat="46.61814" lon="5.85026">
        <ele>744.6</ele>
        <time>2022-12-06T10:31:42Z</time>
      </trkpt>
      <trkpt lat="46.6181" lon="5.85027">
        <ele>744.5</ele>
        <time>2022-12-06T10:31:47Z</time>
      </trkpt>
      <trkpt lat="46.61805" lon="5.85028">
        <ele>744.1</ele>
        <time>2022-12-06T10:31:52Z</time>
      </trkpt>
      <trkpt lat="46.618" lon="5.8503">
        <ele>743.8</ele>
        <time>2022-12-06T10:31:59Z</time>
      </trkpt>
      <trkpt lat="46.61795" lon="5.85033">
        <ele>743.3</ele>
        <time>2022-12-06T10:32:04Z</time>
      </trkpt>
      <trkpt lat="46.6179" lon="5.85035">
        <ele>743.2</ele>
        <time>2022-12-06T10:32:09Z</time>
      </trkpt>
      <trkpt lat="46.61785" lon="5.85038">
        <ele>743.3</ele>
        <time>2022-12-06T10:32:13Z</time>
      </trkpt>
      <trkpt lat="46.61781" lon="5.8504">
        <ele>743.3</ele>
        <time>2022-12-06T10:32:17Z</time>
      </trkpt>
      <trkpt lat="46.61776" lon="5.85042">
        <ele>743</ele>
        <time>2022-12-06T10:32:22Z</time>
      </trkpt>
      <trkpt lat="46.61771" lon="5.85044">
        <ele>742.5</ele>
        <time>2022-12-06T10:32:28Z</time>
      </trkpt>
      <trkpt lat="46.61767" lon="5.85046">
        <ele>742.5</ele>
        <time>2022-12-06T10:32:34Z</time>
      </trkpt>
      <trkpt lat="46.61763" lon="5.85049">
        <ele>742.9</ele>
        <time>2022-12-06T10:32:39Z</time>
      </trkpt>
      <trkpt lat="46.61758" lon="5.85053">
        <ele>743.7</ele>
        <time>2022-12-06T10:32:44Z</time>
      </trkpt>
      <trkpt lat="46.61754" lon="5.85056">
        <ele>744.7</ele>
        <time>2022-12-06T10:32:49Z</time>
      </trkpt>
      <trkpt lat="46.6175" lon="5.85059">
        <ele>745.9</ele>
        <time>2022-12-06T10:32:54Z</time>
      </trkpt>
      <trkpt lat="46.61745" lon="5.85062">
        <ele>746.8</ele>
        <time>2022-12-06T10:32:59Z</time>
      </trkpt>
      <trkpt lat="46.61741" lon="5.85063">
        <ele>747.1</ele>
        <time>2022-12-06T10:33:05Z</time>
      </trkpt>
      <trkpt lat="46.61735" lon="5.85066">
        <ele>747</ele>
        <time>2022-12-06T10:33:13Z</time>
      </trkpt>
      <trkpt lat="46.61731" lon="5.85069">
        <ele>746.9</ele>
        <time>2022-12-06T10:33:17Z</time>
      </trkpt>
      <trkpt lat="46.61727" lon="5.85073">
        <ele>746.6</ele>
        <time>2022-12-06T10:33:21Z</time>
      </trkpt>
      <trkpt lat="46.61723" lon="5.85077">
        <ele>745.9</ele>
        <time>2022-12-06T10:33:27Z</time>
      </trkpt>
      <trkpt lat="46.61718" lon="5.8508">
        <ele>745.1</ele>
        <time>2022-12-06T10:33:32Z</time>
      </trkpt>
      <trkpt lat="46.61714" lon="5.85084">
        <ele>744.3</ele>
        <time>2022-12-06T10:33:38Z</time>
      </trkpt>
      <trkpt lat="46.6171" lon="5.85088">
        <ele>743.6</ele>
        <time>2022-12-06T10:33:43Z</time>
      </trkpt>
      <trkpt lat="46.61705" lon="5.8509">
        <ele>743.1</ele>
        <time>2022-12-06T10:33:48Z</time>
      </trkpt>
      <trkpt lat="46.61701" lon="5.85094">
        <ele>742.7</ele>
        <time>2022-12-06T10:33:52Z</time>
      </trkpt>
      <trkpt lat="46.61697" lon="5.85098">
        <ele>742.8</ele>
        <time>2022-12-06T10:33:56Z</time>
      </trkpt>
      <trkpt lat="46.61693" lon="5.85103">
        <ele>743</ele>
        <time>2022-12-06T10:34:01Z</time>
      </trkpt>
      <trkpt lat="46.6169" lon="5.85108">
        <ele>743.4</ele>
        <time>2022-12-06T10:34:06Z</time>
      </trkpt>
      <trkpt lat="46.61686" lon="5.85113">
        <ele>744.1</ele>
        <time>2022-12-06T10:34:12Z</time>
      </trkpt>
      <trkpt lat="46.61683" lon="5.85118">
        <ele>744.3</ele>
        <time>2022-12-06T10:34:17Z</time>
      </trkpt>
      <trkpt lat="46.6168" lon="5.85124">
        <ele>744.4</ele>
        <time>2022-12-06T10:34:22Z</time>
      </trkpt>
      <trkpt lat="46.61678" lon="5.85131">
        <ele>743.9</ele>
        <time>2022-12-06T10:34:29Z</time>
      </trkpt>
      <trkpt lat="46.61676" lon="5.85137">
        <ele>743.3</ele>
        <time>2022-12-06T10:34:35Z</time>
      </trkpt>
      <trkpt lat="46.61674" lon="5.85144">
        <ele>743.2</ele>
        <time>2022-12-06T10:34:40Z</time>
      </trkpt>
      <trkpt lat="46.61672" lon="5.85151">
        <ele>743.7</ele>
        <time>2022-12-06T10:34:45Z</time>
      </trkpt>
      <trkpt lat="46.61669" lon="5.85156">
        <ele>744.7</ele>
        <time>2022-12-06T10:34:50Z</time>
      </trkpt>
      <trkpt lat="46.61665" lon="5.8516">
        <ele>746</ele>
        <time>2022-12-06T10:34:56Z</time>
      </trkpt>
      <trkpt lat="46.61661" lon="5.85165">
        <ele>747.5</ele>
        <time>2022-12-06T10:35:03Z</time>
      </trkpt>
      <trkpt lat="46.61657" lon="5.85169">
        <ele>749</ele>
        <time>2022-12-06T10:35:09Z</time>
      </trkpt>
      <trkpt lat="46.61653" lon="5.85174">
        <ele>750</ele>
        <time>2022-12-06T10:35:16Z</time>
      </trkpt>
      <trkpt lat="46.6165" lon="5.85179">
        <ele>749.5</ele>
        <time>2022-12-06T10:35:21Z</time>
      </trkpt>
      <trkpt lat="46.61646" lon="5.85183">
        <ele>749.6</ele>
        <time>2022-12-06T10:35:26Z</time>
      </trkpt>
      <trkpt lat="46.61642" lon="5.85186">
        <ele>750</ele>
        <time>2022-12-06T10:35:31Z</time>
      </trkpt>
      <trkpt lat="46.61638" lon="5.8519">
        <ele>750.5</ele>
        <time>2022-12-06T10:35:38Z</time>
      </trkpt>
      <trkpt lat="46.61634" lon="5.85195">
        <ele>750.4</ele>
        <time>2022-12-06T10:35:43Z</time>
      </trkpt>
      <trkpt lat="46.61631" lon="5.85201">
        <ele>750.2</ele>
        <time>2022-12-06T10:35:48Z</time>
      </trkpt>
      <trkpt lat="46.61628" lon="5.85206">
        <ele>749.8</ele>
        <time>2022-12-06T10:35:54Z</time>
      </trkpt>
      <trkpt lat="46.61624" lon="5.8521">
        <ele>749.5</ele>
        <time>2022-12-06T10:36:01Z</time>
      </trkpt>
      <trkpt lat="46.6162" lon="5.85216">
        <ele>749.3</ele>
        <time>2022-12-06T10:36:07Z</time>
      </trkpt>
      <trkpt lat="46.61616" lon="5.85219">
        <ele>749.7</ele>
        <time>2022-12-06T10:36:11Z</time>
      </trkpt>
      <trkpt lat="46.6161" lon="5.85217">
        <ele>750</ele>
        <time>2022-12-06T10:36:16Z</time>
      </trkpt>
      <trkpt lat="46.61607" lon="5.85214">
        <ele>750.3</ele>
        <time>2022-12-06T10:36:21Z</time>
      </trkpt>
      <trkpt lat="46.61602" lon="5.8521">
        <ele>750.2</ele>
        <time>2022-12-06T10:36:26Z</time>
      </trkpt>
      <trkpt lat="46.61598" lon="5.85207">
        <ele>749.5</ele>
        <time>2022-12-06T10:36:33Z</time>
      </trkpt>
      <trkpt lat="46.61594" lon="5.85204">
        <ele>748.3</ele>
        <time>2022-12-06T10:36:38Z</time>
      </trkpt>
      <trkpt lat="46.6159" lon="5.852">
        <ele>747.5</ele>
        <time>2022-12-06T10:36:43Z</time>
      </trkpt>
      <trkpt lat="46.61585" lon="5.85197">
        <ele>746.7</ele>
        <time>2022-12-06T10:36:49Z</time>
      </trkpt>
      <trkpt lat="46.6158" lon="5.85196">
        <ele>745.9</ele>
        <time>2022-12-06T10:36:55Z</time>
      </trkpt>
      <trkpt lat="46.61575" lon="5.85194">
        <ele>745.5</ele>
        <time>2022-12-06T10:37:00Z</time>
      </trkpt>
      <trkpt lat="46.6157" lon="5.85193">
        <ele>744</ele>
        <time>2022-12-06T10:37:07Z</time>
      </trkpt>
      <trkpt lat="46.61566" lon="5.8519">
        <ele>742.4</ele>
        <time>2022-12-06T10:37:17Z</time>
      </trkpt>
      <trkpt lat="46.61558" lon="5.8519">
        <ele>739.7</ele>
        <time>2022-12-06T10:37:49Z</time>
      </trkpt>
      <trkpt lat="46.61553" lon="5.85189">
        <ele>737.7</ele>
        <time>2022-12-06T10:39:18Z</time>
      </trkpt>
      <trkpt lat="46.61554" lon="5.85182">
        <ele>737.8</ele>
        <time>2022-12-06T11:14:53Z</time>
      </trkpt>
      <trkpt lat="46.61558" lon="5.85187">
        <ele>740.1</ele>
        <time>2022-12-06T11:17:53Z</time>
      </trkpt>
      <trkpt lat="46.61563" lon="5.85189">
        <ele>739.2</ele>
        <time>2022-12-06T11:17:59Z</time>
      </trkpt>
      <trkpt lat="46.61568" lon="5.8519">
        <ele>738.8</ele>
        <time>2022-12-06T11:18:06Z</time>
      </trkpt>
      <trkpt lat="46.61572" lon="5.85192">
        <ele>738.7</ele>
        <time>2022-12-06T11:18:12Z</time>
      </trkpt>
      <trkpt lat="46.61577" lon="5.85196">
        <ele>738.7</ele>
        <time>2022-12-06T11:18:18Z</time>
      </trkpt>
      <trkpt lat="46.61581" lon="5.85198">
        <ele>738.4</ele>
        <time>2022-12-06T11:18:23Z</time>
      </trkpt>
      <trkpt lat="46.61586" lon="5.852">
        <ele>737.7</ele>
        <time>2022-12-06T11:18:29Z</time>
      </trkpt>
      <trkpt lat="46.6159" lon="5.85205">
        <ele>737.2</ele>
        <time>2022-12-06T11:18:36Z</time>
      </trkpt>
      <trkpt lat="46.61595" lon="5.85209">
        <ele>736.4</ele>
        <time>2022-12-06T11:18:41Z</time>
      </trkpt>
      <trkpt lat="46.61599" lon="5.85212">
        <ele>735.7</ele>
        <time>2022-12-06T11:18:46Z</time>
      </trkpt>
      <trkpt lat="46.61604" lon="5.85215">
        <ele>735.5</ele>
        <time>2022-12-06T11:18:52Z</time>
      </trkpt>
      <trkpt lat="46.61609" lon="5.85217">
        <ele>735.9</ele>
        <time>2022-12-06T11:18:58Z</time>
      </trkpt>
      <trkpt lat="46.61613" lon="5.85219">
        <ele>736.4</ele>
        <time>2022-12-06T11:19:03Z</time>
      </trkpt>
      <trkpt lat="46.61618" lon="5.85222">
        <ele>737.4</ele>
        <time>2022-12-06T11:19:08Z</time>
      </trkpt>
      <trkpt lat="46.61621" lon="5.85227">
        <ele>738.9</ele>
        <time>2022-12-06T11:19:18Z</time>
      </trkpt>
      <trkpt lat="46.61626" lon="5.85225">
        <ele>744.6</ele>
        <time>2022-12-06T11:20:08Z</time>
      </trkpt>
      <trkpt lat="46.61629" lon="5.85221">
        <ele>746</ele>
        <time>2022-12-06T11:20:12Z</time>
      </trkpt>
      <trkpt lat="46.61634" lon="5.85217">
        <ele>746.9</ele>
        <time>2022-12-06T11:20:16Z</time>
      </trkpt>
      <trkpt lat="46.61639" lon="5.85213">
        <ele>747.1</ele>
        <time>2022-12-06T11:20:21Z</time>
      </trkpt>
      <trkpt lat="46.61643" lon="5.85211">
        <ele>746.6</ele>
        <time>2022-12-06T11:20:25Z</time>
      </trkpt>
      <trkpt lat="46.61648" lon="5.85209">
        <ele>746.3</ele>
        <time>2022-12-06T11:20:29Z</time>
      </trkpt>
      <trkpt lat="46.61653" lon="5.85206">
        <ele>747.4</ele>
        <time>2022-12-06T11:20:33Z</time>
      </trkpt>
      <trkpt lat="46.61656" lon="5.85201">
        <ele>749.3</ele>
        <time>2022-12-06T11:20:39Z</time>
      </trkpt>
      <trkpt lat="46.6166" lon="5.85198">
        <ele>750.4</ele>
        <time>2022-12-06T11:20:45Z</time>
      </trkpt>
      <trkpt lat="46.61665" lon="5.85197">
        <ele>750.9</ele>
        <time>2022-12-06T11:20:51Z</time>
      </trkpt>
      <trkpt lat="46.6167" lon="5.85195">
        <ele>750.8</ele>
        <time>2022-12-06T11:20:58Z</time>
      </trkpt>
      <trkpt lat="46.61674" lon="5.85192">
        <ele>751</ele>
        <time>2022-12-06T11:21:05Z</time>
      </trkpt>
      <trkpt lat="46.61678" lon="5.85197">
        <ele>751.5</ele>
        <time>2022-12-06T11:21:12Z</time>
      </trkpt>
      <trkpt lat="46.6168" lon="5.85204">
        <ele>751.8</ele>
        <time>2022-12-06T11:21:16Z</time>
      </trkpt>
      <trkpt lat="46.61681" lon="5.85211">
        <ele>751.9</ele>
        <time>2022-12-06T11:21:20Z</time>
      </trkpt>
      <trkpt lat="46.6168" lon="5.85218">
        <ele>751.9</ele>
        <time>2022-12-06T11:21:24Z</time>
      </trkpt>
      <trkpt lat="46.61678" lon="5.85224">
        <ele>751.9</ele>
        <time>2022-12-06T11:21:29Z</time>
      </trkpt>
      <trkpt lat="46.61675" lon="5.8523">
        <ele>751.9</ele>
        <time>2022-12-06T11:21:33Z</time>
      </trkpt>
      <trkpt lat="46.61671" lon="5.85235">
        <ele>752.1</ele>
        <time>2022-12-06T11:21:38Z</time>
      </trkpt>
      <trkpt lat="46.61668" lon="5.8524">
        <ele>752.4</ele>
        <time>2022-12-06T11:21:43Z</time>
      </trkpt>
      <trkpt lat="46.61664" lon="5.85244">
        <ele>753.4</ele>
        <time>2022-12-06T11:21:50Z</time>
      </trkpt>
      <trkpt lat="46.61659" lon="5.85245">
        <ele>754.6</ele>
        <time>2022-12-06T11:21:57Z</time>
      </trkpt>
      <trkpt lat="46.61653" lon="5.85245">
        <ele>755</ele>
        <time>2022-12-06T11:22:03Z</time>
      </trkpt>
      <trkpt lat="46.61648" lon="5.85247">
        <ele>754.2</ele>
        <time>2022-12-06T11:22:11Z</time>
      </trkpt>
      <trkpt lat="46.61644" lon="5.85251">
        <ele>753.3</ele>
        <time>2022-12-06T11:22:17Z</time>
      </trkpt>
      <trkpt lat="46.61641" lon="5.85258">
        <ele>752.2</ele>
        <time>2022-12-06T11:22:22Z</time>
      </trkpt>
      <trkpt lat="46.61637" lon="5.85262">
        <ele>750.9</ele>
        <time>2022-12-06T11:22:27Z</time>
      </trkpt>
      <trkpt lat="46.61633" lon="5.85266">
        <ele>749.4</ele>
        <time>2022-12-06T11:22:33Z</time>
      </trkpt>
      <trkpt lat="46.61629" lon="5.85271">
        <ele>748.3</ele>
        <time>2022-12-06T11:22:39Z</time>
      </trkpt>
      <trkpt lat="46.61625" lon="5.85275">
        <ele>747.7</ele>
        <time>2022-12-06T11:22:44Z</time>
      </trkpt>
      <trkpt lat="46.61622" lon="5.8528">
        <ele>747.3</ele>
        <time>2022-12-06T11:22:49Z</time>
      </trkpt>
      <trkpt lat="46.61619" lon="5.85285">
        <ele>746.9</ele>
        <time>2022-12-06T11:22:55Z</time>
      </trkpt>
      <trkpt lat="46.61615" lon="5.85289">
        <ele>746.5</ele>
        <time>2022-12-06T11:23:01Z</time>
      </trkpt>
      <trkpt lat="46.6161" lon="5.85292">
        <ele>746.2</ele>
        <time>2022-12-06T11:23:07Z</time>
      </trkpt>
      <trkpt lat="46.61606" lon="5.85295">
        <ele>745.5</ele>
        <time>2022-12-06T11:23:12Z</time>
      </trkpt>
      <trkpt lat="46.61602" lon="5.85299">
        <ele>745</ele>
        <time>2022-12-06T11:23:17Z</time>
      </trkpt>
      <trkpt lat="46.61598" lon="5.85304">
        <ele>744.6</ele>
        <time>2022-12-06T11:23:22Z</time>
      </trkpt>
      <trkpt lat="46.61596" lon="5.8531">
        <ele>744.5</ele>
        <time>2022-12-06T11:23:28Z</time>
      </trkpt>
      <trkpt lat="46.61595" lon="5.85317">
        <ele>744.9</ele>
        <time>2022-12-06T11:23:34Z</time>
      </trkpt>
      <trkpt lat="46.61597" lon="5.85324">
        <ele>745.2</ele>
        <time>2022-12-06T11:23:41Z</time>
      </trkpt>
      <trkpt lat="46.61596" lon="5.85331">
        <ele>744.8</ele>
        <time>2022-12-06T11:23:47Z</time>
      </trkpt>
      <trkpt lat="46.61594" lon="5.85338">
        <ele>744.1</ele>
        <time>2022-12-06T11:23:53Z</time>
      </trkpt>
      <trkpt lat="46.61592" lon="5.85345">
        <ele>744.1</ele>
        <time>2022-12-06T11:24:00Z</time>
      </trkpt>
      <trkpt lat="46.61589" lon="5.8535">
        <ele>744.7</ele>
        <time>2022-12-06T11:24:07Z</time>
      </trkpt>
      <trkpt lat="46.61588" lon="5.85356">
        <ele>745.8</ele>
        <time>2022-12-06T11:24:16Z</time>
      </trkpt>
      <trkpt lat="46.61589" lon="5.85363">
        <ele>745.9</ele>
        <time>2022-12-06T11:24:22Z</time>
      </trkpt>
      <trkpt lat="46.61589" lon="5.85371">
        <ele>745.5</ele>
        <time>2022-12-06T11:24:28Z</time>
      </trkpt>
      <trkpt lat="46.61587" lon="5.85378">
        <ele>745.2</ele>
        <time>2022-12-06T11:24:35Z</time>
      </trkpt>
      <trkpt lat="46.61585" lon="5.85385">
        <ele>745.2</ele>
        <time>2022-12-06T11:24:47Z</time>
      </trkpt>
      <trkpt lat="46.61582" lon="5.85389">
        <ele>744.9</ele>
        <time>2022-12-06T11:24:53Z</time>
      </trkpt>
      <trkpt lat="46.61581" lon="5.85396">
        <ele>745</ele>
        <time>2022-12-06T11:25:14Z</time>
      </trkpt>
      <trkpt lat="46.61582" lon="5.85403">
        <ele>745.3</ele>
        <time>2022-12-06T11:25:17Z</time>
      </trkpt>
      <trkpt lat="46.61582" lon="5.8541">
        <ele>745.6</ele>
        <time>2022-12-06T11:25:24Z</time>
      </trkpt>
      <trkpt lat="46.61581" lon="5.85418">
        <ele>745.4</ele>
        <time>2022-12-06T11:25:31Z</time>
      </trkpt>
      <trkpt lat="46.6158" lon="5.85425">
        <ele>745.2</ele>
        <time>2022-12-06T11:25:37Z</time>
      </trkpt>
      <trkpt lat="46.61581" lon="5.85433">
        <ele>745.3</ele>
        <time>2022-12-06T11:25:46Z</time>
      </trkpt>
      <trkpt lat="46.61584" lon="5.85439">
        <ele>745.9</ele>
        <time>2022-12-06T11:25:52Z</time>
      </trkpt>
      <trkpt lat="46.61584" lon="5.85446">
        <ele>747</ele>
        <time>2022-12-06T11:25:59Z</time>
      </trkpt>
      <trkpt lat="46.61583" lon="5.85457">
        <ele>749</ele>
        <time>2022-12-06T11:26:25Z</time>
      </trkpt>
      <trkpt lat="46.61583" lon="5.85463">
        <ele>750</ele>
        <time>2022-12-06T11:26:32Z</time>
      </trkpt>
      <trkpt lat="46.61584" lon="5.8547">
        <ele>749.4</ele>
        <time>2022-12-06T11:26:39Z</time>
      </trkpt>
      <trkpt lat="46.61584" lon="5.85478">
        <ele>747.9</ele>
        <time>2022-12-06T11:26:45Z</time>
      </trkpt>
      <trkpt lat="46.61584" lon="5.85485">
        <ele>746.8</ele>
        <time>2022-12-06T11:26:49Z</time>
      </trkpt>
      <trkpt lat="46.61584" lon="5.85491">
        <ele>745.5</ele>
        <time>2022-12-06T11:26:55Z</time>
      </trkpt>
      <trkpt lat="46.61584" lon="5.85498">
        <ele>745.2</ele>
        <time>2022-12-06T11:27:01Z</time>
      </trkpt>
      <trkpt lat="46.61585" lon="5.85505">
        <ele>745.3</ele>
        <time>2022-12-06T11:27:08Z</time>
      </trkpt>
      <trkpt lat="46.61585" lon="5.85512">
        <ele>744.4</ele>
        <time>2022-12-06T11:27:15Z</time>
      </trkpt>
      <trkpt lat="46.61585" lon="5.85519">
        <ele>743.5</ele>
        <time>2022-12-06T11:27:23Z</time>
      </trkpt>
      <trkpt lat="46.61584" lon="5.85526">
        <ele>744.3</ele>
        <time>2022-12-06T11:27:31Z</time>
      </trkpt>
      <trkpt lat="46.61585" lon="5.85533">
        <ele>746.4</ele>
        <time>2022-12-06T11:27:39Z</time>
      </trkpt>
      <trkpt lat="46.61585" lon="5.8554">
        <ele>748.7</ele>
        <time>2022-12-06T11:27:47Z</time>
      </trkpt>
      <trkpt lat="46.61585" lon="5.85548">
        <ele>749.9</ele>
        <time>2022-12-06T11:27:54Z</time>
      </trkpt>
      <trkpt lat="46.61584" lon="5.85554">
        <ele>750.7</ele>
        <time>2022-12-06T11:28:00Z</time>
      </trkpt>
      <trkpt lat="46.61583" lon="5.85561">
        <ele>751.3</ele>
        <time>2022-12-06T11:28:07Z</time>
      </trkpt>
      <trkpt lat="46.61584" lon="5.85567">
        <ele>751.6</ele>
        <time>2022-12-06T11:28:14Z</time>
      </trkpt>
      <trkpt lat="46.61585" lon="5.85575">
        <ele>751.9</ele>
        <time>2022-12-06T11:28:20Z</time>
      </trkpt>
      <trkpt lat="46.61584" lon="5.85582">
        <ele>752.1</ele>
        <time>2022-12-06T11:28:26Z</time>
      </trkpt>
      <trkpt lat="46.61585" lon="5.85589">
        <ele>752.2</ele>
        <time>2022-12-06T11:28:33Z</time>
      </trkpt>
      <trkpt lat="46.61587" lon="5.85596">
        <ele>752.5</ele>
        <time>2022-12-06T11:28:40Z</time>
      </trkpt>
      <trkpt lat="46.61588" lon="5.85603">
        <ele>752.7</ele>
        <time>2022-12-06T11:28:46Z</time>
      </trkpt>
      <trkpt lat="46.61589" lon="5.8561">
        <ele>752.8</ele>
        <time>2022-12-06T11:28:51Z</time>
      </trkpt>
      <trkpt lat="46.61589" lon="5.85617">
        <ele>752.9</ele>
        <time>2022-12-06T11:28:55Z</time>
      </trkpt>
      <trkpt lat="46.61589" lon="5.85625">
        <ele>753.3</ele>
        <time>2022-12-06T11:29:00Z</time>
      </trkpt>
      <trkpt lat="46.6159" lon="5.85632">
        <ele>753.8</ele>
        <time>2022-12-06T11:29:05Z</time>
      </trkpt>
      <trkpt lat="46.61591" lon="5.85638">
        <ele>754.1</ele>
        <time>2022-12-06T11:29:10Z</time>
      </trkpt>
      <trkpt lat="46.61592" lon="5.85646">
        <ele>754</ele>
        <time>2022-12-06T11:29:15Z</time>
      </trkpt>
      <trkpt lat="46.61593" lon="5.85654">
        <ele>753.9</ele>
        <time>2022-12-06T11:29:20Z</time>
      </trkpt>
      <trkpt lat="46.61596" lon="5.85659">
        <ele>753.9</ele>
        <time>2022-12-06T11:29:25Z</time>
      </trkpt>
      <trkpt lat="46.61599" lon="5.85663">
        <ele>754.1</ele>
        <time>2022-12-06T11:29:29Z</time>
      </trkpt>
      <trkpt lat="46.61603" lon="5.85668">
        <ele>754.2</ele>
        <time>2022-12-06T11:29:34Z</time>
      </trkpt>
      <trkpt lat="46.61603" lon="5.85675">
        <ele>754.9</ele>
        <time>2022-12-06T11:29:43Z</time>
      </trkpt>
      <trkpt lat="46.61601" lon="5.85682">
        <ele>755.2</ele>
        <time>2022-12-06T11:29:48Z</time>
      </trkpt>
      <trkpt lat="46.61601" lon="5.8569">
        <ele>755.5</ele>
        <time>2022-12-06T11:29:53Z</time>
      </trkpt>
      <trkpt lat="46.616" lon="5.85697">
        <ele>756</ele>
        <time>2022-12-06T11:29:58Z</time>
      </trkpt>
      <trkpt lat="46.61601" lon="5.85704">
        <ele>756.5</ele>
        <time>2022-12-06T11:30:03Z</time>
      </trkpt>
      <trkpt lat="46.61601" lon="5.85711">
        <ele>756.9</ele>
        <time>2022-12-06T11:30:09Z</time>
      </trkpt>
      <trkpt lat="46.616" lon="5.85718">
        <ele>756.7</ele>
        <time>2022-12-06T11:30:15Z</time>
      </trkpt>
      <trkpt lat="46.616" lon="5.85725">
        <ele>756.7</ele>
        <time>2022-12-06T11:30:20Z</time>
      </trkpt>
      <trkpt lat="46.61599" lon="5.85732">
        <ele>756.6</ele>
        <time>2022-12-06T11:30:25Z</time>
      </trkpt>
      <trkpt lat="46.61599" lon="5.8574">
        <ele>756.7</ele>
        <time>2022-12-06T11:30:30Z</time>
      </trkpt>
      <trkpt lat="46.616" lon="5.85746">
        <ele>756.3</ele>
        <time>2022-12-06T11:30:36Z</time>
      </trkpt>
      <trkpt lat="46.61603" lon="5.85752">
        <ele>755.2</ele>
        <time>2022-12-06T11:30:42Z</time>
      </trkpt>
      <trkpt lat="46.61605" lon="5.85757">
        <ele>753.6</ele>
        <time>2022-12-06T11:30:48Z</time>
      </trkpt>
      <trkpt lat="46.61607" lon="5.85763">
        <ele>752.5</ele>
        <time>2022-12-06T11:30:53Z</time>
      </trkpt>
      <trkpt lat="46.61606" lon="5.8577">
        <ele>751.1</ele>
        <time>2022-12-06T11:30:59Z</time>
      </trkpt>
      <trkpt lat="46.61602" lon="5.85775">
        <ele>749.5</ele>
        <time>2022-12-06T11:31:04Z</time>
      </trkpt>
      <trkpt lat="46.616" lon="5.85782">
        <ele>748.1</ele>
        <time>2022-12-06T11:31:09Z</time>
      </trkpt>
      <trkpt lat="46.616" lon="5.85789">
        <ele>747.6</ele>
        <time>2022-12-06T11:31:13Z</time>
      </trkpt>
      <trkpt lat="46.61599" lon="5.85796">
        <ele>747.4</ele>
        <time>2022-12-06T11:31:18Z</time>
      </trkpt>
      <trkpt lat="46.61599" lon="5.85803">
        <ele>748.1</ele>
        <time>2022-12-06T11:31:25Z</time>
      </trkpt>
      <trkpt lat="46.61599" lon="5.8581">
        <ele>749.6</ele>
        <time>2022-12-06T11:31:35Z</time>
      </trkpt>
      <trkpt lat="46.616" lon="5.85818">
        <ele>750.6</ele>
        <time>2022-12-06T11:31:38Z</time>
      </trkpt>
      <trkpt lat="46.616" lon="5.85825">
        <ele>751.4</ele>
        <time>2022-12-06T11:31:42Z</time>
      </trkpt>
      <trkpt lat="46.61601" lon="5.85832">
        <ele>752.2</ele>
        <time>2022-12-06T11:31:47Z</time>
      </trkpt>
      <trkpt lat="46.61604" lon="5.85838">
        <ele>753</ele>
        <time>2022-12-06T11:31:53Z</time>
      </trkpt>
      <trkpt lat="46.61606" lon="5.85845">
        <ele>754.4</ele>
        <time>2022-12-06T11:32:01Z</time>
      </trkpt>
      <trkpt lat="46.61609" lon="5.8585">
        <ele>755.2</ele>
        <time>2022-12-06T11:32:09Z</time>
      </trkpt>
      <trkpt lat="46.61613" lon="5.85855">
        <ele>755.1</ele>
        <time>2022-12-06T11:32:14Z</time>
      </trkpt>
      <trkpt lat="46.61617" lon="5.85859">
        <ele>755.3</ele>
        <time>2022-12-06T11:32:19Z</time>
      </trkpt>
      <trkpt lat="46.6162" lon="5.85865">
        <ele>755.3</ele>
        <time>2022-12-06T11:32:26Z</time>
      </trkpt>
      <trkpt lat="46.61622" lon="5.85871">
        <ele>755.3</ele>
        <time>2022-12-06T11:32:32Z</time>
      </trkpt>
      <trkpt lat="46.61622" lon="5.85878">
        <ele>755.5</ele>
        <time>2022-12-06T11:32:37Z</time>
      </trkpt>
      <trkpt lat="46.6162" lon="5.85885">
        <ele>755.7</ele>
        <time>2022-12-06T11:32:42Z</time>
      </trkpt>
      <trkpt lat="46.61617" lon="5.85891">
        <ele>755.6</ele>
        <time>2022-12-06T11:32:48Z</time>
      </trkpt>
      <trkpt lat="46.61615" lon="5.85898">
        <ele>755.4</ele>
        <time>2022-12-06T11:32:53Z</time>
      </trkpt>
      <trkpt lat="46.61613" lon="5.85905">
        <ele>755.2</ele>
        <time>2022-12-06T11:32:58Z</time>
      </trkpt>
      <trkpt lat="46.61613" lon="5.85912">
        <ele>754.5</ele>
        <time>2022-12-06T11:33:05Z</time>
      </trkpt>
      <trkpt lat="46.61612" lon="5.85919">
        <ele>754.3</ele>
        <time>2022-12-06T11:33:09Z</time>
      </trkpt>
      <trkpt lat="46.61612" lon="5.85927">
        <ele>754.8</ele>
        <time>2022-12-06T11:33:14Z</time>
      </trkpt>
      <trkpt lat="46.61612" lon="5.85933">
        <ele>755.3</ele>
        <time>2022-12-06T11:33:19Z</time>
      </trkpt>
      <trkpt lat="46.6161" lon="5.8594">
        <ele>755.6</ele>
        <time>2022-12-06T11:33:23Z</time>
      </trkpt>
      <trkpt lat="46.61609" lon="5.85946">
        <ele>755.8</ele>
        <time>2022-12-06T11:33:27Z</time>
      </trkpt>
      <trkpt lat="46.61607" lon="5.85953">
        <ele>755.6</ele>
        <time>2022-12-06T11:33:32Z</time>
      </trkpt>
      <trkpt lat="46.61606" lon="5.8596">
        <ele>755.1</ele>
        <time>2022-12-06T11:33:37Z</time>
      </trkpt>
      <trkpt lat="46.61605" lon="5.85967">
        <ele>754.2</ele>
        <time>2022-12-06T11:33:43Z</time>
      </trkpt>
      <trkpt lat="46.61604" lon="5.85974">
        <ele>752.8</ele>
        <time>2022-12-06T11:33:48Z</time>
      </trkpt>
      <trkpt lat="46.61603" lon="5.8598">
        <ele>751.5</ele>
        <time>2022-12-06T11:33:53Z</time>
      </trkpt>
      <trkpt lat="46.61603" lon="5.85987">
        <ele>750.7</ele>
        <time>2022-12-06T11:33:58Z</time>
      </trkpt>
      <trkpt lat="46.61604" lon="5.85994">
        <ele>749.2</ele>
        <time>2022-12-06T11:34:05Z</time>
      </trkpt>
      <trkpt lat="46.61603" lon="5.86001">
        <ele>748</ele>
        <time>2022-12-06T11:34:10Z</time>
      </trkpt>
      <trkpt lat="46.61602" lon="5.86008">
        <ele>747.1</ele>
        <time>2022-12-06T11:34:14Z</time>
      </trkpt>
      <trkpt lat="46.61602" lon="5.86015">
        <ele>746.4</ele>
        <time>2022-12-06T11:34:18Z</time>
      </trkpt>
      <trkpt lat="46.61602" lon="5.86022">
        <ele>745.2</ele>
        <time>2022-12-06T11:34:24Z</time>
      </trkpt>
      <trkpt lat="46.61603" lon="5.86029">
        <ele>744.2</ele>
        <time>2022-12-06T11:34:31Z</time>
      </trkpt>
      <trkpt lat="46.61602" lon="5.86036">
        <ele>742.8</ele>
        <time>2022-12-06T11:34:36Z</time>
      </trkpt>
      <trkpt lat="46.61602" lon="5.86043">
        <ele>741</ele>
        <time>2022-12-06T11:34:41Z</time>
      </trkpt>
      <trkpt lat="46.61601" lon="5.8605">
        <ele>739.5</ele>
        <time>2022-12-06T11:34:46Z</time>
      </trkpt>
      <trkpt lat="46.61602" lon="5.86057">
        <ele>737.9</ele>
        <time>2022-12-06T11:34:51Z</time>
      </trkpt>
      <trkpt lat="46.61602" lon="5.86064">
        <ele>736.6</ele>
        <time>2022-12-06T11:34:57Z</time>
      </trkpt>
      <trkpt lat="46.61602" lon="5.86071">
        <ele>736.3</ele>
        <time>2022-12-06T11:35:03Z</time>
      </trkpt>
      <trkpt lat="46.616" lon="5.86078">
        <ele>736.1</ele>
        <time>2022-12-06T11:35:08Z</time>
      </trkpt>
      <trkpt lat="46.61599" lon="5.86086">
        <ele>735.6</ele>
        <time>2022-12-06T11:35:13Z</time>
      </trkpt>
      <trkpt lat="46.61599" lon="5.86093">
        <ele>735</ele>
        <time>2022-12-06T11:35:18Z</time>
      </trkpt>
      <trkpt lat="46.61599" lon="5.861">
        <ele>734.8</ele>
        <time>2022-12-06T11:35:22Z</time>
      </trkpt>
      <trkpt lat="46.61598" lon="5.86108">
        <ele>734.6</ele>
        <time>2022-12-06T11:35:27Z</time>
      </trkpt>
      <trkpt lat="46.61597" lon="5.86115">
        <ele>734.5</ele>
        <time>2022-12-06T11:35:32Z</time>
      </trkpt>
      <trkpt lat="46.61598" lon="5.86122">
        <ele>734.9</ele>
        <time>2022-12-06T11:35:37Z</time>
      </trkpt>
      <trkpt lat="46.61596" lon="5.86129">
        <ele>735.3</ele>
        <time>2022-12-06T11:35:41Z</time>
      </trkpt>
      <trkpt lat="46.61597" lon="5.86136">
        <ele>735.6</ele>
        <time>2022-12-06T11:35:47Z</time>
      </trkpt>
      <trkpt lat="46.61598" lon="5.86143">
        <ele>734.7</ele>
        <time>2022-12-06T11:35:55Z</time>
      </trkpt>
      <trkpt lat="46.61599" lon="5.86149">
        <ele>734</ele>
        <time>2022-12-06T11:36:00Z</time>
      </trkpt>
      <trkpt lat="46.61602" lon="5.86155">
        <ele>733.6</ele>
        <time>2022-12-06T11:36:04Z</time>
      </trkpt>
      <trkpt lat="46.61605" lon="5.86162">
        <ele>732.7</ele>
        <time>2022-12-06T11:36:09Z</time>
      </trkpt>
      <trkpt lat="46.61605" lon="5.86169">
        <ele>731.7</ele>
        <time>2022-12-06T11:36:14Z</time>
      </trkpt>
      <trkpt lat="46.61607" lon="5.86176">
        <ele>730.4</ele>
        <time>2022-12-06T11:36:19Z</time>
      </trkpt>
      <trkpt lat="46.61609" lon="5.86182">
        <ele>729.5</ele>
        <time>2022-12-06T11:36:23Z</time>
      </trkpt>
      <trkpt lat="46.61612" lon="5.86188">
        <ele>729.3</ele>
        <time>2022-12-06T11:36:29Z</time>
      </trkpt>
      <trkpt lat="46.61615" lon="5.86193">
        <ele>730.4</ele>
        <time>2022-12-06T11:36:37Z</time>
      </trkpt>
      <trkpt lat="46.6162" lon="5.86193">
        <ele>732.2</ele>
        <time>2022-12-06T11:36:43Z</time>
      </trkpt>
      <trkpt lat="46.61624" lon="5.86188">
        <ele>734.5</ele>
        <time>2022-12-06T11:36:50Z</time>
      </trkpt>
      <trkpt lat="46.61627" lon="5.86183">
        <ele>735.9</ele>
        <time>2022-12-06T11:36:54Z</time>
      </trkpt>
      <trkpt lat="46.61631" lon="5.8618">
        <ele>738.4</ele>
        <time>2022-12-06T11:37:01Z</time>
      </trkpt>
      <trkpt lat="46.61636" lon="5.86177">
        <ele>740</ele>
        <time>2022-12-06T11:37:08Z</time>
      </trkpt>
      <trkpt lat="46.61638" lon="5.8617">
        <ele>740.9</ele>
        <time>2022-12-06T11:37:14Z</time>
      </trkpt>
      <trkpt lat="46.61642" lon="5.86165">
        <ele>742</ele>
        <time>2022-12-06T11:37:21Z</time>
      </trkpt>
      <trkpt lat="46.61645" lon="5.86161">
        <ele>742</ele>
        <time>2022-12-06T11:37:26Z</time>
      </trkpt>
      <trkpt lat="46.61648" lon="5.86155">
        <ele>742.4</ele>
        <time>2022-12-06T11:37:37Z</time>
      </trkpt>
      <trkpt lat="46.6165" lon="5.86149">
        <ele>743.3</ele>
        <time>2022-12-06T11:37:49Z</time>
      </trkpt>
      <trkpt lat="46.61652" lon="5.86143">
        <ele>745.8</ele>
        <time>2022-12-06T11:37:56Z</time>
      </trkpt>
      <trkpt lat="46.61657" lon="5.8614">
        <ele>748.7</ele>
        <time>2022-12-06T11:38:07Z</time>
      </trkpt>
      <trkpt lat="46.61658" lon="5.86134">
        <ele>749.7</ele>
        <time>2022-12-06T11:38:17Z</time>
      </trkpt>
      <trkpt lat="46.61663" lon="5.86131">
        <ele>753.1</ele>
        <time>2022-12-06T11:38:35Z</time>
      </trkpt>
      <trkpt lat="46.61666" lon="5.86127">
        <ele>754.1</ele>
        <time>2022-12-06T11:38:48Z</time>
      </trkpt>
      <trkpt lat="46.61665" lon="5.86119">
        <ele>754.8</ele>
        <time>2022-12-06T11:39:08Z</time>
      </trkpt>
      <trkpt lat="46.61667" lon="5.86111">
        <ele>755.7</ele>
        <time>2022-12-06T11:39:13Z</time>
      </trkpt>
      <trkpt lat="46.61672" lon="5.86107">
        <ele>757.8</ele>
        <time>2022-12-06T11:39:36Z</time>
      </trkpt>
      <trkpt lat="46.61677" lon="5.86109">
        <ele>757.8</ele>
        <time>2022-12-06T11:39:40Z</time>
      </trkpt>
      <trkpt lat="46.61681" lon="5.86111">
        <ele>758.3</ele>
        <time>2022-12-06T11:39:46Z</time>
      </trkpt>
      <trkpt lat="46.61686" lon="5.86114">
        <ele>758.8</ele>
        <time>2022-12-06T11:39:54Z</time>
      </trkpt>
      <trkpt lat="46.6169" lon="5.86117">
        <ele>759.1</ele>
        <time>2022-12-06T11:40:00Z</time>
      </trkpt>
      <trkpt lat="46.6169" lon="5.86124">
        <ele>759.4</ele>
        <time>2022-12-06T11:40:06Z</time>
      </trkpt>
      <trkpt lat="46.6169" lon="5.86131">
        <ele>760</ele>
        <time>2022-12-06T11:40:11Z</time>
      </trkpt>
      <trkpt lat="46.61695" lon="5.8613">
        <ele>762.2</ele>
        <time>2022-12-06T11:40:25Z</time>
      </trkpt>
      <trkpt lat="46.61699" lon="5.86126">
        <ele>762.7</ele>
        <time>2022-12-06T11:40:30Z</time>
      </trkpt>
      <trkpt lat="46.61702" lon="5.8612">
        <ele>763.3</ele>
        <time>2022-12-06T11:40:35Z</time>
      </trkpt>
      <trkpt lat="46.61706" lon="5.86117">
        <ele>763.4</ele>
        <time>2022-12-06T11:40:40Z</time>
      </trkpt>
      <trkpt lat="46.61712" lon="5.86117">
        <ele>763.4</ele>
        <time>2022-12-06T11:40:50Z</time>
      </trkpt>
      <trkpt lat="46.61716" lon="5.8612">
        <ele>763.5</ele>
        <time>2022-12-06T11:40:56Z</time>
      </trkpt>
      <trkpt lat="46.61717" lon="5.86127">
        <ele>763.7</ele>
        <time>2022-12-06T11:41:01Z</time>
      </trkpt>
      <trkpt lat="46.61718" lon="5.86134">
        <ele>764</ele>
        <time>2022-12-06T11:41:08Z</time>
      </trkpt>
      <trkpt lat="46.61721" lon="5.86141">
        <ele>764.4</ele>
        <time>2022-12-06T11:41:14Z</time>
      </trkpt>
      <trkpt lat="46.61723" lon="5.86147">
        <ele>764.5</ele>
        <time>2022-12-06T11:41:21Z</time>
      </trkpt>
      <trkpt lat="46.61725" lon="5.86154">
        <ele>764.2</ele>
        <time>2022-12-06T11:41:26Z</time>
      </trkpt>
      <trkpt lat="46.61728" lon="5.86159">
        <ele>763.5</ele>
        <time>2022-12-06T11:41:31Z</time>
      </trkpt>
      <trkpt lat="46.61729" lon="5.86166">
        <ele>762.4</ele>
        <time>2022-12-06T11:41:37Z</time>
      </trkpt>
      <trkpt lat="46.61727" lon="5.86172">
        <ele>761.4</ele>
        <time>2022-12-06T11:41:42Z</time>
      </trkpt>
      <trkpt lat="46.61724" lon="5.86178">
        <ele>760.7</ele>
        <time>2022-12-06T11:41:47Z</time>
      </trkpt>
      <trkpt lat="46.61721" lon="5.86185">
        <ele>759.7</ele>
        <time>2022-12-06T11:41:52Z</time>
      </trkpt>
      <trkpt lat="46.6172" lon="5.86192">
        <ele>758.1</ele>
        <time>2022-12-06T11:41:59Z</time>
      </trkpt>
      <trkpt lat="46.61718" lon="5.86199">
        <ele>757.1</ele>
        <time>2022-12-06T11:42:05Z</time>
      </trkpt>
      <trkpt lat="46.61716" lon="5.86206">
        <ele>756.6</ele>
        <time>2022-12-06T11:42:10Z</time>
      </trkpt>
      <trkpt lat="46.61715" lon="5.86213">
        <ele>756.4</ele>
        <time>2022-12-06T11:42:16Z</time>
      </trkpt>
      <trkpt lat="46.61714" lon="5.8622">
        <ele>755.8</ele>
        <time>2022-12-06T11:42:22Z</time>
      </trkpt>
      <trkpt lat="46.61713" lon="5.86228">
        <ele>755.6</ele>
        <time>2022-12-06T11:42:27Z</time>
      </trkpt>
      <trkpt lat="46.61712" lon="5.86236">
        <ele>755.2</ele>
        <time>2022-12-06T11:42:32Z</time>
      </trkpt>
      <trkpt lat="46.61713" lon="5.86243">
        <ele>754.6</ele>
        <time>2022-12-06T11:42:36Z</time>
      </trkpt>
      <trkpt lat="46.61714" lon="5.8625">
        <ele>753.7</ele>
        <time>2022-12-06T11:42:42Z</time>
      </trkpt>
      <trkpt lat="46.61713" lon="5.86256">
        <ele>753.3</ele>
        <time>2022-12-06T11:42:48Z</time>
      </trkpt>
      <trkpt lat="46.61712" lon="5.86263">
        <ele>752.9</ele>
        <time>2022-12-06T11:42:54Z</time>
      </trkpt>
      <trkpt lat="46.61712" lon="5.86269">
        <ele>752.9</ele>
        <time>2022-12-06T11:42:58Z</time>
      </trkpt>
      <trkpt lat="46.61712" lon="5.86277">
        <ele>753.3</ele>
        <time>2022-12-06T11:43:02Z</time>
      </trkpt>
      <trkpt lat="46.61712" lon="5.86285">
        <ele>753.7</ele>
        <time>2022-12-06T11:43:06Z</time>
      </trkpt>
      <trkpt lat="46.61713" lon="5.86292">
        <ele>754.3</ele>
        <time>2022-12-06T11:43:11Z</time>
      </trkpt>
      <trkpt lat="46.61713" lon="5.863">
        <ele>754.7</ele>
        <time>2022-12-06T11:43:17Z</time>
      </trkpt>
      <trkpt lat="46.61714" lon="5.86307">
        <ele>754.4</ele>
        <time>2022-12-06T11:43:22Z</time>
      </trkpt>
      <trkpt lat="46.61714" lon="5.86314">
        <ele>753.5</ele>
        <time>2022-12-06T11:43:27Z</time>
      </trkpt>
      <trkpt lat="46.61713" lon="5.86322">
        <ele>751.9</ele>
        <time>2022-12-06T11:43:33Z</time>
      </trkpt>
      <trkpt lat="46.61713" lon="5.86329">
        <ele>750.9</ele>
        <time>2022-12-06T11:43:38Z</time>
      </trkpt>
      <trkpt lat="46.61713" lon="5.86336">
        <ele>749.5</ele>
        <time>2022-12-06T11:43:46Z</time>
      </trkpt>
      <trkpt lat="46.61712" lon="5.86344">
        <ele>748.6</ele>
        <time>2022-12-06T11:43:51Z</time>
      </trkpt>
      <trkpt lat="46.6171" lon="5.8635">
        <ele>747.3</ele>
        <time>2022-12-06T11:43:56Z</time>
      </trkpt>
      <trkpt lat="46.61709" lon="5.86357">
        <ele>745.6</ele>
        <time>2022-12-06T11:44:02Z</time>
      </trkpt>
      <trkpt lat="46.61708" lon="5.86364">
        <ele>743.7</ele>
        <time>2022-12-06T11:44:10Z</time>
      </trkpt>
      <trkpt lat="46.61706" lon="5.8637">
        <ele>742.7</ele>
        <time>2022-12-06T11:44:15Z</time>
      </trkpt>
      <trkpt lat="46.61704" lon="5.86377">
        <ele>741.2</ele>
        <time>2022-12-06T11:44:20Z</time>
      </trkpt>
      <trkpt lat="46.61701" lon="5.86383">
        <ele>740.1</ele>
        <time>2022-12-06T11:44:25Z</time>
      </trkpt>
      <trkpt lat="46.61699" lon="5.86388">
        <ele>739.4</ele>
        <time>2022-12-06T11:44:30Z</time>
      </trkpt>
      <trkpt lat="46.61696" lon="5.86394">
        <ele>738.2</ele>
        <time>2022-12-06T11:44:36Z</time>
      </trkpt>
      <trkpt lat="46.61694" lon="5.86401">
        <ele>737.1</ele>
        <time>2022-12-06T11:44:42Z</time>
      </trkpt>
      <trkpt lat="46.61693" lon="5.86407">
        <ele>736.6</ele>
        <time>2022-12-06T11:44:47Z</time>
      </trkpt>
      <trkpt lat="46.61692" lon="5.86414">
        <ele>735.1</ele>
        <time>2022-12-06T11:44:54Z</time>
      </trkpt>
      <trkpt lat="46.61692" lon="5.86422">
        <ele>733.7</ele>
        <time>2022-12-06T11:45:00Z</time>
      </trkpt>
      <trkpt lat="46.61692" lon="5.86429">
        <ele>732.4</ele>
        <time>2022-12-06T11:45:04Z</time>
      </trkpt>
      <trkpt lat="46.61692" lon="5.86436">
        <ele>730.7</ele>
        <time>2022-12-06T11:45:09Z</time>
      </trkpt>
      <trkpt lat="46.61692" lon="5.86443">
        <ele>729.5</ele>
        <time>2022-12-06T11:45:14Z</time>
      </trkpt>
      <trkpt lat="46.61691" lon="5.8645">
        <ele>728.4</ele>
        <time>2022-12-06T11:45:19Z</time>
      </trkpt>
      <trkpt lat="46.61689" lon="5.86457">
        <ele>727.5</ele>
        <time>2022-12-06T11:45:24Z</time>
      </trkpt>
      <trkpt lat="46.61687" lon="5.86463">
        <ele>727</ele>
        <time>2022-12-06T11:45:31Z</time>
      </trkpt>
      <trkpt lat="46.61685" lon="5.8647">
        <ele>726.4</ele>
        <time>2022-12-06T11:45:36Z</time>
      </trkpt>
      <trkpt lat="46.61686" lon="5.86477">
        <ele>726</ele>
        <time>2022-12-06T11:45:42Z</time>
      </trkpt>
      <trkpt lat="46.61685" lon="5.86483">
        <ele>725.5</ele>
        <time>2022-12-06T11:45:48Z</time>
      </trkpt>
      <trkpt lat="46.61684" lon="5.8649">
        <ele>725.5</ele>
        <time>2022-12-06T11:45:54Z</time>
      </trkpt>
      <trkpt lat="46.61685" lon="5.86497">
        <ele>724.8</ele>
        <time>2022-12-06T11:46:03Z</time>
      </trkpt>
      <trkpt lat="46.61685" lon="5.86504">
        <ele>723.9</ele>
        <time>2022-12-06T11:46:08Z</time>
      </trkpt>
      <trkpt lat="46.61684" lon="5.86511">
        <ele>723.4</ele>
        <time>2022-12-06T11:46:13Z</time>
      </trkpt>
      <trkpt lat="46.61683" lon="5.86518">
        <ele>723.6</ele>
        <time>2022-12-06T11:46:19Z</time>
      </trkpt>
      <trkpt lat="46.61682" lon="5.86525">
        <ele>723.4</ele>
        <time>2022-12-06T11:46:26Z</time>
      </trkpt>
      <trkpt lat="46.61679" lon="5.86531">
        <ele>722.7</ele>
        <time>2022-12-06T11:46:33Z</time>
      </trkpt>
      <trkpt lat="46.61675" lon="5.86534">
        <ele>722.2</ele>
        <time>2022-12-06T11:46:39Z</time>
      </trkpt>
      <trkpt lat="46.61671" lon="5.86539">
        <ele>721</ele>
        <time>2022-12-06T11:46:46Z</time>
      </trkpt>
      <trkpt lat="46.61667" lon="5.86543">
        <ele>720.3</ele>
        <time>2022-12-06T11:46:50Z</time>
      </trkpt>
      <trkpt lat="46.61663" lon="5.86547">
        <ele>720.2</ele>
        <time>2022-12-06T11:46:54Z</time>
      </trkpt>
      <trkpt lat="46.61659" lon="5.86551">
        <ele>720.7</ele>
        <time>2022-12-06T11:47:00Z</time>
      </trkpt>
      <trkpt lat="46.61655" lon="5.86554">
        <ele>721.5</ele>
        <time>2022-12-06T11:47:06Z</time>
      </trkpt>
      <trkpt lat="46.61651" lon="5.8656">
        <ele>721.8</ele>
        <time>2022-12-06T11:47:13Z</time>
      </trkpt>
      <trkpt lat="46.61648" lon="5.86565">
        <ele>721.4</ele>
        <time>2022-12-06T11:47:19Z</time>
      </trkpt>
      <trkpt lat="46.61646" lon="5.86572">
        <ele>721</ele>
        <time>2022-12-06T11:47:25Z</time>
      </trkpt>
      <trkpt lat="46.61642" lon="5.86577">
        <ele>720.8</ele>
        <time>2022-12-06T11:47:31Z</time>
      </trkpt>
      <trkpt lat="46.6164" lon="5.86583">
        <ele>720.8</ele>
        <time>2022-12-06T11:47:37Z</time>
      </trkpt>
      <trkpt lat="46.61639" lon="5.8659">
        <ele>720.2</ele>
        <time>2022-12-06T11:47:45Z</time>
      </trkpt>
      <trkpt lat="46.61637" lon="5.86597">
        <ele>719.2</ele>
        <time>2022-12-06T11:47:52Z</time>
      </trkpt>
      <trkpt lat="46.61635" lon="5.86603">
        <ele>718.1</ele>
        <time>2022-12-06T11:47:58Z</time>
      </trkpt>
      <trkpt lat="46.61633" lon="5.86609">
        <ele>716.6</ele>
        <time>2022-12-06T11:48:05Z</time>
      </trkpt>
      <trkpt lat="46.61631" lon="5.86616">
        <ele>715.5</ele>
        <time>2022-12-06T11:48:10Z</time>
      </trkpt>
      <trkpt lat="46.61629" lon="5.86622">
        <ele>714.3</ele>
        <time>2022-12-06T11:48:17Z</time>
      </trkpt>
      <trkpt lat="46.61628" lon="5.86628">
        <ele>713.2</ele>
        <time>2022-12-06T11:48:23Z</time>
      </trkpt>
      <trkpt lat="46.61625" lon="5.86635">
        <ele>711.8</ele>
        <time>2022-12-06T11:48:28Z</time>
      </trkpt>
      <trkpt lat="46.61623" lon="5.86642">
        <ele>710.4</ele>
        <time>2022-12-06T11:48:33Z</time>
      </trkpt>
      <trkpt lat="46.61621" lon="5.86648">
        <ele>708.3</ele>
        <time>2022-12-06T11:48:40Z</time>
      </trkpt>
      <trkpt lat="46.61619" lon="5.86654">
        <ele>706.4</ele>
        <time>2022-12-06T11:48:47Z</time>
      </trkpt>
      <trkpt lat="46.61616" lon="5.8666">
        <ele>704.8</ele>
        <time>2022-12-06T11:48:54Z</time>
      </trkpt>
      <trkpt lat="46.61613" lon="5.86666">
        <ele>703.6</ele>
        <time>2022-12-06T11:49:00Z</time>
      </trkpt>
      <trkpt lat="46.6161" lon="5.86672">
        <ele>701.7</ele>
        <time>2022-12-06T11:49:07Z</time>
      </trkpt>
      <trkpt lat="46.61607" lon="5.86678">
        <ele>700.3</ele>
        <time>2022-12-06T11:49:13Z</time>
      </trkpt>
      <trkpt lat="46.61603" lon="5.86683">
        <ele>699.6</ele>
        <time>2022-12-06T11:49:19Z</time>
      </trkpt>
      <trkpt lat="46.61598" lon="5.86682">
        <ele>700.4</ele>
        <time>2022-12-06T11:49:34Z</time>
      </trkpt>
      <trkpt lat="46.61594" lon="5.86688">
        <ele>704.7</ele>
        <time>2022-12-06T11:50:39Z</time>
      </trkpt>
      <trkpt lat="46.61591" lon="5.86693">
        <ele>708.2</ele>
        <time>2022-12-06T11:50:46Z</time>
      </trkpt>
      <trkpt lat="46.61587" lon="5.86695">
        <ele>709.3</ele>
        <time>2022-12-06T11:50:51Z</time>
      </trkpt>
      <trkpt lat="46.61583" lon="5.86697">
        <ele>710.1</ele>
        <time>2022-12-06T11:50:55Z</time>
      </trkpt>
      <trkpt lat="46.61583" lon="5.86703">
        <ele>709.5</ele>
        <time>2022-12-06T11:51:05Z</time>
      </trkpt>
      <trkpt lat="46.61581" lon="5.8671">
        <ele>706.5</ele>
        <time>2022-12-06T11:51:13Z</time>
      </trkpt>
      <trkpt lat="46.61577" lon="5.86714">
        <ele>703</ele>
        <time>2022-12-06T11:51:21Z</time>
      </trkpt>
      <trkpt lat="46.61572" lon="5.86715">
        <ele>701.7</ele>
        <time>2022-12-06T11:51:27Z</time>
      </trkpt>
      <trkpt lat="46.61568" lon="5.86718">
        <ele>700.5</ele>
        <time>2022-12-06T11:51:35Z</time>
      </trkpt>
      <trkpt lat="46.61565" lon="5.86724">
        <ele>700.6</ele>
        <time>2022-12-06T11:51:40Z</time>
      </trkpt>
      <trkpt lat="46.6156" lon="5.86725">
        <ele>701.7</ele>
        <time>2022-12-06T11:51:47Z</time>
      </trkpt>
      <trkpt lat="46.61558" lon="5.86719">
        <ele>702.4</ele>
        <time>2022-12-06T11:51:55Z</time>
      </trkpt>
      <trkpt lat="46.61556" lon="5.86712">
        <ele>702.2</ele>
        <time>2022-12-06T11:52:08Z</time>
      </trkpt>
      <trkpt lat="46.61554" lon="5.86706">
        <ele>704.5</ele>
        <time>2022-12-06T11:52:37Z</time>
      </trkpt>
      <trkpt lat="46.6155" lon="5.867">
        <ele>703.7</ele>
        <time>2022-12-06T11:52:42Z</time>
      </trkpt>
      <trkpt lat="46.61547" lon="5.86695">
        <ele>701.9</ele>
        <time>2022-12-06T11:52:50Z</time>
      </trkpt>
      <trkpt lat="46.61543" lon="5.8669">
        <ele>700.4</ele>
        <time>2022-12-06T11:52:58Z</time>
      </trkpt>
      <trkpt lat="46.61539" lon="5.86694">
        <ele>699.3</ele>
        <time>2022-12-06T11:53:05Z</time>
      </trkpt>
      <trkpt lat="46.61544" lon="5.86695">
        <ele>697.3</ele>
        <time>2022-12-06T11:54:06Z</time>
      </trkpt>
      <trkpt lat="46.61542" lon="5.8669">
        <ele>695.3</ele>
        <time>2022-12-06T11:56:26Z</time>
      </trkpt>
      <trkpt lat="46.61537" lon="5.86686">
        <ele>694</ele>
        <time>2022-12-06T11:56:30Z</time>
      </trkpt>
      <trkpt lat="46.61534" lon="5.8668">
        <ele>693.1</ele>
        <time>2022-12-06T11:57:30Z</time>
      </trkpt>
      <trkpt lat="46.61532" lon="5.86674">
        <ele>694.2</ele>
        <time>2022-12-06T11:57:35Z</time>
      </trkpt>
      <trkpt lat="46.61529" lon="5.86668">
        <ele>695.7</ele>
        <time>2022-12-06T11:57:41Z</time>
      </trkpt>
      <trkpt lat="46.61524" lon="5.86665">
        <ele>697.4</ele>
        <time>2022-12-06T11:57:47Z</time>
      </trkpt>
      <trkpt lat="46.61519" lon="5.86664">
        <ele>698.3</ele>
        <time>2022-12-06T11:57:53Z</time>
      </trkpt>
      <trkpt lat="46.61514" lon="5.86665">
        <ele>697.9</ele>
        <time>2022-12-06T11:57:59Z</time>
      </trkpt>
      <trkpt lat="46.6151" lon="5.86668">
        <ele>697.5</ele>
        <time>2022-12-06T11:58:05Z</time>
      </trkpt>
      <trkpt lat="46.61505" lon="5.86668">
        <ele>697.2</ele>
        <time>2022-12-06T11:58:11Z</time>
      </trkpt>
      <trkpt lat="46.615" lon="5.86666">
        <ele>697.2</ele>
        <time>2022-12-06T11:58:16Z</time>
      </trkpt>
      <trkpt lat="46.61496" lon="5.86664">
        <ele>697.4</ele>
        <time>2022-12-06T11:58:20Z</time>
      </trkpt>
      <trkpt lat="46.61491" lon="5.86662">
        <ele>697.7</ele>
        <time>2022-12-06T11:58:26Z</time>
      </trkpt>
      <trkpt lat="46.61487" lon="5.86665">
        <ele>698.2</ele>
        <time>2022-12-06T11:58:32Z</time>
      </trkpt>
      <trkpt lat="46.61483" lon="5.86668">
        <ele>698.2</ele>
        <time>2022-12-06T11:58:38Z</time>
      </trkpt>
      <trkpt lat="46.61479" lon="5.86672">
        <ele>697.8</ele>
        <time>2022-12-06T11:58:44Z</time>
      </trkpt>
      <trkpt lat="46.61477" lon="5.86679">
        <ele>697.5</ele>
        <time>2022-12-06T11:58:49Z</time>
      </trkpt>
      <trkpt lat="46.61473" lon="5.86683">
        <ele>697</ele>
        <time>2022-12-06T11:58:54Z</time>
      </trkpt>
      <trkpt lat="46.61468" lon="5.86685">
        <ele>696.5</ele>
        <time>2022-12-06T11:58:58Z</time>
      </trkpt>
      <trkpt lat="46.61464" lon="5.86689">
        <ele>696.2</ele>
        <time>2022-12-06T11:59:02Z</time>
      </trkpt>
      <trkpt lat="46.61459" lon="5.86693">
        <ele>696.2</ele>
        <time>2022-12-06T11:59:07Z</time>
      </trkpt>
      <trkpt lat="46.61456" lon="5.86699">
        <ele>696.2</ele>
        <time>2022-12-06T11:59:13Z</time>
      </trkpt>
      <trkpt lat="46.61452" lon="5.86703">
        <ele>696.1</ele>
        <time>2022-12-06T11:59:18Z</time>
      </trkpt>
      <trkpt lat="46.6145" lon="5.86709">
        <ele>696.2</ele>
        <time>2022-12-06T11:59:22Z</time>
      </trkpt>
      <trkpt lat="46.6145" lon="5.86716">
        <ele>696.1</ele>
        <time>2022-12-06T11:59:27Z</time>
      </trkpt>
      <trkpt lat="46.6145" lon="5.86723">
        <ele>696.4</ele>
        <time>2022-12-06T11:59:32Z</time>
      </trkpt>
      <trkpt lat="46.61449" lon="5.86731">
        <ele>696.7</ele>
        <time>2022-12-06T11:59:37Z</time>
      </trkpt>
      <trkpt lat="46.61447" lon="5.86738">
        <ele>697.2</ele>
        <time>2022-12-06T11:59:42Z</time>
      </trkpt>
      <trkpt lat="46.61445" lon="5.86744">
        <ele>698.3</ele>
        <time>2022-12-06T11:59:47Z</time>
      </trkpt>
      <trkpt lat="46.61443" lon="5.86752">
        <ele>699.5</ele>
        <time>2022-12-06T11:59:53Z</time>
      </trkpt>
      <trkpt lat="46.61442" lon="5.86759">
        <ele>700.6</ele>
        <time>2022-12-06T12:00:00Z</time>
      </trkpt>
      <trkpt lat="46.6144" lon="5.86766">
        <ele>700.8</ele>
        <time>2022-12-06T12:00:05Z</time>
      </trkpt>
      <trkpt lat="46.61438" lon="5.86773">
        <ele>701.2</ele>
        <time>2022-12-06T12:00:11Z</time>
      </trkpt>
      <trkpt lat="46.61434" lon="5.86773">
        <ele>702.6</ele>
        <time>2022-12-06T12:00:19Z</time>
      </trkpt>
      <trkpt lat="46.61429" lon="5.86775">
        <ele>703.9</ele>
        <time>2022-12-06T12:00:24Z</time>
      </trkpt>
      <trkpt lat="46.61427" lon="5.86782">
        <ele>706.5</ele>
        <time>2022-12-06T12:00:30Z</time>
      </trkpt>
      <trkpt lat="46.61425" lon="5.86788">
        <ele>708.8</ele>
        <time>2022-12-06T12:00:36Z</time>
      </trkpt>
      <trkpt lat="46.61424" lon="5.86795">
        <ele>709.7</ele>
        <time>2022-12-06T12:00:41Z</time>
      </trkpt>
      <trkpt lat="46.61423" lon="5.86802">
        <ele>710.9</ele>
        <time>2022-12-06T12:00:48Z</time>
      </trkpt>
      <trkpt lat="46.61421" lon="5.86809">
        <ele>711.2</ele>
        <time>2022-12-06T12:00:55Z</time>
      </trkpt>
      <trkpt lat="46.61418" lon="5.86815">
        <ele>711.4</ele>
        <time>2022-12-06T12:01:02Z</time>
      </trkpt>
      <trkpt lat="46.61415" lon="5.86821">
        <ele>711.5</ele>
        <time>2022-12-06T12:01:06Z</time>
      </trkpt>
      <trkpt lat="46.61411" lon="5.86826">
        <ele>711.5</ele>
        <time>2022-12-06T12:01:11Z</time>
      </trkpt>
      <trkpt lat="46.6141" lon="5.86833">
        <ele>712.3</ele>
        <time>2022-12-06T12:01:16Z</time>
      </trkpt>
      <trkpt lat="46.61409" lon="5.86839">
        <ele>713.7</ele>
        <time>2022-12-06T12:01:22Z</time>
      </trkpt>
      <trkpt lat="46.61409" lon="5.86846">
        <ele>715.3</ele>
        <time>2022-12-06T12:01:28Z</time>
      </trkpt>
      <trkpt lat="46.61409" lon="5.86852">
        <ele>717.2</ele>
        <time>2022-12-06T12:01:37Z</time>
      </trkpt>
      <trkpt lat="46.61405" lon="5.86858">
        <ele>719.9</ele>
        <time>2022-12-06T12:01:52Z</time>
      </trkpt>
      <trkpt lat="46.61404" lon="5.86864">
        <ele>719</ele>
        <time>2022-12-06T12:02:01Z</time>
      </trkpt>
      <trkpt lat="46.61401" lon="5.8687">
        <ele>718</ele>
        <time>2022-12-06T12:02:09Z</time>
      </trkpt>
      <trkpt lat="46.61397" lon="5.86874">
        <ele>716.6</ele>
        <time>2022-12-06T12:02:14Z</time>
      </trkpt>
      <trkpt lat="46.61393" lon="5.86878">
        <ele>715.7</ele>
        <time>2022-12-06T12:02:19Z</time>
      </trkpt>
      <trkpt lat="46.61388" lon="5.86878">
        <ele>716.4</ele>
        <time>2022-12-06T12:02:54Z</time>
      </trkpt>
      <trkpt lat="46.61385" lon="5.86883">
        <ele>718</ele>
        <time>2022-12-06T12:03:07Z</time>
      </trkpt>
      <trkpt lat="46.61382" lon="5.86889">
        <ele>717.4</ele>
        <time>2022-12-06T12:03:14Z</time>
      </trkpt>
      <trkpt lat="46.61379" lon="5.86895">
        <ele>717.2</ele>
        <time>2022-12-06T12:03:19Z</time>
      </trkpt>
      <trkpt lat="46.61374" lon="5.86898">
        <ele>717.1</ele>
        <time>2022-12-06T12:03:25Z</time>
      </trkpt>
      <trkpt lat="46.61371" lon="5.86902">
        <ele>716.5</ele>
        <time>2022-12-06T12:03:31Z</time>
      </trkpt>
      <trkpt lat="46.61368" lon="5.86907">
        <ele>716</ele>
        <time>2022-12-06T12:03:36Z</time>
      </trkpt>
      <trkpt lat="46.61365" lon="5.86913">
        <ele>715.9</ele>
        <time>2022-12-06T12:03:43Z</time>
      </trkpt>
      <trkpt lat="46.61361" lon="5.86917">
        <ele>715.2</ele>
        <time>2022-12-06T12:03:48Z</time>
      </trkpt>
      <trkpt lat="46.61358" lon="5.86922">
        <ele>714.6</ele>
        <time>2022-12-06T12:03:52Z</time>
      </trkpt>
      <trkpt lat="46.61355" lon="5.86927">
        <ele>714.2</ele>
        <time>2022-12-06T12:03:56Z</time>
      </trkpt>
      <trkpt lat="46.61351" lon="5.86932">
        <ele>714.4</ele>
        <time>2022-12-06T12:04:01Z</time>
      </trkpt>
      <trkpt lat="46.61349" lon="5.86938">
        <ele>714.6</ele>
        <time>2022-12-06T12:04:06Z</time>
      </trkpt>
      <trkpt lat="46.6135" lon="5.86944">
        <ele>714.8</ele>
        <time>2022-12-06T12:04:11Z</time>
      </trkpt>
      <trkpt lat="46.61352" lon="5.8695">
        <ele>715</ele>
        <time>2022-12-06T12:04:16Z</time>
      </trkpt>
      <trkpt lat="46.61352" lon="5.86958">
        <ele>714.5</ele>
        <time>2022-12-06T12:04:24Z</time>
      </trkpt>
      <trkpt lat="46.6135" lon="5.86965">
        <ele>714</ele>
        <time>2022-12-06T12:04:29Z</time>
      </trkpt>
      <trkpt lat="46.61348" lon="5.86972">
        <ele>714</ele>
        <time>2022-12-06T12:04:34Z</time>
      </trkpt>
      <trkpt lat="46.61346" lon="5.86978">
        <ele>714.3</ele>
        <time>2022-12-06T12:04:39Z</time>
      </trkpt>
      <trkpt lat="46.61345" lon="5.86985">
        <ele>714.5</ele>
        <time>2022-12-06T12:04:45Z</time>
      </trkpt>
      <trkpt lat="46.61344" lon="5.86992">
        <ele>714.4</ele>
        <time>2022-12-06T12:04:51Z</time>
      </trkpt>
      <trkpt lat="46.61341" lon="5.86999">
        <ele>713.4</ele>
        <time>2022-12-06T12:04:56Z</time>
      </trkpt>
      <trkpt lat="46.61338" lon="5.87005">
        <ele>712.8</ele>
        <time>2022-12-06T12:05:01Z</time>
      </trkpt>
      <trkpt lat="46.61335" lon="5.87011">
        <ele>712.4</ele>
        <time>2022-12-06T12:05:06Z</time>
      </trkpt>
      <trkpt lat="46.61332" lon="5.87016">
        <ele>712.5</ele>
        <time>2022-12-06T12:05:10Z</time>
      </trkpt>
      <trkpt lat="46.61331" lon="5.87024">
        <ele>712.9</ele>
        <time>2022-12-06T12:05:15Z</time>
      </trkpt>
      <trkpt lat="46.6133" lon="5.87031">
        <ele>713.9</ele>
        <time>2022-12-06T12:05:19Z</time>
      </trkpt>
      <trkpt lat="46.61332" lon="5.87038">
        <ele>715</ele>
        <time>2022-12-06T12:05:24Z</time>
      </trkpt>
      <trkpt lat="46.61333" lon="5.87045">
        <ele>716.1</ele>
        <time>2022-12-06T12:05:29Z</time>
      </trkpt>
      <trkpt lat="46.61335" lon="5.87051">
        <ele>717</ele>
        <time>2022-12-06T12:05:34Z</time>
      </trkpt>
      <trkpt lat="46.61336" lon="5.87058">
        <ele>717.7</ele>
        <time>2022-12-06T12:05:40Z</time>
      </trkpt>
      <trkpt lat="46.61336" lon="5.87064">
        <ele>718.1</ele>
        <time>2022-12-06T12:05:46Z</time>
      </trkpt>
      <trkpt lat="46.61335" lon="5.87071">
        <ele>718</ele>
        <time>2022-12-06T12:05:52Z</time>
      </trkpt>
      <trkpt lat="46.61335" lon="5.87079">
        <ele>716.6</ele>
        <time>2022-12-06T12:05:59Z</time>
      </trkpt>
      <trkpt lat="46.61335" lon="5.87086">
        <ele>714.9</ele>
        <time>2022-12-06T12:06:06Z</time>
      </trkpt>
      <trkpt lat="46.61336" lon="5.87094">
        <ele>714</ele>
        <time>2022-12-06T12:06:12Z</time>
      </trkpt>
      <trkpt lat="46.61336" lon="5.871">
        <ele>713.8</ele>
        <time>2022-12-06T12:06:16Z</time>
      </trkpt>
      <trkpt lat="46.61336" lon="5.87108">
        <ele>713.4</ele>
        <time>2022-12-06T12:06:21Z</time>
      </trkpt>
      <trkpt lat="46.61335" lon="5.87115">
        <ele>711.7</ele>
        <time>2022-12-06T12:06:27Z</time>
      </trkpt>
      <trkpt lat="46.61334" lon="5.87122">
        <ele>708.3</ele>
        <time>2022-12-06T12:06:34Z</time>
      </trkpt>
      <trkpt lat="46.61334" lon="5.8713">
        <ele>705</ele>
        <time>2022-12-06T12:06:40Z</time>
      </trkpt>
      <trkpt lat="46.61334" lon="5.87136">
        <ele>703.2</ele>
        <time>2022-12-06T12:06:45Z</time>
      </trkpt>
      <trkpt lat="46.61334" lon="5.87143">
        <ele>701.6</ele>
        <time>2022-12-06T12:06:50Z</time>
      </trkpt>
      <trkpt lat="46.61334" lon="5.87149">
        <ele>700.7</ele>
        <time>2022-12-06T12:06:57Z</time>
      </trkpt>
      <trkpt lat="46.61334" lon="5.87157">
        <ele>700.9</ele>
        <time>2022-12-06T12:07:04Z</time>
      </trkpt>
      <trkpt lat="46.61334" lon="5.87164">
        <ele>701.2</ele>
        <time>2022-12-06T12:07:09Z</time>
      </trkpt>
      <trkpt lat="46.61332" lon="5.87171">
        <ele>702</ele>
        <time>2022-12-06T12:07:13Z</time>
      </trkpt>
      <trkpt lat="46.6133" lon="5.87178">
        <ele>703.7</ele>
        <time>2022-12-06T12:07:17Z</time>
      </trkpt>
      <trkpt lat="46.61328" lon="5.87185">
        <ele>705.9</ele>
        <time>2022-12-06T12:07:22Z</time>
      </trkpt>
      <trkpt lat="46.61328" lon="5.87192">
        <ele>707.6</ele>
        <time>2022-12-06T12:07:29Z</time>
      </trkpt>
      <trkpt lat="46.61327" lon="5.87199">
        <ele>708.1</ele>
        <time>2022-12-06T12:07:35Z</time>
      </trkpt>
      <trkpt lat="46.61329" lon="5.87207">
        <ele>708.9</ele>
        <time>2022-12-06T12:07:41Z</time>
      </trkpt>
      <trkpt lat="46.61329" lon="5.87214">
        <ele>709.8</ele>
        <time>2022-12-06T12:07:46Z</time>
      </trkpt>
      <trkpt lat="46.61328" lon="5.87221">
        <ele>710.7</ele>
        <time>2022-12-06T12:07:53Z</time>
      </trkpt>
      <trkpt lat="46.61329" lon="5.87228">
        <ele>710.7</ele>
        <time>2022-12-06T12:07:57Z</time>
      </trkpt>
      <trkpt lat="46.61329" lon="5.87235">
        <ele>710.6</ele>
        <time>2022-12-06T12:08:01Z</time>
      </trkpt>
      <trkpt lat="46.6133" lon="5.87242">
        <ele>710.5</ele>
        <time>2022-12-06T12:08:06Z</time>
      </trkpt>
      <trkpt lat="46.61332" lon="5.87248">
        <ele>710</ele>
        <time>2022-12-06T12:08:11Z</time>
      </trkpt>
      <trkpt lat="46.61333" lon="5.87255">
        <ele>709.5</ele>
        <time>2022-12-06T12:08:17Z</time>
      </trkpt>
      <trkpt lat="46.61335" lon="5.87262">
        <ele>709</ele>
        <time>2022-12-06T12:08:23Z</time>
      </trkpt>
      <trkpt lat="46.61337" lon="5.87269">
        <ele>708.3</ele>
        <time>2022-12-06T12:08:28Z</time>
      </trkpt>
      <trkpt lat="46.61338" lon="5.87276">
        <ele>708.2</ele>
        <time>2022-12-06T12:08:32Z</time>
      </trkpt>
      <trkpt lat="46.61338" lon="5.87283">
        <ele>707.8</ele>
        <time>2022-12-06T12:08:36Z</time>
      </trkpt>
      <trkpt lat="46.61339" lon="5.87289">
        <ele>707.4</ele>
        <time>2022-12-06T12:08:41Z</time>
      </trkpt>
      <trkpt lat="46.61341" lon="5.87296">
        <ele>706.6</ele>
        <time>2022-12-06T12:08:48Z</time>
      </trkpt>
      <trkpt lat="46.61344" lon="5.87302">
        <ele>706.2</ele>
        <time>2022-12-06T12:08:53Z</time>
      </trkpt>
      <trkpt lat="46.61345" lon="5.87309">
        <ele>705.8</ele>
        <time>2022-12-06T12:08:58Z</time>
      </trkpt>
      <trkpt lat="46.61346" lon="5.87316">
        <ele>705</ele>
        <time>2022-12-06T12:09:04Z</time>
      </trkpt>
      <trkpt lat="46.61346" lon="5.87323">
        <ele>703.8</ele>
        <time>2022-12-06T12:09:10Z</time>
      </trkpt>
      <trkpt lat="46.61346" lon="5.8733">
        <ele>702.8</ele>
        <time>2022-12-06T12:09:15Z</time>
      </trkpt>
      <trkpt lat="46.61347" lon="5.87337">
        <ele>703.4</ele>
        <time>2022-12-06T12:09:21Z</time>
      </trkpt>
      <trkpt lat="46.6135" lon="5.87343">
        <ele>704.9</ele>
        <time>2022-12-06T12:09:27Z</time>
      </trkpt>
      <trkpt lat="46.61354" lon="5.87349">
        <ele>706.8</ele>
        <time>2022-12-06T12:09:33Z</time>
      </trkpt>
      <trkpt lat="46.61357" lon="5.87356">
        <ele>707.5</ele>
        <time>2022-12-06T12:09:39Z</time>
      </trkpt>
      <trkpt lat="46.6136" lon="5.87362">
        <ele>708.5</ele>
        <time>2022-12-06T12:09:44Z</time>
      </trkpt>
      <trkpt lat="46.61363" lon="5.87366">
        <ele>709.2</ele>
        <time>2022-12-06T12:09:49Z</time>
      </trkpt>
      <trkpt lat="46.61367" lon="5.87371">
        <ele>709.3</ele>
        <time>2022-12-06T12:09:54Z</time>
      </trkpt>
      <trkpt lat="46.61371" lon="5.87375">
        <ele>709.6</ele>
        <time>2022-12-06T12:09:57Z</time>
      </trkpt>
      <trkpt lat="46.61373" lon="5.87381">
        <ele>710</ele>
        <time>2022-12-06T12:10:02Z</time>
      </trkpt>
      <trkpt lat="46.61373" lon="5.87387">
        <ele>710.1</ele>
        <time>2022-12-06T12:10:07Z</time>
      </trkpt>
      <trkpt lat="46.61374" lon="5.87395">
        <ele>710.3</ele>
        <time>2022-12-06T12:10:13Z</time>
      </trkpt>
      <trkpt lat="46.61374" lon="5.87401">
        <ele>710.5</ele>
        <time>2022-12-06T12:10:18Z</time>
      </trkpt>
      <trkpt lat="46.61372" lon="5.87407">
        <ele>710.4</ele>
        <time>2022-12-06T12:10:23Z</time>
      </trkpt>
      <trkpt lat="46.61369" lon="5.87413">
        <ele>709.3</ele>
        <time>2022-12-06T12:10:30Z</time>
      </trkpt>
      <trkpt lat="46.61367" lon="5.87418">
        <ele>708.7</ele>
        <time>2022-12-06T12:10:36Z</time>
      </trkpt>
      <trkpt lat="46.61366" lon="5.87425">
        <ele>709.7</ele>
        <time>2022-12-06T12:10:44Z</time>
      </trkpt>
      <trkpt lat="46.61362" lon="5.8743">
        <ele>710.9</ele>
        <time>2022-12-06T12:10:56Z</time>
      </trkpt>
      <trkpt lat="46.61358" lon="5.87433">
        <ele>712.3</ele>
        <time>2022-12-06T12:11:01Z</time>
      </trkpt>
      <trkpt lat="46.61354" lon="5.87437">
        <ele>714</ele>
        <time>2022-12-06T12:11:06Z</time>
      </trkpt>
      <trkpt lat="46.61352" lon="5.87444">
        <ele>715.7</ele>
        <time>2022-12-06T12:11:12Z</time>
      </trkpt>
      <trkpt lat="46.6135" lon="5.8745">
        <ele>716.1</ele>
        <time>2022-12-06T12:11:16Z</time>
      </trkpt>
      <trkpt lat="46.61348" lon="5.87457">
        <ele>716.2</ele>
        <time>2022-12-06T12:11:20Z</time>
      </trkpt>
      <trkpt lat="46.61348" lon="5.87465">
        <ele>716.4</ele>
        <time>2022-12-06T12:11:25Z</time>
      </trkpt>
      <trkpt lat="46.61345" lon="5.87472">
        <ele>716</ele>
        <time>2022-12-06T12:11:30Z</time>
      </trkpt>
      <trkpt lat="46.61342" lon="5.87477">
        <ele>715.8</ele>
        <time>2022-12-06T12:11:34Z</time>
      </trkpt>
      <trkpt lat="46.61339" lon="5.87483">
        <ele>715.7</ele>
        <time>2022-12-06T12:11:40Z</time>
      </trkpt>
      <trkpt lat="46.61335" lon="5.87488">
        <ele>715.7</ele>
        <time>2022-12-06T12:11:44Z</time>
      </trkpt>
      <trkpt lat="46.6133" lon="5.87491">
        <ele>715.5</ele>
        <time>2022-12-06T12:11:49Z</time>
      </trkpt>
      <trkpt lat="46.61325" lon="5.87494">
        <ele>715.4</ele>
        <time>2022-12-06T12:11:54Z</time>
      </trkpt>
      <trkpt lat="46.61321" lon="5.87496">
        <ele>715.3</ele>
        <time>2022-12-06T12:11:59Z</time>
      </trkpt>
      <trkpt lat="46.61317" lon="5.87499">
        <ele>715.6</ele>
        <time>2022-12-06T12:12:17Z</time>
      </trkpt>
      <trkpt lat="46.61312" lon="5.87504">
        <ele>715.5</ele>
        <time>2022-12-06T12:12:23Z</time>
      </trkpt>
      <trkpt lat="46.61309" lon="5.87509">
        <ele>715.6</ele>
        <time>2022-12-06T12:12:28Z</time>
      </trkpt>
      <trkpt lat="46.61305" lon="5.87513">
        <ele>716.3</ele>
        <time>2022-12-06T12:12:34Z</time>
      </trkpt>
      <trkpt lat="46.61302" lon="5.87518">
        <ele>717.1</ele>
        <time>2022-12-06T12:12:40Z</time>
      </trkpt>
      <trkpt lat="46.613" lon="5.87524">
        <ele>717.2</ele>
        <time>2022-12-06T12:12:45Z</time>
      </trkpt>
      <trkpt lat="46.61297" lon="5.8753">
        <ele>716.9</ele>
        <time>2022-12-06T12:12:49Z</time>
      </trkpt>
      <trkpt lat="46.61294" lon="5.87536">
        <ele>716.1</ele>
        <time>2022-12-06T12:12:54Z</time>
      </trkpt>
      <trkpt lat="46.61291" lon="5.87543">
        <ele>715.2</ele>
        <time>2022-12-06T12:13:01Z</time>
      </trkpt>
      <trkpt lat="46.61287" lon="5.87548">
        <ele>715.2</ele>
        <time>2022-12-06T12:13:05Z</time>
      </trkpt>
      <trkpt lat="46.61286" lon="5.87555">
        <ele>715</ele>
        <time>2022-12-06T12:13:09Z</time>
      </trkpt>
      <trkpt lat="46.61284" lon="5.87562">
        <ele>715.3</ele>
        <time>2022-12-06T12:13:13Z</time>
      </trkpt>
      <trkpt lat="46.61283" lon="5.87569">
        <ele>716.5</ele>
        <time>2022-12-06T12:13:22Z</time>
      </trkpt>
      <trkpt lat="46.61282" lon="5.87576">
        <ele>717.3</ele>
        <time>2022-12-06T12:13:30Z</time>
      </trkpt>
      <trkpt lat="46.61282" lon="5.87583">
        <ele>718.3</ele>
        <time>2022-12-06T12:13:37Z</time>
      </trkpt>
      <trkpt lat="46.6128" lon="5.8759">
        <ele>718.6</ele>
        <time>2022-12-06T12:13:43Z</time>
      </trkpt>
      <trkpt lat="46.61277" lon="5.87597">
        <ele>718.5</ele>
        <time>2022-12-06T12:13:48Z</time>
      </trkpt>
      <trkpt lat="46.61274" lon="5.87604">
        <ele>717.4</ele>
        <time>2022-12-06T12:13:54Z</time>
      </trkpt>
      <trkpt lat="46.61273" lon="5.8761">
        <ele>716.1</ele>
        <time>2022-12-06T12:13:59Z</time>
      </trkpt>
      <trkpt lat="46.61271" lon="5.87617">
        <ele>715.5</ele>
        <time>2022-12-06T12:14:04Z</time>
      </trkpt>
      <trkpt lat="46.6127" lon="5.87624">
        <ele>715.6</ele>
        <time>2022-12-06T12:14:09Z</time>
      </trkpt>
      <trkpt lat="46.61269" lon="5.87632">
        <ele>716.6</ele>
        <time>2022-12-06T12:14:14Z</time>
      </trkpt>
      <trkpt lat="46.61269" lon="5.87639">
        <ele>717.7</ele>
        <time>2022-12-06T12:14:19Z</time>
      </trkpt>
      <trkpt lat="46.61268" lon="5.87646">
        <ele>718.8</ele>
        <time>2022-12-06T12:14:25Z</time>
      </trkpt>
      <trkpt lat="46.61268" lon="5.87654">
        <ele>719.5</ele>
        <time>2022-12-06T12:14:30Z</time>
      </trkpt>
      <trkpt lat="46.61268" lon="5.87661">
        <ele>720</ele>
        <time>2022-12-06T12:14:35Z</time>
      </trkpt>
      <trkpt lat="46.61266" lon="5.87668">
        <ele>721.1</ele>
        <time>2022-12-06T12:14:41Z</time>
      </trkpt>
      <trkpt lat="46.61266" lon="5.87675">
        <ele>721.8</ele>
        <time>2022-12-06T12:14:46Z</time>
      </trkpt>
      <trkpt lat="46.61266" lon="5.87683">
        <ele>722.1</ele>
        <time>2022-12-06T12:14:53Z</time>
      </trkpt>
      <trkpt lat="46.61264" lon="5.8769">
        <ele>721.7</ele>
        <time>2022-12-06T12:14:57Z</time>
      </trkpt>
      <trkpt lat="46.61261" lon="5.87696">
        <ele>721.1</ele>
        <time>2022-12-06T12:15:01Z</time>
      </trkpt>
      <trkpt lat="46.61258" lon="5.877">
        <ele>720.7</ele>
        <time>2022-12-06T12:15:05Z</time>
      </trkpt>
      <trkpt lat="46.61256" lon="5.87706">
        <ele>720.3</ele>
        <time>2022-12-06T12:15:09Z</time>
      </trkpt>
      <trkpt lat="46.61254" lon="5.87714">
        <ele>720.2</ele>
        <time>2022-12-06T12:15:14Z</time>
      </trkpt>
      <trkpt lat="46.61254" lon="5.8772">
        <ele>720.4</ele>
        <time>2022-12-06T12:15:20Z</time>
      </trkpt>
      <trkpt lat="46.61252" lon="5.87727">
        <ele>720.5</ele>
        <time>2022-12-06T12:15:26Z</time>
      </trkpt>
      <trkpt lat="46.61249" lon="5.87732">
        <ele>720.6</ele>
        <time>2022-12-06T12:15:31Z</time>
      </trkpt>
      <trkpt lat="46.61246" lon="5.87739">
        <ele>721</ele>
        <time>2022-12-06T12:15:36Z</time>
      </trkpt>
      <trkpt lat="46.61244" lon="5.87745">
        <ele>721.4</ele>
        <time>2022-12-06T12:15:42Z</time>
      </trkpt>
      <trkpt lat="46.6124" lon="5.87751">
        <ele>720.9</ele>
        <time>2022-12-06T12:15:47Z</time>
      </trkpt>
      <trkpt lat="46.61237" lon="5.87757">
        <ele>720</ele>
        <time>2022-12-06T12:15:52Z</time>
      </trkpt>
      <trkpt lat="46.61234" lon="5.87762">
        <ele>719.3</ele>
        <time>2022-12-06T12:15:57Z</time>
      </trkpt>
      <trkpt lat="46.61231" lon="5.87767">
        <ele>718.8</ele>
        <time>2022-12-06T12:16:03Z</time>
      </trkpt>
      <trkpt lat="46.61228" lon="5.87774">
        <ele>718.6</ele>
        <time>2022-12-06T12:16:09Z</time>
      </trkpt>
      <trkpt lat="46.61225" lon="5.8778">
        <ele>718.8</ele>
        <time>2022-12-06T12:16:14Z</time>
      </trkpt>
      <trkpt lat="46.61223" lon="5.87787">
        <ele>719.5</ele>
        <time>2022-12-06T12:16:18Z</time>
      </trkpt>
      <trkpt lat="46.61222" lon="5.87794">
        <ele>720.5</ele>
        <time>2022-12-06T12:16:24Z</time>
      </trkpt>
      <trkpt lat="46.61222" lon="5.87801">
        <ele>721.4</ele>
        <time>2022-12-06T12:16:29Z</time>
      </trkpt>
      <trkpt lat="46.61221" lon="5.87808">
        <ele>721.9</ele>
        <time>2022-12-06T12:16:35Z</time>
      </trkpt>
      <trkpt lat="46.6122" lon="5.87815">
        <ele>721.5</ele>
        <time>2022-12-06T12:16:41Z</time>
      </trkpt>
      <trkpt lat="46.6122" lon="5.87823">
        <ele>720.3</ele>
        <time>2022-12-06T12:16:46Z</time>
      </trkpt>
      <trkpt lat="46.61217" lon="5.87829">
        <ele>718.7</ele>
        <time>2022-12-06T12:16:50Z</time>
      </trkpt>
      <trkpt lat="46.61217" lon="5.87836">
        <ele>717.1</ele>
        <time>2022-12-06T12:16:55Z</time>
      </trkpt>
      <trkpt lat="46.61214" lon="5.87841">
        <ele>715.8</ele>
        <time>2022-12-06T12:17:01Z</time>
      </trkpt>
      <trkpt lat="46.61211" lon="5.87848">
        <ele>714.6</ele>
        <time>2022-12-06T12:17:06Z</time>
      </trkpt>
      <trkpt lat="46.61208" lon="5.87854">
        <ele>713.9</ele>
        <time>2022-12-06T12:17:11Z</time>
      </trkpt>
      <trkpt lat="46.61204" lon="5.87859">
        <ele>713.8</ele>
        <time>2022-12-06T12:17:17Z</time>
      </trkpt>
      <trkpt lat="46.612" lon="5.87863">
        <ele>714.3</ele>
        <time>2022-12-06T12:17:23Z</time>
      </trkpt>
      <trkpt lat="46.61196" lon="5.87868">
        <ele>714.8</ele>
        <time>2022-12-06T12:17:28Z</time>
      </trkpt>
      <trkpt lat="46.61192" lon="5.87874">
        <ele>715.3</ele>
        <time>2022-12-06T12:17:34Z</time>
      </trkpt>
      <trkpt lat="46.61191" lon="5.87881">
        <ele>716</ele>
        <time>2022-12-06T12:17:39Z</time>
      </trkpt>
      <trkpt lat="46.6119" lon="5.87888">
        <ele>716.5</ele>
        <time>2022-12-06T12:17:43Z</time>
      </trkpt>
      <trkpt lat="46.6119" lon="5.87894">
        <ele>717.8</ele>
        <time>2022-12-06T12:17:48Z</time>
      </trkpt>
      <trkpt lat="46.61188" lon="5.87901">
        <ele>719</ele>
        <time>2022-12-06T12:17:54Z</time>
      </trkpt>
      <trkpt lat="46.61187" lon="5.87909">
        <ele>719.2</ele>
        <time>2022-12-06T12:18:00Z</time>
      </trkpt>
      <trkpt lat="46.61184" lon="5.87915">
        <ele>719.4</ele>
        <time>2022-12-06T12:18:05Z</time>
      </trkpt>
      <trkpt lat="46.61183" lon="5.87921">
        <ele>719</ele>
        <time>2022-12-06T12:18:11Z</time>
      </trkpt>
      <trkpt lat="46.6118" lon="5.87927">
        <ele>719.4</ele>
        <time>2022-12-06T12:18:18Z</time>
      </trkpt>
      <trkpt lat="46.61179" lon="5.87934">
        <ele>719.7</ele>
        <time>2022-12-06T12:18:23Z</time>
      </trkpt>
      <trkpt lat="46.61176" lon="5.8794">
        <ele>720.3</ele>
        <time>2022-12-06T12:18:28Z</time>
      </trkpt>
      <trkpt lat="46.61174" lon="5.87946">
        <ele>720.5</ele>
        <time>2022-12-06T12:18:34Z</time>
      </trkpt>
      <trkpt lat="46.61171" lon="5.87952">
        <ele>720.4</ele>
        <time>2022-12-06T12:18:40Z</time>
      </trkpt>
      <trkpt lat="46.61167" lon="5.87956">
        <ele>720.5</ele>
        <time>2022-12-06T12:18:45Z</time>
      </trkpt>
      <trkpt lat="46.61162" lon="5.87959">
        <ele>720.3</ele>
        <time>2022-12-06T12:18:50Z</time>
      </trkpt>
      <trkpt lat="46.61158" lon="5.87964">
        <ele>719.6</ele>
        <time>2022-12-06T12:18:56Z</time>
      </trkpt>
      <trkpt lat="46.61155" lon="5.87969">
        <ele>719.7</ele>
        <time>2022-12-06T12:19:01Z</time>
      </trkpt>
      <trkpt lat="46.61151" lon="5.87972">
        <ele>720.1</ele>
        <time>2022-12-06T12:19:05Z</time>
      </trkpt>
      <trkpt lat="46.61146" lon="5.87976">
        <ele>720.4</ele>
        <time>2022-12-06T12:19:10Z</time>
      </trkpt>
      <trkpt lat="46.61142" lon="5.8798">
        <ele>721.3</ele>
        <time>2022-12-06T12:19:16Z</time>
      </trkpt>
      <trkpt lat="46.61139" lon="5.87985">
        <ele>721.9</ele>
        <time>2022-12-06T12:19:24Z</time>
      </trkpt>
      <trkpt lat="46.61135" lon="5.8799">
        <ele>721.9</ele>
        <time>2022-12-06T12:19:31Z</time>
      </trkpt>
      <trkpt lat="46.61134" lon="5.87997">
        <ele>720.8</ele>
        <time>2022-12-06T12:19:37Z</time>
      </trkpt>
      <trkpt lat="46.61137" lon="5.88002">
        <ele>719.4</ele>
        <time>2022-12-06T12:19:43Z</time>
      </trkpt>
      <trkpt lat="46.61141" lon="5.87998">
        <ele>716</ele>
        <time>2022-12-06T12:20:23Z</time>
      </trkpt>
      <trkpt lat="46.6114" lon="5.88005">
        <ele>723.8</ele>
        <time>2022-12-06T12:21:03Z</time>
      </trkpt>
      <trkpt lat="46.61136" lon="5.88008">
        <ele>724</ele>
        <time>2022-12-06T12:21:06Z</time>
      </trkpt>
      <trkpt lat="46.61132" lon="5.88014">
        <ele>723.9</ele>
        <time>2022-12-06T12:21:10Z</time>
      </trkpt>
      <trkpt lat="46.61129" lon="5.8802">
        <ele>723.6</ele>
        <time>2022-12-06T12:21:13Z</time>
      </trkpt>
      <trkpt lat="46.61126" lon="5.88027">
        <ele>722.9</ele>
        <time>2022-12-06T12:21:18Z</time>
      </trkpt>
      <trkpt lat="46.61123" lon="5.88032">
        <ele>721.8</ele>
        <time>2022-12-06T12:21:22Z</time>
      </trkpt>
      <trkpt lat="46.6112" lon="5.88038">
        <ele>720.5</ele>
        <time>2022-12-06T12:21:26Z</time>
      </trkpt>
      <trkpt lat="46.61116" lon="5.88046">
        <ele>720.1</ele>
        <time>2022-12-06T12:21:29Z</time>
      </trkpt>
      <trkpt lat="46.61112" lon="5.88052">
        <ele>720.6</ele>
        <time>2022-12-06T12:21:32Z</time>
      </trkpt>
      <trkpt lat="46.61107" lon="5.88056">
        <ele>721.1</ele>
        <time>2022-12-06T12:21:35Z</time>
      </trkpt>
      <trkpt lat="46.61103" lon="5.88059">
        <ele>720.7</ele>
        <time>2022-12-06T12:21:40Z</time>
      </trkpt>
      <trkpt lat="46.61099" lon="5.88063">
        <ele>719.6</ele>
        <time>2022-12-06T12:21:44Z</time>
      </trkpt>
      <trkpt lat="46.61096" lon="5.8807">
        <ele>718.4</ele>
        <time>2022-12-06T12:21:48Z</time>
      </trkpt>
      <trkpt lat="46.61094" lon="5.88077">
        <ele>716.5</ele>
        <time>2022-12-06T12:21:54Z</time>
      </trkpt>
      <trkpt lat="46.6109" lon="5.88082">
        <ele>716.3</ele>
        <time>2022-12-06T12:21:59Z</time>
      </trkpt>
      <trkpt lat="46.61087" lon="5.88089">
        <ele>716.8</ele>
        <time>2022-12-06T12:22:03Z</time>
      </trkpt>
      <trkpt lat="46.61084" lon="5.88095">
        <ele>717.4</ele>
        <time>2022-12-06T12:22:06Z</time>
      </trkpt>
      <trkpt lat="46.61081" lon="5.88102">
        <ele>718.4</ele>
        <time>2022-12-06T12:22:09Z</time>
      </trkpt>
      <trkpt lat="46.6108" lon="5.88109">
        <ele>719.2</ele>
        <time>2022-12-06T12:22:12Z</time>
      </trkpt>
      <trkpt lat="46.61079" lon="5.88116">
        <ele>720.2</ele>
        <time>2022-12-06T12:22:15Z</time>
      </trkpt>
      <trkpt lat="46.61078" lon="5.88124">
        <ele>722</ele>
        <time>2022-12-06T12:22:19Z</time>
      </trkpt>
      <trkpt lat="46.61078" lon="5.88132">
        <ele>723.8</ele>
        <time>2022-12-06T12:22:24Z</time>
      </trkpt>
      <trkpt lat="46.6108" lon="5.88139">
        <ele>725.8</ele>
        <time>2022-12-06T12:22:31Z</time>
      </trkpt>
      <trkpt lat="46.61083" lon="5.88143">
        <ele>726.8</ele>
        <time>2022-12-06T12:22:36Z</time>
      </trkpt>
      <trkpt lat="46.61087" lon="5.88148">
        <ele>727.6</ele>
        <time>2022-12-06T12:22:41Z</time>
      </trkpt>
      <trkpt lat="46.6109" lon="5.88153">
        <ele>727.8</ele>
        <time>2022-12-06T12:22:47Z</time>
      </trkpt>
      <trkpt lat="46.61094" lon="5.88157">
        <ele>727.3</ele>
        <time>2022-12-06T12:22:54Z</time>
      </trkpt>
      <trkpt lat="46.61097" lon="5.88164">
        <ele>727.4</ele>
        <time>2022-12-06T12:23:00Z</time>
      </trkpt>
      <trkpt lat="46.61098" lon="5.88171">
        <ele>727.5</ele>
        <time>2022-12-06T12:23:05Z</time>
      </trkpt>
      <trkpt lat="46.611" lon="5.88178">
        <ele>727.8</ele>
        <time>2022-12-06T12:23:10Z</time>
      </trkpt>
      <trkpt lat="46.61104" lon="5.88181">
        <ele>727.6</ele>
        <time>2022-12-06T12:23:15Z</time>
      </trkpt>
      <trkpt lat="46.61108" lon="5.88186">
        <ele>726.9</ele>
        <time>2022-12-06T12:23:20Z</time>
      </trkpt>
      <trkpt lat="46.61111" lon="5.8819">
        <ele>725.6</ele>
        <time>2022-12-06T12:23:25Z</time>
      </trkpt>
      <trkpt lat="46.61116" lon="5.88195">
        <ele>724.2</ele>
        <time>2022-12-06T12:23:30Z</time>
      </trkpt>
      <trkpt lat="46.6112" lon="5.88198">
        <ele>723.3</ele>
        <time>2022-12-06T12:23:34Z</time>
      </trkpt>
      <trkpt lat="46.61124" lon="5.88202">
        <ele>722.5</ele>
        <time>2022-12-06T12:23:38Z</time>
      </trkpt>
      <trkpt lat="46.61128" lon="5.88205">
        <ele>721.6</ele>
        <time>2022-12-06T12:23:43Z</time>
      </trkpt>
      <trkpt lat="46.61133" lon="5.88208">
        <ele>720.5</ele>
        <time>2022-12-06T12:23:48Z</time>
      </trkpt>
      <trkpt lat="46.61137" lon="5.88212">
        <ele>719.6</ele>
        <time>2022-12-06T12:23:53Z</time>
      </trkpt>
      <trkpt lat="46.61141" lon="5.88217">
        <ele>719.3</ele>
        <time>2022-12-06T12:23:58Z</time>
      </trkpt>
      <trkpt lat="46.61145" lon="5.88221">
        <ele>719.7</ele>
        <time>2022-12-06T12:24:02Z</time>
      </trkpt>
      <trkpt lat="46.61148" lon="5.88227">
        <ele>720.7</ele>
        <time>2022-12-06T12:24:06Z</time>
      </trkpt>
      <trkpt lat="46.61151" lon="5.88233">
        <ele>721.7</ele>
        <time>2022-12-06T12:24:10Z</time>
      </trkpt>
      <trkpt lat="46.61153" lon="5.8824">
        <ele>722.6</ele>
        <time>2022-12-06T12:24:14Z</time>
      </trkpt>
      <trkpt lat="46.61156" lon="5.88247">
        <ele>723.1</ele>
        <time>2022-12-06T12:24:18Z</time>
      </trkpt>
      <trkpt lat="46.61158" lon="5.88254">
        <ele>723.8</ele>
        <time>2022-12-06T12:24:22Z</time>
      </trkpt>
      <trkpt lat="46.61159" lon="5.8826">
        <ele>724.7</ele>
        <time>2022-12-06T12:24:26Z</time>
      </trkpt>
      <trkpt lat="46.61161" lon="5.88268">
        <ele>725.5</ele>
        <time>2022-12-06T12:24:31Z</time>
      </trkpt>
      <trkpt lat="46.61161" lon="5.88275">
        <ele>725.8</ele>
        <time>2022-12-06T12:24:35Z</time>
      </trkpt>
      <trkpt lat="46.61161" lon="5.88283">
        <ele>726.3</ele>
        <time>2022-12-06T12:24:39Z</time>
      </trkpt>
      <trkpt lat="46.61161" lon="5.8829">
        <ele>726.8</ele>
        <time>2022-12-06T12:24:43Z</time>
      </trkpt>
      <trkpt lat="46.6116" lon="5.88296">
        <ele>727.2</ele>
        <time>2022-12-06T12:24:47Z</time>
      </trkpt>
      <trkpt lat="46.61158" lon="5.88303">
        <ele>728</ele>
        <time>2022-12-06T12:24:51Z</time>
      </trkpt>
      <trkpt lat="46.61157" lon="5.8831">
        <ele>728.6</ele>
        <time>2022-12-06T12:24:55Z</time>
      </trkpt>
      <trkpt lat="46.61155" lon="5.88317">
        <ele>729.4</ele>
        <time>2022-12-06T12:25:00Z</time>
      </trkpt>
      <trkpt lat="46.61154" lon="5.88324">
        <ele>730.1</ele>
        <time>2022-12-06T12:25:05Z</time>
      </trkpt>
      <trkpt lat="46.61158" lon="5.88329">
        <ele>730.3</ele>
        <time>2022-12-06T12:25:10Z</time>
      </trkpt>
      <trkpt lat="46.61162" lon="5.88331">
        <ele>730.5</ele>
        <time>2022-12-06T12:25:14Z</time>
      </trkpt>
      <trkpt lat="46.61167" lon="5.88332">
        <ele>730.8</ele>
        <time>2022-12-06T12:25:18Z</time>
      </trkpt>
      <trkpt lat="46.61172" lon="5.88335">
        <ele>730.8</ele>
        <time>2022-12-06T12:25:23Z</time>
      </trkpt>
      <trkpt lat="46.61177" lon="5.88337">
        <ele>730.1</ele>
        <time>2022-12-06T12:25:29Z</time>
      </trkpt>
      <trkpt lat="46.61181" lon="5.88341">
        <ele>729.6</ele>
        <time>2022-12-06T12:25:34Z</time>
      </trkpt>
      <trkpt lat="46.61185" lon="5.88347">
        <ele>729.7</ele>
        <time>2022-12-06T12:25:39Z</time>
      </trkpt>
      <trkpt lat="46.61189" lon="5.88351">
        <ele>729.4</ele>
        <time>2022-12-06T12:25:45Z</time>
      </trkpt>
      <trkpt lat="46.61194" lon="5.88352">
        <ele>729.8</ele>
        <time>2022-12-06T12:25:51Z</time>
      </trkpt>
      <trkpt lat="46.61199" lon="5.88352">
        <ele>730</ele>
        <time>2022-12-06T12:25:57Z</time>
      </trkpt>
      <trkpt lat="46.61204" lon="5.88352">
        <ele>729.7</ele>
        <time>2022-12-06T12:26:02Z</time>
      </trkpt>
      <trkpt lat="46.61209" lon="5.88352">
        <ele>728.9</ele>
        <time>2022-12-06T12:26:06Z</time>
      </trkpt>
      <trkpt lat="46.61213" lon="5.88356">
        <ele>728.3</ele>
        <time>2022-12-06T12:26:11Z</time>
      </trkpt>
      <trkpt lat="46.61217" lon="5.88361">
        <ele>727.7</ele>
        <time>2022-12-06T12:26:17Z</time>
      </trkpt>
      <trkpt lat="46.6122" lon="5.88365">
        <ele>727.6</ele>
        <time>2022-12-06T12:26:21Z</time>
      </trkpt>
      <trkpt lat="46.61224" lon="5.88371">
        <ele>727.9</ele>
        <time>2022-12-06T12:26:25Z</time>
      </trkpt>
      <trkpt lat="46.61227" lon="5.88376">
        <ele>728.5</ele>
        <time>2022-12-06T12:26:30Z</time>
      </trkpt>
      <trkpt lat="46.61232" lon="5.88378">
        <ele>728.6</ele>
        <time>2022-12-06T12:26:36Z</time>
      </trkpt>
      <trkpt lat="46.61237" lon="5.88378">
        <ele>726.9</ele>
        <time>2022-12-06T12:26:42Z</time>
      </trkpt>
      <trkpt lat="46.61242" lon="5.88379">
        <ele>725.4</ele>
        <time>2022-12-06T12:26:47Z</time>
      </trkpt>
      <trkpt lat="46.61246" lon="5.88382">
        <ele>723.8</ele>
        <time>2022-12-06T12:26:52Z</time>
      </trkpt>
      <trkpt lat="46.61251" lon="5.88383">
        <ele>722.8</ele>
        <time>2022-12-06T12:26:56Z</time>
      </trkpt>
      <trkpt lat="46.61257" lon="5.88384">
        <ele>722.1</ele>
        <time>2022-12-06T12:27:00Z</time>
      </trkpt>
      <trkpt lat="46.61262" lon="5.88386">
        <ele>721.2</ele>
        <time>2022-12-06T12:27:05Z</time>
      </trkpt>
      <trkpt lat="46.61267" lon="5.88384">
        <ele>719.3</ele>
        <time>2022-12-06T12:27:09Z</time>
      </trkpt>
      <trkpt lat="46.61271" lon="5.8838">
        <ele>717.8</ele>
        <time>2022-12-06T12:27:13Z</time>
      </trkpt>
      <trkpt lat="46.61274" lon="5.88375">
        <ele>716.9</ele>
        <time>2022-12-06T12:27:17Z</time>
      </trkpt>
      <trkpt lat="46.61278" lon="5.88371">
        <ele>716.7</ele>
        <time>2022-12-06T12:27:23Z</time>
      </trkpt>
      <trkpt lat="46.61283" lon="5.88367">
        <ele>717.4</ele>
        <time>2022-12-06T12:27:28Z</time>
      </trkpt>
      <trkpt lat="46.61286" lon="5.88362">
        <ele>718.4</ele>
        <time>2022-12-06T12:27:33Z</time>
      </trkpt>
      <trkpt lat="46.6129" lon="5.88357">
        <ele>720.8</ele>
        <time>2022-12-06T12:27:39Z</time>
      </trkpt>
      <trkpt lat="46.61294" lon="5.88353">
        <ele>722.8</ele>
        <time>2022-12-06T12:27:45Z</time>
      </trkpt>
      <trkpt lat="46.61299" lon="5.8835">
        <ele>724.3</ele>
        <time>2022-12-06T12:27:52Z</time>
      </trkpt>
      <trkpt lat="46.61303" lon="5.88347">
        <ele>724.6</ele>
        <time>2022-12-06T12:27:57Z</time>
      </trkpt>
      <trkpt lat="46.61308" lon="5.88345">
        <ele>723.8</ele>
        <time>2022-12-06T12:28:04Z</time>
      </trkpt>
      <trkpt lat="46.61313" lon="5.88345">
        <ele>723.3</ele>
        <time>2022-12-06T12:28:09Z</time>
      </trkpt>
      <trkpt lat="46.61318" lon="5.88345">
        <ele>723.4</ele>
        <time>2022-12-06T12:28:12Z</time>
      </trkpt>
      <trkpt lat="46.61323" lon="5.88345">
        <ele>723.9</ele>
        <time>2022-12-06T12:28:15Z</time>
      </trkpt>
      <trkpt lat="46.61328" lon="5.88345">
        <ele>724.9</ele>
        <time>2022-12-06T12:28:19Z</time>
      </trkpt>
      <trkpt lat="46.61333" lon="5.88344">
        <ele>725.5</ele>
        <time>2022-12-06T12:28:23Z</time>
      </trkpt>
      <trkpt lat="46.61337" lon="5.88341">
        <ele>725.7</ele>
        <time>2022-12-06T12:28:27Z</time>
      </trkpt>
      <trkpt lat="46.61342" lon="5.88337">
        <ele>725.2</ele>
        <time>2022-12-06T12:28:32Z</time>
      </trkpt>
      <trkpt lat="46.61346" lon="5.88333">
        <ele>725.1</ele>
        <time>2022-12-06T12:28:36Z</time>
      </trkpt>
      <trkpt lat="46.6135" lon="5.8833">
        <ele>725.8</ele>
        <time>2022-12-06T12:28:41Z</time>
      </trkpt>
      <trkpt lat="46.61355" lon="5.88328">
        <ele>726</ele>
        <time>2022-12-06T12:28:46Z</time>
      </trkpt>
      <trkpt lat="46.61359" lon="5.88325">
        <ele>726.1</ele>
        <time>2022-12-06T12:28:51Z</time>
      </trkpt>
      <trkpt lat="46.61363" lon="5.88321">
        <ele>726.5</ele>
        <time>2022-12-06T12:28:56Z</time>
      </trkpt>
      <trkpt lat="46.61368" lon="5.88316">
        <ele>726.9</ele>
        <time>2022-12-06T12:29:01Z</time>
      </trkpt>
      <trkpt lat="46.61372" lon="5.88312">
        <ele>727.2</ele>
        <time>2022-12-06T12:29:05Z</time>
      </trkpt>
      <trkpt lat="46.61376" lon="5.88307">
        <ele>727.6</ele>
        <time>2022-12-06T12:29:09Z</time>
      </trkpt>
      <trkpt lat="46.6138" lon="5.88303">
        <ele>728</ele>
        <time>2022-12-06T12:29:15Z</time>
      </trkpt>
      <trkpt lat="46.61384" lon="5.88298">
        <ele>728.8</ele>
        <time>2022-12-06T12:29:21Z</time>
      </trkpt>
      <trkpt lat="46.61387" lon="5.88293">
        <ele>729.7</ele>
        <time>2022-12-06T12:29:26Z</time>
      </trkpt>
      <trkpt lat="46.61392" lon="5.88289">
        <ele>730.7</ele>
        <time>2022-12-06T12:29:31Z</time>
      </trkpt>
      <trkpt lat="46.61396" lon="5.88286">
        <ele>731.5</ele>
        <time>2022-12-06T12:29:36Z</time>
      </trkpt>
      <trkpt lat="46.61401" lon="5.88283">
        <ele>732.2</ele>
        <time>2022-12-06T12:29:41Z</time>
      </trkpt>
      <trkpt lat="46.61406" lon="5.88282">
        <ele>732.8</ele>
        <time>2022-12-06T12:29:46Z</time>
      </trkpt>
      <trkpt lat="46.61411" lon="5.8828">
        <ele>733.4</ele>
        <time>2022-12-06T12:29:52Z</time>
      </trkpt>
      <trkpt lat="46.61415" lon="5.88278">
        <ele>734</ele>
        <time>2022-12-06T12:29:57Z</time>
      </trkpt>
      <trkpt lat="46.61419" lon="5.88275">
        <ele>734.6</ele>
        <time>2022-12-06T12:30:01Z</time>
      </trkpt>
      <trkpt lat="46.61425" lon="5.88274">
        <ele>735.4</ele>
        <time>2022-12-06T12:30:05Z</time>
      </trkpt>
      <trkpt lat="46.6143" lon="5.88272">
        <ele>736.3</ele>
        <time>2022-12-06T12:30:10Z</time>
      </trkpt>
      <trkpt lat="46.61434" lon="5.88269">
        <ele>736.7</ele>
        <time>2022-12-06T12:30:15Z</time>
      </trkpt>
      <trkpt lat="46.61439" lon="5.88266">
        <ele>737.1</ele>
        <time>2022-12-06T12:30:20Z</time>
      </trkpt>
      <trkpt lat="46.61444" lon="5.88265">
        <ele>737.2</ele>
        <time>2022-12-06T12:30:25Z</time>
      </trkpt>
      <trkpt lat="46.61448" lon="5.88262">
        <ele>737.8</ele>
        <time>2022-12-06T12:30:30Z</time>
      </trkpt>
      <trkpt lat="46.61453" lon="5.8826">
        <ele>738.5</ele>
        <time>2022-12-06T12:30:35Z</time>
      </trkpt>
      <trkpt lat="46.61458" lon="5.88257">
        <ele>739.4</ele>
        <time>2022-12-06T12:30:40Z</time>
      </trkpt>
      <trkpt lat="46.61463" lon="5.88255">
        <ele>740</ele>
        <time>2022-12-06T12:30:46Z</time>
      </trkpt>
      <trkpt lat="46.61467" lon="5.88253">
        <ele>739</ele>
        <time>2022-12-06T12:30:51Z</time>
      </trkpt>
      <trkpt lat="46.61472" lon="5.88249">
        <ele>738.2</ele>
        <time>2022-12-06T12:30:55Z</time>
      </trkpt>
      <trkpt lat="46.61476" lon="5.88246">
        <ele>738</ele>
        <time>2022-12-06T12:31:01Z</time>
      </trkpt>
      <trkpt lat="46.6148" lon="5.88243">
        <ele>738.2</ele>
        <time>2022-12-06T12:31:07Z</time>
      </trkpt>
      <trkpt lat="46.61484" lon="5.88239">
        <ele>738.4</ele>
        <time>2022-12-06T12:31:12Z</time>
      </trkpt>
      <trkpt lat="46.61488" lon="5.88235">
        <ele>738.9</ele>
        <time>2022-12-06T12:31:18Z</time>
      </trkpt>
      <trkpt lat="46.61493" lon="5.88233">
        <ele>739.3</ele>
        <time>2022-12-06T12:31:22Z</time>
      </trkpt>
      <trkpt lat="46.61497" lon="5.8823">
        <ele>739.7</ele>
        <time>2022-12-06T12:31:26Z</time>
      </trkpt>
      <trkpt lat="46.61502" lon="5.88228">
        <ele>740.6</ele>
        <time>2022-12-06T12:31:31Z</time>
      </trkpt>
      <trkpt lat="46.61506" lon="5.88225">
        <ele>741.9</ele>
        <time>2022-12-06T12:31:37Z</time>
      </trkpt>
      <trkpt lat="46.61511" lon="5.88222">
        <ele>743</ele>
        <time>2022-12-06T12:31:43Z</time>
      </trkpt>
      <trkpt lat="46.61515" lon="5.88218">
        <ele>744.2</ele>
        <time>2022-12-06T12:31:48Z</time>
      </trkpt>
      <trkpt lat="46.6152" lon="5.88214">
        <ele>744.7</ele>
        <time>2022-12-06T12:31:53Z</time>
      </trkpt>
      <trkpt lat="46.61524" lon="5.88211">
        <ele>744.9</ele>
        <time>2022-12-06T12:31:58Z</time>
      </trkpt>
      <trkpt lat="46.61528" lon="5.88208">
        <ele>745.3</ele>
        <time>2022-12-06T12:32:04Z</time>
      </trkpt>
      <trkpt lat="46.61532" lon="5.88204">
        <ele>746.2</ele>
        <time>2022-12-06T12:32:09Z</time>
      </trkpt>
      <trkpt lat="46.61536" lon="5.882">
        <ele>747.6</ele>
        <time>2022-12-06T12:32:14Z</time>
      </trkpt>
      <trkpt lat="46.6154" lon="5.88197">
        <ele>748.7</ele>
        <time>2022-12-06T12:32:19Z</time>
      </trkpt>
      <trkpt lat="46.61545" lon="5.88194">
        <ele>749.6</ele>
        <time>2022-12-06T12:32:25Z</time>
      </trkpt>
      <trkpt lat="46.6155" lon="5.88191">
        <ele>750.6</ele>
        <time>2022-12-06T12:32:31Z</time>
      </trkpt>
      <trkpt lat="46.61555" lon="5.8819">
        <ele>751.7</ele>
        <time>2022-12-06T12:32:37Z</time>
      </trkpt>
      <trkpt lat="46.6156" lon="5.8819">
        <ele>753</ele>
        <time>2022-12-06T12:32:42Z</time>
      </trkpt>
      <trkpt lat="46.61565" lon="5.88188">
        <ele>753.3</ele>
        <time>2022-12-06T12:32:47Z</time>
      </trkpt>
      <trkpt lat="46.6157" lon="5.88186">
        <ele>752.5</ele>
        <time>2022-12-06T12:32:53Z</time>
      </trkpt>
      <trkpt lat="46.61574" lon="5.88183">
        <ele>751.9</ele>
        <time>2022-12-06T12:32:57Z</time>
      </trkpt>
      <trkpt lat="46.61579" lon="5.88181">
        <ele>750.9</ele>
        <time>2022-12-06T12:33:02Z</time>
      </trkpt>
      <trkpt lat="46.61584" lon="5.8818">
        <ele>750.6</ele>
        <time>2022-12-06T12:33:07Z</time>
      </trkpt>
      <trkpt lat="46.61588" lon="5.88177">
        <ele>750.9</ele>
        <time>2022-12-06T12:33:12Z</time>
      </trkpt>
      <trkpt lat="46.61592" lon="5.88173">
        <ele>751.4</ele>
        <time>2022-12-06T12:33:17Z</time>
      </trkpt>
      <trkpt lat="46.61596" lon="5.8817">
        <ele>751.9</ele>
        <time>2022-12-06T12:33:22Z</time>
      </trkpt>
      <trkpt lat="46.61601" lon="5.88169">
        <ele>752.1</ele>
        <time>2022-12-06T12:33:27Z</time>
      </trkpt>
      <trkpt lat="46.61606" lon="5.88167">
        <ele>752.7</ele>
        <time>2022-12-06T12:33:32Z</time>
      </trkpt>
      <trkpt lat="46.61611" lon="5.88165">
        <ele>752.7</ele>
        <time>2022-12-06T12:33:38Z</time>
      </trkpt>
      <trkpt lat="46.61616" lon="5.88165">
        <ele>751.7</ele>
        <time>2022-12-06T12:33:43Z</time>
      </trkpt>
      <trkpt lat="46.61621" lon="5.88167">
        <ele>751.3</ele>
        <time>2022-12-06T12:33:49Z</time>
      </trkpt>
      <trkpt lat="46.61625" lon="5.88168">
        <ele>751.6</ele>
        <time>2022-12-06T12:33:53Z</time>
      </trkpt>
      <trkpt lat="46.6163" lon="5.88169">
        <ele>752.5</ele>
        <time>2022-12-06T12:33:58Z</time>
      </trkpt>
      <trkpt lat="46.61635" lon="5.8817">
        <ele>753.7</ele>
        <time>2022-12-06T12:34:03Z</time>
      </trkpt>
      <trkpt lat="46.6164" lon="5.88171">
        <ele>755.1</ele>
        <time>2022-12-06T12:34:07Z</time>
      </trkpt>
      <trkpt lat="46.61645" lon="5.88171">
        <ele>756.6</ele>
        <time>2022-12-06T12:34:12Z</time>
      </trkpt>
      <trkpt lat="46.6165" lon="5.8817">
        <ele>758</ele>
        <time>2022-12-06T12:34:18Z</time>
      </trkpt>
      <trkpt lat="46.61656" lon="5.88169">
        <ele>758.4</ele>
        <time>2022-12-06T12:34:23Z</time>
      </trkpt>
      <trkpt lat="46.6166" lon="5.88169">
        <ele>758.2</ele>
        <time>2022-12-06T12:34:26Z</time>
      </trkpt>
      <trkpt lat="46.61665" lon="5.88168">
        <ele>757.8</ele>
        <time>2022-12-06T12:34:30Z</time>
      </trkpt>
      <trkpt lat="46.6167" lon="5.88164">
        <ele>756.8</ele>
        <time>2022-12-06T12:34:35Z</time>
      </trkpt>
      <trkpt lat="46.61675" lon="5.88162">
        <ele>756.2</ele>
        <time>2022-12-06T12:34:40Z</time>
      </trkpt>
      <trkpt lat="46.6168" lon="5.88159">
        <ele>755.8</ele>
        <time>2022-12-06T12:34:45Z</time>
      </trkpt>
      <trkpt lat="46.61684" lon="5.88155">
        <ele>755.4</ele>
        <time>2022-12-06T12:34:50Z</time>
      </trkpt>
      <trkpt lat="46.61688" lon="5.88151">
        <ele>755.2</ele>
        <time>2022-12-06T12:34:56Z</time>
      </trkpt>
      <trkpt lat="46.61691" lon="5.88147">
        <ele>755.2</ele>
        <time>2022-12-06T12:35:01Z</time>
      </trkpt>
      <trkpt lat="46.61696" lon="5.88144">
        <ele>754.9</ele>
        <time>2022-12-06T12:35:06Z</time>
      </trkpt>
      <trkpt lat="46.61701" lon="5.88141">
        <ele>754.5</ele>
        <time>2022-12-06T12:35:10Z</time>
      </trkpt>
      <trkpt lat="46.61705" lon="5.8814">
        <ele>754.3</ele>
        <time>2022-12-06T12:35:15Z</time>
      </trkpt>
      <trkpt lat="46.61711" lon="5.88138">
        <ele>755.1</ele>
        <time>2022-12-06T12:35:22Z</time>
      </trkpt>
      <trkpt lat="46.61715" lon="5.88137">
        <ele>756.3</ele>
        <time>2022-12-06T12:35:28Z</time>
      </trkpt>
      <trkpt lat="46.6172" lon="5.88137">
        <ele>758</ele>
        <time>2022-12-06T12:35:33Z</time>
      </trkpt>
      <trkpt lat="46.61725" lon="5.88135">
        <ele>759.3</ele>
        <time>2022-12-06T12:35:39Z</time>
      </trkpt>
      <trkpt lat="46.6173" lon="5.88132">
        <ele>759.8</ele>
        <time>2022-12-06T12:35:44Z</time>
      </trkpt>
      <trkpt lat="46.61735" lon="5.88129">
        <ele>760.1</ele>
        <time>2022-12-06T12:35:49Z</time>
      </trkpt>
      <trkpt lat="46.6174" lon="5.88128">
        <ele>760.7</ele>
        <time>2022-12-06T12:35:54Z</time>
      </trkpt>
      <trkpt lat="46.61745" lon="5.88124">
        <ele>761.7</ele>
        <time>2022-12-06T12:36:00Z</time>
      </trkpt>
      <trkpt lat="46.6175" lon="5.88122">
        <ele>762.2</ele>
        <time>2022-12-06T12:36:04Z</time>
      </trkpt>
      <trkpt lat="46.61755" lon="5.88122">
        <ele>762.8</ele>
        <time>2022-12-06T12:36:08Z</time>
      </trkpt>
      <trkpt lat="46.6176" lon="5.88121">
        <ele>763.1</ele>
        <time>2022-12-06T12:36:13Z</time>
      </trkpt>
      <trkpt lat="46.61764" lon="5.88123">
        <ele>763.4</ele>
        <time>2022-12-06T12:36:19Z</time>
      </trkpt>
      <trkpt lat="46.61769" lon="5.88126">
        <ele>763.7</ele>
        <time>2022-12-06T12:36:24Z</time>
      </trkpt>
      <trkpt lat="46.61774" lon="5.88128">
        <ele>764.5</ele>
        <time>2022-12-06T12:36:30Z</time>
      </trkpt>
      <trkpt lat="46.61778" lon="5.88132">
        <ele>765.4</ele>
        <time>2022-12-06T12:36:35Z</time>
      </trkpt>
      <trkpt lat="46.61782" lon="5.88135">
        <ele>766.5</ele>
        <time>2022-12-06T12:36:40Z</time>
      </trkpt>
      <trkpt lat="46.61786" lon="5.88138">
        <ele>766.9</ele>
        <time>2022-12-06T12:36:44Z</time>
      </trkpt>
      <trkpt lat="46.6179" lon="5.88142">
        <ele>766.8</ele>
        <time>2022-12-06T12:36:48Z</time>
      </trkpt>
      <trkpt lat="46.61795" lon="5.88146">
        <ele>767.3</ele>
        <time>2022-12-06T12:36:53Z</time>
      </trkpt>
      <trkpt lat="46.618" lon="5.88149">
        <ele>768</ele>
        <time>2022-12-06T12:36:58Z</time>
      </trkpt>
      <trkpt lat="46.61806" lon="5.88148">
        <ele>768.2</ele>
        <time>2022-12-06T12:37:02Z</time>
      </trkpt>
      <trkpt lat="46.6181" lon="5.88146">
        <ele>768.1</ele>
        <time>2022-12-06T12:37:06Z</time>
      </trkpt>
      <trkpt lat="46.61814" lon="5.88142">
        <ele>767.5</ele>
        <time>2022-12-06T12:37:12Z</time>
      </trkpt>
      <trkpt lat="46.61817" lon="5.88136">
        <ele>766.2</ele>
        <time>2022-12-06T12:37:20Z</time>
      </trkpt>
      <trkpt lat="46.61821" lon="5.88131">
        <ele>765.9</ele>
        <time>2022-12-06T12:37:26Z</time>
      </trkpt>
      <trkpt lat="46.61826" lon="5.88128">
        <ele>766</ele>
        <time>2022-12-06T12:37:30Z</time>
      </trkpt>
      <trkpt lat="46.6183" lon="5.88124">
        <ele>766.2</ele>
        <time>2022-12-06T12:37:36Z</time>
      </trkpt>
      <trkpt lat="46.61834" lon="5.88121">
        <ele>765.6</ele>
        <time>2022-12-06T12:37:43Z</time>
      </trkpt>
      <trkpt lat="46.61839" lon="5.88117">
        <ele>765.1</ele>
        <time>2022-12-06T12:37:49Z</time>
      </trkpt>
      <trkpt lat="46.61844" lon="5.88115">
        <ele>766.3</ele>
        <time>2022-12-06T12:37:54Z</time>
      </trkpt>
      <trkpt lat="46.61849" lon="5.88113">
        <ele>767.3</ele>
        <time>2022-12-06T12:37:58Z</time>
      </trkpt>
      <trkpt lat="46.61853" lon="5.88113">
        <ele>769</ele>
        <time>2022-12-06T12:38:03Z</time>
      </trkpt>
      <trkpt lat="46.61859" lon="5.88112">
        <ele>770.8</ele>
        <time>2022-12-06T12:38:08Z</time>
      </trkpt>
      <trkpt lat="46.61864" lon="5.88111">
        <ele>772.4</ele>
        <time>2022-12-06T12:38:15Z</time>
      </trkpt>
      <trkpt lat="46.61868" lon="5.8811">
        <ele>772</ele>
        <time>2022-12-06T12:38:25Z</time>
      </trkpt>
      <trkpt lat="46.61873" lon="5.88112">
        <ele>772.2</ele>
        <time>2022-12-06T12:38:30Z</time>
      </trkpt>
      <trkpt lat="46.61879" lon="5.88113">
        <ele>772.7</ele>
        <time>2022-12-06T12:38:35Z</time>
      </trkpt>
      <trkpt lat="46.61884" lon="5.88115">
        <ele>773.4</ele>
        <time>2022-12-06T12:38:40Z</time>
      </trkpt>
      <trkpt lat="46.61889" lon="5.88116">
        <ele>773.9</ele>
        <time>2022-12-06T12:38:45Z</time>
      </trkpt>
      <trkpt lat="46.61894" lon="5.88117">
        <ele>774.2</ele>
        <time>2022-12-06T12:38:50Z</time>
      </trkpt>
      <trkpt lat="46.61899" lon="5.88118">
        <ele>774.5</ele>
        <time>2022-12-06T12:38:54Z</time>
      </trkpt>
      <trkpt lat="46.61905" lon="5.88118">
        <ele>774.3</ele>
        <time>2022-12-06T12:38:58Z</time>
      </trkpt>
      <trkpt lat="46.6191" lon="5.88117">
        <ele>773.9</ele>
        <time>2022-12-06T12:39:03Z</time>
      </trkpt>
      <trkpt lat="46.61915" lon="5.88118">
        <ele>773.7</ele>
        <time>2022-12-06T12:39:07Z</time>
      </trkpt>
      <trkpt lat="46.6192" lon="5.88118">
        <ele>773.4</ele>
        <time>2022-12-06T12:39:11Z</time>
      </trkpt>
      <trkpt lat="46.61924" lon="5.88117">
        <ele>773.1</ele>
        <time>2022-12-06T12:39:15Z</time>
      </trkpt>
      <trkpt lat="46.61929" lon="5.88116">
        <ele>772.6</ele>
        <time>2022-12-06T12:39:20Z</time>
      </trkpt>
      <trkpt lat="46.61933" lon="5.88115">
        <ele>772.4</ele>
        <time>2022-12-06T12:39:26Z</time>
      </trkpt>
      <trkpt lat="46.61938" lon="5.88115">
        <ele>772.7</ele>
        <time>2022-12-06T12:39:31Z</time>
      </trkpt>
      <trkpt lat="46.61943" lon="5.88116">
        <ele>772.9</ele>
        <time>2022-12-06T12:39:35Z</time>
      </trkpt>
      <trkpt lat="46.61947" lon="5.88117">
        <ele>773.3</ele>
        <time>2022-12-06T12:39:39Z</time>
      </trkpt>
      <trkpt lat="46.61952" lon="5.88118">
        <ele>773.3</ele>
        <time>2022-12-06T12:39:43Z</time>
      </trkpt>
      <trkpt lat="46.61956" lon="5.88118">
        <ele>773.2</ele>
        <time>2022-12-06T12:39:48Z</time>
      </trkpt>
      <trkpt lat="46.61961" lon="5.88119">
        <ele>773</ele>
        <time>2022-12-06T12:39:53Z</time>
      </trkpt>
      <trkpt lat="46.61966" lon="5.8812">
        <ele>773</ele>
        <time>2022-12-06T12:39:59Z</time>
      </trkpt>
      <trkpt lat="46.61971" lon="5.88121">
        <ele>772.7</ele>
        <time>2022-12-06T12:40:05Z</time>
      </trkpt>
      <trkpt lat="46.61975" lon="5.88122">
        <ele>772.7</ele>
        <time>2022-12-06T12:40:12Z</time>
      </trkpt>
      <trkpt lat="46.6198" lon="5.88125">
        <ele>772.9</ele>
        <time>2022-12-06T12:40:17Z</time>
      </trkpt>
      <trkpt lat="46.61984" lon="5.88127">
        <ele>773.6</ele>
        <time>2022-12-06T12:40:22Z</time>
      </trkpt>
      <trkpt lat="46.61989" lon="5.88132">
        <ele>774.5</ele>
        <time>2022-12-06T12:40:26Z</time>
      </trkpt>
      <trkpt lat="46.61993" lon="5.88135">
        <ele>775.2</ele>
        <time>2022-12-06T12:40:30Z</time>
      </trkpt>
      <trkpt lat="46.61997" lon="5.88137">
        <ele>775.7</ele>
        <time>2022-12-06T12:40:34Z</time>
      </trkpt>
      <trkpt lat="46.62003" lon="5.88138">
        <ele>776.5</ele>
        <time>2022-12-06T12:40:39Z</time>
      </trkpt>
      <trkpt lat="46.62008" lon="5.88139">
        <ele>777.2</ele>
        <time>2022-12-06T12:40:43Z</time>
      </trkpt>
      <trkpt lat="46.62013" lon="5.88141">
        <ele>777.6</ele>
        <time>2022-12-06T12:40:47Z</time>
      </trkpt>
      <trkpt lat="46.62018" lon="5.88141">
        <ele>777.9</ele>
        <time>2022-12-06T12:40:52Z</time>
      </trkpt>
      <trkpt lat="46.62023" lon="5.88143">
        <ele>777.9</ele>
        <time>2022-12-06T12:40:58Z</time>
      </trkpt>
      <trkpt lat="46.62028" lon="5.88145">
        <ele>778</ele>
        <time>2022-12-06T12:41:04Z</time>
      </trkpt>
      <trkpt lat="46.62032" lon="5.88148">
        <ele>777.7</ele>
        <time>2022-12-06T12:41:10Z</time>
      </trkpt>
      <trkpt lat="46.62037" lon="5.88149">
        <ele>776.6</ele>
        <time>2022-12-06T12:41:18Z</time>
      </trkpt>
      <trkpt lat="46.62042" lon="5.88153">
        <ele>776.1</ele>
        <time>2022-12-06T12:41:25Z</time>
      </trkpt>
      <trkpt lat="46.62046" lon="5.88155">
        <ele>776.3</ele>
        <time>2022-12-06T12:41:30Z</time>
      </trkpt>
      <trkpt lat="46.62051" lon="5.88157">
        <ele>776.8</ele>
        <time>2022-12-06T12:41:35Z</time>
      </trkpt>
      <trkpt lat="46.62056" lon="5.88158">
        <ele>777</ele>
        <time>2022-12-06T12:41:40Z</time>
      </trkpt>
      <trkpt lat="46.6206" lon="5.88158">
        <ele>776.4</ele>
        <time>2022-12-06T12:41:46Z</time>
      </trkpt>
      <trkpt lat="46.62065" lon="5.88159">
        <ele>776.1</ele>
        <time>2022-12-06T12:41:53Z</time>
      </trkpt>
      <trkpt lat="46.6207" lon="5.88159">
        <ele>776.5</ele>
        <time>2022-12-06T12:41:58Z</time>
      </trkpt>
      <trkpt lat="46.62075" lon="5.88159">
        <ele>776.9</ele>
        <time>2022-12-06T12:42:03Z</time>
      </trkpt>
      <trkpt lat="46.6208" lon="5.88159">
        <ele>777.2</ele>
        <time>2022-12-06T12:42:08Z</time>
      </trkpt>
      <trkpt lat="46.62085" lon="5.88158">
        <ele>777.5</ele>
        <time>2022-12-06T12:42:13Z</time>
      </trkpt>
      <trkpt lat="46.62089" lon="5.88157">
        <ele>777.8</ele>
        <time>2022-12-06T12:42:17Z</time>
      </trkpt>
      <trkpt lat="46.62094" lon="5.88157">
        <ele>777.8</ele>
        <time>2022-12-06T12:42:22Z</time>
      </trkpt>
      <trkpt lat="46.62099" lon="5.88158">
        <ele>777.7</ele>
        <time>2022-12-06T12:42:27Z</time>
      </trkpt>
      <trkpt lat="46.62104" lon="5.8816">
        <ele>778</ele>
        <time>2022-12-06T12:42:32Z</time>
      </trkpt>
      <trkpt lat="46.62109" lon="5.88162">
        <ele>778.5</ele>
        <time>2022-12-06T12:42:37Z</time>
      </trkpt>
      <trkpt lat="46.62113" lon="5.88166">
        <ele>779.5</ele>
        <time>2022-12-06T12:42:44Z</time>
      </trkpt>
      <trkpt lat="46.62118" lon="5.88168">
        <ele>780.4</ele>
        <time>2022-12-06T12:42:50Z</time>
      </trkpt>
      <trkpt lat="46.62122" lon="5.8817">
        <ele>780.7</ele>
        <time>2022-12-06T12:42:54Z</time>
      </trkpt>
      <trkpt lat="46.62127" lon="5.88171">
        <ele>781.1</ele>
        <time>2022-12-06T12:42:59Z</time>
      </trkpt>
      <trkpt lat="46.62132" lon="5.88172">
        <ele>780.7</ele>
        <time>2022-12-06T12:43:03Z</time>
      </trkpt>
      <trkpt lat="46.62137" lon="5.8817">
        <ele>779.8</ele>
        <time>2022-12-06T12:43:07Z</time>
      </trkpt>
      <trkpt lat="46.62141" lon="5.8817">
        <ele>779.3</ele>
        <time>2022-12-06T12:43:13Z</time>
      </trkpt>
      <trkpt lat="46.62146" lon="5.88167">
        <ele>779.3</ele>
        <time>2022-12-06T12:43:18Z</time>
      </trkpt>
      <trkpt lat="46.62151" lon="5.88164">
        <ele>779</ele>
        <time>2022-12-06T12:43:23Z</time>
      </trkpt>
      <trkpt lat="46.62156" lon="5.88163">
        <ele>778.3</ele>
        <time>2022-12-06T12:43:29Z</time>
      </trkpt>
      <trkpt lat="46.62161" lon="5.88163">
        <ele>778</ele>
        <time>2022-12-06T12:43:34Z</time>
      </trkpt>
      <trkpt lat="46.62166" lon="5.88163">
        <ele>778</ele>
        <time>2022-12-06T12:43:38Z</time>
      </trkpt>
      <trkpt lat="46.62171" lon="5.88162">
        <ele>777.9</ele>
        <time>2022-12-06T12:43:42Z</time>
      </trkpt>
      <trkpt lat="46.62175" lon="5.88162">
        <ele>777.8</ele>
        <time>2022-12-06T12:43:46Z</time>
      </trkpt>
      <trkpt lat="46.6218" lon="5.88161">
        <ele>778.1</ele>
        <time>2022-12-06T12:43:51Z</time>
      </trkpt>
      <trkpt lat="46.62185" lon="5.88161">
        <ele>778.9</ele>
        <time>2022-12-06T12:43:56Z</time>
      </trkpt>
      <trkpt lat="46.62189" lon="5.8816">
        <ele>779.5</ele>
        <time>2022-12-06T12:44:02Z</time>
      </trkpt>
      <trkpt lat="46.62194" lon="5.88159">
        <ele>780.2</ele>
        <time>2022-12-06T12:44:06Z</time>
      </trkpt>
      <trkpt lat="46.62199" lon="5.88158">
        <ele>781.3</ele>
        <time>2022-12-06T12:44:10Z</time>
      </trkpt>
      <trkpt lat="46.62204" lon="5.88158">
        <ele>782.4</ele>
        <time>2022-12-06T12:44:14Z</time>
      </trkpt>
      <trkpt lat="46.62209" lon="5.88158">
        <ele>783.8</ele>
        <time>2022-12-06T12:44:19Z</time>
      </trkpt>
      <trkpt lat="46.62215" lon="5.88157">
        <ele>785.2</ele>
        <time>2022-12-06T12:44:24Z</time>
      </trkpt>
      <trkpt lat="46.62219" lon="5.88156">
        <ele>786.3</ele>
        <time>2022-12-06T12:44:29Z</time>
      </trkpt>
      <trkpt lat="46.62224" lon="5.88155">
        <ele>786.8</ele>
        <time>2022-12-06T12:44:33Z</time>
      </trkpt>
      <trkpt lat="46.62228" lon="5.88155">
        <ele>786.7</ele>
        <time>2022-12-06T12:44:38Z</time>
      </trkpt>
      <trkpt lat="46.62234" lon="5.88155">
        <ele>786.8</ele>
        <time>2022-12-06T12:44:44Z</time>
      </trkpt>
      <trkpt lat="46.62239" lon="5.88155">
        <ele>787.3</ele>
        <time>2022-12-06T12:44:49Z</time>
      </trkpt>
      <trkpt lat="46.62244" lon="5.88154">
        <ele>788.1</ele>
        <time>2022-12-06T12:44:53Z</time>
      </trkpt>
      <trkpt lat="46.62249" lon="5.88152">
        <ele>788.9</ele>
        <time>2022-12-06T12:44:57Z</time>
      </trkpt>
      <trkpt lat="46.62254" lon="5.8815">
        <ele>789.9</ele>
        <time>2022-12-06T12:45:01Z</time>
      </trkpt>
      <trkpt lat="46.62258" lon="5.8815">
        <ele>791.1</ele>
        <time>2022-12-06T12:45:05Z</time>
      </trkpt>
      <trkpt lat="46.62263" lon="5.88151">
        <ele>792.5</ele>
        <time>2022-12-06T12:45:09Z</time>
      </trkpt>
      <trkpt lat="46.62268" lon="5.88151">
        <ele>794.1</ele>
        <time>2022-12-06T12:45:14Z</time>
      </trkpt>
      <trkpt lat="46.62273" lon="5.8815">
        <ele>794.7</ele>
        <time>2022-12-06T12:45:20Z</time>
      </trkpt>
      <trkpt lat="46.62278" lon="5.88148">
        <ele>794.5</ele>
        <time>2022-12-06T12:45:25Z</time>
      </trkpt>
      <trkpt lat="46.62282" lon="5.88147">
        <ele>794.3</ele>
        <time>2022-12-06T12:45:30Z</time>
      </trkpt>
      <trkpt lat="46.62287" lon="5.88145">
        <ele>793.7</ele>
        <time>2022-12-06T12:45:35Z</time>
      </trkpt>
      <trkpt lat="46.62292" lon="5.88142">
        <ele>793.5</ele>
        <time>2022-12-06T12:45:40Z</time>
      </trkpt>
      <trkpt lat="46.62296" lon="5.88142">
        <ele>793.5</ele>
        <time>2022-12-06T12:45:45Z</time>
      </trkpt>
      <trkpt lat="46.62302" lon="5.88142">
        <ele>793.6</ele>
        <time>2022-12-06T12:45:52Z</time>
      </trkpt>
      <trkpt lat="46.62306" lon="5.88145">
        <ele>793.7</ele>
        <time>2022-12-06T12:45:56Z</time>
      </trkpt>
      <trkpt lat="46.62311" lon="5.88147">
        <ele>794</ele>
        <time>2022-12-06T12:46:01Z</time>
      </trkpt>
      <trkpt lat="46.62316" lon="5.8815">
        <ele>794.4</ele>
        <time>2022-12-06T12:46:06Z</time>
      </trkpt>
      <trkpt lat="46.62321" lon="5.88152">
        <ele>794.5</ele>
        <time>2022-12-06T12:46:10Z</time>
      </trkpt>
      <trkpt lat="46.62326" lon="5.88153">
        <ele>794.7</ele>
        <time>2022-12-06T12:46:15Z</time>
      </trkpt>
      <trkpt lat="46.62331" lon="5.88152">
        <ele>795.1</ele>
        <time>2022-12-06T12:46:19Z</time>
      </trkpt>
      <trkpt lat="46.62335" lon="5.88152">
        <ele>795.6</ele>
        <time>2022-12-06T12:46:23Z</time>
      </trkpt>
      <trkpt lat="46.6234" lon="5.88152">
        <ele>796.6</ele>
        <time>2022-12-06T12:46:28Z</time>
      </trkpt>
      <trkpt lat="46.62345" lon="5.88155">
        <ele>797.9</ele>
        <time>2022-12-06T12:46:33Z</time>
      </trkpt>
      <trkpt lat="46.6235" lon="5.88158">
        <ele>799.1</ele>
        <time>2022-12-06T12:46:39Z</time>
      </trkpt>
      <trkpt lat="46.62355" lon="5.8816">
        <ele>799.4</ele>
        <time>2022-12-06T12:46:44Z</time>
      </trkpt>
      <trkpt lat="46.62361" lon="5.8816">
        <ele>799.7</ele>
        <time>2022-12-06T12:46:49Z</time>
      </trkpt>
      <trkpt lat="46.62365" lon="5.88161">
        <ele>800.4</ele>
        <time>2022-12-06T12:46:55Z</time>
      </trkpt>
      <trkpt lat="46.6237" lon="5.88164">
        <ele>800.6</ele>
        <time>2022-12-06T12:47:02Z</time>
      </trkpt>
      <trkpt lat="46.62375" lon="5.88167">
        <ele>800.2</ele>
        <time>2022-12-06T12:47:07Z</time>
      </trkpt>
      <trkpt lat="46.62379" lon="5.8817">
        <ele>799.7</ele>
        <time>2022-12-06T12:47:12Z</time>
      </trkpt>
      <trkpt lat="46.62384" lon="5.88171">
        <ele>799.6</ele>
        <time>2022-12-06T12:47:17Z</time>
      </trkpt>
      <trkpt lat="46.62388" lon="5.88174">
        <ele>799</ele>
        <time>2022-12-06T12:47:21Z</time>
      </trkpt>
      <trkpt lat="46.62393" lon="5.88177">
        <ele>798.3</ele>
        <time>2022-12-06T12:47:25Z</time>
      </trkpt>
      <trkpt lat="46.62397" lon="5.8818">
        <ele>797.9</ele>
        <time>2022-12-06T12:47:29Z</time>
      </trkpt>
      <trkpt lat="46.62402" lon="5.88184">
        <ele>797.7</ele>
        <time>2022-12-06T12:47:34Z</time>
      </trkpt>
      <trkpt lat="46.62406" lon="5.88188">
        <ele>797.4</ele>
        <time>2022-12-06T12:47:38Z</time>
      </trkpt>
      <trkpt lat="46.6241" lon="5.88193">
        <ele>796.9</ele>
        <time>2022-12-06T12:47:43Z</time>
      </trkpt>
      <trkpt lat="46.62415" lon="5.88195">
        <ele>796</ele>
        <time>2022-12-06T12:47:48Z</time>
      </trkpt>
      <trkpt lat="46.62419" lon="5.88198">
        <ele>795.3</ele>
        <time>2022-12-06T12:47:52Z</time>
      </trkpt>
      <trkpt lat="46.62423" lon="5.88202">
        <ele>794.6</ele>
        <time>2022-12-06T12:47:56Z</time>
      </trkpt>
      <trkpt lat="46.62427" lon="5.88207">
        <ele>793.7</ele>
        <time>2022-12-06T12:48:01Z</time>
      </trkpt>
      <trkpt lat="46.6243" lon="5.88213">
        <ele>793</ele>
        <time>2022-12-06T12:48:06Z</time>
      </trkpt>
      <trkpt lat="46.62432" lon="5.88219">
        <ele>793</ele>
        <time>2022-12-06T12:48:11Z</time>
      </trkpt>
      <trkpt lat="46.62436" lon="5.88225">
        <ele>793.1</ele>
        <time>2022-12-06T12:48:16Z</time>
      </trkpt>
      <trkpt lat="46.62439" lon="5.8823">
        <ele>793.1</ele>
        <time>2022-12-06T12:48:20Z</time>
      </trkpt>
      <trkpt lat="46.62443" lon="5.88234">
        <ele>792.9</ele>
        <time>2022-12-06T12:48:24Z</time>
      </trkpt>
      <trkpt lat="46.62448" lon="5.88238">
        <ele>792.5</ele>
        <time>2022-12-06T12:48:29Z</time>
      </trkpt>
      <trkpt lat="46.62452" lon="5.88243">
        <ele>791.8</ele>
        <time>2022-12-06T12:48:34Z</time>
      </trkpt>
      <trkpt lat="46.62455" lon="5.88249">
        <ele>791.3</ele>
        <time>2022-12-06T12:48:39Z</time>
      </trkpt>
      <trkpt lat="46.62457" lon="5.88255">
        <ele>791.4</ele>
        <time>2022-12-06T12:48:45Z</time>
      </trkpt>
      <trkpt lat="46.6246" lon="5.8826">
        <ele>791.4</ele>
        <time>2022-12-06T12:48:50Z</time>
      </trkpt>
      <trkpt lat="46.62465" lon="5.88265">
        <ele>791.1</ele>
        <time>2022-12-06T12:48:54Z</time>
      </trkpt>
      <trkpt lat="46.62469" lon="5.88269">
        <ele>791</ele>
        <time>2022-12-06T12:48:58Z</time>
      </trkpt>
      <trkpt lat="46.62473" lon="5.88273">
        <ele>791.1</ele>
        <time>2022-12-06T12:49:02Z</time>
      </trkpt>
      <trkpt lat="46.62478" lon="5.88278">
        <ele>791.1</ele>
        <time>2022-12-06T12:49:07Z</time>
      </trkpt>
      <trkpt lat="46.62481" lon="5.88281">
        <ele>791.6</ele>
        <time>2022-12-06T12:49:11Z</time>
      </trkpt>
      <trkpt lat="46.62486" lon="5.88287">
        <ele>791.8</ele>
        <time>2022-12-06T12:49:16Z</time>
      </trkpt>
      <trkpt lat="46.6249" lon="5.88291">
        <ele>791.6</ele>
        <time>2022-12-06T12:49:20Z</time>
      </trkpt>
      <trkpt lat="46.62494" lon="5.88295">
        <ele>791.4</ele>
        <time>2022-12-06T12:49:24Z</time>
      </trkpt>
      <trkpt lat="46.62497" lon="5.88301">
        <ele>791.6</ele>
        <time>2022-12-06T12:49:29Z</time>
      </trkpt>
      <trkpt lat="46.625" lon="5.88307">
        <ele>791.1</ele>
        <time>2022-12-06T12:49:35Z</time>
      </trkpt>
      <trkpt lat="46.62505" lon="5.8831">
        <ele>790.9</ele>
        <time>2022-12-06T12:49:40Z</time>
      </trkpt>
      <trkpt lat="46.6251" lon="5.88313">
        <ele>790.8</ele>
        <time>2022-12-06T12:49:44Z</time>
      </trkpt>
      <trkpt lat="46.62514" lon="5.88317">
        <ele>790.8</ele>
        <time>2022-12-06T12:49:48Z</time>
      </trkpt>
      <trkpt lat="46.62518" lon="5.8832">
        <ele>790.7</ele>
        <time>2022-12-06T12:49:52Z</time>
      </trkpt>
      <trkpt lat="46.62522" lon="5.88326">
        <ele>790.5</ele>
        <time>2022-12-06T12:49:57Z</time>
      </trkpt>
      <trkpt lat="46.62526" lon="5.88331">
        <ele>790.5</ele>
        <time>2022-12-06T12:50:01Z</time>
      </trkpt>
      <trkpt lat="46.6253" lon="5.88336">
        <ele>790.3</ele>
        <time>2022-12-06T12:50:06Z</time>
      </trkpt>
      <trkpt lat="46.62533" lon="5.88341">
        <ele>790</ele>
        <time>2022-12-06T12:50:10Z</time>
      </trkpt>
      <trkpt lat="46.62537" lon="5.88345">
        <ele>789.6</ele>
        <time>2022-12-06T12:50:14Z</time>
      </trkpt>
      <trkpt lat="46.62541" lon="5.88347">
        <ele>789.4</ele>
        <time>2022-12-06T12:50:18Z</time>
      </trkpt>
      <trkpt lat="46.62546" lon="5.88349">
        <ele>789.4</ele>
        <time>2022-12-06T12:50:24Z</time>
      </trkpt>
      <trkpt lat="46.62551" lon="5.8835">
        <ele>789.7</ele>
        <time>2022-12-06T12:50:29Z</time>
      </trkpt>
      <trkpt lat="46.62556" lon="5.88354">
        <ele>789.1</ele>
        <time>2022-12-06T12:50:36Z</time>
      </trkpt>
      <trkpt lat="46.62559" lon="5.88358">
        <ele>788.5</ele>
        <time>2022-12-06T12:50:41Z</time>
      </trkpt>
      <trkpt lat="46.62564" lon="5.88363">
        <ele>787.9</ele>
        <time>2022-12-06T12:50:46Z</time>
      </trkpt>
      <trkpt lat="46.62567" lon="5.88368">
        <ele>787.3</ele>
        <time>2022-12-06T12:50:51Z</time>
      </trkpt>
      <trkpt lat="46.62571" lon="5.88373">
        <ele>786.8</ele>
        <time>2022-12-06T12:50:57Z</time>
      </trkpt>
      <trkpt lat="46.62575" lon="5.88378">
        <ele>786.9</ele>
        <time>2022-12-06T12:51:03Z</time>
      </trkpt>
      <trkpt lat="46.62579" lon="5.88382">
        <ele>787.2</ele>
        <time>2022-12-06T12:51:09Z</time>
      </trkpt>
      <trkpt lat="46.62583" lon="5.88387">
        <ele>787.7</ele>
        <time>2022-12-06T12:51:14Z</time>
      </trkpt>
      <trkpt lat="46.62587" lon="5.88391">
        <ele>788.6</ele>
        <time>2022-12-06T12:51:20Z</time>
      </trkpt>
      <trkpt lat="46.6259" lon="5.88397">
        <ele>789.5</ele>
        <time>2022-12-06T12:51:25Z</time>
      </trkpt>
      <trkpt lat="46.62592" lon="5.88403">
        <ele>790</ele>
        <time>2022-12-06T12:51:29Z</time>
      </trkpt>
      <trkpt lat="46.62595" lon="5.8841">
        <ele>790.3</ele>
        <time>2022-12-06T12:51:34Z</time>
      </trkpt>
      <trkpt lat="46.62598" lon="5.88415">
        <ele>790.3</ele>
        <time>2022-12-06T12:51:40Z</time>
      </trkpt>
      <trkpt lat="46.62602" lon="5.88418">
        <ele>789.6</ele>
        <time>2022-12-06T12:51:45Z</time>
      </trkpt>
      <trkpt lat="46.62607" lon="5.88421">
        <ele>789.5</ele>
        <time>2022-12-06T12:51:49Z</time>
      </trkpt>
      <trkpt lat="46.62611" lon="5.88424">
        <ele>789.9</ele>
        <time>2022-12-06T12:51:53Z</time>
      </trkpt>
      <trkpt lat="46.62615" lon="5.88427">
        <ele>790</ele>
        <time>2022-12-06T12:51:57Z</time>
      </trkpt>
      <trkpt lat="46.62619" lon="5.88431">
        <ele>790</ele>
        <time>2022-12-06T12:52:03Z</time>
      </trkpt>
      <trkpt lat="46.62624" lon="5.88433">
        <ele>789.4</ele>
        <time>2022-12-06T12:52:08Z</time>
      </trkpt>
      <trkpt lat="46.62628" lon="5.88437">
        <ele>788.4</ele>
        <time>2022-12-06T12:52:13Z</time>
      </trkpt>
      <trkpt lat="46.62632" lon="5.88441">
        <ele>787.7</ele>
        <time>2022-12-06T12:52:18Z</time>
      </trkpt>
      <trkpt lat="46.62636" lon="5.88445">
        <ele>787.7</ele>
        <time>2022-12-06T12:52:23Z</time>
      </trkpt>
      <trkpt lat="46.6264" lon="5.88448">
        <ele>787.8</ele>
        <time>2022-12-06T12:52:28Z</time>
      </trkpt>
      <trkpt lat="46.62644" lon="5.88452">
        <ele>787.6</ele>
        <time>2022-12-06T12:52:33Z</time>
      </trkpt>
      <trkpt lat="46.62648" lon="5.88457">
        <ele>787</ele>
        <time>2022-12-06T12:52:38Z</time>
      </trkpt>
      <trkpt lat="46.62651" lon="5.88463">
        <ele>786.2</ele>
        <time>2022-12-06T12:52:44Z</time>
      </trkpt>
      <trkpt lat="46.62655" lon="5.88468">
        <ele>785</ele>
        <time>2022-12-06T12:52:50Z</time>
      </trkpt>
      <trkpt lat="46.62659" lon="5.88472">
        <ele>784.6</ele>
        <time>2022-12-06T12:52:54Z</time>
      </trkpt>
      <trkpt lat="46.62663" lon="5.88475">
        <ele>784.3</ele>
        <time>2022-12-06T12:52:59Z</time>
      </trkpt>
      <trkpt lat="46.62668" lon="5.88478">
        <ele>783.9</ele>
        <time>2022-12-06T12:53:06Z</time>
      </trkpt>
      <trkpt lat="46.62671" lon="5.88483">
        <ele>783.3</ele>
        <time>2022-12-06T12:53:13Z</time>
      </trkpt>
      <trkpt lat="46.62674" lon="5.88489">
        <ele>783.3</ele>
        <time>2022-12-06T12:53:18Z</time>
      </trkpt>
      <trkpt lat="46.62678" lon="5.88494">
        <ele>783.4</ele>
        <time>2022-12-06T12:53:23Z</time>
      </trkpt>
      <trkpt lat="46.6268" lon="5.88499">
        <ele>783.5</ele>
        <time>2022-12-06T12:53:27Z</time>
      </trkpt>
      <trkpt lat="46.62685" lon="5.88504">
        <ele>783.9</ele>
        <time>2022-12-06T12:53:32Z</time>
      </trkpt>
      <trkpt lat="46.62689" lon="5.88507">
        <ele>784.5</ele>
        <time>2022-12-06T12:53:37Z</time>
      </trkpt>
      <trkpt lat="46.62693" lon="5.88511">
        <ele>785.6</ele>
        <time>2022-12-06T12:53:42Z</time>
      </trkpt>
      <trkpt lat="46.62697" lon="5.88517">
        <ele>786.6</ele>
        <time>2022-12-06T12:53:47Z</time>
      </trkpt>
      <trkpt lat="46.62701" lon="5.88521">
        <ele>786.8</ele>
        <time>2022-12-06T12:53:53Z</time>
      </trkpt>
      <trkpt lat="46.62705" lon="5.88525">
        <ele>786.4</ele>
        <time>2022-12-06T12:53:58Z</time>
      </trkpt>
      <trkpt lat="46.62709" lon="5.8853">
        <ele>785.2</ele>
        <time>2022-12-06T12:54:04Z</time>
      </trkpt>
      <trkpt lat="46.62713" lon="5.88533">
        <ele>784</ele>
        <time>2022-12-06T12:54:09Z</time>
      </trkpt>
      <trkpt lat="46.62717" lon="5.88538">
        <ele>783.8</ele>
        <time>2022-12-06T12:54:14Z</time>
      </trkpt>
      <trkpt lat="46.62721" lon="5.88544">
        <ele>783.9</ele>
        <time>2022-12-06T12:54:18Z</time>
      </trkpt>
      <trkpt lat="46.62725" lon="5.88547">
        <ele>784.1</ele>
        <time>2022-12-06T12:54:22Z</time>
      </trkpt>
      <trkpt lat="46.62729" lon="5.88551">
        <ele>784.6</ele>
        <time>2022-12-06T12:54:28Z</time>
      </trkpt>
      <trkpt lat="46.62734" lon="5.88556">
        <ele>785.1</ele>
        <time>2022-12-06T12:54:33Z</time>
      </trkpt>
      <trkpt lat="46.62738" lon="5.8856">
        <ele>785.5</ele>
        <time>2022-12-06T12:54:37Z</time>
      </trkpt>
      <trkpt lat="46.62742" lon="5.88564">
        <ele>786</ele>
        <time>2022-12-06T12:54:42Z</time>
      </trkpt>
      <trkpt lat="46.62747" lon="5.88567">
        <ele>786.5</ele>
        <time>2022-12-06T12:54:47Z</time>
      </trkpt>
      <trkpt lat="46.62751" lon="5.88572">
        <ele>786.5</ele>
        <time>2022-12-06T12:54:52Z</time>
      </trkpt>
      <trkpt lat="46.62754" lon="5.88577">
        <ele>786.6</ele>
        <time>2022-12-06T12:54:56Z</time>
      </trkpt>
      <trkpt lat="46.62757" lon="5.88582">
        <ele>787</ele>
        <time>2022-12-06T12:55:01Z</time>
      </trkpt>
      <trkpt lat="46.6276" lon="5.88588">
        <ele>787.2</ele>
        <time>2022-12-06T12:55:05Z</time>
      </trkpt>
      <trkpt lat="46.62763" lon="5.88593">
        <ele>787.4</ele>
        <time>2022-12-06T12:55:09Z</time>
      </trkpt>
      <trkpt lat="46.62766" lon="5.88599">
        <ele>787.4</ele>
        <time>2022-12-06T12:55:14Z</time>
      </trkpt>
      <trkpt lat="46.62769" lon="5.88604">
        <ele>788</ele>
        <time>2022-12-06T12:55:20Z</time>
      </trkpt>
      <trkpt lat="46.62773" lon="5.88609">
        <ele>788.5</ele>
        <time>2022-12-06T12:55:26Z</time>
      </trkpt>
      <trkpt lat="46.62778" lon="5.88613">
        <ele>788.6</ele>
        <time>2022-12-06T12:55:31Z</time>
      </trkpt>
      <trkpt lat="46.62782" lon="5.88616">
        <ele>788.7</ele>
        <time>2022-12-06T12:55:35Z</time>
      </trkpt>
      <trkpt lat="46.62786" lon="5.88621">
        <ele>788.5</ele>
        <time>2022-12-06T12:55:40Z</time>
      </trkpt>
      <trkpt lat="46.6279" lon="5.88625">
        <ele>788.7</ele>
        <time>2022-12-06T12:55:45Z</time>
      </trkpt>
      <trkpt lat="46.62794" lon="5.88627">
        <ele>789.4</ele>
        <time>2022-12-06T12:55:50Z</time>
      </trkpt>
      <trkpt lat="46.628" lon="5.8863">
        <ele>790.5</ele>
        <time>2022-12-06T12:55:55Z</time>
      </trkpt>
      <trkpt lat="46.62805" lon="5.88629">
        <ele>790.9</ele>
        <time>2022-12-06T12:55:59Z</time>
      </trkpt>
      <trkpt lat="46.62809" lon="5.88628">
        <ele>791.1</ele>
        <time>2022-12-06T12:56:04Z</time>
      </trkpt>
      <trkpt lat="46.62814" lon="5.88631">
        <ele>791.1</ele>
        <time>2022-12-06T12:56:10Z</time>
      </trkpt>
      <trkpt lat="46.62817" lon="5.88636">
        <ele>792</ele>
        <time>2022-12-06T12:56:16Z</time>
      </trkpt>
      <trkpt lat="46.62819" lon="5.88643">
        <ele>792.6</ele>
        <time>2022-12-06T12:56:21Z</time>
      </trkpt>
      <trkpt lat="46.62823" lon="5.88649">
        <ele>793</ele>
        <time>2022-12-06T12:56:26Z</time>
      </trkpt>
      <trkpt lat="46.62827" lon="5.88652">
        <ele>793.1</ele>
        <time>2022-12-06T12:56:31Z</time>
      </trkpt>
      <trkpt lat="46.62831" lon="5.88657">
        <ele>792.4</ele>
        <time>2022-12-06T12:56:37Z</time>
      </trkpt>
      <trkpt lat="46.62834" lon="5.88663">
        <ele>791.6</ele>
        <time>2022-12-06T12:56:43Z</time>
      </trkpt>
      <trkpt lat="46.62838" lon="5.88667">
        <ele>791.1</ele>
        <time>2022-12-06T12:56:47Z</time>
      </trkpt>
      <trkpt lat="46.6284" lon="5.88674">
        <ele>790.8</ele>
        <time>2022-12-06T12:56:52Z</time>
      </trkpt>
      <trkpt lat="46.62843" lon="5.8868">
        <ele>791.1</ele>
        <time>2022-12-06T12:56:58Z</time>
      </trkpt>
      <trkpt lat="46.62847" lon="5.88684">
        <ele>791.4</ele>
        <time>2022-12-06T12:57:04Z</time>
      </trkpt>
      <trkpt lat="46.62851" lon="5.88686">
        <ele>791.6</ele>
        <time>2022-12-06T12:57:10Z</time>
      </trkpt>
      <trkpt lat="46.62856" lon="5.88689">
        <ele>791.2</ele>
        <time>2022-12-06T12:57:18Z</time>
      </trkpt>
      <trkpt lat="46.62861" lon="5.88691">
        <ele>790.1</ele>
        <time>2022-12-06T12:57:25Z</time>
      </trkpt>
      <trkpt lat="46.62864" lon="5.88695">
        <ele>789.4</ele>
        <time>2022-12-06T12:57:30Z</time>
      </trkpt>
      <trkpt lat="46.62867" lon="5.887">
        <ele>789.2</ele>
        <time>2022-12-06T12:57:35Z</time>
      </trkpt>
      <trkpt lat="46.62872" lon="5.88703">
        <ele>788.9</ele>
        <time>2022-12-06T12:57:42Z</time>
      </trkpt>
      <trkpt lat="46.62876" lon="5.88706">
        <ele>788.8</ele>
        <time>2022-12-06T12:57:47Z</time>
      </trkpt>
      <trkpt lat="46.62881" lon="5.88709">
        <ele>788.7</ele>
        <time>2022-12-06T12:57:52Z</time>
      </trkpt>
      <trkpt lat="46.62885" lon="5.88714">
        <ele>788.6</ele>
        <time>2022-12-06T12:57:57Z</time>
      </trkpt>
      <trkpt lat="46.62887" lon="5.88719">
        <ele>788.8</ele>
        <time>2022-12-06T12:58:01Z</time>
      </trkpt>
      <trkpt lat="46.62892" lon="5.88723">
        <ele>789.1</ele>
        <time>2022-12-06T12:58:06Z</time>
      </trkpt>
      <trkpt lat="46.62896" lon="5.88726">
        <ele>789.2</ele>
        <time>2022-12-06T12:58:12Z</time>
      </trkpt>
      <trkpt lat="46.629" lon="5.8873">
        <ele>789.7</ele>
        <time>2022-12-06T12:58:17Z</time>
      </trkpt>
      <trkpt lat="46.62904" lon="5.88733">
        <ele>789.9</ele>
        <time>2022-12-06T12:58:21Z</time>
      </trkpt>
      <trkpt lat="46.62908" lon="5.88738">
        <ele>789.8</ele>
        <time>2022-12-06T12:58:28Z</time>
      </trkpt>
      <trkpt lat="46.62912" lon="5.88743">
        <ele>789.5</ele>
        <time>2022-12-06T12:58:33Z</time>
      </trkpt>
      <trkpt lat="46.62916" lon="5.88746">
        <ele>789.1</ele>
        <time>2022-12-06T12:58:40Z</time>
      </trkpt>
      <trkpt lat="46.6292" lon="5.8875">
        <ele>788.9</ele>
        <time>2022-12-06T12:58:45Z</time>
      </trkpt>
      <trkpt lat="46.62925" lon="5.88754">
        <ele>788.1</ele>
        <time>2022-12-06T12:58:50Z</time>
      </trkpt>
      <trkpt lat="46.62929" lon="5.88758">
        <ele>786.6</ele>
        <time>2022-12-06T12:58:55Z</time>
      </trkpt>
      <trkpt lat="46.62932" lon="5.88764">
        <ele>784.4</ele>
        <time>2022-12-06T12:59:01Z</time>
      </trkpt>
      <trkpt lat="46.62935" lon="5.88768">
        <ele>782.9</ele>
        <time>2022-12-06T12:59:06Z</time>
      </trkpt>
      <trkpt lat="46.6294" lon="5.88771">
        <ele>781.9</ele>
        <time>2022-12-06T12:59:11Z</time>
      </trkpt>
      <trkpt lat="46.62943" lon="5.88775">
        <ele>781.6</ele>
        <time>2022-12-06T12:59:16Z</time>
      </trkpt>
      <trkpt lat="46.62947" lon="5.8878">
        <ele>781.1</ele>
        <time>2022-12-06T12:59:22Z</time>
      </trkpt>
      <trkpt lat="46.62952" lon="5.88783">
        <ele>781</ele>
        <time>2022-12-06T12:59:28Z</time>
      </trkpt>
      <trkpt lat="46.62957" lon="5.88787">
        <ele>780.8</ele>
        <time>2022-12-06T12:59:34Z</time>
      </trkpt>
      <trkpt lat="46.62961" lon="5.88791">
        <ele>780.5</ele>
        <time>2022-12-06T12:59:39Z</time>
      </trkpt>
      <trkpt lat="46.62965" lon="5.88795">
        <ele>780.4</ele>
        <time>2022-12-06T12:59:44Z</time>
      </trkpt>
      <trkpt lat="46.62967" lon="5.88801">
        <ele>780.7</ele>
        <time>2022-12-06T12:59:50Z</time>
      </trkpt>
      <trkpt lat="46.62971" lon="5.88805">
        <ele>780.1</ele>
        <time>2022-12-06T12:59:56Z</time>
      </trkpt>
      <trkpt lat="46.62975" lon="5.88809">
        <ele>779</ele>
        <time>2022-12-06T13:00:01Z</time>
      </trkpt>
      <trkpt lat="46.6298" lon="5.88812">
        <ele>778.7</ele>
        <time>2022-12-06T13:00:05Z</time>
      </trkpt>
      <trkpt lat="46.62985" lon="5.88813">
        <ele>778.9</ele>
        <time>2022-12-06T13:00:09Z</time>
      </trkpt>
      <trkpt lat="46.62989" lon="5.88818">
        <ele>779.7</ele>
        <time>2022-12-06T13:00:14Z</time>
      </trkpt>
      <trkpt lat="46.62993" lon="5.88823">
        <ele>780.6</ele>
        <time>2022-12-06T13:00:19Z</time>
      </trkpt>
      <trkpt lat="46.62998" lon="5.88822">
        <ele>781.2</ele>
        <time>2022-12-06T13:00:25Z</time>
      </trkpt>
      <trkpt lat="46.63003" lon="5.88822">
        <ele>780.9</ele>
        <time>2022-12-06T13:00:33Z</time>
      </trkpt>
      <trkpt lat="46.63007" lon="5.88825">
        <ele>780.7</ele>
        <time>2022-12-06T13:00:38Z</time>
      </trkpt>
      <trkpt lat="46.63011" lon="5.8883">
        <ele>780.5</ele>
        <time>2022-12-06T13:00:43Z</time>
      </trkpt>
      <trkpt lat="46.63014" lon="5.88836">
        <ele>780.4</ele>
        <time>2022-12-06T13:00:48Z</time>
      </trkpt>
      <trkpt lat="46.63016" lon="5.88843">
        <ele>780.3</ele>
        <time>2022-12-06T13:00:54Z</time>
      </trkpt>
      <trkpt lat="46.63019" lon="5.88848">
        <ele>780.4</ele>
        <time>2022-12-06T13:00:58Z</time>
      </trkpt>
      <trkpt lat="46.63022" lon="5.88852">
        <ele>780.7</ele>
        <time>2022-12-06T13:01:03Z</time>
      </trkpt>
      <trkpt lat="46.63026" lon="5.88857">
        <ele>780.8</ele>
        <time>2022-12-06T13:01:08Z</time>
      </trkpt>
      <trkpt lat="46.63029" lon="5.88864">
        <ele>780.5</ele>
        <time>2022-12-06T13:01:12Z</time>
      </trkpt>
      <trkpt lat="46.63033" lon="5.88869">
        <ele>780.4</ele>
        <time>2022-12-06T13:01:16Z</time>
      </trkpt>
      <trkpt lat="46.63037" lon="5.88871">
        <ele>781.1</ele>
        <time>2022-12-06T13:01:21Z</time>
      </trkpt>
      <trkpt lat="46.63041" lon="5.88875">
        <ele>782.1</ele>
        <time>2022-12-06T13:01:26Z</time>
      </trkpt>
      <trkpt lat="46.63045" lon="5.8888">
        <ele>783.5</ele>
        <time>2022-12-06T13:01:31Z</time>
      </trkpt>
      <trkpt lat="46.63048" lon="5.88886">
        <ele>784.4</ele>
        <time>2022-12-06T13:01:35Z</time>
      </trkpt>
      <trkpt lat="46.6305" lon="5.88893">
        <ele>785.4</ele>
        <time>2022-12-06T13:01:40Z</time>
      </trkpt>
      <trkpt lat="46.63053" lon="5.88899">
        <ele>785.9</ele>
        <time>2022-12-06T13:01:46Z</time>
      </trkpt>
      <trkpt lat="46.63054" lon="5.88906">
        <ele>785</ele>
        <time>2022-12-06T13:01:53Z</time>
      </trkpt>
      <trkpt lat="46.63058" lon="5.88911">
        <ele>784</ele>
        <time>2022-12-06T13:01:58Z</time>
      </trkpt>
      <trkpt lat="46.6306" lon="5.88917">
        <ele>783.2</ele>
        <time>2022-12-06T13:02:02Z</time>
      </trkpt>
      <trkpt lat="46.63064" lon="5.88921">
        <ele>781.7</ele>
        <time>2022-12-06T13:02:07Z</time>
      </trkpt>
      <trkpt lat="46.63068" lon="5.88926">
        <ele>779.9</ele>
        <time>2022-12-06T13:02:14Z</time>
      </trkpt>
      <trkpt lat="46.63072" lon="5.88929">
        <ele>778.8</ele>
        <time>2022-12-06T13:02:19Z</time>
      </trkpt>
      <trkpt lat="46.63076" lon="5.88933">
        <ele>777.7</ele>
        <time>2022-12-06T13:02:24Z</time>
      </trkpt>
      <trkpt lat="46.6308" lon="5.88937">
        <ele>776.8</ele>
        <time>2022-12-06T13:02:29Z</time>
      </trkpt>
      <trkpt lat="46.63084" lon="5.88942">
        <ele>776.2</ele>
        <time>2022-12-06T13:02:34Z</time>
      </trkpt>
      <trkpt lat="46.63085" lon="5.88949">
        <ele>775</ele>
        <time>2022-12-06T13:02:39Z</time>
      </trkpt>
      <trkpt lat="46.63089" lon="5.88955">
        <ele>773.5</ele>
        <time>2022-12-06T13:02:45Z</time>
      </trkpt>
      <trkpt lat="46.63093" lon="5.88957">
        <ele>773.2</ele>
        <time>2022-12-06T13:02:49Z</time>
      </trkpt>
      <trkpt lat="46.63097" lon="5.88962">
        <ele>772.9</ele>
        <time>2022-12-06T13:02:54Z</time>
      </trkpt>
      <trkpt lat="46.631" lon="5.88967">
        <ele>772.8</ele>
        <time>2022-12-06T13:02:58Z</time>
      </trkpt>
      <trkpt lat="46.63104" lon="5.88971">
        <ele>772.6</ele>
        <time>2022-12-06T13:03:04Z</time>
      </trkpt>
      <trkpt lat="46.63108" lon="5.88974">
        <ele>772.4</ele>
        <time>2022-12-06T13:03:09Z</time>
      </trkpt>
      <trkpt lat="46.63112" lon="5.88978">
        <ele>772.4</ele>
        <time>2022-12-06T13:03:13Z</time>
      </trkpt>
      <trkpt lat="46.63116" lon="5.88983">
        <ele>772.6</ele>
        <time>2022-12-06T13:03:17Z</time>
      </trkpt>
      <trkpt lat="46.63119" lon="5.88988">
        <ele>773</ele>
        <time>2022-12-06T13:03:21Z</time>
      </trkpt>
      <trkpt lat="46.63122" lon="5.88994">
        <ele>773.5</ele>
        <time>2022-12-06T13:03:25Z</time>
      </trkpt>
      <trkpt lat="46.63124" lon="5.89">
        <ele>774</ele>
        <time>2022-12-06T13:03:29Z</time>
      </trkpt>
      <trkpt lat="46.63128" lon="5.89005">
        <ele>774</ele>
        <time>2022-12-06T13:03:33Z</time>
      </trkpt>
      <trkpt lat="46.63131" lon="5.89012">
        <ele>774</ele>
        <time>2022-12-06T13:03:38Z</time>
      </trkpt>
      <trkpt lat="46.63134" lon="5.89017">
        <ele>773.8</ele>
        <time>2022-12-06T13:03:42Z</time>
      </trkpt>
      <trkpt lat="46.63137" lon="5.89023">
        <ele>773.8</ele>
        <time>2022-12-06T13:03:47Z</time>
      </trkpt>
      <trkpt lat="46.63141" lon="5.89029">
        <ele>773.3</ele>
        <time>2022-12-06T13:03:52Z</time>
      </trkpt>
      <trkpt lat="46.63143" lon="5.89037">
        <ele>772.7</ele>
        <time>2022-12-06T13:03:57Z</time>
      </trkpt>
      <trkpt lat="46.63146" lon="5.89043">
        <ele>772.1</ele>
        <time>2022-12-06T13:04:02Z</time>
      </trkpt>
      <trkpt lat="46.63147" lon="5.89049">
        <ele>771.7</ele>
        <time>2022-12-06T13:04:08Z</time>
      </trkpt>
      <trkpt lat="46.6315" lon="5.89055">
        <ele>770.7</ele>
        <time>2022-12-06T13:04:13Z</time>
      </trkpt>
      <trkpt lat="46.63153" lon="5.89061">
        <ele>770</ele>
        <time>2022-12-06T13:04:18Z</time>
      </trkpt>
      <trkpt lat="46.63155" lon="5.89068">
        <ele>770</ele>
        <time>2022-12-06T13:04:23Z</time>
      </trkpt>
      <trkpt lat="46.63157" lon="5.89075">
        <ele>770.1</ele>
        <time>2022-12-06T13:04:28Z</time>
      </trkpt>
      <trkpt lat="46.63159" lon="5.89081">
        <ele>769.6</ele>
        <time>2022-12-06T13:04:34Z</time>
      </trkpt>
      <trkpt lat="46.63162" lon="5.89087">
        <ele>768.8</ele>
        <time>2022-12-06T13:04:39Z</time>
      </trkpt>
      <trkpt lat="46.63165" lon="5.89094">
        <ele>768</ele>
        <time>2022-12-06T13:04:44Z</time>
      </trkpt>
      <trkpt lat="46.63168" lon="5.891">
        <ele>767.3</ele>
        <time>2022-12-06T13:04:48Z</time>
      </trkpt>
      <trkpt lat="46.63171" lon="5.89105">
        <ele>766.4</ele>
        <time>2022-12-06T13:04:53Z</time>
      </trkpt>
      <trkpt lat="46.63175" lon="5.8911">
        <ele>765.7</ele>
        <time>2022-12-06T13:04:59Z</time>
      </trkpt>
      <trkpt lat="46.63178" lon="5.89115">
        <ele>765.8</ele>
        <time>2022-12-06T13:05:03Z</time>
      </trkpt>
      <trkpt lat="46.63181" lon="5.89121">
        <ele>766.2</ele>
        <time>2022-12-06T13:05:08Z</time>
      </trkpt>
      <trkpt lat="46.63184" lon="5.89127">
        <ele>766.3</ele>
        <time>2022-12-06T13:05:12Z</time>
      </trkpt>
      <trkpt lat="46.63188" lon="5.89132">
        <ele>766.1</ele>
        <time>2022-12-06T13:05:17Z</time>
      </trkpt>
      <trkpt lat="46.63192" lon="5.89138">
        <ele>765.1</ele>
        <time>2022-12-06T13:05:22Z</time>
      </trkpt>
      <trkpt lat="46.63197" lon="5.89142">
        <ele>764.6</ele>
        <time>2022-12-06T13:05:26Z</time>
      </trkpt>
      <trkpt lat="46.632" lon="5.89146">
        <ele>764.6</ele>
        <time>2022-12-06T13:05:30Z</time>
      </trkpt>
      <trkpt lat="46.63204" lon="5.8915">
        <ele>764.7</ele>
        <time>2022-12-06T13:05:35Z</time>
      </trkpt>
      <trkpt lat="46.63208" lon="5.89155">
        <ele>764.9</ele>
        <time>2022-12-06T13:05:39Z</time>
      </trkpt>
      <trkpt lat="46.63213" lon="5.89158">
        <ele>764.9</ele>
        <time>2022-12-06T13:05:43Z</time>
      </trkpt>
      <trkpt lat="46.63217" lon="5.8916">
        <ele>764.9</ele>
        <time>2022-12-06T13:05:48Z</time>
      </trkpt>
      <trkpt lat="46.63222" lon="5.89161">
        <ele>764.8</ele>
        <time>2022-12-06T13:05:53Z</time>
      </trkpt>
      <trkpt lat="46.63227" lon="5.89164">
        <ele>765.1</ele>
        <time>2022-12-06T13:05:57Z</time>
      </trkpt>
      <trkpt lat="46.63231" lon="5.89167">
        <ele>765.5</ele>
        <time>2022-12-06T13:06:01Z</time>
      </trkpt>
      <trkpt lat="46.63235" lon="5.89169">
        <ele>765.9</ele>
        <time>2022-12-06T13:06:05Z</time>
      </trkpt>
      <trkpt lat="46.6324" lon="5.89173">
        <ele>766</ele>
        <time>2022-12-06T13:06:10Z</time>
      </trkpt>
      <trkpt lat="46.63244" lon="5.89178">
        <ele>765.8</ele>
        <time>2022-12-06T13:06:15Z</time>
      </trkpt>
      <trkpt lat="46.63246" lon="5.89186">
        <ele>766.2</ele>
        <time>2022-12-06T13:06:20Z</time>
      </trkpt>
      <trkpt lat="46.63247" lon="5.89193">
        <ele>766.9</ele>
        <time>2022-12-06T13:06:24Z</time>
      </trkpt>
      <trkpt lat="46.63247" lon="5.892">
        <ele>767.5</ele>
        <time>2022-12-06T13:06:27Z</time>
      </trkpt>
      <trkpt lat="46.63247" lon="5.89207">
        <ele>768.8</ele>
        <time>2022-12-06T13:06:32Z</time>
      </trkpt>
      <trkpt lat="46.63248" lon="5.89216">
        <ele>769.7</ele>
        <time>2022-12-06T13:06:37Z</time>
      </trkpt>
      <trkpt lat="46.63248" lon="5.89223">
        <ele>770.1</ele>
        <time>2022-12-06T13:06:41Z</time>
      </trkpt>
      <trkpt lat="46.63249" lon="5.8923">
        <ele>770.4</ele>
        <time>2022-12-06T13:06:45Z</time>
      </trkpt>
      <trkpt lat="46.63251" lon="5.89237">
        <ele>770.4</ele>
        <time>2022-12-06T13:06:49Z</time>
      </trkpt>
      <trkpt lat="46.63253" lon="5.89243">
        <ele>770.5</ele>
        <time>2022-12-06T13:06:53Z</time>
      </trkpt>
      <trkpt lat="46.63255" lon="5.8925">
        <ele>770.6</ele>
        <time>2022-12-06T13:06:58Z</time>
      </trkpt>
      <trkpt lat="46.63258" lon="5.89256">
        <ele>770.2</ele>
        <time>2022-12-06T13:07:03Z</time>
      </trkpt>
      <trkpt lat="46.63261" lon="5.89261">
        <ele>769.2</ele>
        <time>2022-12-06T13:07:09Z</time>
      </trkpt>
      <trkpt lat="46.63265" lon="5.89267">
        <ele>768.4</ele>
        <time>2022-12-06T13:07:14Z</time>
      </trkpt>
      <trkpt lat="46.63269" lon="5.89272">
        <ele>768</ele>
        <time>2022-12-06T13:07:19Z</time>
      </trkpt>
      <trkpt lat="46.63273" lon="5.89278">
        <ele>768.2</ele>
        <time>2022-12-06T13:07:23Z</time>
      </trkpt>
      <trkpt lat="46.63277" lon="5.89282">
        <ele>768.5</ele>
        <time>2022-12-06T13:07:27Z</time>
      </trkpt>
      <trkpt lat="46.63281" lon="5.89286">
        <ele>768.3</ele>
        <time>2022-12-06T13:07:31Z</time>
      </trkpt>
      <trkpt lat="46.63285" lon="5.89291">
        <ele>768</ele>
        <time>2022-12-06T13:07:35Z</time>
      </trkpt>
      <trkpt lat="46.63289" lon="5.89295">
        <ele>767.3</ele>
        <time>2022-12-06T13:07:40Z</time>
      </trkpt>
      <trkpt lat="46.63294" lon="5.893">
        <ele>766.3</ele>
        <time>2022-12-06T13:07:45Z</time>
      </trkpt>
      <trkpt lat="46.63298" lon="5.89303">
        <ele>765.5</ele>
        <time>2022-12-06T13:07:49Z</time>
      </trkpt>
      <trkpt lat="46.63303" lon="5.89305">
        <ele>765.1</ele>
        <time>2022-12-06T13:07:53Z</time>
      </trkpt>
      <trkpt lat="46.63307" lon="5.89308">
        <ele>765</ele>
        <time>2022-12-06T13:07:57Z</time>
      </trkpt>
      <trkpt lat="46.63312" lon="5.8931">
        <ele>765.4</ele>
        <time>2022-12-06T13:08:01Z</time>
      </trkpt>
      <trkpt lat="46.63318" lon="5.8931">
        <ele>765.6</ele>
        <time>2022-12-06T13:08:06Z</time>
      </trkpt>
      <trkpt lat="46.63323" lon="5.8931">
        <ele>765.4</ele>
        <time>2022-12-06T13:08:11Z</time>
      </trkpt>
      <trkpt lat="46.63328" lon="5.89312">
        <ele>764.9</ele>
        <time>2022-12-06T13:08:16Z</time>
      </trkpt>
      <trkpt lat="46.63333" lon="5.89313">
        <ele>764.4</ele>
        <time>2022-12-06T13:08:21Z</time>
      </trkpt>
      <trkpt lat="46.63337" lon="5.89316">
        <ele>764.2</ele>
        <time>2022-12-06T13:08:25Z</time>
      </trkpt>
      <trkpt lat="46.6334" lon="5.89321">
        <ele>764.5</ele>
        <time>2022-12-06T13:08:29Z</time>
      </trkpt>
      <trkpt lat="46.63343" lon="5.89326">
        <ele>765</ele>
        <time>2022-12-06T13:08:33Z</time>
      </trkpt>
      <trkpt lat="46.63346" lon="5.89332">
        <ele>765.2</ele>
        <time>2022-12-06T13:08:37Z</time>
      </trkpt>
      <trkpt lat="46.63349" lon="5.89337">
        <ele>765.3</ele>
        <time>2022-12-06T13:08:41Z</time>
      </trkpt>
      <trkpt lat="46.63352" lon="5.89344">
        <ele>765.9</ele>
        <time>2022-12-06T13:08:45Z</time>
      </trkpt>
      <trkpt lat="46.63354" lon="5.89351">
        <ele>766.6</ele>
        <time>2022-12-06T13:08:50Z</time>
      </trkpt>
      <trkpt lat="46.63356" lon="5.89359">
        <ele>767.2</ele>
        <time>2022-12-06T13:08:54Z</time>
      </trkpt>
      <trkpt lat="46.63358" lon="5.89366">
        <ele>768.1</ele>
        <time>2022-12-06T13:08:58Z</time>
      </trkpt>
      <trkpt lat="46.63361" lon="5.89372">
        <ele>768.3</ele>
        <time>2022-12-06T13:09:02Z</time>
      </trkpt>
      <trkpt lat="46.63364" lon="5.89377">
        <ele>768.4</ele>
        <time>2022-12-06T13:09:08Z</time>
      </trkpt>
      <trkpt lat="46.63367" lon="5.89383">
        <ele>768</ele>
        <time>2022-12-06T13:09:13Z</time>
      </trkpt>
      <trkpt lat="46.63369" lon="5.8939">
        <ele>767.5</ele>
        <time>2022-12-06T13:09:18Z</time>
      </trkpt>
      <trkpt lat="46.63371" lon="5.89397">
        <ele>767.3</ele>
        <time>2022-12-06T13:09:22Z</time>
      </trkpt>
      <trkpt lat="46.63373" lon="5.89404">
        <ele>767</ele>
        <time>2022-12-06T13:09:27Z</time>
      </trkpt>
      <trkpt lat="46.63375" lon="5.89411">
        <ele>766.3</ele>
        <time>2022-12-06T13:09:32Z</time>
      </trkpt>
      <trkpt lat="46.63377" lon="5.89418">
        <ele>765.9</ele>
        <time>2022-12-06T13:09:36Z</time>
      </trkpt>
      <trkpt lat="46.6338" lon="5.89423">
        <ele>765.6</ele>
        <time>2022-12-06T13:09:40Z</time>
      </trkpt>
      <trkpt lat="46.63382" lon="5.89429">
        <ele>765.4</ele>
        <time>2022-12-06T13:09:44Z</time>
      </trkpt>
      <trkpt lat="46.63385" lon="5.89437">
        <ele>765.4</ele>
        <time>2022-12-06T13:09:48Z</time>
      </trkpt>
      <trkpt lat="46.63386" lon="5.89444">
        <ele>765.8</ele>
        <time>2022-12-06T13:09:52Z</time>
      </trkpt>
      <trkpt lat="46.63388" lon="5.89451">
        <ele>766</ele>
        <time>2022-12-06T13:09:56Z</time>
      </trkpt>
      <trkpt lat="46.6339" lon="5.89458">
        <ele>765.9</ele>
        <time>2022-12-06T13:10:01Z</time>
      </trkpt>
      <trkpt lat="46.63392" lon="5.89465">
        <ele>765.3</ele>
        <time>2022-12-06T13:10:07Z</time>
      </trkpt>
      <trkpt lat="46.63394" lon="5.89471">
        <ele>765.3</ele>
        <time>2022-12-06T13:10:11Z</time>
      </trkpt>
      <trkpt lat="46.63396" lon="5.89477">
        <ele>766</ele>
        <time>2022-12-06T13:10:15Z</time>
      </trkpt>
      <trkpt lat="46.63398" lon="5.89483">
        <ele>767.1</ele>
        <time>2022-12-06T13:10:20Z</time>
      </trkpt>
      <trkpt lat="46.63401" lon="5.8949">
        <ele>767.4</ele>
        <time>2022-12-06T13:10:24Z</time>
      </trkpt>
      <trkpt lat="46.63402" lon="5.89497">
        <ele>767.8</ele>
        <time>2022-12-06T13:10:27Z</time>
      </trkpt>
      <trkpt lat="46.63402" lon="5.89505">
        <ele>767.9</ele>
        <time>2022-12-06T13:10:31Z</time>
      </trkpt>
      <trkpt lat="46.63401" lon="5.89512">
        <ele>767.9</ele>
        <time>2022-12-06T13:10:36Z</time>
      </trkpt>
      <trkpt lat="46.63401" lon="5.8952">
        <ele>767.6</ele>
        <time>2022-12-06T13:10:41Z</time>
      </trkpt>
      <trkpt lat="46.63401" lon="5.89527">
        <ele>767.1</ele>
        <time>2022-12-06T13:10:46Z</time>
      </trkpt>
      <trkpt lat="46.63401" lon="5.89535">
        <ele>766.7</ele>
        <time>2022-12-06T13:10:51Z</time>
      </trkpt>
      <trkpt lat="46.634" lon="5.89542">
        <ele>766.4</ele>
        <time>2022-12-06T13:10:56Z</time>
      </trkpt>
      <trkpt lat="46.63398" lon="5.89549">
        <ele>765.9</ele>
        <time>2022-12-06T13:11:01Z</time>
      </trkpt>
      <trkpt lat="46.63397" lon="5.89556">
        <ele>765.4</ele>
        <time>2022-12-06T13:11:06Z</time>
      </trkpt>
      <trkpt lat="46.63396" lon="5.89564">
        <ele>764.9</ele>
        <time>2022-12-06T13:11:12Z</time>
      </trkpt>
      <trkpt lat="46.63395" lon="5.89571">
        <ele>764.7</ele>
        <time>2022-12-06T13:11:17Z</time>
      </trkpt>
      <trkpt lat="46.63392" lon="5.89577">
        <ele>764.1</ele>
        <time>2022-12-06T13:11:21Z</time>
      </trkpt>
      <trkpt lat="46.6339" lon="5.89584">
        <ele>763.3</ele>
        <time>2022-12-06T13:11:26Z</time>
      </trkpt>
      <trkpt lat="46.63391" lon="5.89591">
        <ele>762.6</ele>
        <time>2022-12-06T13:11:31Z</time>
      </trkpt>
      <trkpt lat="46.63391" lon="5.89599">
        <ele>763.1</ele>
        <time>2022-12-06T13:11:37Z</time>
      </trkpt>
      <trkpt lat="46.63392" lon="5.89606">
        <ele>764</ele>
        <time>2022-12-06T13:11:43Z</time>
      </trkpt>
      <trkpt lat="46.63394" lon="5.89613">
        <ele>764.7</ele>
        <time>2022-12-06T13:11:47Z</time>
      </trkpt>
      <trkpt lat="46.63396" lon="5.89619">
        <ele>765.2</ele>
        <time>2022-12-06T13:11:50Z</time>
      </trkpt>
      <trkpt lat="46.63398" lon="5.89626">
        <ele>766</ele>
        <time>2022-12-06T13:11:53Z</time>
      </trkpt>
      <trkpt lat="46.634" lon="5.89633">
        <ele>766.7</ele>
        <time>2022-12-06T13:11:56Z</time>
      </trkpt>
      <trkpt lat="46.63402" lon="5.89639">
        <ele>767.4</ele>
        <time>2022-12-06T13:11:59Z</time>
      </trkpt>
      <trkpt lat="46.63404" lon="5.89647">
        <ele>767.8</ele>
        <time>2022-12-06T13:12:03Z</time>
      </trkpt>
      <trkpt lat="46.63407" lon="5.89653">
        <ele>768.2</ele>
        <time>2022-12-06T13:12:07Z</time>
      </trkpt>
      <trkpt lat="46.63409" lon="5.8966">
        <ele>768.8</ele>
        <time>2022-12-06T13:12:12Z</time>
      </trkpt>
      <trkpt lat="46.63413" lon="5.89664">
        <ele>769.8</ele>
        <time>2022-12-06T13:12:17Z</time>
      </trkpt>
      <trkpt lat="46.63417" lon="5.89668">
        <ele>771.3</ele>
        <time>2022-12-06T13:12:21Z</time>
      </trkpt>
      <trkpt lat="46.63423" lon="5.89671">
        <ele>773.5</ele>
        <time>2022-12-06T13:12:25Z</time>
      </trkpt>
      <trkpt lat="46.63426" lon="5.89676">
        <ele>775.9</ele>
        <time>2022-12-06T13:12:29Z</time>
      </trkpt>
      <trkpt lat="46.63429" lon="5.89681">
        <ele>777.7</ele>
        <time>2022-12-06T13:12:33Z</time>
      </trkpt>
      <trkpt lat="46.63431" lon="5.89686">
        <ele>778.5</ele>
        <time>2022-12-06T13:12:37Z</time>
      </trkpt>
      <trkpt lat="46.63433" lon="5.89693">
        <ele>778.6</ele>
        <time>2022-12-06T13:12:40Z</time>
      </trkpt>
      <trkpt lat="46.63435" lon="5.897">
        <ele>778.3</ele>
        <time>2022-12-06T13:12:44Z</time>
      </trkpt>
      <trkpt lat="46.63438" lon="5.89707">
        <ele>778.2</ele>
        <time>2022-12-06T13:12:48Z</time>
      </trkpt>
      <trkpt lat="46.6344" lon="5.89713">
        <ele>778.2</ele>
        <time>2022-12-06T13:12:53Z</time>
      </trkpt>
      <trkpt lat="46.63445" lon="5.89713">
        <ele>777.3</ele>
        <time>2022-12-06T13:13:02Z</time>
      </trkpt>
      <trkpt lat="46.63447" lon="5.8972">
        <ele>776.6</ele>
        <time>2022-12-06T13:13:09Z</time>
      </trkpt>
      <trkpt lat="46.63451" lon="5.89719">
        <ele>776.2</ele>
        <time>2022-12-06T13:13:15Z</time>
      </trkpt>
      <trkpt lat="46.63456" lon="5.89718">
        <ele>775.5</ele>
        <time>2022-12-06T13:13:28Z</time>
      </trkpt>
      <trkpt lat="46.63452" lon="5.89715">
        <ele>773.5</ele>
        <time>2022-12-06T13:14:03Z</time>
      </trkpt>
      <trkpt lat="46.63454" lon="5.89709">
        <ele>774</ele>
        <time>2022-12-06T13:14:19Z</time>
      </trkpt>
      <trkpt lat="46.63455" lon="5.89715">
        <ele>770.8</ele>
        <time>2022-12-06T13:14:50Z</time>
      </trkpt>
      <trkpt lat="46.63451" lon="5.8971">
        <ele>765.6</ele>
        <time>2022-12-06T13:14:53Z</time>
      </trkpt>
      <trkpt lat="46.63456" lon="5.89708">
        <ele>761.2</ele>
        <time>2022-12-06T13:15:13Z</time>
      </trkpt>
      <trkpt lat="46.63459" lon="5.89713">
        <ele>772.5</ele>
        <time>2022-12-06T13:15:40Z</time>
      </trkpt>
      <trkpt lat="46.63455" lon="5.89714">
        <ele>774.9</ele>
        <time>2022-12-06T13:15:48Z</time>
      </trkpt>
      <trkpt lat="46.63458" lon="5.8971">
        <ele>775.5</ele>
        <time>2022-12-06T13:15:59Z</time>
      </trkpt>
      <trkpt lat="46.63455" lon="5.89714">
        <ele>779.1</ele>
        <time>2022-12-06T13:17:13Z</time>
      </trkpt>
    </trkseg>
  </trk>
</gpx>